<?xml version="1.0" encoding="UTF-8" standalone="no" ?>
<gpx xmlns="http://www.topografix.com/GPX/1/1" xmlns:xsi="http://www.w3.org/2001/XMLSchema-instance" xsi:schemaLocation="http://www.topografix.com/GPX/1/1 http://www.topografix.com/GPX/1/1/gpx.xsd" version="1.1" creator="VisuGPX - https://www.visugpx.com">
  <metadata>
    <name>Quinssaines Lamaids St Martinien</name>
    <desc><![CDATA[Parcours dans le bocage Boubonnais sur petit chemin pittoresque.
Passage technique dans petit chemin creux au KM 30 (en cote)]]></desc>
  </metadata>
  <wpt lat="46.32788" lon="2.50974">
    <ele>406</ele>
  </wpt>
  <wpt lat="46.32779" lon="2.51014">
    <ele>406</ele>
  </wpt>
  <trk>
    <name><![CDATA[Quinssaines Lamaids St Martinien_1]]></name>
    <trkseg>
      <trkpt lat="46.32788" lon="2.50974">
        <ele>406</ele>
        <time>2012-06-20T15:26:09Z</time>
      </trkpt>
      <trkpt lat="46.32781" lon="2.50982">
        <ele>406</ele>
        <time>2012-06-20T15:26:09Z</time>
      </trkpt>
      <trkpt lat="46.32775" lon="2.5097">
        <ele>407</ele>
        <time>2012-06-20T15:26:42Z</time>
      </trkpt>
      <trkpt lat="46.32765" lon="2.50977">
        <ele>407</ele>
        <time>2012-06-20T15:26:49Z</time>
      </trkpt>
      <trkpt lat="46.32756" lon="2.50981">
        <ele>407</ele>
        <time>2012-06-20T15:26:54Z</time>
      </trkpt>
      <trkpt lat="46.32754" lon="2.50996">
        <ele>408</ele>
        <time>2012-06-20T15:26:59Z</time>
      </trkpt>
      <trkpt lat="46.32755" lon="2.51011">
        <ele>408</ele>
        <time>2012-06-20T15:27:03Z</time>
      </trkpt>
      <trkpt lat="46.32756" lon="2.51026">
        <ele>407</ele>
        <time>2012-06-20T15:27:07Z</time>
      </trkpt>
      <trkpt lat="46.32756" lon="2.5104">
        <ele>406</ele>
        <time>2012-06-20T15:27:10Z</time>
      </trkpt>
      <trkpt lat="46.32759" lon="2.51025">
        <ele>407</ele>
        <time>2012-06-20T15:27:19Z</time>
      </trkpt>
      <trkpt lat="46.32767" lon="2.51018">
        <ele>407</ele>
        <time>2012-06-20T15:27:24Z</time>
      </trkpt>
      <trkpt lat="46.32778" lon="2.51022">
        <ele>406</ele>
        <time>2012-06-20T15:27:29Z</time>
      </trkpt>
      <trkpt lat="46.32787" lon="2.51021">
        <ele>406</ele>
        <time>2012-06-20T15:27:33Z</time>
      </trkpt>
      <trkpt lat="46.32796" lon="2.51026">
        <ele>405</ele>
        <time>2012-06-20T15:27:37Z</time>
      </trkpt>
      <trkpt lat="46.32805" lon="2.51033">
        <ele>405</ele>
        <time>2012-06-20T15:27:41Z</time>
      </trkpt>
      <trkpt lat="46.32813" lon="2.51041">
        <ele>405</ele>
        <time>2012-06-20T15:27:44Z</time>
      </trkpt>
      <trkpt lat="46.32823" lon="2.51051">
        <ele>405</ele>
        <time>2012-06-20T15:27:47Z</time>
      </trkpt>
      <trkpt lat="46.3283" lon="2.51062">
        <ele>404</ele>
        <time>2012-06-20T15:27:49Z</time>
      </trkpt>
      <trkpt lat="46.32835" lon="2.51074">
        <ele>402</ele>
        <time>2012-06-20T15:27:51Z</time>
      </trkpt>
      <trkpt lat="46.32836" lon="2.51088">
        <ele>402</ele>
        <time>2012-06-20T15:27:53Z</time>
      </trkpt>
      <trkpt lat="46.32833" lon="2.51104">
        <ele>403</ele>
        <time>2012-06-20T15:27:55Z</time>
      </trkpt>
      <trkpt lat="46.32826" lon="2.51115">
        <ele>402</ele>
        <time>2012-06-20T15:27:57Z</time>
      </trkpt>
      <trkpt lat="46.3282" lon="2.51125">
        <ele>402</ele>
        <time>2012-06-20T15:27:59Z</time>
      </trkpt>
      <trkpt lat="46.3281" lon="2.51134">
        <ele>402</ele>
        <time>2012-06-20T15:28:02Z</time>
      </trkpt>
      <trkpt lat="46.32802" lon="2.51141">
        <ele>402</ele>
        <time>2012-06-20T15:28:04Z</time>
      </trkpt>
      <trkpt lat="46.32793" lon="2.51147">
        <ele>402</ele>
        <time>2012-06-20T15:28:06Z</time>
      </trkpt>
      <trkpt lat="46.32782" lon="2.51152">
        <ele>402</ele>
        <time>2012-06-20T15:28:09Z</time>
      </trkpt>
      <trkpt lat="46.32773" lon="2.51157">
        <ele>402</ele>
        <time>2012-06-20T15:28:11Z</time>
      </trkpt>
      <trkpt lat="46.32764" lon="2.51163">
        <ele>402</ele>
        <time>2012-06-20T15:28:13Z</time>
      </trkpt>
      <trkpt lat="46.32756" lon="2.51171">
        <ele>400</ele>
        <time>2012-06-20T15:28:15Z</time>
      </trkpt>
      <trkpt lat="46.32745" lon="2.5118">
        <ele>399</ele>
        <time>2012-06-20T15:28:17Z</time>
      </trkpt>
      <trkpt lat="46.32732" lon="2.51192">
        <ele>398</ele>
        <time>2012-06-20T15:28:19Z</time>
      </trkpt>
      <trkpt lat="46.32719" lon="2.51204">
        <ele>397</ele>
        <time>2012-06-20T15:28:21Z</time>
      </trkpt>
      <trkpt lat="46.32703" lon="2.51214">
        <ele>397</ele>
        <time>2012-06-20T15:28:23Z</time>
      </trkpt>
      <trkpt lat="46.32685" lon="2.51218">
        <ele>396</ele>
        <time>2012-06-20T15:28:25Z</time>
      </trkpt>
      <trkpt lat="46.32667" lon="2.51218">
        <ele>394</ele>
        <time>2012-06-20T15:28:27Z</time>
      </trkpt>
      <trkpt lat="46.32652" lon="2.5122">
        <ele>394</ele>
        <time>2012-06-20T15:28:29Z</time>
      </trkpt>
      <trkpt lat="46.32643" lon="2.5122">
        <ele>394</ele>
        <time>2012-06-20T15:28:32Z</time>
      </trkpt>
      <trkpt lat="46.32632" lon="2.51221">
        <ele>393</ele>
        <time>2012-06-20T15:28:38Z</time>
      </trkpt>
      <trkpt lat="46.32623" lon="2.51225">
        <ele>393</ele>
        <time>2012-06-20T15:28:41Z</time>
      </trkpt>
      <trkpt lat="46.32612" lon="2.51225">
        <ele>393</ele>
        <time>2012-06-20T15:28:44Z</time>
      </trkpt>
      <trkpt lat="46.32601" lon="2.51227">
        <ele>393</ele>
        <time>2012-06-20T15:28:47Z</time>
      </trkpt>
      <trkpt lat="46.32589" lon="2.51228">
        <ele>393</ele>
        <time>2012-06-20T15:28:50Z</time>
      </trkpt>
      <trkpt lat="46.32577" lon="2.51232">
        <ele>392</ele>
        <time>2012-06-20T15:28:53Z</time>
      </trkpt>
      <trkpt lat="46.32564" lon="2.51235">
        <ele>391</ele>
        <time>2012-06-20T15:28:56Z</time>
      </trkpt>
      <trkpt lat="46.32553" lon="2.51238">
        <ele>391</ele>
        <time>2012-06-20T15:28:58Z</time>
      </trkpt>
      <trkpt lat="46.32543" lon="2.5124">
        <ele>391</ele>
        <time>2012-06-20T15:29:00Z</time>
      </trkpt>
      <trkpt lat="46.32533" lon="2.51243">
        <ele>390</ele>
        <time>2012-06-20T15:29:02Z</time>
      </trkpt>
      <trkpt lat="46.32523" lon="2.51244">
        <ele>390</ele>
        <time>2012-06-20T15:29:04Z</time>
      </trkpt>
      <trkpt lat="46.32513" lon="2.51247">
        <ele>390</ele>
        <time>2012-06-20T15:29:06Z</time>
      </trkpt>
      <trkpt lat="46.32503" lon="2.51251">
        <ele>390</ele>
        <time>2012-06-20T15:29:08Z</time>
      </trkpt>
      <trkpt lat="46.32493" lon="2.51255">
        <ele>390</ele>
        <time>2012-06-20T15:29:10Z</time>
      </trkpt>
      <trkpt lat="46.32485" lon="2.5126">
        <ele>389</ele>
        <time>2012-06-20T15:29:12Z</time>
      </trkpt>
      <trkpt lat="46.32477" lon="2.51267">
        <ele>389</ele>
        <time>2012-06-20T15:29:14Z</time>
      </trkpt>
      <trkpt lat="46.32469" lon="2.51277">
        <ele>389</ele>
        <time>2012-06-20T15:29:16Z</time>
      </trkpt>
      <trkpt lat="46.3246" lon="2.51287">
        <ele>389</ele>
        <time>2012-06-20T15:29:18Z</time>
      </trkpt>
      <trkpt lat="46.32452" lon="2.51297">
        <ele>389</ele>
        <time>2012-06-20T15:29:20Z</time>
      </trkpt>
      <trkpt lat="46.32442" lon="2.51306">
        <ele>388</ele>
        <time>2012-06-20T15:29:22Z</time>
      </trkpt>
      <trkpt lat="46.32433" lon="2.51316">
        <ele>388</ele>
        <time>2012-06-20T15:29:24Z</time>
      </trkpt>
      <trkpt lat="46.32423" lon="2.51326">
        <ele>388</ele>
        <time>2012-06-20T15:29:26Z</time>
      </trkpt>
      <trkpt lat="46.32411" lon="2.51335">
        <ele>387</ele>
        <time>2012-06-20T15:29:28Z</time>
      </trkpt>
      <trkpt lat="46.32399" lon="2.51342">
        <ele>386</ele>
        <time>2012-06-20T15:29:30Z</time>
      </trkpt>
      <trkpt lat="46.32386" lon="2.51349">
        <ele>386</ele>
        <time>2012-06-20T15:29:32Z</time>
      </trkpt>
      <trkpt lat="46.32373" lon="2.51354">
        <ele>386</ele>
        <time>2012-06-20T15:29:34Z</time>
      </trkpt>
      <trkpt lat="46.32361" lon="2.51359">
        <ele>386</ele>
        <time>2012-06-20T15:29:36Z</time>
      </trkpt>
      <trkpt lat="46.3235" lon="2.51363">
        <ele>385</ele>
        <time>2012-06-20T15:29:38Z</time>
      </trkpt>
      <trkpt lat="46.32338" lon="2.51367">
        <ele>385</ele>
        <time>2012-06-20T15:29:41Z</time>
      </trkpt>
      <trkpt lat="46.32327" lon="2.51369">
        <ele>384</ele>
        <time>2012-06-20T15:29:44Z</time>
      </trkpt>
      <trkpt lat="46.32314" lon="2.51371">
        <ele>384</ele>
        <time>2012-06-20T15:29:47Z</time>
      </trkpt>
      <trkpt lat="46.32301" lon="2.51369">
        <ele>384</ele>
        <time>2012-06-20T15:29:50Z</time>
      </trkpt>
      <trkpt lat="46.32289" lon="2.51366">
        <ele>384</ele>
        <time>2012-06-20T15:29:52Z</time>
      </trkpt>
      <trkpt lat="46.32277" lon="2.51361">
        <ele>384</ele>
        <time>2012-06-20T15:29:54Z</time>
      </trkpt>
      <trkpt lat="46.32264" lon="2.51355">
        <ele>384</ele>
        <time>2012-06-20T15:29:56Z</time>
      </trkpt>
      <trkpt lat="46.32251" lon="2.51347">
        <ele>384</ele>
        <time>2012-06-20T15:29:58Z</time>
      </trkpt>
      <trkpt lat="46.32237" lon="2.51334">
        <ele>382</ele>
        <time>2012-06-20T15:30:00Z</time>
      </trkpt>
      <trkpt lat="46.32223" lon="2.51319">
        <ele>381</ele>
        <time>2012-06-20T15:30:02Z</time>
      </trkpt>
      <trkpt lat="46.32212" lon="2.51301">
        <ele>380</ele>
        <time>2012-06-20T15:30:04Z</time>
      </trkpt>
      <trkpt lat="46.32205" lon="2.5129">
        <ele>380</ele>
        <time>2012-06-20T15:30:05Z</time>
      </trkpt>
      <trkpt lat="46.322" lon="2.51279">
        <ele>379</ele>
        <time>2012-06-20T15:30:06Z</time>
      </trkpt>
      <trkpt lat="46.32194" lon="2.51268">
        <ele>379</ele>
        <time>2012-06-20T15:30:07Z</time>
      </trkpt>
      <trkpt lat="46.32187" lon="2.51257">
        <ele>378</ele>
        <time>2012-06-20T15:30:08Z</time>
      </trkpt>
      <trkpt lat="46.32181" lon="2.51245">
        <ele>377</ele>
        <time>2012-06-20T15:30:09Z</time>
      </trkpt>
      <trkpt lat="46.32174" lon="2.51235">
        <ele>377</ele>
        <time>2012-06-20T15:30:10Z</time>
      </trkpt>
      <trkpt lat="46.32167" lon="2.51225">
        <ele>377</ele>
        <time>2012-06-20T15:30:11Z</time>
      </trkpt>
      <trkpt lat="46.3216" lon="2.51215">
        <ele>371</ele>
        <time>2012-06-20T15:30:12Z</time>
      </trkpt>
      <trkpt lat="46.32152" lon="2.51206">
        <ele>371</ele>
        <time>2012-06-20T15:30:13Z</time>
      </trkpt>
      <trkpt lat="46.32144" lon="2.51198">
        <ele>370</ele>
        <time>2012-06-20T15:30:14Z</time>
      </trkpt>
      <trkpt lat="46.32134" lon="2.51192">
        <ele>370</ele>
        <time>2012-06-20T15:30:15Z</time>
      </trkpt>
      <trkpt lat="46.32124" lon="2.51186">
        <ele>369</ele>
        <time>2012-06-20T15:30:16Z</time>
      </trkpt>
      <trkpt lat="46.32114" lon="2.51182">
        <ele>369</ele>
        <time>2012-06-20T15:30:17Z</time>
      </trkpt>
      <trkpt lat="46.32103" lon="2.51178">
        <ele>368</ele>
        <time>2012-06-20T15:30:18Z</time>
      </trkpt>
      <trkpt lat="46.32092" lon="2.51175">
        <ele>367</ele>
        <time>2012-06-20T15:30:19Z</time>
      </trkpt>
      <trkpt lat="46.32081" lon="2.51175">
        <ele>366</ele>
        <time>2012-06-20T15:30:20Z</time>
      </trkpt>
      <trkpt lat="46.3207" lon="2.51175">
        <ele>366</ele>
        <time>2012-06-20T15:30:21Z</time>
      </trkpt>
      <trkpt lat="46.32058" lon="2.51177">
        <ele>366</ele>
        <time>2012-06-20T15:30:22Z</time>
      </trkpt>
      <trkpt lat="46.32047" lon="2.5118">
        <ele>366</ele>
        <time>2012-06-20T15:30:23Z</time>
      </trkpt>
      <trkpt lat="46.32037" lon="2.51182">
        <ele>366</ele>
        <time>2012-06-20T15:30:24Z</time>
      </trkpt>
      <trkpt lat="46.32025" lon="2.51185">
        <ele>366</ele>
        <time>2012-06-20T15:30:25Z</time>
      </trkpt>
      <trkpt lat="46.32014" lon="2.51189">
        <ele>366</ele>
        <time>2012-06-20T15:30:26Z</time>
      </trkpt>
      <trkpt lat="46.32003" lon="2.51191">
        <ele>366</ele>
        <time>2012-06-20T15:30:27Z</time>
      </trkpt>
      <trkpt lat="46.31991" lon="2.51195">
        <ele>365</ele>
        <time>2012-06-20T15:30:28Z</time>
      </trkpt>
      <trkpt lat="46.3198" lon="2.51199">
        <ele>364</ele>
        <time>2012-06-20T15:30:29Z</time>
      </trkpt>
      <trkpt lat="46.31956" lon="2.51207">
        <ele>364</ele>
        <time>2012-06-20T15:30:31Z</time>
      </trkpt>
      <trkpt lat="46.31945" lon="2.5121">
        <ele>363</ele>
        <time>2012-06-20T15:30:32Z</time>
      </trkpt>
      <trkpt lat="46.31933" lon="2.51214">
        <ele>363</ele>
        <time>2012-06-20T15:30:33Z</time>
      </trkpt>
      <trkpt lat="46.31922" lon="2.51218">
        <ele>363</ele>
        <time>2012-06-20T15:30:34Z</time>
      </trkpt>
      <trkpt lat="46.31911" lon="2.51218">
        <ele>361</ele>
        <time>2012-06-20T15:30:35Z</time>
      </trkpt>
      <trkpt lat="46.319" lon="2.5122">
        <ele>361</ele>
        <time>2012-06-20T15:30:36Z</time>
      </trkpt>
      <trkpt lat="46.31889" lon="2.51222">
        <ele>361</ele>
        <time>2012-06-20T15:30:37Z</time>
      </trkpt>
      <trkpt lat="46.31879" lon="2.51224">
        <ele>361</ele>
        <time>2012-06-20T15:30:38Z</time>
      </trkpt>
      <trkpt lat="46.31869" lon="2.51226">
        <ele>360</ele>
        <time>2012-06-20T15:30:39Z</time>
      </trkpt>
      <trkpt lat="46.31859" lon="2.51227">
        <ele>360</ele>
        <time>2012-06-20T15:30:40Z</time>
      </trkpt>
      <trkpt lat="46.31849" lon="2.51229">
        <ele>360</ele>
        <time>2012-06-20T15:30:41Z</time>
      </trkpt>
      <trkpt lat="46.31839" lon="2.5123">
        <ele>359</ele>
        <time>2012-06-20T15:30:42Z</time>
      </trkpt>
      <trkpt lat="46.31829" lon="2.5123">
        <ele>359</ele>
        <time>2012-06-20T15:30:43Z</time>
      </trkpt>
      <trkpt lat="46.3182" lon="2.51229">
        <ele>359</ele>
        <time>2012-06-20T15:30:44Z</time>
      </trkpt>
      <trkpt lat="46.31803" lon="2.51225">
        <ele>359</ele>
        <time>2012-06-20T15:30:46Z</time>
      </trkpt>
      <trkpt lat="46.31786" lon="2.51219">
        <ele>359</ele>
        <time>2012-06-20T15:30:48Z</time>
      </trkpt>
      <trkpt lat="46.3177" lon="2.51213">
        <ele>359</ele>
        <time>2012-06-20T15:30:50Z</time>
      </trkpt>
      <trkpt lat="46.31757" lon="2.512">
        <ele>360</ele>
        <time>2012-06-20T15:30:52Z</time>
      </trkpt>
      <trkpt lat="46.31745" lon="2.5119">
        <ele>360</ele>
        <time>2012-06-20T15:30:54Z</time>
      </trkpt>
      <trkpt lat="46.31733" lon="2.51177">
        <ele>360</ele>
        <time>2012-06-20T15:30:56Z</time>
      </trkpt>
      <trkpt lat="46.31722" lon="2.51166">
        <ele>362</ele>
        <time>2012-06-20T15:30:58Z</time>
      </trkpt>
      <trkpt lat="46.31711" lon="2.51156">
        <ele>363</ele>
        <time>2012-06-20T15:31:00Z</time>
      </trkpt>
      <trkpt lat="46.31701" lon="2.51146">
        <ele>363</ele>
        <time>2012-06-20T15:31:02Z</time>
      </trkpt>
      <trkpt lat="46.31692" lon="2.51137">
        <ele>363</ele>
        <time>2012-06-20T15:31:04Z</time>
      </trkpt>
      <trkpt lat="46.31683" lon="2.51128">
        <ele>363</ele>
        <time>2012-06-20T15:31:06Z</time>
      </trkpt>
      <trkpt lat="46.31674" lon="2.5112">
        <ele>363</ele>
        <time>2012-06-20T15:31:08Z</time>
      </trkpt>
      <trkpt lat="46.31666" lon="2.51111">
        <ele>363</ele>
        <time>2012-06-20T15:31:10Z</time>
      </trkpt>
      <trkpt lat="46.31658" lon="2.51103">
        <ele>364</ele>
        <time>2012-06-20T15:31:12Z</time>
      </trkpt>
      <trkpt lat="46.31651" lon="2.51093">
        <ele>364</ele>
        <time>2012-06-20T15:31:14Z</time>
      </trkpt>
      <trkpt lat="46.31644" lon="2.51082">
        <ele>365</ele>
        <time>2012-06-20T15:31:16Z</time>
      </trkpt>
      <trkpt lat="46.31637" lon="2.5107">
        <ele>365</ele>
        <time>2012-06-20T15:31:18Z</time>
      </trkpt>
      <trkpt lat="46.31631" lon="2.5106">
        <ele>365</ele>
        <time>2012-06-20T15:31:20Z</time>
      </trkpt>
      <trkpt lat="46.31625" lon="2.51049">
        <ele>365</ele>
        <time>2012-06-20T15:31:22Z</time>
      </trkpt>
      <trkpt lat="46.31618" lon="2.51037">
        <ele>365</ele>
        <time>2012-06-20T15:31:24Z</time>
      </trkpt>
      <trkpt lat="46.31612" lon="2.51025">
        <ele>365</ele>
        <time>2012-06-20T15:31:26Z</time>
      </trkpt>
      <trkpt lat="46.31605" lon="2.51014">
        <ele>365</ele>
        <time>2012-06-20T15:31:28Z</time>
      </trkpt>
      <trkpt lat="46.31597" lon="2.51">
        <ele>365</ele>
        <time>2012-06-20T15:31:31Z</time>
      </trkpt>
      <trkpt lat="46.31589" lon="2.50986">
        <ele>366</ele>
        <time>2012-06-20T15:31:34Z</time>
      </trkpt>
      <trkpt lat="46.31581" lon="2.5097">
        <ele>365</ele>
        <time>2012-06-20T15:31:37Z</time>
      </trkpt>
      <trkpt lat="46.31575" lon="2.50958">
        <ele>365</ele>
        <time>2012-06-20T15:31:39Z</time>
      </trkpt>
      <trkpt lat="46.31569" lon="2.50947">
        <ele>365</ele>
        <time>2012-06-20T15:31:41Z</time>
      </trkpt>
      <trkpt lat="46.31563" lon="2.50935">
        <ele>365</ele>
        <time>2012-06-20T15:31:43Z</time>
      </trkpt>
      <trkpt lat="46.31556" lon="2.50925">
        <ele>365</ele>
        <time>2012-06-20T15:31:45Z</time>
      </trkpt>
      <trkpt lat="46.31549" lon="2.50913">
        <ele>366</ele>
        <time>2012-06-20T15:31:47Z</time>
      </trkpt>
      <trkpt lat="46.31542" lon="2.50902">
        <ele>366</ele>
        <time>2012-06-20T15:31:49Z</time>
      </trkpt>
      <trkpt lat="46.31536" lon="2.5089">
        <ele>366</ele>
        <time>2012-06-20T15:31:51Z</time>
      </trkpt>
      <trkpt lat="46.31531" lon="2.50877">
        <ele>366</ele>
        <time>2012-06-20T15:31:53Z</time>
      </trkpt>
      <trkpt lat="46.31526" lon="2.50864">
        <ele>366</ele>
        <time>2012-06-20T15:31:55Z</time>
      </trkpt>
      <trkpt lat="46.31521" lon="2.50852">
        <ele>366</ele>
        <time>2012-06-20T15:31:57Z</time>
      </trkpt>
      <trkpt lat="46.31517" lon="2.50833">
        <ele>367</ele>
        <time>2012-06-20T15:32:00Z</time>
      </trkpt>
      <trkpt lat="46.31514" lon="2.5082">
        <ele>367</ele>
        <time>2012-06-20T15:32:02Z</time>
      </trkpt>
      <trkpt lat="46.31512" lon="2.50808">
        <ele>368</ele>
        <time>2012-06-20T15:32:04Z</time>
      </trkpt>
      <trkpt lat="46.31509" lon="2.50794">
        <ele>368</ele>
        <time>2012-06-20T15:32:06Z</time>
      </trkpt>
      <trkpt lat="46.31506" lon="2.50782">
        <ele>368</ele>
        <time>2012-06-20T15:32:08Z</time>
      </trkpt>
      <trkpt lat="46.31503" lon="2.50769">
        <ele>368</ele>
        <time>2012-06-20T15:32:10Z</time>
      </trkpt>
      <trkpt lat="46.31498" lon="2.50756">
        <ele>366</ele>
        <time>2012-06-20T15:32:12Z</time>
      </trkpt>
      <trkpt lat="46.31494" lon="2.50742">
        <ele>366</ele>
        <time>2012-06-20T15:32:14Z</time>
      </trkpt>
      <trkpt lat="46.3149" lon="2.50728">
        <ele>365</ele>
        <time>2012-06-20T15:32:16Z</time>
      </trkpt>
      <trkpt lat="46.31486" lon="2.50714">
        <ele>365</ele>
        <time>2012-06-20T15:32:18Z</time>
      </trkpt>
      <trkpt lat="46.31481" lon="2.50699">
        <ele>365</ele>
        <time>2012-06-20T15:32:20Z</time>
      </trkpt>
      <trkpt lat="46.31477" lon="2.50682">
        <ele>365</ele>
        <time>2012-06-20T15:32:22Z</time>
      </trkpt>
      <trkpt lat="46.31473" lon="2.50664">
        <ele>365</ele>
        <time>2012-06-20T15:32:24Z</time>
      </trkpt>
      <trkpt lat="46.3147" lon="2.50648">
        <ele>365</ele>
        <time>2012-06-20T15:32:26Z</time>
      </trkpt>
      <trkpt lat="46.31468" lon="2.50633">
        <ele>364</ele>
        <time>2012-06-20T15:32:28Z</time>
      </trkpt>
      <trkpt lat="46.31467" lon="2.50617">
        <ele>364</ele>
        <time>2012-06-20T15:32:30Z</time>
      </trkpt>
      <trkpt lat="46.31466" lon="2.506">
        <ele>364</ele>
        <time>2012-06-20T15:32:32Z</time>
      </trkpt>
      <trkpt lat="46.31466" lon="2.50582">
        <ele>363</ele>
        <time>2012-06-20T15:32:34Z</time>
      </trkpt>
      <trkpt lat="46.31465" lon="2.50559">
        <ele>362</ele>
        <time>2012-06-20T15:32:36Z</time>
      </trkpt>
      <trkpt lat="46.3146" lon="2.50535">
        <ele>362</ele>
        <time>2012-06-20T15:32:38Z</time>
      </trkpt>
      <trkpt lat="46.31453" lon="2.50511">
        <ele>361</ele>
        <time>2012-06-20T15:32:40Z</time>
      </trkpt>
      <trkpt lat="46.31445" lon="2.50491">
        <ele>360</ele>
        <time>2012-06-20T15:32:42Z</time>
      </trkpt>
      <trkpt lat="46.31438" lon="2.5047">
        <ele>360</ele>
        <time>2012-06-20T15:32:44Z</time>
      </trkpt>
      <trkpt lat="46.31433" lon="2.50452">
        <ele>360</ele>
        <time>2012-06-20T15:32:46Z</time>
      </trkpt>
      <trkpt lat="46.31429" lon="2.50436">
        <ele>360</ele>
        <time>2012-06-20T15:32:48Z</time>
      </trkpt>
      <trkpt lat="46.31424" lon="2.50422">
        <ele>359</ele>
        <time>2012-06-20T15:32:50Z</time>
      </trkpt>
      <trkpt lat="46.31416" lon="2.50407">
        <ele>359</ele>
        <time>2012-06-20T15:32:53Z</time>
      </trkpt>
      <trkpt lat="46.31408" lon="2.50397">
        <ele>360</ele>
        <time>2012-06-20T15:32:56Z</time>
      </trkpt>
      <trkpt lat="46.31399" lon="2.50387">
        <ele>360</ele>
        <time>2012-06-20T15:33:00Z</time>
      </trkpt>
      <trkpt lat="46.31391" lon="2.50378">
        <ele>360</ele>
        <time>2012-06-20T15:33:03Z</time>
      </trkpt>
      <trkpt lat="46.31383" lon="2.50367">
        <ele>360</ele>
        <time>2012-06-20T15:33:06Z</time>
      </trkpt>
      <trkpt lat="46.31374" lon="2.5036">
        <ele>360</ele>
        <time>2012-06-20T15:33:09Z</time>
      </trkpt>
      <trkpt lat="46.31365" lon="2.50352">
        <ele>361</ele>
        <time>2012-06-20T15:33:12Z</time>
      </trkpt>
      <trkpt lat="46.31357" lon="2.50345">
        <ele>361</ele>
        <time>2012-06-20T15:33:15Z</time>
      </trkpt>
      <trkpt lat="46.31347" lon="2.50337">
        <ele>361</ele>
        <time>2012-06-20T15:33:19Z</time>
      </trkpt>
      <trkpt lat="46.31339" lon="2.5033">
        <ele>363</ele>
        <time>2012-06-20T15:33:22Z</time>
      </trkpt>
      <trkpt lat="46.3133" lon="2.50325">
        <ele>362</ele>
        <time>2012-06-20T15:33:25Z</time>
      </trkpt>
      <trkpt lat="46.3132" lon="2.5032">
        <ele>362</ele>
        <time>2012-06-20T15:33:28Z</time>
      </trkpt>
      <trkpt lat="46.31311" lon="2.50314">
        <ele>362</ele>
        <time>2012-06-20T15:33:31Z</time>
      </trkpt>
      <trkpt lat="46.31303" lon="2.50307">
        <ele>362</ele>
        <time>2012-06-20T15:33:34Z</time>
      </trkpt>
      <trkpt lat="46.31293" lon="2.50299">
        <ele>362</ele>
        <time>2012-06-20T15:33:38Z</time>
      </trkpt>
      <trkpt lat="46.31284" lon="2.50289">
        <ele>362</ele>
        <time>2012-06-20T15:33:42Z</time>
      </trkpt>
      <trkpt lat="46.31275" lon="2.50281">
        <ele>362</ele>
        <time>2012-06-20T15:33:46Z</time>
      </trkpt>
      <trkpt lat="46.31266" lon="2.50273">
        <ele>363</ele>
        <time>2012-06-20T15:33:50Z</time>
      </trkpt>
      <trkpt lat="46.31257" lon="2.50263">
        <ele>363</ele>
        <time>2012-06-20T15:33:54Z</time>
      </trkpt>
      <trkpt lat="46.31249" lon="2.50253">
        <ele>363</ele>
        <time>2012-06-20T15:33:58Z</time>
      </trkpt>
      <trkpt lat="46.31242" lon="2.50242">
        <ele>364</ele>
        <time>2012-06-20T15:34:02Z</time>
      </trkpt>
      <trkpt lat="46.31234" lon="2.50233">
        <ele>365</ele>
        <time>2012-06-20T15:34:06Z</time>
      </trkpt>
      <trkpt lat="46.31226" lon="2.50222">
        <ele>365</ele>
        <time>2012-06-20T15:34:10Z</time>
      </trkpt>
      <trkpt lat="46.31218" lon="2.50212">
        <ele>365</ele>
        <time>2012-06-20T15:34:14Z</time>
      </trkpt>
      <trkpt lat="46.31209" lon="2.50202">
        <ele>365</ele>
        <time>2012-06-20T15:34:18Z</time>
      </trkpt>
      <trkpt lat="46.31203" lon="2.50193">
        <ele>365</ele>
        <time>2012-06-20T15:34:21Z</time>
      </trkpt>
      <trkpt lat="46.31196" lon="2.50184">
        <ele>365</ele>
        <time>2012-06-20T15:34:24Z</time>
      </trkpt>
      <trkpt lat="46.31186" lon="2.50173">
        <ele>365</ele>
        <time>2012-06-20T15:34:28Z</time>
      </trkpt>
      <trkpt lat="46.31178" lon="2.50162">
        <ele>366</ele>
        <time>2012-06-20T15:34:32Z</time>
      </trkpt>
      <trkpt lat="46.31171" lon="2.5015">
        <ele>367</ele>
        <time>2012-06-20T15:34:36Z</time>
      </trkpt>
      <trkpt lat="46.31163" lon="2.50139">
        <ele>363</ele>
        <time>2012-06-20T15:34:40Z</time>
      </trkpt>
      <trkpt lat="46.31158" lon="2.50127">
        <ele>363</ele>
        <time>2012-06-20T15:34:43Z</time>
      </trkpt>
      <trkpt lat="46.31152" lon="2.50112">
        <ele>364</ele>
        <time>2012-06-20T15:34:47Z</time>
      </trkpt>
      <trkpt lat="46.31148" lon="2.50097">
        <ele>364</ele>
        <time>2012-06-20T15:34:50Z</time>
      </trkpt>
      <trkpt lat="46.31143" lon="2.50082">
        <ele>365</ele>
        <time>2012-06-20T15:34:53Z</time>
      </trkpt>
      <trkpt lat="46.31141" lon="2.50069">
        <ele>365</ele>
        <time>2012-06-20T15:34:55Z</time>
      </trkpt>
      <trkpt lat="46.31138" lon="2.50056">
        <ele>365</ele>
        <time>2012-06-20T15:34:57Z</time>
      </trkpt>
      <trkpt lat="46.31135" lon="2.50038">
        <ele>365</ele>
        <time>2012-06-20T15:35:00Z</time>
      </trkpt>
      <trkpt lat="46.31134" lon="2.50021">
        <ele>365</ele>
        <time>2012-06-20T15:35:03Z</time>
      </trkpt>
      <trkpt lat="46.31129" lon="2.50007">
        <ele>365</ele>
        <time>2012-06-20T15:35:06Z</time>
      </trkpt>
      <trkpt lat="46.31122" lon="2.49991">
        <ele>367</ele>
        <time>2012-06-20T15:35:09Z</time>
      </trkpt>
      <trkpt lat="46.31117" lon="2.49979">
        <ele>366</ele>
        <time>2012-06-20T15:35:12Z</time>
      </trkpt>
      <trkpt lat="46.31113" lon="2.49965">
        <ele>367</ele>
        <time>2012-06-20T15:35:15Z</time>
      </trkpt>
      <trkpt lat="46.31106" lon="2.4995">
        <ele>367</ele>
        <time>2012-06-20T15:35:18Z</time>
      </trkpt>
      <trkpt lat="46.311" lon="2.49937">
        <ele>367</ele>
        <time>2012-06-20T15:35:21Z</time>
      </trkpt>
      <trkpt lat="46.31092" lon="2.49925">
        <ele>366</ele>
        <time>2012-06-20T15:35:24Z</time>
      </trkpt>
      <trkpt lat="46.31086" lon="2.49912">
        <ele>367</ele>
        <time>2012-06-20T15:35:27Z</time>
      </trkpt>
      <trkpt lat="46.31079" lon="2.49899">
        <ele>365</ele>
        <time>2012-06-20T15:35:30Z</time>
      </trkpt>
      <trkpt lat="46.31073" lon="2.49886">
        <ele>365</ele>
        <time>2012-06-20T15:35:33Z</time>
      </trkpt>
      <trkpt lat="46.31068" lon="2.49874">
        <ele>365</ele>
        <time>2012-06-20T15:35:36Z</time>
      </trkpt>
      <trkpt lat="46.31063" lon="2.49861">
        <ele>365</ele>
        <time>2012-06-20T15:35:39Z</time>
      </trkpt>
      <trkpt lat="46.31056" lon="2.49847">
        <ele>365</ele>
        <time>2012-06-20T15:35:43Z</time>
      </trkpt>
      <trkpt lat="46.3105" lon="2.49832">
        <ele>365</ele>
        <time>2012-06-20T15:35:46Z</time>
      </trkpt>
      <trkpt lat="46.31042" lon="2.49818">
        <ele>365</ele>
        <time>2012-06-20T15:35:49Z</time>
      </trkpt>
      <trkpt lat="46.31036" lon="2.49807">
        <ele>365</ele>
        <time>2012-06-20T15:35:51Z</time>
      </trkpt>
      <trkpt lat="46.31027" lon="2.49795">
        <ele>364</ele>
        <time>2012-06-20T15:35:53Z</time>
      </trkpt>
      <trkpt lat="46.31018" lon="2.49779">
        <ele>364</ele>
        <time>2012-06-20T15:35:55Z</time>
      </trkpt>
      <trkpt lat="46.31008" lon="2.49765">
        <ele>363</ele>
        <time>2012-06-20T15:35:57Z</time>
      </trkpt>
      <trkpt lat="46.30995" lon="2.49751">
        <ele>361</ele>
        <time>2012-06-20T15:35:59Z</time>
      </trkpt>
      <trkpt lat="46.30983" lon="2.49735">
        <ele>360</ele>
        <time>2012-06-20T15:36:01Z</time>
      </trkpt>
      <trkpt lat="46.30974" lon="2.49718">
        <ele>359</ele>
        <time>2012-06-20T15:36:03Z</time>
      </trkpt>
      <trkpt lat="46.30967" lon="2.49709">
        <ele>359</ele>
        <time>2012-06-20T15:36:04Z</time>
      </trkpt>
      <trkpt lat="46.30955" lon="2.49692">
        <ele>358</ele>
        <time>2012-06-20T15:36:06Z</time>
      </trkpt>
      <trkpt lat="46.3095" lon="2.4968">
        <ele>358</ele>
        <time>2012-06-20T15:36:07Z</time>
      </trkpt>
      <trkpt lat="46.30944" lon="2.49671">
        <ele>358</ele>
        <time>2012-06-20T15:36:08Z</time>
      </trkpt>
      <trkpt lat="46.30934" lon="2.49652">
        <ele>358</ele>
        <time>2012-06-20T15:36:10Z</time>
      </trkpt>
      <trkpt lat="46.30925" lon="2.49634">
        <ele>358</ele>
        <time>2012-06-20T15:36:12Z</time>
      </trkpt>
      <trkpt lat="46.30916" lon="2.49621">
        <ele>355</ele>
        <time>2012-06-20T15:36:14Z</time>
      </trkpt>
      <trkpt lat="46.30907" lon="2.49608">
        <ele>356</ele>
        <time>2012-06-20T15:36:16Z</time>
      </trkpt>
      <trkpt lat="46.30897" lon="2.49596">
        <ele>356</ele>
        <time>2012-06-20T15:36:18Z</time>
      </trkpt>
      <trkpt lat="46.30891" lon="2.49581">
        <ele>356</ele>
        <time>2012-06-20T15:36:20Z</time>
      </trkpt>
      <trkpt lat="46.30885" lon="2.49567">
        <ele>356</ele>
        <time>2012-06-20T15:36:22Z</time>
      </trkpt>
      <trkpt lat="46.30878" lon="2.49553">
        <ele>356</ele>
        <time>2012-06-20T15:36:24Z</time>
      </trkpt>
      <trkpt lat="46.3087" lon="2.49539">
        <ele>355</ele>
        <time>2012-06-20T15:36:26Z</time>
      </trkpt>
      <trkpt lat="46.30862" lon="2.49524">
        <ele>355</ele>
        <time>2012-06-20T15:36:28Z</time>
      </trkpt>
      <trkpt lat="46.30854" lon="2.4951">
        <ele>355</ele>
        <time>2012-06-20T15:36:30Z</time>
      </trkpt>
      <trkpt lat="46.30847" lon="2.49496">
        <ele>355</ele>
        <time>2012-06-20T15:36:32Z</time>
      </trkpt>
      <trkpt lat="46.30842" lon="2.4948">
        <ele>355</ele>
        <time>2012-06-20T15:36:34Z</time>
      </trkpt>
      <trkpt lat="46.30839" lon="2.49465">
        <ele>355</ele>
        <time>2012-06-20T15:36:36Z</time>
      </trkpt>
      <trkpt lat="46.30838" lon="2.49451">
        <ele>355</ele>
        <time>2012-06-20T15:36:38Z</time>
      </trkpt>
      <trkpt lat="46.30834" lon="2.49435">
        <ele>355</ele>
        <time>2012-06-20T15:36:41Z</time>
      </trkpt>
      <trkpt lat="46.30827" lon="2.49427">
        <ele>354</ele>
        <time>2012-06-20T15:36:48Z</time>
      </trkpt>
      <trkpt lat="46.3083" lon="2.4944">
        <ele>354</ele>
        <time>2012-06-20T15:37:44Z</time>
      </trkpt>
      <trkpt lat="46.30827" lon="2.49426">
        <ele>354</ele>
        <time>2012-06-20T15:38:33Z</time>
      </trkpt>
      <trkpt lat="46.30819" lon="2.49415">
        <ele>355</ele>
        <time>2012-06-20T15:38:38Z</time>
      </trkpt>
      <trkpt lat="46.30812" lon="2.49403">
        <ele>356</ele>
        <time>2012-06-20T15:38:42Z</time>
      </trkpt>
      <trkpt lat="46.30807" lon="2.49389">
        <ele>356</ele>
        <time>2012-06-20T15:38:46Z</time>
      </trkpt>
      <trkpt lat="46.30803" lon="2.49376">
        <ele>356</ele>
        <time>2012-06-20T15:38:49Z</time>
      </trkpt>
      <trkpt lat="46.30797" lon="2.4936">
        <ele>357</ele>
        <time>2012-06-20T15:38:53Z</time>
      </trkpt>
      <trkpt lat="46.30793" lon="2.49345">
        <ele>357</ele>
        <time>2012-06-20T15:38:57Z</time>
      </trkpt>
      <trkpt lat="46.308" lon="2.49336">
        <ele>357</ele>
        <time>2012-06-20T15:39:02Z</time>
      </trkpt>
      <trkpt lat="46.3081" lon="2.4933">
        <ele>359</ele>
        <time>2012-06-20T15:39:07Z</time>
      </trkpt>
      <trkpt lat="46.30817" lon="2.4932">
        <ele>359</ele>
        <time>2012-06-20T15:39:11Z</time>
      </trkpt>
      <trkpt lat="46.30823" lon="2.49307">
        <ele>359</ele>
        <time>2012-06-20T15:39:15Z</time>
      </trkpt>
      <trkpt lat="46.3083" lon="2.49297">
        <ele>360</ele>
        <time>2012-06-20T15:39:19Z</time>
      </trkpt>
      <trkpt lat="46.30838" lon="2.49288">
        <ele>360</ele>
        <time>2012-06-20T15:39:22Z</time>
      </trkpt>
      <trkpt lat="46.30845" lon="2.49277">
        <ele>361</ele>
        <time>2012-06-20T15:39:26Z</time>
      </trkpt>
      <trkpt lat="46.30853" lon="2.49268">
        <ele>361</ele>
        <time>2012-06-20T15:39:30Z</time>
      </trkpt>
      <trkpt lat="46.30862" lon="2.49256">
        <ele>361</ele>
        <time>2012-06-20T15:39:34Z</time>
      </trkpt>
      <trkpt lat="46.3087" lon="2.49246">
        <ele>364</ele>
        <time>2012-06-20T15:39:38Z</time>
      </trkpt>
      <trkpt lat="46.30876" lon="2.49235">
        <ele>364</ele>
        <time>2012-06-20T15:39:42Z</time>
      </trkpt>
      <trkpt lat="46.30881" lon="2.49221">
        <ele>364</ele>
        <time>2012-06-20T15:39:46Z</time>
      </trkpt>
      <trkpt lat="46.30886" lon="2.49205">
        <ele>365</ele>
        <time>2012-06-20T15:39:51Z</time>
      </trkpt>
      <trkpt lat="46.30889" lon="2.49191">
        <ele>365</ele>
        <time>2012-06-20T15:39:56Z</time>
      </trkpt>
      <trkpt lat="46.30894" lon="2.49177">
        <ele>366</ele>
        <time>2012-06-20T15:40:01Z</time>
      </trkpt>
      <trkpt lat="46.30898" lon="2.49163">
        <ele>369</ele>
        <time>2012-06-20T15:40:06Z</time>
      </trkpt>
      <trkpt lat="46.30902" lon="2.4915">
        <ele>369</ele>
        <time>2012-06-20T15:40:10Z</time>
      </trkpt>
      <trkpt lat="46.30906" lon="2.49135">
        <ele>370</ele>
        <time>2012-06-20T15:40:15Z</time>
      </trkpt>
      <trkpt lat="46.30909" lon="2.49122">
        <ele>370</ele>
        <time>2012-06-20T15:40:20Z</time>
      </trkpt>
      <trkpt lat="46.30913" lon="2.49108">
        <ele>371</ele>
        <time>2012-06-20T15:40:24Z</time>
      </trkpt>
      <trkpt lat="46.30916" lon="2.49095">
        <ele>373</ele>
        <time>2012-06-20T15:40:29Z</time>
      </trkpt>
      <trkpt lat="46.30921" lon="2.49082">
        <ele>375</ele>
        <time>2012-06-20T15:40:33Z</time>
      </trkpt>
      <trkpt lat="46.30926" lon="2.49071">
        <ele>375</ele>
        <time>2012-06-20T15:40:37Z</time>
      </trkpt>
      <trkpt lat="46.3093" lon="2.49057">
        <ele>375</ele>
        <time>2012-06-20T15:40:42Z</time>
      </trkpt>
      <trkpt lat="46.30936" lon="2.49045">
        <ele>375</ele>
        <time>2012-06-20T15:40:46Z</time>
      </trkpt>
      <trkpt lat="46.30941" lon="2.49034">
        <ele>375</ele>
        <time>2012-06-20T15:40:50Z</time>
      </trkpt>
      <trkpt lat="46.30947" lon="2.49023">
        <ele>375</ele>
        <time>2012-06-20T15:40:54Z</time>
      </trkpt>
      <trkpt lat="46.30953" lon="2.49012">
        <ele>375</ele>
        <time>2012-06-20T15:40:58Z</time>
      </trkpt>
      <trkpt lat="46.30958" lon="2.48999">
        <ele>377</ele>
        <time>2012-06-20T15:41:02Z</time>
      </trkpt>
      <trkpt lat="46.30962" lon="2.48985">
        <ele>377</ele>
        <time>2012-06-20T15:41:06Z</time>
      </trkpt>
      <trkpt lat="46.30965" lon="2.48971">
        <ele>377</ele>
        <time>2012-06-20T15:41:10Z</time>
      </trkpt>
      <trkpt lat="46.30967" lon="2.48956">
        <ele>377</ele>
        <time>2012-06-20T15:41:14Z</time>
      </trkpt>
      <trkpt lat="46.3097" lon="2.48943">
        <ele>377</ele>
        <time>2012-06-20T15:41:19Z</time>
      </trkpt>
      <trkpt lat="46.30974" lon="2.48927">
        <ele>377</ele>
        <time>2012-06-20T15:41:23Z</time>
      </trkpt>
      <trkpt lat="46.30976" lon="2.48913">
        <ele>378</ele>
        <time>2012-06-20T15:41:26Z</time>
      </trkpt>
      <trkpt lat="46.30978" lon="2.489">
        <ele>379</ele>
        <time>2012-06-20T15:41:29Z</time>
      </trkpt>
      <trkpt lat="46.3098" lon="2.48887">
        <ele>379</ele>
        <time>2012-06-20T15:41:32Z</time>
      </trkpt>
      <trkpt lat="46.30982" lon="2.48873">
        <ele>379</ele>
        <time>2012-06-20T15:41:35Z</time>
      </trkpt>
      <trkpt lat="46.30987" lon="2.48858">
        <ele>379</ele>
        <time>2012-06-20T15:41:39Z</time>
      </trkpt>
      <trkpt lat="46.30988" lon="2.48844">
        <ele>379</ele>
        <time>2012-06-20T15:41:42Z</time>
      </trkpt>
      <trkpt lat="46.3099" lon="2.48831">
        <ele>379</ele>
        <time>2012-06-20T15:41:45Z</time>
      </trkpt>
      <trkpt lat="46.30991" lon="2.48816">
        <ele>380</ele>
        <time>2012-06-20T15:41:48Z</time>
      </trkpt>
      <trkpt lat="46.3099" lon="2.48801">
        <ele>380</ele>
        <time>2012-06-20T15:41:51Z</time>
      </trkpt>
      <trkpt lat="46.30988" lon="2.48784">
        <ele>380</ele>
        <time>2012-06-20T15:41:54Z</time>
      </trkpt>
      <trkpt lat="46.30987" lon="2.48769">
        <ele>380</ele>
        <time>2012-06-20T15:41:57Z</time>
      </trkpt>
      <trkpt lat="46.30983" lon="2.4875">
        <ele>380</ele>
        <time>2012-06-20T15:42:01Z</time>
      </trkpt>
      <trkpt lat="46.3098" lon="2.48735">
        <ele>380</ele>
        <time>2012-06-20T15:42:05Z</time>
      </trkpt>
      <trkpt lat="46.30979" lon="2.48718">
        <ele>381</ele>
        <time>2012-06-20T15:42:09Z</time>
      </trkpt>
      <trkpt lat="46.30975" lon="2.48705">
        <ele>381</ele>
        <time>2012-06-20T15:42:12Z</time>
      </trkpt>
      <trkpt lat="46.30974" lon="2.48691">
        <ele>381</ele>
        <time>2012-06-20T15:42:15Z</time>
      </trkpt>
      <trkpt lat="46.30975" lon="2.48674">
        <ele>381</ele>
        <time>2012-06-20T15:42:19Z</time>
      </trkpt>
      <trkpt lat="46.3098" lon="2.48662">
        <ele>383</ele>
        <time>2012-06-20T15:42:23Z</time>
      </trkpt>
      <trkpt lat="46.30985" lon="2.4865">
        <ele>383</ele>
        <time>2012-06-20T15:42:27Z</time>
      </trkpt>
      <trkpt lat="46.30992" lon="2.48636">
        <ele>383</ele>
        <time>2012-06-20T15:42:31Z</time>
      </trkpt>
      <trkpt lat="46.30996" lon="2.4862">
        <ele>384</ele>
        <time>2012-06-20T15:42:34Z</time>
      </trkpt>
      <trkpt lat="46.31" lon="2.48608">
        <ele>380</ele>
        <time>2012-06-20T15:42:36Z</time>
      </trkpt>
      <trkpt lat="46.31004" lon="2.48593">
        <ele>381</ele>
        <time>2012-06-20T15:42:39Z</time>
      </trkpt>
      <trkpt lat="46.31005" lon="2.48576">
        <ele>382</ele>
        <time>2012-06-20T15:42:42Z</time>
      </trkpt>
      <trkpt lat="46.31007" lon="2.48562">
        <ele>382</ele>
        <time>2012-06-20T15:42:44Z</time>
      </trkpt>
      <trkpt lat="46.31007" lon="2.48544">
        <ele>382</ele>
        <time>2012-06-20T15:42:47Z</time>
      </trkpt>
      <trkpt lat="46.3101" lon="2.48526">
        <ele>383</ele>
        <time>2012-06-20T15:42:50Z</time>
      </trkpt>
      <trkpt lat="46.31011" lon="2.48512">
        <ele>384</ele>
        <time>2012-06-20T15:42:52Z</time>
      </trkpt>
      <trkpt lat="46.31011" lon="2.48493">
        <ele>385</ele>
        <time>2012-06-20T15:42:55Z</time>
      </trkpt>
      <trkpt lat="46.31012" lon="2.48475">
        <ele>384</ele>
        <time>2012-06-20T15:42:58Z</time>
      </trkpt>
      <trkpt lat="46.31015" lon="2.48456">
        <ele>384</ele>
        <time>2012-06-20T15:43:01Z</time>
      </trkpt>
      <trkpt lat="46.31018" lon="2.48443">
        <ele>384</ele>
        <time>2012-06-20T15:43:03Z</time>
      </trkpt>
      <trkpt lat="46.31021" lon="2.4843">
        <ele>384</ele>
        <time>2012-06-20T15:43:05Z</time>
      </trkpt>
      <trkpt lat="46.31026" lon="2.48413">
        <ele>384</ele>
        <time>2012-06-20T15:43:08Z</time>
      </trkpt>
      <trkpt lat="46.3103" lon="2.48396">
        <ele>384</ele>
        <time>2012-06-20T15:43:11Z</time>
      </trkpt>
      <trkpt lat="46.31033" lon="2.48383">
        <ele>384</ele>
        <time>2012-06-20T15:43:13Z</time>
      </trkpt>
      <trkpt lat="46.31035" lon="2.48365">
        <ele>384</ele>
        <time>2012-06-20T15:43:16Z</time>
      </trkpt>
      <trkpt lat="46.31036" lon="2.48346">
        <ele>384</ele>
        <time>2012-06-20T15:43:19Z</time>
      </trkpt>
      <trkpt lat="46.31037" lon="2.4833">
        <ele>384</ele>
        <time>2012-06-20T15:43:22Z</time>
      </trkpt>
      <trkpt lat="46.31036" lon="2.48311">
        <ele>384</ele>
        <time>2012-06-20T15:43:25Z</time>
      </trkpt>
      <trkpt lat="46.31035" lon="2.48293">
        <ele>384</ele>
        <time>2012-06-20T15:43:28Z</time>
      </trkpt>
      <trkpt lat="46.31036" lon="2.4828">
        <ele>384</ele>
        <time>2012-06-20T15:43:31Z</time>
      </trkpt>
      <trkpt lat="46.31036" lon="2.48264">
        <ele>384</ele>
        <time>2012-06-20T15:43:34Z</time>
      </trkpt>
      <trkpt lat="46.31033" lon="2.48248">
        <ele>384</ele>
        <time>2012-06-20T15:43:37Z</time>
      </trkpt>
      <trkpt lat="46.31033" lon="2.48234">
        <ele>384</ele>
        <time>2012-06-20T15:43:39Z</time>
      </trkpt>
      <trkpt lat="46.31031" lon="2.4822">
        <ele>384</ele>
        <time>2012-06-20T15:43:42Z</time>
      </trkpt>
      <trkpt lat="46.31029" lon="2.48204">
        <ele>385</ele>
        <time>2012-06-20T15:43:45Z</time>
      </trkpt>
      <trkpt lat="46.31028" lon="2.48188">
        <ele>385</ele>
        <time>2012-06-20T15:43:48Z</time>
      </trkpt>
      <trkpt lat="46.31026" lon="2.48171">
        <ele>385</ele>
        <time>2012-06-20T15:43:51Z</time>
      </trkpt>
      <trkpt lat="46.31025" lon="2.48153">
        <ele>386</ele>
        <time>2012-06-20T15:43:54Z</time>
      </trkpt>
      <trkpt lat="46.31023" lon="2.48136">
        <ele>387</ele>
        <time>2012-06-20T15:43:57Z</time>
      </trkpt>
      <trkpt lat="46.31021" lon="2.48122">
        <ele>387</ele>
        <time>2012-06-20T15:44:00Z</time>
      </trkpt>
      <trkpt lat="46.3102" lon="2.48107">
        <ele>387</ele>
        <time>2012-06-20T15:44:03Z</time>
      </trkpt>
      <trkpt lat="46.31018" lon="2.48093">
        <ele>388</ele>
        <time>2012-06-20T15:44:06Z</time>
      </trkpt>
      <trkpt lat="46.31016" lon="2.48078">
        <ele>388</ele>
        <time>2012-06-20T15:44:10Z</time>
      </trkpt>
      <trkpt lat="46.31017" lon="2.48062">
        <ele>388</ele>
        <time>2012-06-20T15:44:14Z</time>
      </trkpt>
      <trkpt lat="46.31017" lon="2.48044">
        <ele>388</ele>
        <time>2012-06-20T15:44:18Z</time>
      </trkpt>
      <trkpt lat="46.31017" lon="2.48028">
        <ele>388</ele>
        <time>2012-06-20T15:44:22Z</time>
      </trkpt>
      <trkpt lat="46.31016" lon="2.48012">
        <ele>388</ele>
        <time>2012-06-20T15:44:25Z</time>
      </trkpt>
      <trkpt lat="46.31016" lon="2.47999">
        <ele>389</ele>
        <time>2012-06-20T15:44:28Z</time>
      </trkpt>
      <trkpt lat="46.31017" lon="2.47984">
        <ele>389</ele>
        <time>2012-06-20T15:44:31Z</time>
      </trkpt>
      <trkpt lat="46.31018" lon="2.47967">
        <ele>389</ele>
        <time>2012-06-20T15:44:34Z</time>
      </trkpt>
      <trkpt lat="46.31018" lon="2.47954">
        <ele>389</ele>
        <time>2012-06-20T15:44:37Z</time>
      </trkpt>
      <trkpt lat="46.31018" lon="2.47939">
        <ele>390</ele>
        <time>2012-06-20T15:44:40Z</time>
      </trkpt>
      <trkpt lat="46.31018" lon="2.47924">
        <ele>390</ele>
        <time>2012-06-20T15:44:43Z</time>
      </trkpt>
      <trkpt lat="46.31018" lon="2.47909">
        <ele>391</ele>
        <time>2012-06-20T15:44:46Z</time>
      </trkpt>
      <trkpt lat="46.31018" lon="2.47896">
        <ele>391</ele>
        <time>2012-06-20T15:44:49Z</time>
      </trkpt>
      <trkpt lat="46.31019" lon="2.47878">
        <ele>391</ele>
        <time>2012-06-20T15:44:53Z</time>
      </trkpt>
      <trkpt lat="46.31016" lon="2.47865">
        <ele>392</ele>
        <time>2012-06-20T15:44:57Z</time>
      </trkpt>
      <trkpt lat="46.31012" lon="2.4785">
        <ele>392</ele>
        <time>2012-06-20T15:45:01Z</time>
      </trkpt>
      <trkpt lat="46.31009" lon="2.47834">
        <ele>392</ele>
        <time>2012-06-20T15:45:05Z</time>
      </trkpt>
      <trkpt lat="46.31005" lon="2.47823">
        <ele>393</ele>
        <time>2012-06-20T15:45:08Z</time>
      </trkpt>
      <trkpt lat="46.31002" lon="2.47809">
        <ele>393</ele>
        <time>2012-06-20T15:45:11Z</time>
      </trkpt>
      <trkpt lat="46.30998" lon="2.47796">
        <ele>395</ele>
        <time>2012-06-20T15:45:14Z</time>
      </trkpt>
      <trkpt lat="46.30993" lon="2.47781">
        <ele>395</ele>
        <time>2012-06-20T15:45:17Z</time>
      </trkpt>
      <trkpt lat="46.30988" lon="2.47766">
        <ele>395</ele>
        <time>2012-06-20T15:45:21Z</time>
      </trkpt>
      <trkpt lat="46.30986" lon="2.47753">
        <ele>395</ele>
        <time>2012-06-20T15:45:24Z</time>
      </trkpt>
      <trkpt lat="46.30982" lon="2.47738">
        <ele>396</ele>
        <time>2012-06-20T15:45:27Z</time>
      </trkpt>
      <trkpt lat="46.30977" lon="2.47724">
        <ele>397</ele>
        <time>2012-06-20T15:45:30Z</time>
      </trkpt>
      <trkpt lat="46.30973" lon="2.47709">
        <ele>397</ele>
        <time>2012-06-20T15:45:33Z</time>
      </trkpt>
      <trkpt lat="46.30967" lon="2.47692">
        <ele>397</ele>
        <time>2012-06-20T15:45:36Z</time>
      </trkpt>
      <trkpt lat="46.30963" lon="2.47675">
        <ele>398</ele>
        <time>2012-06-20T15:45:39Z</time>
      </trkpt>
      <trkpt lat="46.3096" lon="2.4766">
        <ele>400</ele>
        <time>2012-06-20T15:45:42Z</time>
      </trkpt>
      <trkpt lat="46.30955" lon="2.47649">
        <ele>400</ele>
        <time>2012-06-20T15:45:46Z</time>
      </trkpt>
      <trkpt lat="46.3095" lon="2.47637">
        <ele>401</ele>
        <time>2012-06-20T15:45:49Z</time>
      </trkpt>
      <trkpt lat="46.30954" lon="2.47622">
        <ele>401</ele>
        <time>2012-06-20T15:45:54Z</time>
      </trkpt>
      <trkpt lat="46.30961" lon="2.47611">
        <ele>401</ele>
        <time>2012-06-20T15:45:58Z</time>
      </trkpt>
      <trkpt lat="46.30969" lon="2.476">
        <ele>401</ele>
        <time>2012-06-20T15:46:02Z</time>
      </trkpt>
      <trkpt lat="46.30976" lon="2.47589">
        <ele>401</ele>
        <time>2012-06-20T15:46:05Z</time>
      </trkpt>
      <trkpt lat="46.30985" lon="2.47579">
        <ele>402</ele>
        <time>2012-06-20T15:46:09Z</time>
      </trkpt>
      <trkpt lat="46.30995" lon="2.47568">
        <ele>402</ele>
        <time>2012-06-20T15:46:13Z</time>
      </trkpt>
      <trkpt lat="46.31002" lon="2.47555">
        <ele>401</ele>
        <time>2012-06-20T15:46:17Z</time>
      </trkpt>
      <trkpt lat="46.3101" lon="2.47544">
        <ele>401</ele>
        <time>2012-06-20T15:46:21Z</time>
      </trkpt>
      <trkpt lat="46.3102" lon="2.47542">
        <ele>401</ele>
        <time>2012-06-20T15:46:25Z</time>
      </trkpt>
      <trkpt lat="46.3103" lon="2.47541">
        <ele>401</ele>
        <time>2012-06-20T15:46:28Z</time>
      </trkpt>
      <trkpt lat="46.31041" lon="2.47539">
        <ele>401</ele>
        <time>2012-06-20T15:46:31Z</time>
      </trkpt>
      <trkpt lat="46.31051" lon="2.47536">
        <ele>401</ele>
        <time>2012-06-20T15:46:34Z</time>
      </trkpt>
      <trkpt lat="46.31061" lon="2.47533">
        <ele>401</ele>
        <time>2012-06-20T15:46:37Z</time>
      </trkpt>
      <trkpt lat="46.31071" lon="2.47529">
        <ele>401</ele>
        <time>2012-06-20T15:46:40Z</time>
      </trkpt>
      <trkpt lat="46.31081" lon="2.47525">
        <ele>401</ele>
        <time>2012-06-20T15:46:43Z</time>
      </trkpt>
      <trkpt lat="46.31091" lon="2.47522">
        <ele>400</ele>
        <time>2012-06-20T15:46:46Z</time>
      </trkpt>
      <trkpt lat="46.311" lon="2.47522">
        <ele>400</ele>
        <time>2012-06-20T15:46:49Z</time>
      </trkpt>
      <trkpt lat="46.31112" lon="2.47522">
        <ele>400</ele>
        <time>2012-06-20T15:46:53Z</time>
      </trkpt>
      <trkpt lat="46.31121" lon="2.4752">
        <ele>400</ele>
        <time>2012-06-20T15:46:56Z</time>
      </trkpt>
      <trkpt lat="46.3113" lon="2.47518">
        <ele>400</ele>
        <time>2012-06-20T15:46:59Z</time>
      </trkpt>
      <trkpt lat="46.31141" lon="2.47515">
        <ele>400</ele>
        <time>2012-06-20T15:47:02Z</time>
      </trkpt>
      <trkpt lat="46.3115" lon="2.47507">
        <ele>400</ele>
        <time>2012-06-20T15:47:05Z</time>
      </trkpt>
      <trkpt lat="46.31159" lon="2.47498">
        <ele>402</ele>
        <time>2012-06-20T15:47:08Z</time>
      </trkpt>
      <trkpt lat="46.31168" lon="2.4749">
        <ele>401</ele>
        <time>2012-06-20T15:47:11Z</time>
      </trkpt>
      <trkpt lat="46.31176" lon="2.4748">
        <ele>401</ele>
        <time>2012-06-20T15:47:14Z</time>
      </trkpt>
      <trkpt lat="46.31187" lon="2.47471">
        <ele>401</ele>
        <time>2012-06-20T15:47:17Z</time>
      </trkpt>
      <trkpt lat="46.31197" lon="2.4746">
        <ele>400</ele>
        <time>2012-06-20T15:47:20Z</time>
      </trkpt>
      <trkpt lat="46.31204" lon="2.47451">
        <ele>400</ele>
        <time>2012-06-20T15:47:22Z</time>
      </trkpt>
      <trkpt lat="46.31211" lon="2.47442">
        <ele>400</ele>
        <time>2012-06-20T15:47:24Z</time>
      </trkpt>
      <trkpt lat="46.31219" lon="2.47434">
        <ele>400</ele>
        <time>2012-06-20T15:47:26Z</time>
      </trkpt>
      <trkpt lat="46.31226" lon="2.47425">
        <ele>400</ele>
        <time>2012-06-20T15:47:28Z</time>
      </trkpt>
      <trkpt lat="46.31226" lon="2.4741">
        <ele>402</ele>
        <time>2012-06-20T15:47:31Z</time>
      </trkpt>
      <trkpt lat="46.31217" lon="2.47403">
        <ele>403</ele>
        <time>2012-06-20T15:47:34Z</time>
      </trkpt>
      <trkpt lat="46.31207" lon="2.47398">
        <ele>403</ele>
        <time>2012-06-20T15:47:37Z</time>
      </trkpt>
      <trkpt lat="46.31196" lon="2.47392">
        <ele>404</ele>
        <time>2012-06-20T15:47:40Z</time>
      </trkpt>
      <trkpt lat="46.31188" lon="2.47384">
        <ele>404</ele>
        <time>2012-06-20T15:47:43Z</time>
      </trkpt>
      <trkpt lat="46.31179" lon="2.47378">
        <ele>405</ele>
        <time>2012-06-20T15:47:46Z</time>
      </trkpt>
      <trkpt lat="46.3117" lon="2.47373">
        <ele>405</ele>
        <time>2012-06-20T15:47:49Z</time>
      </trkpt>
      <trkpt lat="46.3116" lon="2.47366">
        <ele>408</ele>
        <time>2012-06-20T15:47:52Z</time>
      </trkpt>
      <trkpt lat="46.31151" lon="2.47362">
        <ele>408</ele>
        <time>2012-06-20T15:47:55Z</time>
      </trkpt>
      <trkpt lat="46.31141" lon="2.47357">
        <ele>409</ele>
        <time>2012-06-20T15:47:58Z</time>
      </trkpt>
      <trkpt lat="46.3113" lon="2.47351">
        <ele>409</ele>
        <time>2012-06-20T15:48:01Z</time>
      </trkpt>
      <trkpt lat="46.3112" lon="2.47347">
        <ele>409</ele>
        <time>2012-06-20T15:48:04Z</time>
      </trkpt>
      <trkpt lat="46.3111" lon="2.4734">
        <ele>410</ele>
        <time>2012-06-20T15:48:07Z</time>
      </trkpt>
      <trkpt lat="46.31101" lon="2.47331">
        <ele>411</ele>
        <time>2012-06-20T15:48:10Z</time>
      </trkpt>
      <trkpt lat="46.31094" lon="2.47318">
        <ele>411</ele>
        <time>2012-06-20T15:48:13Z</time>
      </trkpt>
      <trkpt lat="46.31091" lon="2.47305">
        <ele>411</ele>
        <time>2012-06-20T15:48:16Z</time>
      </trkpt>
      <trkpt lat="46.3109" lon="2.4729">
        <ele>412</ele>
        <time>2012-06-20T15:48:20Z</time>
      </trkpt>
      <trkpt lat="46.31086" lon="2.47277">
        <ele>412</ele>
        <time>2012-06-20T15:48:23Z</time>
      </trkpt>
      <trkpt lat="46.31083" lon="2.47263">
        <ele>414</ele>
        <time>2012-06-20T15:48:26Z</time>
      </trkpt>
      <trkpt lat="46.31081" lon="2.4725">
        <ele>415</ele>
        <time>2012-06-20T15:48:29Z</time>
      </trkpt>
      <trkpt lat="46.31077" lon="2.47233">
        <ele>415</ele>
        <time>2012-06-20T15:48:33Z</time>
      </trkpt>
      <trkpt lat="46.31076" lon="2.47218">
        <ele>416</ele>
        <time>2012-06-20T15:48:37Z</time>
      </trkpt>
      <trkpt lat="46.31074" lon="2.47204">
        <ele>416</ele>
        <time>2012-06-20T15:48:41Z</time>
      </trkpt>
      <trkpt lat="46.31072" lon="2.47187">
        <ele>416</ele>
        <time>2012-06-20T15:48:45Z</time>
      </trkpt>
      <trkpt lat="46.31069" lon="2.47172">
        <ele>416</ele>
        <time>2012-06-20T15:48:49Z</time>
      </trkpt>
      <trkpt lat="46.31068" lon="2.47158">
        <ele>417</ele>
        <time>2012-06-20T15:48:52Z</time>
      </trkpt>
      <trkpt lat="46.31064" lon="2.47145">
        <ele>418</ele>
        <time>2012-06-20T15:48:57Z</time>
      </trkpt>
      <trkpt lat="46.31062" lon="2.47129">
        <ele>419</ele>
        <time>2012-06-20T15:49:01Z</time>
      </trkpt>
      <trkpt lat="46.31059" lon="2.47114">
        <ele>419</ele>
        <time>2012-06-20T15:49:05Z</time>
      </trkpt>
      <trkpt lat="46.31057" lon="2.47101">
        <ele>419</ele>
        <time>2012-06-20T15:49:09Z</time>
      </trkpt>
      <trkpt lat="46.31054" lon="2.47086">
        <ele>420</ele>
        <time>2012-06-20T15:49:13Z</time>
      </trkpt>
      <trkpt lat="46.31052" lon="2.4707">
        <ele>422</ele>
        <time>2012-06-20T15:49:17Z</time>
      </trkpt>
      <trkpt lat="46.3105" lon="2.47055">
        <ele>422</ele>
        <time>2012-06-20T15:49:22Z</time>
      </trkpt>
      <trkpt lat="46.31047" lon="2.47039">
        <ele>422</ele>
        <time>2012-06-20T15:49:26Z</time>
      </trkpt>
      <trkpt lat="46.31045" lon="2.47025">
        <ele>422</ele>
        <time>2012-06-20T15:49:30Z</time>
      </trkpt>
      <trkpt lat="46.31043" lon="2.47012">
        <ele>423</ele>
        <time>2012-06-20T15:49:33Z</time>
      </trkpt>
      <trkpt lat="46.3104" lon="2.46996">
        <ele>424</ele>
        <time>2012-06-20T15:49:36Z</time>
      </trkpt>
      <trkpt lat="46.31037" lon="2.46984">
        <ele>424</ele>
        <time>2012-06-20T15:49:39Z</time>
      </trkpt>
      <trkpt lat="46.31033" lon="2.46969">
        <ele>424</ele>
        <time>2012-06-20T15:49:43Z</time>
      </trkpt>
      <trkpt lat="46.31026" lon="2.46956">
        <ele>425</ele>
        <time>2012-06-20T15:49:47Z</time>
      </trkpt>
      <trkpt lat="46.31022" lon="2.46942">
        <ele>425</ele>
        <time>2012-06-20T15:49:51Z</time>
      </trkpt>
      <trkpt lat="46.31018" lon="2.46926">
        <ele>425</ele>
        <time>2012-06-20T15:49:55Z</time>
      </trkpt>
      <trkpt lat="46.31016" lon="2.4691">
        <ele>426</ele>
        <time>2012-06-20T15:49:59Z</time>
      </trkpt>
      <trkpt lat="46.31015" lon="2.46895">
        <ele>426</ele>
        <time>2012-06-20T15:50:03Z</time>
      </trkpt>
      <trkpt lat="46.31013" lon="2.4688">
        <ele>426</ele>
        <time>2012-06-20T15:50:07Z</time>
      </trkpt>
      <trkpt lat="46.31013" lon="2.46866">
        <ele>426</ele>
        <time>2012-06-20T15:50:10Z</time>
      </trkpt>
      <trkpt lat="46.31011" lon="2.46853">
        <ele>426</ele>
        <time>2012-06-20T15:50:13Z</time>
      </trkpt>
      <trkpt lat="46.3101" lon="2.46837">
        <ele>426</ele>
        <time>2012-06-20T15:50:17Z</time>
      </trkpt>
      <trkpt lat="46.31006" lon="2.46825">
        <ele>427</ele>
        <time>2012-06-20T15:50:20Z</time>
      </trkpt>
      <trkpt lat="46.31" lon="2.46811">
        <ele>427</ele>
        <time>2012-06-20T15:50:24Z</time>
      </trkpt>
      <trkpt lat="46.30998" lon="2.46795">
        <ele>428</ele>
        <time>2012-06-20T15:50:28Z</time>
      </trkpt>
      <trkpt lat="46.30996" lon="2.46783">
        <ele>428</ele>
        <time>2012-06-20T15:50:31Z</time>
      </trkpt>
      <trkpt lat="46.30993" lon="2.4677">
        <ele>429</ele>
        <time>2012-06-20T15:50:34Z</time>
      </trkpt>
      <trkpt lat="46.30991" lon="2.46753">
        <ele>429</ele>
        <time>2012-06-20T15:50:38Z</time>
      </trkpt>
      <trkpt lat="46.30989" lon="2.46738">
        <ele>430</ele>
        <time>2012-06-20T15:50:42Z</time>
      </trkpt>
      <trkpt lat="46.30988" lon="2.46724">
        <ele>430</ele>
        <time>2012-06-20T15:50:46Z</time>
      </trkpt>
      <trkpt lat="46.30988" lon="2.46707">
        <ele>431</ele>
        <time>2012-06-20T15:50:49Z</time>
      </trkpt>
      <trkpt lat="46.30987" lon="2.4669">
        <ele>431</ele>
        <time>2012-06-20T15:50:53Z</time>
      </trkpt>
      <trkpt lat="46.30987" lon="2.46676">
        <ele>431</ele>
        <time>2012-06-20T15:50:57Z</time>
      </trkpt>
      <trkpt lat="46.30985" lon="2.46662">
        <ele>433</ele>
        <time>2012-06-20T15:51:00Z</time>
      </trkpt>
      <trkpt lat="46.30985" lon="2.46646">
        <ele>433</ele>
        <time>2012-06-20T15:51:04Z</time>
      </trkpt>
      <trkpt lat="46.30987" lon="2.46632">
        <ele>433</ele>
        <time>2012-06-20T15:51:08Z</time>
      </trkpt>
      <trkpt lat="46.30986" lon="2.46617">
        <ele>433</ele>
        <time>2012-06-20T15:51:12Z</time>
      </trkpt>
      <trkpt lat="46.30983" lon="2.46603">
        <ele>434</ele>
        <time>2012-06-20T15:51:15Z</time>
      </trkpt>
      <trkpt lat="46.30982" lon="2.46588">
        <ele>434</ele>
        <time>2012-06-20T15:51:19Z</time>
      </trkpt>
      <trkpt lat="46.30981" lon="2.46575">
        <ele>436</ele>
        <time>2012-06-20T15:52:10Z</time>
      </trkpt>
      <trkpt lat="46.30975" lon="2.46586">
        <ele>434</ele>
        <time>2012-06-20T15:52:28Z</time>
      </trkpt>
      <trkpt lat="46.30969" lon="2.46597">
        <ele>434</ele>
        <time>2012-06-20T15:52:58Z</time>
      </trkpt>
      <trkpt lat="46.3096" lon="2.46604">
        <ele>434</ele>
        <time>2012-06-20T15:53:02Z</time>
      </trkpt>
      <trkpt lat="46.30952" lon="2.4661">
        <ele>434</ele>
        <time>2012-06-20T15:53:07Z</time>
      </trkpt>
      <trkpt lat="46.30944" lon="2.46619">
        <ele>434</ele>
        <time>2012-06-20T15:53:11Z</time>
      </trkpt>
      <trkpt lat="46.30935" lon="2.46627">
        <ele>434</ele>
        <time>2012-06-20T15:53:14Z</time>
      </trkpt>
      <trkpt lat="46.30925" lon="2.46636">
        <ele>433</ele>
        <time>2012-06-20T15:53:17Z</time>
      </trkpt>
      <trkpt lat="46.30917" lon="2.46643">
        <ele>433</ele>
        <time>2012-06-20T15:53:19Z</time>
      </trkpt>
      <trkpt lat="46.30904" lon="2.46651">
        <ele>432</ele>
        <time>2012-06-20T15:53:22Z</time>
      </trkpt>
      <trkpt lat="46.30895" lon="2.46655">
        <ele>432</ele>
        <time>2012-06-20T15:53:24Z</time>
      </trkpt>
      <trkpt lat="46.30885" lon="2.46658">
        <ele>432</ele>
        <time>2012-06-20T15:53:26Z</time>
      </trkpt>
      <trkpt lat="46.30873" lon="2.46662">
        <ele>431</ele>
        <time>2012-06-20T15:53:28Z</time>
      </trkpt>
      <trkpt lat="46.30861" lon="2.46666">
        <ele>431</ele>
        <time>2012-06-20T15:53:30Z</time>
      </trkpt>
      <trkpt lat="46.30849" lon="2.4667">
        <ele>428</ele>
        <time>2012-06-20T15:53:32Z</time>
      </trkpt>
      <trkpt lat="46.30836" lon="2.46677">
        <ele>428</ele>
        <time>2012-06-20T15:53:34Z</time>
      </trkpt>
      <trkpt lat="46.30822" lon="2.46686">
        <ele>426</ele>
        <time>2012-06-20T15:53:36Z</time>
      </trkpt>
      <trkpt lat="46.30809" lon="2.46694">
        <ele>425</ele>
        <time>2012-06-20T15:53:38Z</time>
      </trkpt>
      <trkpt lat="46.30795" lon="2.46704">
        <ele>425</ele>
        <time>2012-06-20T15:53:40Z</time>
      </trkpt>
      <trkpt lat="46.30781" lon="2.46713">
        <ele>424</ele>
        <time>2012-06-20T15:53:42Z</time>
      </trkpt>
      <trkpt lat="46.30766" lon="2.46721">
        <ele>424</ele>
        <time>2012-06-20T15:53:44Z</time>
      </trkpt>
      <trkpt lat="46.30749" lon="2.46727">
        <ele>421</ele>
        <time>2012-06-20T15:53:46Z</time>
      </trkpt>
      <trkpt lat="46.30733" lon="2.46732">
        <ele>421</ele>
        <time>2012-06-20T15:53:48Z</time>
      </trkpt>
      <trkpt lat="46.30718" lon="2.46738">
        <ele>421</ele>
        <time>2012-06-20T15:53:50Z</time>
      </trkpt>
      <trkpt lat="46.30703" lon="2.46744">
        <ele>421</ele>
        <time>2012-06-20T15:53:52Z</time>
      </trkpt>
      <trkpt lat="46.30688" lon="2.46752">
        <ele>419</ele>
        <time>2012-06-20T15:53:54Z</time>
      </trkpt>
      <trkpt lat="46.30673" lon="2.46759">
        <ele>419</ele>
        <time>2012-06-20T15:53:56Z</time>
      </trkpt>
      <trkpt lat="46.30659" lon="2.46768">
        <ele>418</ele>
        <time>2012-06-20T15:53:58Z</time>
      </trkpt>
      <trkpt lat="46.30645" lon="2.46774">
        <ele>418</ele>
        <time>2012-06-20T15:54:00Z</time>
      </trkpt>
      <trkpt lat="46.30632" lon="2.46783">
        <ele>418</ele>
        <time>2012-06-20T15:54:02Z</time>
      </trkpt>
      <trkpt lat="46.30619" lon="2.46788">
        <ele>417</ele>
        <time>2012-06-20T15:54:04Z</time>
      </trkpt>
      <trkpt lat="46.30607" lon="2.46795">
        <ele>417</ele>
        <time>2012-06-20T15:54:06Z</time>
      </trkpt>
      <trkpt lat="46.30596" lon="2.46806">
        <ele>417</ele>
        <time>2012-06-20T15:54:08Z</time>
      </trkpt>
      <trkpt lat="46.30589" lon="2.46819">
        <ele>416</ele>
        <time>2012-06-20T15:54:10Z</time>
      </trkpt>
      <trkpt lat="46.30582" lon="2.46829">
        <ele>415</ele>
        <time>2012-06-20T15:54:12Z</time>
      </trkpt>
      <trkpt lat="46.30573" lon="2.46832">
        <ele>415</ele>
        <time>2012-06-20T15:54:14Z</time>
      </trkpt>
      <trkpt lat="46.30563" lon="2.46822">
        <ele>414</ele>
        <time>2012-06-20T15:54:16Z</time>
      </trkpt>
      <trkpt lat="46.3056" lon="2.46809">
        <ele>414</ele>
        <time>2012-06-20T15:54:18Z</time>
      </trkpt>
      <trkpt lat="46.30556" lon="2.46797">
        <ele>414</ele>
        <time>2012-06-20T15:54:20Z</time>
      </trkpt>
      <trkpt lat="46.30551" lon="2.46784">
        <ele>414</ele>
        <time>2012-06-20T15:54:22Z</time>
      </trkpt>
      <trkpt lat="46.30546" lon="2.46773">
        <ele>414</ele>
        <time>2012-06-20T15:54:24Z</time>
      </trkpt>
      <trkpt lat="46.30541" lon="2.46759">
        <ele>414</ele>
        <time>2012-06-20T15:54:26Z</time>
      </trkpt>
      <trkpt lat="46.30535" lon="2.46747">
        <ele>415</ele>
        <time>2012-06-20T15:54:28Z</time>
      </trkpt>
      <trkpt lat="46.30529" lon="2.46731">
        <ele>414</ele>
        <time>2012-06-20T15:54:31Z</time>
      </trkpt>
      <trkpt lat="46.3052" lon="2.46721">
        <ele>414</ele>
        <time>2012-06-20T15:54:34Z</time>
      </trkpt>
      <trkpt lat="46.30512" lon="2.46712">
        <ele>414</ele>
        <time>2012-06-20T15:54:36Z</time>
      </trkpt>
      <trkpt lat="46.30502" lon="2.46702">
        <ele>414</ele>
        <time>2012-06-20T15:54:38Z</time>
      </trkpt>
      <trkpt lat="46.30491" lon="2.46691">
        <ele>411</ele>
        <time>2012-06-20T15:54:40Z</time>
      </trkpt>
      <trkpt lat="46.3048" lon="2.46677">
        <ele>411</ele>
        <time>2012-06-20T15:54:42Z</time>
      </trkpt>
      <trkpt lat="46.30473" lon="2.46655">
        <ele>410</ele>
        <time>2012-06-20T15:54:44Z</time>
      </trkpt>
      <trkpt lat="46.30472" lon="2.46641">
        <ele>410</ele>
        <time>2012-06-20T15:54:45Z</time>
      </trkpt>
      <trkpt lat="46.30469" lon="2.46617">
        <ele>410</ele>
        <time>2012-06-20T15:54:47Z</time>
      </trkpt>
      <trkpt lat="46.30465" lon="2.46595">
        <ele>410</ele>
        <time>2012-06-20T15:54:49Z</time>
      </trkpt>
      <trkpt lat="46.30461" lon="2.46574">
        <ele>411</ele>
        <time>2012-06-20T15:54:51Z</time>
      </trkpt>
      <trkpt lat="46.30457" lon="2.46555">
        <ele>411</ele>
        <time>2012-06-20T15:54:53Z</time>
      </trkpt>
      <trkpt lat="46.30454" lon="2.46538">
        <ele>411</ele>
        <time>2012-06-20T15:54:55Z</time>
      </trkpt>
      <trkpt lat="46.3045" lon="2.46522">
        <ele>411</ele>
        <time>2012-06-20T15:54:57Z</time>
      </trkpt>
      <trkpt lat="46.30447" lon="2.46508">
        <ele>412</ele>
        <time>2012-06-20T15:54:59Z</time>
      </trkpt>
      <trkpt lat="46.30446" lon="2.46493">
        <ele>413</ele>
        <time>2012-06-20T15:55:01Z</time>
      </trkpt>
      <trkpt lat="46.30444" lon="2.46474">
        <ele>413</ele>
        <time>2012-06-20T15:55:04Z</time>
      </trkpt>
      <trkpt lat="46.30444" lon="2.46461">
        <ele>413</ele>
        <time>2012-06-20T15:55:06Z</time>
      </trkpt>
      <trkpt lat="46.30442" lon="2.46443">
        <ele>413</ele>
        <time>2012-06-20T15:55:09Z</time>
      </trkpt>
      <trkpt lat="46.30442" lon="2.46426">
        <ele>413</ele>
        <time>2012-06-20T15:55:12Z</time>
      </trkpt>
      <trkpt lat="46.30442" lon="2.46407">
        <ele>415</ele>
        <time>2012-06-20T15:55:15Z</time>
      </trkpt>
      <trkpt lat="46.3044" lon="2.46394">
        <ele>416</ele>
        <time>2012-06-20T15:55:17Z</time>
      </trkpt>
      <trkpt lat="46.30436" lon="2.46376">
        <ele>416</ele>
        <time>2012-06-20T15:55:20Z</time>
      </trkpt>
      <trkpt lat="46.30434" lon="2.46364">
        <ele>417</ele>
        <time>2012-06-20T15:55:22Z</time>
      </trkpt>
      <trkpt lat="46.30431" lon="2.4635">
        <ele>417</ele>
        <time>2012-06-20T15:55:24Z</time>
      </trkpt>
      <trkpt lat="46.30427" lon="2.46334">
        <ele>418</ele>
        <time>2012-06-20T15:55:27Z</time>
      </trkpt>
      <trkpt lat="46.30424" lon="2.46319">
        <ele>420</ele>
        <time>2012-06-20T15:55:30Z</time>
      </trkpt>
      <trkpt lat="46.30421" lon="2.46303">
        <ele>421</ele>
        <time>2012-06-20T15:55:33Z</time>
      </trkpt>
      <trkpt lat="46.30415" lon="2.46287">
        <ele>424</ele>
        <time>2012-06-20T15:55:36Z</time>
      </trkpt>
      <trkpt lat="46.30407" lon="2.46271">
        <ele>424</ele>
        <time>2012-06-20T15:55:39Z</time>
      </trkpt>
      <trkpt lat="46.304" lon="2.46256">
        <ele>424</ele>
        <time>2012-06-20T15:55:42Z</time>
      </trkpt>
      <trkpt lat="46.30395" lon="2.46244">
        <ele>425</ele>
        <time>2012-06-20T15:55:45Z</time>
      </trkpt>
      <trkpt lat="46.30388" lon="2.46231">
        <ele>426</ele>
        <time>2012-06-20T15:55:49Z</time>
      </trkpt>
      <trkpt lat="46.30386" lon="2.46216">
        <ele>427</ele>
        <time>2012-06-20T15:55:54Z</time>
      </trkpt>
      <trkpt lat="46.30381" lon="2.462">
        <ele>427</ele>
        <time>2012-06-20T15:55:58Z</time>
      </trkpt>
      <trkpt lat="46.30377" lon="2.46185">
        <ele>427</ele>
        <time>2012-06-20T15:56:02Z</time>
      </trkpt>
      <trkpt lat="46.30373" lon="2.4617">
        <ele>428</ele>
        <time>2012-06-20T15:56:06Z</time>
      </trkpt>
      <trkpt lat="46.3037" lon="2.46157">
        <ele>429</ele>
        <time>2012-06-20T15:56:09Z</time>
      </trkpt>
      <trkpt lat="46.30367" lon="2.4614">
        <ele>429</ele>
        <time>2012-06-20T15:56:12Z</time>
      </trkpt>
      <trkpt lat="46.30363" lon="2.46127">
        <ele>429</ele>
        <time>2012-06-20T15:56:16Z</time>
      </trkpt>
      <trkpt lat="46.30358" lon="2.46111">
        <ele>429</ele>
        <time>2012-06-20T15:56:21Z</time>
      </trkpt>
      <trkpt lat="46.30353" lon="2.46094">
        <ele>428</ele>
        <time>2012-06-20T15:56:25Z</time>
      </trkpt>
      <trkpt lat="46.30349" lon="2.46082">
        <ele>429</ele>
        <time>2012-06-20T15:56:28Z</time>
      </trkpt>
      <trkpt lat="46.30346" lon="2.46067">
        <ele>429</ele>
        <time>2012-06-20T15:56:32Z</time>
      </trkpt>
      <trkpt lat="46.30344" lon="2.46054">
        <ele>429</ele>
        <time>2012-06-20T15:56:35Z</time>
      </trkpt>
      <trkpt lat="46.30341" lon="2.46039">
        <ele>430</ele>
        <time>2012-06-20T15:56:39Z</time>
      </trkpt>
      <trkpt lat="46.30342" lon="2.46022">
        <ele>430</ele>
        <time>2012-06-20T15:56:43Z</time>
      </trkpt>
      <trkpt lat="46.30344" lon="2.46005">
        <ele>429</ele>
        <time>2012-06-20T15:56:46Z</time>
      </trkpt>
      <trkpt lat="46.30345" lon="2.45992">
        <ele>430</ele>
        <time>2012-06-20T15:56:49Z</time>
      </trkpt>
      <trkpt lat="46.30345" lon="2.45977">
        <ele>430</ele>
        <time>2012-06-20T15:56:52Z</time>
      </trkpt>
      <trkpt lat="46.30342" lon="2.45964">
        <ele>430</ele>
        <time>2012-06-20T15:56:55Z</time>
      </trkpt>
      <trkpt lat="46.3034" lon="2.4595">
        <ele>430</ele>
        <time>2012-06-20T15:56:58Z</time>
      </trkpt>
      <trkpt lat="46.30335" lon="2.45935">
        <ele>430</ele>
        <time>2012-06-20T15:57:01Z</time>
      </trkpt>
      <trkpt lat="46.30329" lon="2.4592">
        <ele>430</ele>
        <time>2012-06-20T15:57:04Z</time>
      </trkpt>
      <trkpt lat="46.30329" lon="2.45907">
        <ele>431</ele>
        <time>2012-06-20T15:57:07Z</time>
      </trkpt>
      <trkpt lat="46.30332" lon="2.45891">
        <ele>432</ele>
        <time>2012-06-20T15:57:11Z</time>
      </trkpt>
      <trkpt lat="46.30334" lon="2.45876">
        <ele>430</ele>
        <time>2012-06-20T15:57:15Z</time>
      </trkpt>
      <trkpt lat="46.30335" lon="2.45861">
        <ele>430</ele>
        <time>2012-06-20T15:57:19Z</time>
      </trkpt>
      <trkpt lat="46.30332" lon="2.45845">
        <ele>431</ele>
        <time>2012-06-20T15:57:23Z</time>
      </trkpt>
      <trkpt lat="46.30331" lon="2.45831">
        <ele>430</ele>
        <time>2012-06-20T15:57:27Z</time>
      </trkpt>
      <trkpt lat="46.30334" lon="2.45818">
        <ele>430</ele>
        <time>2012-06-20T15:57:31Z</time>
      </trkpt>
      <trkpt lat="46.30333" lon="2.45802">
        <ele>433</ele>
        <time>2012-06-20T15:57:36Z</time>
      </trkpt>
      <trkpt lat="46.30332" lon="2.45787">
        <ele>433</ele>
        <time>2012-06-20T15:57:40Z</time>
      </trkpt>
      <trkpt lat="46.30332" lon="2.45768">
        <ele>433</ele>
        <time>2012-06-20T15:57:44Z</time>
      </trkpt>
      <trkpt lat="46.30329" lon="2.45752">
        <ele>432</ele>
        <time>2012-06-20T15:57:47Z</time>
      </trkpt>
      <trkpt lat="46.30323" lon="2.45741">
        <ele>433</ele>
        <time>2012-06-20T15:57:51Z</time>
      </trkpt>
      <trkpt lat="46.30315" lon="2.45729">
        <ele>434</ele>
        <time>2012-06-20T15:57:55Z</time>
      </trkpt>
      <trkpt lat="46.30309" lon="2.45716">
        <ele>434</ele>
        <time>2012-06-20T15:57:59Z</time>
      </trkpt>
      <trkpt lat="46.30302" lon="2.45704">
        <ele>435</ele>
        <time>2012-06-20T15:58:04Z</time>
      </trkpt>
      <trkpt lat="46.30296" lon="2.45694">
        <ele>435</ele>
        <time>2012-06-20T15:58:07Z</time>
      </trkpt>
      <trkpt lat="46.30287" lon="2.45681">
        <ele>435</ele>
        <time>2012-06-20T15:58:11Z</time>
      </trkpt>
      <trkpt lat="46.30279" lon="2.45672">
        <ele>435</ele>
        <time>2012-06-20T15:58:14Z</time>
      </trkpt>
      <trkpt lat="46.30271" lon="2.45661">
        <ele>436</ele>
        <time>2012-06-20T15:58:18Z</time>
      </trkpt>
      <trkpt lat="46.30261" lon="2.45654">
        <ele>436</ele>
        <time>2012-06-20T15:58:22Z</time>
      </trkpt>
      <trkpt lat="46.30251" lon="2.4565">
        <ele>436</ele>
        <time>2012-06-20T15:58:26Z</time>
      </trkpt>
      <trkpt lat="46.30244" lon="2.45638">
        <ele>440</ele>
        <time>2012-06-20T15:58:30Z</time>
      </trkpt>
      <trkpt lat="46.30238" lon="2.45627">
        <ele>440</ele>
        <time>2012-06-20T15:58:33Z</time>
      </trkpt>
      <trkpt lat="46.30231" lon="2.45616">
        <ele>440</ele>
        <time>2012-06-20T15:58:37Z</time>
      </trkpt>
      <trkpt lat="46.30227" lon="2.45599">
        <ele>440</ele>
        <time>2012-06-20T15:58:41Z</time>
      </trkpt>
      <trkpt lat="46.30219" lon="2.4559">
        <ele>440</ele>
        <time>2012-06-20T15:58:45Z</time>
      </trkpt>
      <trkpt lat="46.30211" lon="2.45581">
        <ele>441</ele>
        <time>2012-06-20T15:58:49Z</time>
      </trkpt>
      <trkpt lat="46.30205" lon="2.4557">
        <ele>441</ele>
        <time>2012-06-20T15:58:53Z</time>
      </trkpt>
      <trkpt lat="46.30202" lon="2.45556">
        <ele>442</ele>
        <time>2012-06-20T15:58:57Z</time>
      </trkpt>
      <trkpt lat="46.30198" lon="2.45541">
        <ele>442</ele>
        <time>2012-06-20T15:59:02Z</time>
      </trkpt>
      <trkpt lat="46.30196" lon="2.45527">
        <ele>442</ele>
        <time>2012-06-20T15:59:06Z</time>
      </trkpt>
      <trkpt lat="46.30195" lon="2.45513">
        <ele>442</ele>
        <time>2012-06-20T15:59:10Z</time>
      </trkpt>
      <trkpt lat="46.30189" lon="2.45498">
        <ele>444</ele>
        <time>2012-06-20T15:59:14Z</time>
      </trkpt>
      <trkpt lat="46.30187" lon="2.45484">
        <ele>444</ele>
        <time>2012-06-20T15:59:18Z</time>
      </trkpt>
      <trkpt lat="46.30183" lon="2.45471">
        <ele>445</ele>
        <time>2012-06-20T15:59:22Z</time>
      </trkpt>
      <trkpt lat="46.30179" lon="2.45456">
        <ele>445</ele>
        <time>2012-06-20T15:59:27Z</time>
      </trkpt>
      <trkpt lat="46.30174" lon="2.45442">
        <ele>446</ele>
        <time>2012-06-20T15:59:31Z</time>
      </trkpt>
      <trkpt lat="46.30167" lon="2.45429">
        <ele>450</ele>
        <time>2012-06-20T15:59:35Z</time>
      </trkpt>
      <trkpt lat="46.30162" lon="2.45414">
        <ele>450</ele>
        <time>2012-06-20T15:59:39Z</time>
      </trkpt>
      <trkpt lat="46.30157" lon="2.45404">
        <ele>451</ele>
        <time>2012-06-20T15:59:42Z</time>
      </trkpt>
      <trkpt lat="46.30149" lon="2.45389">
        <ele>451</ele>
        <time>2012-06-20T15:59:46Z</time>
      </trkpt>
      <trkpt lat="46.30146" lon="2.45377">
        <ele>451</ele>
        <time>2012-06-20T15:59:58Z</time>
      </trkpt>
      <trkpt lat="46.30152" lon="2.45365">
        <ele>450</ele>
        <time>2012-06-20T16:02:45Z</time>
      </trkpt>
      <trkpt lat="46.30159" lon="2.45353">
        <ele>450</ele>
        <time>2012-06-20T16:02:49Z</time>
      </trkpt>
      <trkpt lat="46.30165" lon="2.45339">
        <ele>448</ele>
        <time>2012-06-20T16:02:52Z</time>
      </trkpt>
      <trkpt lat="46.30171" lon="2.45322">
        <ele>446</ele>
        <time>2012-06-20T16:02:55Z</time>
      </trkpt>
      <trkpt lat="46.30175" lon="2.45309">
        <ele>445</ele>
        <time>2012-06-20T16:02:57Z</time>
      </trkpt>
      <trkpt lat="46.3018" lon="2.45296">
        <ele>445</ele>
        <time>2012-06-20T16:02:59Z</time>
      </trkpt>
      <trkpt lat="46.30185" lon="2.45281">
        <ele>444</ele>
        <time>2012-06-20T16:03:01Z</time>
      </trkpt>
      <trkpt lat="46.3019" lon="2.45268">
        <ele>444</ele>
        <time>2012-06-20T16:03:03Z</time>
      </trkpt>
      <trkpt lat="46.30195" lon="2.45253">
        <ele>444</ele>
        <time>2012-06-20T16:03:05Z</time>
      </trkpt>
      <trkpt lat="46.302" lon="2.45237">
        <ele>442</ele>
        <time>2012-06-20T16:03:07Z</time>
      </trkpt>
      <trkpt lat="46.30206" lon="2.45222">
        <ele>442</ele>
        <time>2012-06-20T16:03:09Z</time>
      </trkpt>
      <trkpt lat="46.30213" lon="2.45206">
        <ele>441</ele>
        <time>2012-06-20T16:03:11Z</time>
      </trkpt>
      <trkpt lat="46.30217" lon="2.45194">
        <ele>441</ele>
        <time>2012-06-20T16:03:13Z</time>
      </trkpt>
      <trkpt lat="46.30215" lon="2.45182">
        <ele>441</ele>
        <time>2012-06-20T16:03:15Z</time>
      </trkpt>
      <trkpt lat="46.3021" lon="2.45168">
        <ele>441</ele>
        <time>2012-06-20T16:03:17Z</time>
      </trkpt>
      <trkpt lat="46.30207" lon="2.45154">
        <ele>439</ele>
        <time>2012-06-20T16:03:19Z</time>
      </trkpt>
      <trkpt lat="46.30211" lon="2.45141">
        <ele>439</ele>
        <time>2012-06-20T16:03:22Z</time>
      </trkpt>
      <trkpt lat="46.30222" lon="2.45131">
        <ele>439</ele>
        <time>2012-06-20T16:03:25Z</time>
      </trkpt>
      <trkpt lat="46.30233" lon="2.45124">
        <ele>439</ele>
        <time>2012-06-20T16:03:27Z</time>
      </trkpt>
      <trkpt lat="46.30243" lon="2.45116">
        <ele>439</ele>
        <time>2012-06-20T16:03:29Z</time>
      </trkpt>
      <trkpt lat="46.30253" lon="2.45108">
        <ele>439</ele>
        <time>2012-06-20T16:03:31Z</time>
      </trkpt>
      <trkpt lat="46.30243" lon="2.45116">
        <ele>439</ele>
        <time>2012-06-20T16:03:59Z</time>
      </trkpt>
      <trkpt lat="46.30233" lon="2.45123">
        <ele>439</ele>
        <time>2012-06-20T16:04:03Z</time>
      </trkpt>
      <trkpt lat="46.30222" lon="2.45131">
        <ele>439</ele>
        <time>2012-06-20T16:04:07Z</time>
      </trkpt>
      <trkpt lat="46.30213" lon="2.4514">
        <ele>439</ele>
        <time>2012-06-20T16:04:10Z</time>
      </trkpt>
      <trkpt lat="46.30204" lon="2.45152">
        <ele>439</ele>
        <time>2012-06-20T16:04:13Z</time>
      </trkpt>
      <trkpt lat="46.30201" lon="2.45165">
        <ele>440</ele>
        <time>2012-06-20T16:04:16Z</time>
      </trkpt>
      <trkpt lat="46.30207" lon="2.45177">
        <ele>441</ele>
        <time>2012-06-20T16:04:21Z</time>
      </trkpt>
      <trkpt lat="46.30205" lon="2.45161">
        <ele>439</ele>
        <time>2012-06-20T16:04:46Z</time>
      </trkpt>
      <trkpt lat="46.30199" lon="2.45151">
        <ele>439</ele>
        <time>2012-06-20T16:05:26Z</time>
      </trkpt>
      <trkpt lat="46.30208" lon="2.45144">
        <ele>439</ele>
        <time>2012-06-20T16:09:18Z</time>
      </trkpt>
      <trkpt lat="46.30219" lon="2.45137">
        <ele>439</ele>
        <time>2012-06-20T16:09:23Z</time>
      </trkpt>
      <trkpt lat="46.30228" lon="2.45131">
        <ele>439</ele>
        <time>2012-06-20T16:09:27Z</time>
      </trkpt>
      <trkpt lat="46.30237" lon="2.45126">
        <ele>439</ele>
        <time>2012-06-20T16:09:45Z</time>
      </trkpt>
      <trkpt lat="46.30246" lon="2.45119">
        <ele>439</ele>
        <time>2012-06-20T16:09:49Z</time>
      </trkpt>
      <trkpt lat="46.30255" lon="2.45113">
        <ele>439</ele>
        <time>2012-06-20T16:09:54Z</time>
      </trkpt>
      <trkpt lat="46.30264" lon="2.45106">
        <ele>439</ele>
        <time>2012-06-20T16:10:00Z</time>
      </trkpt>
      <trkpt lat="46.30271" lon="2.45098">
        <ele>439</ele>
        <time>2012-06-20T16:10:07Z</time>
      </trkpt>
      <trkpt lat="46.30279" lon="2.45088">
        <ele>439</ele>
        <time>2012-06-20T16:10:14Z</time>
      </trkpt>
      <trkpt lat="46.30283" lon="2.45077">
        <ele>439</ele>
        <time>2012-06-20T16:10:20Z</time>
      </trkpt>
      <trkpt lat="46.30284" lon="2.45063">
        <ele>439</ele>
        <time>2012-06-20T16:10:26Z</time>
      </trkpt>
      <trkpt lat="46.30284" lon="2.45049">
        <ele>439</ele>
        <time>2012-06-20T16:10:34Z</time>
      </trkpt>
      <trkpt lat="46.30281" lon="2.45036">
        <ele>439</ele>
        <time>2012-06-20T16:10:46Z</time>
      </trkpt>
      <trkpt lat="46.3028" lon="2.45021">
        <ele>439</ele>
        <time>2012-06-20T16:10:50Z</time>
      </trkpt>
      <trkpt lat="46.30279" lon="2.45006">
        <ele>439</ele>
        <time>2012-06-20T16:10:53Z</time>
      </trkpt>
      <trkpt lat="46.30278" lon="2.44989">
        <ele>440</ele>
        <time>2012-06-20T16:10:56Z</time>
      </trkpt>
      <trkpt lat="46.30276" lon="2.44972">
        <ele>441</ele>
        <time>2012-06-20T16:10:59Z</time>
      </trkpt>
      <trkpt lat="46.30274" lon="2.44957">
        <ele>441</ele>
        <time>2012-06-20T16:11:03Z</time>
      </trkpt>
      <trkpt lat="46.30271" lon="2.44943">
        <ele>441</ele>
        <time>2012-06-20T16:11:07Z</time>
      </trkpt>
      <trkpt lat="46.30271" lon="2.44929">
        <ele>441</ele>
        <time>2012-06-20T16:11:11Z</time>
      </trkpt>
      <trkpt lat="46.30269" lon="2.44914">
        <ele>442</ele>
        <time>2012-06-20T16:11:15Z</time>
      </trkpt>
      <trkpt lat="46.30268" lon="2.44898">
        <ele>442</ele>
        <time>2012-06-20T16:11:19Z</time>
      </trkpt>
      <trkpt lat="46.30267" lon="2.44882">
        <ele>442</ele>
        <time>2012-06-20T16:11:23Z</time>
      </trkpt>
      <trkpt lat="46.30265" lon="2.44866">
        <ele>443</ele>
        <time>2012-06-20T16:11:27Z</time>
      </trkpt>
      <trkpt lat="46.30264" lon="2.44852">
        <ele>443</ele>
        <time>2012-06-20T16:11:31Z</time>
      </trkpt>
      <trkpt lat="46.30263" lon="2.44839">
        <ele>443</ele>
        <time>2012-06-20T16:11:35Z</time>
      </trkpt>
      <trkpt lat="46.30262" lon="2.44824">
        <ele>443</ele>
        <time>2012-06-20T16:11:39Z</time>
      </trkpt>
      <trkpt lat="46.30263" lon="2.44809">
        <ele>443</ele>
        <time>2012-06-20T16:11:43Z</time>
      </trkpt>
      <trkpt lat="46.30263" lon="2.44793">
        <ele>443</ele>
        <time>2012-06-20T16:11:47Z</time>
      </trkpt>
      <trkpt lat="46.30264" lon="2.44777">
        <ele>443</ele>
        <time>2012-06-20T16:11:51Z</time>
      </trkpt>
      <trkpt lat="46.30264" lon="2.44764">
        <ele>443</ele>
        <time>2012-06-20T16:11:54Z</time>
      </trkpt>
      <trkpt lat="46.30265" lon="2.44748">
        <ele>443</ele>
        <time>2012-06-20T16:11:58Z</time>
      </trkpt>
      <trkpt lat="46.30266" lon="2.44731">
        <ele>443</ele>
        <time>2012-06-20T16:12:02Z</time>
      </trkpt>
      <trkpt lat="46.30266" lon="2.44713">
        <ele>443</ele>
        <time>2012-06-20T16:12:06Z</time>
      </trkpt>
      <trkpt lat="46.30266" lon="2.44698">
        <ele>443</ele>
        <time>2012-06-20T16:12:09Z</time>
      </trkpt>
      <trkpt lat="46.30267" lon="2.44683">
        <ele>443</ele>
        <time>2012-06-20T16:12:12Z</time>
      </trkpt>
      <trkpt lat="46.30267" lon="2.44668">
        <ele>443</ele>
        <time>2012-06-20T16:12:15Z</time>
      </trkpt>
      <trkpt lat="46.30267" lon="2.44654">
        <ele>443</ele>
        <time>2012-06-20T16:12:18Z</time>
      </trkpt>
      <trkpt lat="46.30266" lon="2.44639">
        <ele>443</ele>
        <time>2012-06-20T16:12:21Z</time>
      </trkpt>
      <trkpt lat="46.30266" lon="2.44625">
        <ele>443</ele>
        <time>2012-06-20T16:12:24Z</time>
      </trkpt>
      <trkpt lat="46.30264" lon="2.4461">
        <ele>443</ele>
        <time>2012-06-20T16:12:27Z</time>
      </trkpt>
      <trkpt lat="46.30263" lon="2.44594">
        <ele>443</ele>
        <time>2012-06-20T16:12:30Z</time>
      </trkpt>
      <trkpt lat="46.30261" lon="2.44581">
        <ele>443</ele>
        <time>2012-06-20T16:12:33Z</time>
      </trkpt>
      <trkpt lat="46.30261" lon="2.44565">
        <ele>444</ele>
        <time>2012-06-20T16:12:37Z</time>
      </trkpt>
      <trkpt lat="46.30254" lon="2.44557">
        <ele>444</ele>
        <time>2012-06-20T16:13:21Z</time>
      </trkpt>
      <trkpt lat="46.30259" lon="2.44544">
        <ele>444</ele>
        <time>2012-06-20T16:14:04Z</time>
      </trkpt>
      <trkpt lat="46.30259" lon="2.44527">
        <ele>445</ele>
        <time>2012-06-20T16:14:07Z</time>
      </trkpt>
      <trkpt lat="46.30262" lon="2.44514">
        <ele>445</ele>
        <time>2012-06-20T16:14:09Z</time>
      </trkpt>
      <trkpt lat="46.30262" lon="2.44499">
        <ele>447</ele>
        <time>2012-06-20T16:14:11Z</time>
      </trkpt>
      <trkpt lat="46.30263" lon="2.44483">
        <ele>447</ele>
        <time>2012-06-20T16:14:13Z</time>
      </trkpt>
      <trkpt lat="46.30268" lon="2.44468">
        <ele>447</ele>
        <time>2012-06-20T16:14:15Z</time>
      </trkpt>
      <trkpt lat="46.30271" lon="2.44452">
        <ele>448</ele>
        <time>2012-06-20T16:14:17Z</time>
      </trkpt>
      <trkpt lat="46.30273" lon="2.44435">
        <ele>448</ele>
        <time>2012-06-20T16:14:19Z</time>
      </trkpt>
      <trkpt lat="46.30273" lon="2.44418">
        <ele>448</ele>
        <time>2012-06-20T16:14:21Z</time>
      </trkpt>
      <trkpt lat="46.30269" lon="2.44404">
        <ele>450</ele>
        <time>2012-06-20T16:14:23Z</time>
      </trkpt>
      <trkpt lat="46.30264" lon="2.4439">
        <ele>450</ele>
        <time>2012-06-20T16:14:25Z</time>
      </trkpt>
      <trkpt lat="46.30258" lon="2.44375">
        <ele>451</ele>
        <time>2012-06-20T16:14:27Z</time>
      </trkpt>
      <trkpt lat="46.30253" lon="2.44361">
        <ele>451</ele>
        <time>2012-06-20T16:14:29Z</time>
      </trkpt>
      <trkpt lat="46.30248" lon="2.44346">
        <ele>451</ele>
        <time>2012-06-20T16:14:31Z</time>
      </trkpt>
      <trkpt lat="46.30245" lon="2.44333">
        <ele>452</ele>
        <time>2012-06-20T16:14:33Z</time>
      </trkpt>
      <trkpt lat="46.3024" lon="2.4432">
        <ele>453</ele>
        <time>2012-06-20T16:14:35Z</time>
      </trkpt>
      <trkpt lat="46.30236" lon="2.44308">
        <ele>454</ele>
        <time>2012-06-20T16:14:37Z</time>
      </trkpt>
      <trkpt lat="46.30231" lon="2.44294">
        <ele>454</ele>
        <time>2012-06-20T16:14:39Z</time>
      </trkpt>
      <trkpt lat="46.30225" lon="2.44278">
        <ele>455</ele>
        <time>2012-06-20T16:14:42Z</time>
      </trkpt>
      <trkpt lat="46.30221" lon="2.44262">
        <ele>455</ele>
        <time>2012-06-20T16:14:45Z</time>
      </trkpt>
      <trkpt lat="46.30218" lon="2.44247">
        <ele>458</ele>
        <time>2012-06-20T16:14:48Z</time>
      </trkpt>
      <trkpt lat="46.30219" lon="2.44232">
        <ele>459</ele>
        <time>2012-06-20T16:14:51Z</time>
      </trkpt>
      <trkpt lat="46.30222" lon="2.4422">
        <ele>459</ele>
        <time>2012-06-20T16:14:54Z</time>
      </trkpt>
      <trkpt lat="46.30225" lon="2.44206">
        <ele>459</ele>
        <time>2012-06-20T16:14:57Z</time>
      </trkpt>
      <trkpt lat="46.30225" lon="2.4419">
        <ele>460</ele>
        <time>2012-06-20T16:15:00Z</time>
      </trkpt>
      <trkpt lat="46.30225" lon="2.44174">
        <ele>460</ele>
        <time>2012-06-20T16:15:03Z</time>
      </trkpt>
      <trkpt lat="46.30226" lon="2.44159">
        <ele>462</ele>
        <time>2012-06-20T16:15:06Z</time>
      </trkpt>
      <trkpt lat="46.30227" lon="2.44143">
        <ele>462</ele>
        <time>2012-06-20T16:15:10Z</time>
      </trkpt>
      <trkpt lat="46.30226" lon="2.4413">
        <ele>463</ele>
        <time>2012-06-20T16:15:14Z</time>
      </trkpt>
      <trkpt lat="46.30225" lon="2.44115">
        <ele>463</ele>
        <time>2012-06-20T16:15:18Z</time>
      </trkpt>
      <trkpt lat="46.30221" lon="2.44102">
        <ele>463</ele>
        <time>2012-06-20T16:15:22Z</time>
      </trkpt>
      <trkpt lat="46.30215" lon="2.44089">
        <ele>463</ele>
        <time>2012-06-20T16:15:26Z</time>
      </trkpt>
      <trkpt lat="46.30208" lon="2.44079">
        <ele>465</ele>
        <time>2012-06-20T16:15:30Z</time>
      </trkpt>
      <trkpt lat="46.302" lon="2.44069">
        <ele>465</ele>
        <time>2012-06-20T16:15:34Z</time>
      </trkpt>
      <trkpt lat="46.30193" lon="2.44059">
        <ele>465</ele>
        <time>2012-06-20T16:15:38Z</time>
      </trkpt>
      <trkpt lat="46.30186" lon="2.4405">
        <ele>465</ele>
        <time>2012-06-20T16:15:42Z</time>
      </trkpt>
      <trkpt lat="46.30179" lon="2.44041">
        <ele>466</ele>
        <time>2012-06-20T16:15:46Z</time>
      </trkpt>
      <trkpt lat="46.3017" lon="2.4403">
        <ele>466</ele>
        <time>2012-06-20T16:15:51Z</time>
      </trkpt>
      <trkpt lat="46.30162" lon="2.44021">
        <ele>467</ele>
        <time>2012-06-20T16:15:55Z</time>
      </trkpt>
      <trkpt lat="46.30152" lon="2.44017">
        <ele>467</ele>
        <time>2012-06-20T16:15:59Z</time>
      </trkpt>
      <trkpt lat="46.30142" lon="2.44019">
        <ele>467</ele>
        <time>2012-06-20T16:16:02Z</time>
      </trkpt>
      <trkpt lat="46.30132" lon="2.44026">
        <ele>467</ele>
        <time>2012-06-20T16:16:05Z</time>
      </trkpt>
      <trkpt lat="46.3012" lon="2.44032">
        <ele>467</ele>
        <time>2012-06-20T16:16:08Z</time>
      </trkpt>
      <trkpt lat="46.30108" lon="2.44033">
        <ele>467</ele>
        <time>2012-06-20T16:16:10Z</time>
      </trkpt>
      <trkpt lat="46.30096" lon="2.44031">
        <ele>467</ele>
        <time>2012-06-20T16:16:12Z</time>
      </trkpt>
      <trkpt lat="46.30085" lon="2.44026">
        <ele>468</ele>
        <time>2012-06-20T16:16:14Z</time>
      </trkpt>
      <trkpt lat="46.30077" lon="2.44018">
        <ele>470</ele>
        <time>2012-06-20T16:16:16Z</time>
      </trkpt>
      <trkpt lat="46.30069" lon="2.44009">
        <ele>470</ele>
        <time>2012-06-20T16:16:18Z</time>
      </trkpt>
      <trkpt lat="46.30062" lon="2.44">
        <ele>470</ele>
        <time>2012-06-20T16:16:20Z</time>
      </trkpt>
      <trkpt lat="46.30056" lon="2.43991">
        <ele>470</ele>
        <time>2012-06-20T16:16:22Z</time>
      </trkpt>
      <trkpt lat="46.30048" lon="2.43978">
        <ele>470</ele>
        <time>2012-06-20T16:16:25Z</time>
      </trkpt>
      <trkpt lat="46.30041" lon="2.43966">
        <ele>470</ele>
        <time>2012-06-20T16:16:28Z</time>
      </trkpt>
      <trkpt lat="46.30033" lon="2.43955">
        <ele>471</ele>
        <time>2012-06-20T16:16:31Z</time>
      </trkpt>
      <trkpt lat="46.30025" lon="2.43943">
        <ele>470</ele>
        <time>2012-06-20T16:16:34Z</time>
      </trkpt>
      <trkpt lat="46.30017" lon="2.43932">
        <ele>470</ele>
        <time>2012-06-20T16:16:37Z</time>
      </trkpt>
      <trkpt lat="46.3001" lon="2.43921">
        <ele>470</ele>
        <time>2012-06-20T16:16:40Z</time>
      </trkpt>
      <trkpt lat="46.30002" lon="2.43911">
        <ele>471</ele>
        <time>2012-06-20T16:16:43Z</time>
      </trkpt>
      <trkpt lat="46.29995" lon="2.43901">
        <ele>472</ele>
        <time>2012-06-20T16:16:46Z</time>
      </trkpt>
      <trkpt lat="46.29987" lon="2.43891">
        <ele>473</ele>
        <time>2012-06-20T16:16:49Z</time>
      </trkpt>
      <trkpt lat="46.29979" lon="2.4388">
        <ele>474</ele>
        <time>2012-06-20T16:16:52Z</time>
      </trkpt>
      <trkpt lat="46.29975" lon="2.43868">
        <ele>475</ele>
        <time>2012-06-20T16:16:55Z</time>
      </trkpt>
      <trkpt lat="46.29966" lon="2.43859">
        <ele>475</ele>
        <time>2012-06-20T16:16:58Z</time>
      </trkpt>
      <trkpt lat="46.29955" lon="2.43858">
        <ele>475</ele>
        <time>2012-06-20T16:17:01Z</time>
      </trkpt>
      <trkpt lat="46.29943" lon="2.4386">
        <ele>475</ele>
        <time>2012-06-20T16:17:04Z</time>
      </trkpt>
      <trkpt lat="46.2993" lon="2.43865">
        <ele>475</ele>
        <time>2012-06-20T16:17:07Z</time>
      </trkpt>
      <trkpt lat="46.29918" lon="2.4387">
        <ele>475</ele>
        <time>2012-06-20T16:17:10Z</time>
      </trkpt>
      <trkpt lat="46.29908" lon="2.43877">
        <ele>478</ele>
        <time>2012-06-20T16:17:13Z</time>
      </trkpt>
      <trkpt lat="46.29899" lon="2.43886">
        <ele>478</ele>
        <time>2012-06-20T16:17:16Z</time>
      </trkpt>
      <trkpt lat="46.2989" lon="2.43894">
        <ele>478</ele>
        <time>2012-06-20T16:17:19Z</time>
      </trkpt>
      <trkpt lat="46.29882" lon="2.439">
        <ele>478</ele>
        <time>2012-06-20T16:17:22Z</time>
      </trkpt>
      <trkpt lat="46.29872" lon="2.43894">
        <ele>478</ele>
        <time>2012-06-20T16:17:25Z</time>
      </trkpt>
      <trkpt lat="46.29863" lon="2.43884">
        <ele>478</ele>
        <time>2012-06-20T16:17:28Z</time>
      </trkpt>
      <trkpt lat="46.29854" lon="2.43874">
        <ele>479</ele>
        <time>2012-06-20T16:17:31Z</time>
      </trkpt>
      <trkpt lat="46.29844" lon="2.43862">
        <ele>479</ele>
        <time>2012-06-20T16:17:34Z</time>
      </trkpt>
      <trkpt lat="46.29835" lon="2.4385">
        <ele>479</ele>
        <time>2012-06-20T16:17:37Z</time>
      </trkpt>
      <trkpt lat="46.29826" lon="2.43839">
        <ele>481</ele>
        <time>2012-06-20T16:17:40Z</time>
      </trkpt>
      <trkpt lat="46.29816" lon="2.43826">
        <ele>481</ele>
        <time>2012-06-20T16:17:43Z</time>
      </trkpt>
      <trkpt lat="46.29806" lon="2.43814">
        <ele>481</ele>
        <time>2012-06-20T16:17:46Z</time>
      </trkpt>
      <trkpt lat="46.29796" lon="2.43803">
        <ele>481</ele>
        <time>2012-06-20T16:17:49Z</time>
      </trkpt>
      <trkpt lat="46.29786" lon="2.4379">
        <ele>481</ele>
        <time>2012-06-20T16:17:52Z</time>
      </trkpt>
      <trkpt lat="46.29777" lon="2.43779">
        <ele>481</ele>
        <time>2012-06-20T16:17:55Z</time>
      </trkpt>
      <trkpt lat="46.29768" lon="2.43768">
        <ele>482</ele>
        <time>2012-06-20T16:17:58Z</time>
      </trkpt>
      <trkpt lat="46.29758" lon="2.43758">
        <ele>482</ele>
        <time>2012-06-20T16:18:01Z</time>
      </trkpt>
      <trkpt lat="46.2975" lon="2.43747">
        <ele>483</ele>
        <time>2012-06-20T16:18:04Z</time>
      </trkpt>
      <trkpt lat="46.29742" lon="2.43734">
        <ele>484</ele>
        <time>2012-06-20T16:18:07Z</time>
      </trkpt>
      <trkpt lat="46.29735" lon="2.43719">
        <ele>485</ele>
        <time>2012-06-20T16:18:10Z</time>
      </trkpt>
      <trkpt lat="46.29729" lon="2.43703">
        <ele>485</ele>
        <time>2012-06-20T16:18:13Z</time>
      </trkpt>
      <trkpt lat="46.29725" lon="2.43687">
        <ele>485</ele>
        <time>2012-06-20T16:18:16Z</time>
      </trkpt>
      <trkpt lat="46.29722" lon="2.43672">
        <ele>486</ele>
        <time>2012-06-20T16:18:19Z</time>
      </trkpt>
      <trkpt lat="46.29716" lon="2.43656">
        <ele>488</ele>
        <time>2012-06-20T16:18:22Z</time>
      </trkpt>
      <trkpt lat="46.29712" lon="2.43639">
        <ele>488</ele>
        <time>2012-06-20T16:18:25Z</time>
      </trkpt>
      <trkpt lat="46.29708" lon="2.43624">
        <ele>488</ele>
        <time>2012-06-20T16:18:28Z</time>
      </trkpt>
      <trkpt lat="46.29705" lon="2.4361">
        <ele>489</ele>
        <time>2012-06-20T16:18:31Z</time>
      </trkpt>
      <trkpt lat="46.297" lon="2.43594">
        <ele>489</ele>
        <time>2012-06-20T16:18:34Z</time>
      </trkpt>
      <trkpt lat="46.29696" lon="2.43579">
        <ele>490</ele>
        <time>2012-06-20T16:18:37Z</time>
      </trkpt>
      <trkpt lat="46.29691" lon="2.43563">
        <ele>490</ele>
        <time>2012-06-20T16:18:40Z</time>
      </trkpt>
      <trkpt lat="46.29687" lon="2.43547">
        <ele>490</ele>
        <time>2012-06-20T16:18:43Z</time>
      </trkpt>
      <trkpt lat="46.2968" lon="2.43529">
        <ele>491</ele>
        <time>2012-06-20T16:18:46Z</time>
      </trkpt>
      <trkpt lat="46.29675" lon="2.43513">
        <ele>491</ele>
        <time>2012-06-20T16:18:49Z</time>
      </trkpt>
      <trkpt lat="46.2967" lon="2.43496">
        <ele>491</ele>
        <time>2012-06-20T16:18:52Z</time>
      </trkpt>
      <trkpt lat="46.29665" lon="2.43483">
        <ele>490</ele>
        <time>2012-06-20T16:18:54Z</time>
      </trkpt>
      <trkpt lat="46.29662" lon="2.4347">
        <ele>489</ele>
        <time>2012-06-20T16:18:56Z</time>
      </trkpt>
      <trkpt lat="46.29657" lon="2.43458">
        <ele>489</ele>
        <time>2012-06-20T16:18:58Z</time>
      </trkpt>
      <trkpt lat="46.29652" lon="2.43446">
        <ele>489</ele>
        <time>2012-06-20T16:19:00Z</time>
      </trkpt>
      <trkpt lat="46.29646" lon="2.43434">
        <ele>490</ele>
        <time>2012-06-20T16:19:02Z</time>
      </trkpt>
      <trkpt lat="46.29641" lon="2.4342">
        <ele>490</ele>
        <time>2012-06-20T16:19:04Z</time>
      </trkpt>
      <trkpt lat="46.29637" lon="2.43408">
        <ele>491</ele>
        <time>2012-06-20T16:19:06Z</time>
      </trkpt>
      <trkpt lat="46.29632" lon="2.43397">
        <ele>491</ele>
        <time>2012-06-20T16:19:08Z</time>
      </trkpt>
      <trkpt lat="46.29627" lon="2.43385">
        <ele>491</ele>
        <time>2012-06-20T16:19:10Z</time>
      </trkpt>
      <trkpt lat="46.29621" lon="2.43373">
        <ele>491</ele>
        <time>2012-06-20T16:19:12Z</time>
      </trkpt>
      <trkpt lat="46.29614" lon="2.43357">
        <ele>491</ele>
        <time>2012-06-20T16:19:15Z</time>
      </trkpt>
      <trkpt lat="46.2961" lon="2.43346">
        <ele>492</ele>
        <time>2012-06-20T16:19:17Z</time>
      </trkpt>
      <trkpt lat="46.29603" lon="2.43329">
        <ele>493</ele>
        <time>2012-06-20T16:19:20Z</time>
      </trkpt>
      <trkpt lat="46.29595" lon="2.43313">
        <ele>493</ele>
        <time>2012-06-20T16:19:23Z</time>
      </trkpt>
      <trkpt lat="46.29589" lon="2.43299">
        <ele>493</ele>
        <time>2012-06-20T16:19:26Z</time>
      </trkpt>
      <trkpt lat="46.29585" lon="2.43285">
        <ele>493</ele>
        <time>2012-06-20T16:19:29Z</time>
      </trkpt>
      <trkpt lat="46.29581" lon="2.43272">
        <ele>492</ele>
        <time>2012-06-20T16:19:32Z</time>
      </trkpt>
      <trkpt lat="46.29592" lon="2.43268">
        <ele>493</ele>
        <time>2012-06-20T16:19:36Z</time>
      </trkpt>
      <trkpt lat="46.29604" lon="2.43271">
        <ele>493</ele>
        <time>2012-06-20T16:19:39Z</time>
      </trkpt>
      <trkpt lat="46.29617" lon="2.43274">
        <ele>493</ele>
        <time>2012-06-20T16:19:42Z</time>
      </trkpt>
      <trkpt lat="46.2963" lon="2.43275">
        <ele>493</ele>
        <time>2012-06-20T16:19:45Z</time>
      </trkpt>
      <trkpt lat="46.29642" lon="2.43276">
        <ele>493</ele>
        <time>2012-06-20T16:19:48Z</time>
      </trkpt>
      <trkpt lat="46.29654" lon="2.43276">
        <ele>494</ele>
        <time>2012-06-20T16:19:51Z</time>
      </trkpt>
      <trkpt lat="46.29666" lon="2.43275">
        <ele>494</ele>
        <time>2012-06-20T16:19:54Z</time>
      </trkpt>
      <trkpt lat="46.29678" lon="2.43273">
        <ele>493</ele>
        <time>2012-06-20T16:19:57Z</time>
      </trkpt>
      <trkpt lat="46.2969" lon="2.43272">
        <ele>493</ele>
        <time>2012-06-20T16:20:00Z</time>
      </trkpt>
      <trkpt lat="46.29699" lon="2.43272">
        <ele>493</ele>
        <time>2012-06-20T16:20:03Z</time>
      </trkpt>
      <trkpt lat="46.29689" lon="2.43267">
        <ele>493</ele>
        <time>2012-06-20T16:27:02Z</time>
      </trkpt>
      <trkpt lat="46.29679" lon="2.43268">
        <ele>493</ele>
        <time>2012-06-20T16:27:06Z</time>
      </trkpt>
      <trkpt lat="46.2967" lon="2.43265">
        <ele>493</ele>
        <time>2012-06-20T16:27:30Z</time>
      </trkpt>
      <trkpt lat="46.29659" lon="2.43266">
        <ele>494</ele>
        <time>2012-06-20T16:27:34Z</time>
      </trkpt>
      <trkpt lat="46.29648" lon="2.43267">
        <ele>494</ele>
        <time>2012-06-20T16:27:37Z</time>
      </trkpt>
      <trkpt lat="46.29637" lon="2.43267">
        <ele>493</ele>
        <time>2012-06-20T16:27:40Z</time>
      </trkpt>
      <trkpt lat="46.29627" lon="2.43267">
        <ele>493</ele>
        <time>2012-06-20T16:27:43Z</time>
      </trkpt>
      <trkpt lat="46.29615" lon="2.43267">
        <ele>493</ele>
        <time>2012-06-20T16:27:46Z</time>
      </trkpt>
      <trkpt lat="46.29606" lon="2.43266">
        <ele>493</ele>
        <time>2012-06-20T16:27:48Z</time>
      </trkpt>
      <trkpt lat="46.29593" lon="2.43264">
        <ele>493</ele>
        <time>2012-06-20T16:27:51Z</time>
      </trkpt>
      <trkpt lat="46.29583" lon="2.43266">
        <ele>493</ele>
        <time>2012-06-20T16:27:54Z</time>
      </trkpt>
      <trkpt lat="46.29579" lon="2.43281">
        <ele>492</ele>
        <time>2012-06-20T16:27:58Z</time>
      </trkpt>
      <trkpt lat="46.29583" lon="2.43293">
        <ele>492</ele>
        <time>2012-06-20T16:28:00Z</time>
      </trkpt>
      <trkpt lat="46.29588" lon="2.43309">
        <ele>493</ele>
        <time>2012-06-20T16:28:02Z</time>
      </trkpt>
      <trkpt lat="46.29595" lon="2.43324">
        <ele>493</ele>
        <time>2012-06-20T16:28:04Z</time>
      </trkpt>
      <trkpt lat="46.29604" lon="2.4334">
        <ele>492</ele>
        <time>2012-06-20T16:28:06Z</time>
      </trkpt>
      <trkpt lat="46.29612" lon="2.43359">
        <ele>491</ele>
        <time>2012-06-20T16:28:08Z</time>
      </trkpt>
      <trkpt lat="46.2962" lon="2.43379">
        <ele>491</ele>
        <time>2012-06-20T16:28:10Z</time>
      </trkpt>
      <trkpt lat="46.29629" lon="2.434">
        <ele>491</ele>
        <time>2012-06-20T16:28:12Z</time>
      </trkpt>
      <trkpt lat="46.29639" lon="2.43423">
        <ele>489</ele>
        <time>2012-06-20T16:28:14Z</time>
      </trkpt>
      <trkpt lat="46.29648" lon="2.43445">
        <ele>489</ele>
        <time>2012-06-20T16:28:16Z</time>
      </trkpt>
      <trkpt lat="46.29652" lon="2.43457">
        <ele>489</ele>
        <time>2012-06-20T16:28:17Z</time>
      </trkpt>
      <trkpt lat="46.29657" lon="2.43469">
        <ele>489</ele>
        <time>2012-06-20T16:28:18Z</time>
      </trkpt>
      <trkpt lat="46.29665" lon="2.43493">
        <ele>490</ele>
        <time>2012-06-20T16:28:20Z</time>
      </trkpt>
      <trkpt lat="46.29668" lon="2.43505">
        <ele>491</ele>
        <time>2012-06-20T16:28:21Z</time>
      </trkpt>
      <trkpt lat="46.29672" lon="2.43518">
        <ele>491</ele>
        <time>2012-06-20T16:28:22Z</time>
      </trkpt>
      <trkpt lat="46.29676" lon="2.43531">
        <ele>491</ele>
        <time>2012-06-20T16:28:23Z</time>
      </trkpt>
      <trkpt lat="46.2968" lon="2.43543">
        <ele>490</ele>
        <time>2012-06-20T16:28:24Z</time>
      </trkpt>
      <trkpt lat="46.29684" lon="2.43556">
        <ele>490</ele>
        <time>2012-06-20T16:28:25Z</time>
      </trkpt>
      <trkpt lat="46.29687" lon="2.43568">
        <ele>490</ele>
        <time>2012-06-20T16:28:26Z</time>
      </trkpt>
      <trkpt lat="46.29692" lon="2.43581">
        <ele>490</ele>
        <time>2012-06-20T16:28:27Z</time>
      </trkpt>
      <trkpt lat="46.29695" lon="2.43594">
        <ele>489</ele>
        <time>2012-06-20T16:28:28Z</time>
      </trkpt>
      <trkpt lat="46.297" lon="2.43607">
        <ele>489</ele>
        <time>2012-06-20T16:28:29Z</time>
      </trkpt>
      <trkpt lat="46.29703" lon="2.4362">
        <ele>488</ele>
        <time>2012-06-20T16:28:30Z</time>
      </trkpt>
      <trkpt lat="46.29708" lon="2.43632">
        <ele>488</ele>
        <time>2012-06-20T16:28:31Z</time>
      </trkpt>
      <trkpt lat="46.29712" lon="2.43646">
        <ele>488</ele>
        <time>2012-06-20T16:28:32Z</time>
      </trkpt>
      <trkpt lat="46.29716" lon="2.43658">
        <ele>488</ele>
        <time>2012-06-20T16:28:33Z</time>
      </trkpt>
      <trkpt lat="46.2972" lon="2.43672">
        <ele>486</ele>
        <time>2012-06-20T16:28:34Z</time>
      </trkpt>
      <trkpt lat="46.29723" lon="2.43684">
        <ele>485</ele>
        <time>2012-06-20T16:28:35Z</time>
      </trkpt>
      <trkpt lat="46.29726" lon="2.43697">
        <ele>485</ele>
        <time>2012-06-20T16:28:36Z</time>
      </trkpt>
      <trkpt lat="46.2973" lon="2.4371">
        <ele>485</ele>
        <time>2012-06-20T16:28:37Z</time>
      </trkpt>
      <trkpt lat="46.29734" lon="2.43723">
        <ele>485</ele>
        <time>2012-06-20T16:28:38Z</time>
      </trkpt>
      <trkpt lat="46.29739" lon="2.43735">
        <ele>484</ele>
        <time>2012-06-20T16:28:39Z</time>
      </trkpt>
      <trkpt lat="46.29745" lon="2.43746">
        <ele>483</ele>
        <time>2012-06-20T16:28:40Z</time>
      </trkpt>
      <trkpt lat="46.29751" lon="2.43756">
        <ele>483</ele>
        <time>2012-06-20T16:28:41Z</time>
      </trkpt>
      <trkpt lat="46.29758" lon="2.43765">
        <ele>482</ele>
        <time>2012-06-20T16:28:42Z</time>
      </trkpt>
      <trkpt lat="46.29766" lon="2.43773">
        <ele>482</ele>
        <time>2012-06-20T16:28:43Z</time>
      </trkpt>
      <trkpt lat="46.29773" lon="2.43782">
        <ele>481</ele>
        <time>2012-06-20T16:28:44Z</time>
      </trkpt>
      <trkpt lat="46.29781" lon="2.43791">
        <ele>481</ele>
        <time>2012-06-20T16:28:45Z</time>
      </trkpt>
      <trkpt lat="46.29788" lon="2.438">
        <ele>481</ele>
        <time>2012-06-20T16:28:46Z</time>
      </trkpt>
      <trkpt lat="46.29795" lon="2.43809">
        <ele>481</ele>
        <time>2012-06-20T16:28:47Z</time>
      </trkpt>
      <trkpt lat="46.29802" lon="2.43818">
        <ele>481</ele>
        <time>2012-06-20T16:28:48Z</time>
      </trkpt>
      <trkpt lat="46.29809" lon="2.43827">
        <ele>481</ele>
        <time>2012-06-20T16:28:49Z</time>
      </trkpt>
      <trkpt lat="46.29822" lon="2.43844">
        <ele>481</ele>
        <time>2012-06-20T16:28:51Z</time>
      </trkpt>
      <trkpt lat="46.29835" lon="2.43859">
        <ele>479</ele>
        <time>2012-06-20T16:28:53Z</time>
      </trkpt>
      <trkpt lat="46.29849" lon="2.43875">
        <ele>479</ele>
        <time>2012-06-20T16:28:55Z</time>
      </trkpt>
      <trkpt lat="46.29862" lon="2.4389">
        <ele>479</ele>
        <time>2012-06-20T16:28:57Z</time>
      </trkpt>
      <trkpt lat="46.29873" lon="2.43903">
        <ele>478</ele>
        <time>2012-06-20T16:28:59Z</time>
      </trkpt>
      <trkpt lat="46.29885" lon="2.43906">
        <ele>478</ele>
        <time>2012-06-20T16:29:01Z</time>
      </trkpt>
      <trkpt lat="46.29897" lon="2.43896">
        <ele>478</ele>
        <time>2012-06-20T16:29:03Z</time>
      </trkpt>
      <trkpt lat="46.2991" lon="2.43884">
        <ele>478</ele>
        <time>2012-06-20T16:29:05Z</time>
      </trkpt>
      <trkpt lat="46.29923" lon="2.43873">
        <ele>475</ele>
        <time>2012-06-20T16:29:07Z</time>
      </trkpt>
      <trkpt lat="46.29935" lon="2.43867">
        <ele>475</ele>
        <time>2012-06-20T16:29:09Z</time>
      </trkpt>
      <trkpt lat="46.29946" lon="2.43866">
        <ele>475</ele>
        <time>2012-06-20T16:29:12Z</time>
      </trkpt>
      <trkpt lat="46.29956" lon="2.43865">
        <ele>475</ele>
        <time>2012-06-20T16:29:16Z</time>
      </trkpt>
      <trkpt lat="46.29967" lon="2.43864">
        <ele>475</ele>
        <time>2012-06-20T16:29:19Z</time>
      </trkpt>
      <trkpt lat="46.29976" lon="2.43871">
        <ele>475</ele>
        <time>2012-06-20T16:29:21Z</time>
      </trkpt>
      <trkpt lat="46.29984" lon="2.43885">
        <ele>474</ele>
        <time>2012-06-20T16:29:23Z</time>
      </trkpt>
      <trkpt lat="46.29993" lon="2.43902">
        <ele>472</ele>
        <time>2012-06-20T16:29:25Z</time>
      </trkpt>
      <trkpt lat="46.30005" lon="2.43917">
        <ele>470</ele>
        <time>2012-06-20T16:29:27Z</time>
      </trkpt>
      <trkpt lat="46.30017" lon="2.43934">
        <ele>470</ele>
        <time>2012-06-20T16:29:29Z</time>
      </trkpt>
      <trkpt lat="46.30023" lon="2.43943">
        <ele>470</ele>
        <time>2012-06-20T16:29:30Z</time>
      </trkpt>
      <trkpt lat="46.3003" lon="2.43952">
        <ele>471</ele>
        <time>2012-06-20T16:29:31Z</time>
      </trkpt>
      <trkpt lat="46.30043" lon="2.4397">
        <ele>470</ele>
        <time>2012-06-20T16:29:33Z</time>
      </trkpt>
      <trkpt lat="46.30055" lon="2.43989">
        <ele>470</ele>
        <time>2012-06-20T16:29:35Z</time>
      </trkpt>
      <trkpt lat="46.30061" lon="2.43999">
        <ele>470</ele>
        <time>2012-06-20T16:29:36Z</time>
      </trkpt>
      <trkpt lat="46.30075" lon="2.44017">
        <ele>470</ele>
        <time>2012-06-20T16:29:38Z</time>
      </trkpt>
      <trkpt lat="46.30088" lon="2.4403">
        <ele>467</ele>
        <time>2012-06-20T16:29:40Z</time>
      </trkpt>
      <trkpt lat="46.30103" lon="2.44036">
        <ele>467</ele>
        <time>2012-06-20T16:29:42Z</time>
      </trkpt>
      <trkpt lat="46.30118" lon="2.44037">
        <ele>467</ele>
        <time>2012-06-20T16:29:44Z</time>
      </trkpt>
      <trkpt lat="46.30132" lon="2.44033">
        <ele>467</ele>
        <time>2012-06-20T16:29:46Z</time>
      </trkpt>
      <trkpt lat="46.30144" lon="2.44026">
        <ele>467</ele>
        <time>2012-06-20T16:29:48Z</time>
      </trkpt>
      <trkpt lat="46.30154" lon="2.44021">
        <ele>467</ele>
        <time>2012-06-20T16:29:50Z</time>
      </trkpt>
      <trkpt lat="46.30165" lon="2.44025">
        <ele>467</ele>
        <time>2012-06-20T16:29:52Z</time>
      </trkpt>
      <trkpt lat="46.30175" lon="2.44037">
        <ele>466</ele>
        <time>2012-06-20T16:29:54Z</time>
      </trkpt>
      <trkpt lat="46.30185" lon="2.44052">
        <ele>465</ele>
        <time>2012-06-20T16:29:56Z</time>
      </trkpt>
      <trkpt lat="46.30197" lon="2.44067">
        <ele>465</ele>
        <time>2012-06-20T16:29:58Z</time>
      </trkpt>
      <trkpt lat="46.3021" lon="2.44081">
        <ele>465</ele>
        <time>2012-06-20T16:30:00Z</time>
      </trkpt>
      <trkpt lat="46.30221" lon="2.441">
        <ele>463</ele>
        <time>2012-06-20T16:30:02Z</time>
      </trkpt>
      <trkpt lat="46.30228" lon="2.44124">
        <ele>463</ele>
        <time>2012-06-20T16:30:04Z</time>
      </trkpt>
      <trkpt lat="46.3023" lon="2.44137">
        <ele>462</ele>
        <time>2012-06-20T16:30:05Z</time>
      </trkpt>
      <trkpt lat="46.30229" lon="2.4415">
        <ele>462</ele>
        <time>2012-06-20T16:30:06Z</time>
      </trkpt>
      <trkpt lat="46.30226" lon="2.44177">
        <ele>460</ele>
        <time>2012-06-20T16:30:08Z</time>
      </trkpt>
      <trkpt lat="46.30225" lon="2.4419">
        <ele>460</ele>
        <time>2012-06-20T16:30:09Z</time>
      </trkpt>
      <trkpt lat="46.30225" lon="2.44203">
        <ele>459</ele>
        <time>2012-06-20T16:30:10Z</time>
      </trkpt>
      <trkpt lat="46.30225" lon="2.44217">
        <ele>459</ele>
        <time>2012-06-20T16:30:11Z</time>
      </trkpt>
      <trkpt lat="46.30225" lon="2.44243">
        <ele>458</ele>
        <time>2012-06-20T16:30:13Z</time>
      </trkpt>
      <trkpt lat="46.30226" lon="2.44256">
        <ele>456</ele>
        <time>2012-06-20T16:30:14Z</time>
      </trkpt>
      <trkpt lat="46.30228" lon="2.44272">
        <ele>455</ele>
        <time>2012-06-20T16:30:15Z</time>
      </trkpt>
      <trkpt lat="46.3023" lon="2.44286">
        <ele>455</ele>
        <time>2012-06-20T16:30:16Z</time>
      </trkpt>
      <trkpt lat="46.30233" lon="2.443">
        <ele>454</ele>
        <time>2012-06-20T16:30:17Z</time>
      </trkpt>
      <trkpt lat="46.30236" lon="2.44314">
        <ele>454</ele>
        <time>2012-06-20T16:30:18Z</time>
      </trkpt>
      <trkpt lat="46.30241" lon="2.44327">
        <ele>453</ele>
        <time>2012-06-20T16:30:19Z</time>
      </trkpt>
      <trkpt lat="46.30244" lon="2.44339">
        <ele>452</ele>
        <time>2012-06-20T16:30:20Z</time>
      </trkpt>
      <trkpt lat="46.30248" lon="2.44352">
        <ele>451</ele>
        <time>2012-06-20T16:30:21Z</time>
      </trkpt>
      <trkpt lat="46.30251" lon="2.44365">
        <ele>451</ele>
        <time>2012-06-20T16:30:22Z</time>
      </trkpt>
      <trkpt lat="46.30259" lon="2.44388">
        <ele>450</ele>
        <time>2012-06-20T16:30:24Z</time>
      </trkpt>
      <trkpt lat="46.30264" lon="2.44405">
        <ele>450</ele>
        <time>2012-06-20T16:30:26Z</time>
      </trkpt>
      <trkpt lat="46.3027" lon="2.44419">
        <ele>448</ele>
        <time>2012-06-20T16:30:28Z</time>
      </trkpt>
      <trkpt lat="46.30272" lon="2.44436">
        <ele>448</ele>
        <time>2012-06-20T16:30:30Z</time>
      </trkpt>
      <trkpt lat="46.30269" lon="2.44454">
        <ele>448</ele>
        <time>2012-06-20T16:30:32Z</time>
      </trkpt>
      <trkpt lat="46.30266" lon="2.44471">
        <ele>447</ele>
        <time>2012-06-20T16:30:34Z</time>
      </trkpt>
      <trkpt lat="46.30261" lon="2.4449">
        <ele>447</ele>
        <time>2012-06-20T16:30:36Z</time>
      </trkpt>
      <trkpt lat="46.3026" lon="2.44508">
        <ele>445</ele>
        <time>2012-06-20T16:30:38Z</time>
      </trkpt>
      <trkpt lat="46.3026" lon="2.44526">
        <ele>445</ele>
        <time>2012-06-20T16:30:40Z</time>
      </trkpt>
      <trkpt lat="46.30259" lon="2.44543">
        <ele>444</ele>
        <time>2012-06-20T16:30:42Z</time>
      </trkpt>
      <trkpt lat="46.30258" lon="2.44557">
        <ele>444</ele>
        <time>2012-06-20T16:30:45Z</time>
      </trkpt>
      <trkpt lat="46.3026" lon="2.44543">
        <ele>444</ele>
        <time>2012-06-20T16:37:17Z</time>
      </trkpt>
      <trkpt lat="46.30261" lon="2.44529">
        <ele>445</ele>
        <time>2012-06-20T16:37:23Z</time>
      </trkpt>
      <trkpt lat="46.30261" lon="2.44515">
        <ele>445</ele>
        <time>2012-06-20T16:37:28Z</time>
      </trkpt>
      <trkpt lat="46.30263" lon="2.44503">
        <ele>445</ele>
        <time>2012-06-20T16:37:32Z</time>
      </trkpt>
      <trkpt lat="46.30264" lon="2.44488">
        <ele>447</ele>
        <time>2012-06-20T16:37:36Z</time>
      </trkpt>
      <trkpt lat="46.30264" lon="2.44475">
        <ele>447</ele>
        <time>2012-06-20T16:37:41Z</time>
      </trkpt>
      <trkpt lat="46.30267" lon="2.4446">
        <ele>448</ele>
        <time>2012-06-20T16:37:45Z</time>
      </trkpt>
      <trkpt lat="46.30271" lon="2.44445">
        <ele>448</ele>
        <time>2012-06-20T16:37:49Z</time>
      </trkpt>
      <trkpt lat="46.30271" lon="2.4443">
        <ele>448</ele>
        <time>2012-06-20T16:37:53Z</time>
      </trkpt>
      <trkpt lat="46.30271" lon="2.44415">
        <ele>450</ele>
        <time>2012-06-20T16:37:57Z</time>
      </trkpt>
      <trkpt lat="46.30266" lon="2.44403">
        <ele>450</ele>
        <time>2012-06-20T16:38:01Z</time>
      </trkpt>
      <trkpt lat="46.3026" lon="2.4439">
        <ele>450</ele>
        <time>2012-06-20T16:38:06Z</time>
      </trkpt>
      <trkpt lat="46.30257" lon="2.44378">
        <ele>451</ele>
        <time>2012-06-20T16:38:10Z</time>
      </trkpt>
      <trkpt lat="46.30251" lon="2.44366">
        <ele>451</ele>
        <time>2012-06-20T16:38:13Z</time>
      </trkpt>
      <trkpt lat="46.30248" lon="2.44353">
        <ele>451</ele>
        <time>2012-06-20T16:38:16Z</time>
      </trkpt>
      <trkpt lat="46.30246" lon="2.4434">
        <ele>452</ele>
        <time>2012-06-20T16:38:19Z</time>
      </trkpt>
      <trkpt lat="46.30243" lon="2.44326">
        <ele>453</ele>
        <time>2012-06-20T16:38:23Z</time>
      </trkpt>
      <trkpt lat="46.30238" lon="2.44313">
        <ele>454</ele>
        <time>2012-06-20T16:38:27Z</time>
      </trkpt>
      <trkpt lat="46.30234" lon="2.44299">
        <ele>454</ele>
        <time>2012-06-20T16:38:31Z</time>
      </trkpt>
      <trkpt lat="46.30231" lon="2.44283">
        <ele>455</ele>
        <time>2012-06-20T16:38:35Z</time>
      </trkpt>
      <trkpt lat="46.30228" lon="2.44271">
        <ele>455</ele>
        <time>2012-06-20T16:38:39Z</time>
      </trkpt>
      <trkpt lat="46.30224" lon="2.44256">
        <ele>456</ele>
        <time>2012-06-20T16:38:43Z</time>
      </trkpt>
      <trkpt lat="46.30223" lon="2.4424">
        <ele>458</ele>
        <time>2012-06-20T16:38:47Z</time>
      </trkpt>
      <trkpt lat="46.30225" lon="2.44226">
        <ele>459</ele>
        <time>2012-06-20T16:38:52Z</time>
      </trkpt>
      <trkpt lat="46.30226" lon="2.44212">
        <ele>459</ele>
        <time>2012-06-20T16:38:56Z</time>
      </trkpt>
      <trkpt lat="46.30223" lon="2.44197">
        <ele>460</ele>
        <time>2012-06-20T16:39:00Z</time>
      </trkpt>
      <trkpt lat="46.30222" lon="2.4418">
        <ele>460</ele>
        <time>2012-06-20T16:39:04Z</time>
      </trkpt>
      <trkpt lat="46.30223" lon="2.44165">
        <ele>462</ele>
        <time>2012-06-20T16:39:08Z</time>
      </trkpt>
      <trkpt lat="46.30224" lon="2.4415">
        <ele>462</ele>
        <time>2012-06-20T16:39:12Z</time>
      </trkpt>
      <trkpt lat="46.30226" lon="2.44135">
        <ele>462</ele>
        <time>2012-06-20T16:39:18Z</time>
      </trkpt>
      <trkpt lat="46.30226" lon="2.44121">
        <ele>463</ele>
        <time>2012-06-20T16:39:23Z</time>
      </trkpt>
      <trkpt lat="46.30225" lon="2.44106">
        <ele>463</ele>
        <time>2012-06-20T16:39:28Z</time>
      </trkpt>
      <trkpt lat="46.30221" lon="2.44095">
        <ele>463</ele>
        <time>2012-06-20T16:39:33Z</time>
      </trkpt>
      <trkpt lat="46.30214" lon="2.44085">
        <ele>463</ele>
        <time>2012-06-20T16:39:38Z</time>
      </trkpt>
      <trkpt lat="46.30207" lon="2.44075">
        <ele>465</ele>
        <time>2012-06-20T16:39:43Z</time>
      </trkpt>
      <trkpt lat="46.30198" lon="2.44063">
        <ele>465</ele>
        <time>2012-06-20T16:39:49Z</time>
      </trkpt>
      <trkpt lat="46.30191" lon="2.44053">
        <ele>465</ele>
        <time>2012-06-20T16:39:54Z</time>
      </trkpt>
      <trkpt lat="46.30185" lon="2.44042">
        <ele>466</ele>
        <time>2012-06-20T16:39:59Z</time>
      </trkpt>
      <trkpt lat="46.30179" lon="2.44032">
        <ele>466</ele>
        <time>2012-06-20T16:40:04Z</time>
      </trkpt>
      <trkpt lat="46.3017" lon="2.44024">
        <ele>466</ele>
        <time>2012-06-20T16:40:09Z</time>
      </trkpt>
      <trkpt lat="46.3016" lon="2.44018">
        <ele>467</ele>
        <time>2012-06-20T16:40:14Z</time>
      </trkpt>
      <trkpt lat="46.30149" lon="2.44018">
        <ele>467</ele>
        <time>2012-06-20T16:40:19Z</time>
      </trkpt>
      <trkpt lat="46.30139" lon="2.44024">
        <ele>467</ele>
        <time>2012-06-20T16:40:24Z</time>
      </trkpt>
      <trkpt lat="46.30129" lon="2.44029">
        <ele>467</ele>
        <time>2012-06-20T16:40:28Z</time>
      </trkpt>
      <trkpt lat="46.30118" lon="2.44031">
        <ele>467</ele>
        <time>2012-06-20T16:40:32Z</time>
      </trkpt>
      <trkpt lat="46.30107" lon="2.44032">
        <ele>467</ele>
        <time>2012-06-20T16:40:35Z</time>
      </trkpt>
      <trkpt lat="46.30096" lon="2.44027">
        <ele>467</ele>
        <time>2012-06-20T16:40:38Z</time>
      </trkpt>
      <trkpt lat="46.30087" lon="2.44022">
        <ele>468</ele>
        <time>2012-06-20T16:40:41Z</time>
      </trkpt>
      <trkpt lat="46.30079" lon="2.44014">
        <ele>469</ele>
        <time>2012-06-20T16:40:44Z</time>
      </trkpt>
      <trkpt lat="46.30071" lon="2.44005">
        <ele>469</ele>
        <time>2012-06-20T16:40:47Z</time>
      </trkpt>
      <trkpt lat="46.30065" lon="2.43994">
        <ele>470</ele>
        <time>2012-06-20T16:40:50Z</time>
      </trkpt>
      <trkpt lat="46.30056" lon="2.43982">
        <ele>470</ele>
        <time>2012-06-20T16:40:54Z</time>
      </trkpt>
      <trkpt lat="46.30048" lon="2.4397">
        <ele>470</ele>
        <time>2012-06-20T16:40:58Z</time>
      </trkpt>
      <trkpt lat="46.3004" lon="2.43957">
        <ele>471</ele>
        <time>2012-06-20T16:41:02Z</time>
      </trkpt>
      <trkpt lat="46.30033" lon="2.43948">
        <ele>471</ele>
        <time>2012-06-20T16:41:05Z</time>
      </trkpt>
      <trkpt lat="46.30026" lon="2.43939">
        <ele>470</ele>
        <time>2012-06-20T16:41:08Z</time>
      </trkpt>
      <trkpt lat="46.30017" lon="2.43927">
        <ele>470</ele>
        <time>2012-06-20T16:41:12Z</time>
      </trkpt>
      <trkpt lat="46.3001" lon="2.43917">
        <ele>470</ele>
        <time>2012-06-20T16:41:15Z</time>
      </trkpt>
      <trkpt lat="46.30004" lon="2.43907">
        <ele>471</ele>
        <time>2012-06-20T16:41:18Z</time>
      </trkpt>
      <trkpt lat="46.29995" lon="2.43897">
        <ele>473</ele>
        <time>2012-06-20T16:41:21Z</time>
      </trkpt>
      <trkpt lat="46.29989" lon="2.43888">
        <ele>474</ele>
        <time>2012-06-20T16:41:24Z</time>
      </trkpt>
      <trkpt lat="46.29982" lon="2.43875">
        <ele>474</ele>
        <time>2012-06-20T16:41:28Z</time>
      </trkpt>
      <trkpt lat="46.29976" lon="2.43861">
        <ele>475</ele>
        <time>2012-06-20T16:41:32Z</time>
      </trkpt>
      <trkpt lat="46.29966" lon="2.43855">
        <ele>475</ele>
        <time>2012-06-20T16:41:36Z</time>
      </trkpt>
      <trkpt lat="46.29956" lon="2.43856">
        <ele>475</ele>
        <time>2012-06-20T16:41:40Z</time>
      </trkpt>
      <trkpt lat="46.29947" lon="2.43857">
        <ele>475</ele>
        <time>2012-06-20T16:41:43Z</time>
      </trkpt>
      <trkpt lat="46.29936" lon="2.43859">
        <ele>475</ele>
        <time>2012-06-20T16:41:47Z</time>
      </trkpt>
      <trkpt lat="46.29927" lon="2.43862">
        <ele>476</ele>
        <time>2012-06-20T16:41:50Z</time>
      </trkpt>
      <trkpt lat="46.29918" lon="2.43868">
        <ele>476</ele>
        <time>2012-06-20T16:41:53Z</time>
      </trkpt>
      <trkpt lat="46.2991" lon="2.43875">
        <ele>478</ele>
        <time>2012-06-20T16:41:56Z</time>
      </trkpt>
      <trkpt lat="46.29901" lon="2.43883">
        <ele>478</ele>
        <time>2012-06-20T16:42:00Z</time>
      </trkpt>
      <trkpt lat="46.29893" lon="2.43892">
        <ele>478</ele>
        <time>2012-06-20T16:42:04Z</time>
      </trkpt>
      <trkpt lat="46.29885" lon="2.43899">
        <ele>478</ele>
        <time>2012-06-20T16:42:08Z</time>
      </trkpt>
      <trkpt lat="46.29874" lon="2.43897">
        <ele>478</ele>
        <time>2012-06-20T16:42:13Z</time>
      </trkpt>
      <trkpt lat="46.29865" lon="2.43885">
        <ele>478</ele>
        <time>2012-06-20T16:42:18Z</time>
      </trkpt>
      <trkpt lat="46.29857" lon="2.43875">
        <ele>479</ele>
        <time>2012-06-20T16:42:22Z</time>
      </trkpt>
      <trkpt lat="46.29849" lon="2.43865">
        <ele>479</ele>
        <time>2012-06-20T16:42:26Z</time>
      </trkpt>
      <trkpt lat="46.2984" lon="2.43852">
        <ele>479</ele>
        <time>2012-06-20T16:42:30Z</time>
      </trkpt>
      <trkpt lat="46.29832" lon="2.43844">
        <ele>481</ele>
        <time>2012-06-20T16:42:33Z</time>
      </trkpt>
      <trkpt lat="46.29825" lon="2.43835">
        <ele>480</ele>
        <time>2012-06-20T16:42:36Z</time>
      </trkpt>
      <trkpt lat="46.29817" lon="2.43826">
        <ele>481</ele>
        <time>2012-06-20T16:42:39Z</time>
      </trkpt>
      <trkpt lat="46.29809" lon="2.43815">
        <ele>481</ele>
        <time>2012-06-20T16:42:42Z</time>
      </trkpt>
      <trkpt lat="46.29801" lon="2.43804">
        <ele>481</ele>
        <time>2012-06-20T16:42:45Z</time>
      </trkpt>
      <trkpt lat="46.29793" lon="2.43795">
        <ele>481</ele>
        <time>2012-06-20T16:42:48Z</time>
      </trkpt>
      <trkpt lat="46.29786" lon="2.43785">
        <ele>481</ele>
        <time>2012-06-20T16:42:51Z</time>
      </trkpt>
      <trkpt lat="46.29778" lon="2.43776">
        <ele>481</ele>
        <time>2012-06-20T16:42:54Z</time>
      </trkpt>
      <trkpt lat="46.2977" lon="2.43766">
        <ele>482</ele>
        <time>2012-06-20T16:42:57Z</time>
      </trkpt>
      <trkpt lat="46.2976" lon="2.43756">
        <ele>482</ele>
        <time>2012-06-20T16:43:01Z</time>
      </trkpt>
      <trkpt lat="46.29751" lon="2.43744">
        <ele>483</ele>
        <time>2012-06-20T16:43:05Z</time>
      </trkpt>
      <trkpt lat="46.29745" lon="2.43735">
        <ele>484</ele>
        <time>2012-06-20T16:43:08Z</time>
      </trkpt>
      <trkpt lat="46.2974" lon="2.43724">
        <ele>484</ele>
        <time>2012-06-20T16:43:11Z</time>
      </trkpt>
      <trkpt lat="46.29735" lon="2.43711">
        <ele>485</ele>
        <time>2012-06-20T16:43:14Z</time>
      </trkpt>
      <trkpt lat="46.29731" lon="2.43699">
        <ele>485</ele>
        <time>2012-06-20T16:43:17Z</time>
      </trkpt>
      <trkpt lat="46.29727" lon="2.43685">
        <ele>485</ele>
        <time>2012-06-20T16:43:20Z</time>
      </trkpt>
      <trkpt lat="46.29724" lon="2.43672">
        <ele>485</ele>
        <time>2012-06-20T16:43:23Z</time>
      </trkpt>
      <trkpt lat="46.2972" lon="2.43657">
        <ele>487</ele>
        <time>2012-06-20T16:43:26Z</time>
      </trkpt>
      <trkpt lat="46.29717" lon="2.43644">
        <ele>488</ele>
        <time>2012-06-20T16:43:29Z</time>
      </trkpt>
      <trkpt lat="46.29713" lon="2.4363">
        <ele>488</ele>
        <time>2012-06-20T16:43:32Z</time>
      </trkpt>
      <trkpt lat="46.2971" lon="2.43616">
        <ele>488</ele>
        <time>2012-06-20T16:43:35Z</time>
      </trkpt>
      <trkpt lat="46.29705" lon="2.43602">
        <ele>489</ele>
        <time>2012-06-20T16:43:38Z</time>
      </trkpt>
      <trkpt lat="46.297" lon="2.43588">
        <ele>489</ele>
        <time>2012-06-20T16:43:41Z</time>
      </trkpt>
      <trkpt lat="46.29695" lon="2.43573">
        <ele>490</ele>
        <time>2012-06-20T16:43:44Z</time>
      </trkpt>
      <trkpt lat="46.2969" lon="2.43558">
        <ele>490</ele>
        <time>2012-06-20T16:43:47Z</time>
      </trkpt>
      <trkpt lat="46.29686" lon="2.43543">
        <ele>490</ele>
        <time>2012-06-20T16:43:50Z</time>
      </trkpt>
      <trkpt lat="46.2968" lon="2.4353">
        <ele>491</ele>
        <time>2012-06-20T16:43:53Z</time>
      </trkpt>
      <trkpt lat="46.29675" lon="2.43514">
        <ele>491</ele>
        <time>2012-06-20T16:43:56Z</time>
      </trkpt>
      <trkpt lat="46.2967" lon="2.43501">
        <ele>491</ele>
        <time>2012-06-20T16:43:59Z</time>
      </trkpt>
      <trkpt lat="46.29667" lon="2.43486">
        <ele>491</ele>
        <time>2012-06-20T16:44:02Z</time>
      </trkpt>
      <trkpt lat="46.29662" lon="2.4347">
        <ele>489</ele>
        <time>2012-06-20T16:44:05Z</time>
      </trkpt>
      <trkpt lat="46.29657" lon="2.43454">
        <ele>489</ele>
        <time>2012-06-20T16:44:08Z</time>
      </trkpt>
      <trkpt lat="46.29651" lon="2.43438">
        <ele>490</ele>
        <time>2012-06-20T16:44:11Z</time>
      </trkpt>
      <trkpt lat="46.29645" lon="2.43423">
        <ele>490</ele>
        <time>2012-06-20T16:44:14Z</time>
      </trkpt>
      <trkpt lat="46.29639" lon="2.43407">
        <ele>491</ele>
        <time>2012-06-20T16:44:17Z</time>
      </trkpt>
      <trkpt lat="46.29631" lon="2.43391">
        <ele>491</ele>
        <time>2012-06-20T16:44:20Z</time>
      </trkpt>
      <trkpt lat="46.29624" lon="2.43376">
        <ele>491</ele>
        <time>2012-06-20T16:44:23Z</time>
      </trkpt>
      <trkpt lat="46.29618" lon="2.43361">
        <ele>491</ele>
        <time>2012-06-20T16:44:26Z</time>
      </trkpt>
      <trkpt lat="46.29611" lon="2.43346">
        <ele>492</ele>
        <time>2012-06-20T16:44:29Z</time>
      </trkpt>
      <trkpt lat="46.29604" lon="2.4333">
        <ele>493</ele>
        <time>2012-06-20T16:44:32Z</time>
      </trkpt>
      <trkpt lat="46.29597" lon="2.43315">
        <ele>493</ele>
        <time>2012-06-20T16:44:35Z</time>
      </trkpt>
      <trkpt lat="46.29592" lon="2.43303">
        <ele>493</ele>
        <time>2012-06-20T16:44:38Z</time>
      </trkpt>
      <trkpt lat="46.29586" lon="2.43289">
        <ele>493</ele>
        <time>2012-06-20T16:44:42Z</time>
      </trkpt>
      <trkpt lat="46.29581" lon="2.43277">
        <ele>492</ele>
        <time>2012-06-20T16:44:46Z</time>
      </trkpt>
      <trkpt lat="46.29585" lon="2.43266">
        <ele>493</ele>
        <time>2012-06-20T16:46:01Z</time>
      </trkpt>
      <trkpt lat="46.29596" lon="2.43269">
        <ele>493</ele>
        <time>2012-06-20T16:46:06Z</time>
      </trkpt>
      <trkpt lat="46.29606" lon="2.43272">
        <ele>493</ele>
        <time>2012-06-20T16:46:10Z</time>
      </trkpt>
      <trkpt lat="46.29616" lon="2.43274">
        <ele>493</ele>
        <time>2012-06-20T16:46:13Z</time>
      </trkpt>
      <trkpt lat="46.29626" lon="2.43276">
        <ele>493</ele>
        <time>2012-06-20T16:46:16Z</time>
      </trkpt>
      <trkpt lat="46.29636" lon="2.43276">
        <ele>493</ele>
        <time>2012-06-20T16:46:19Z</time>
      </trkpt>
      <trkpt lat="46.29647" lon="2.43276">
        <ele>493</ele>
        <time>2012-06-20T16:46:22Z</time>
      </trkpt>
      <trkpt lat="46.29657" lon="2.43276">
        <ele>494</ele>
        <time>2012-06-20T16:46:25Z</time>
      </trkpt>
      <trkpt lat="46.29669" lon="2.43276">
        <ele>493</ele>
        <time>2012-06-20T16:46:28Z</time>
      </trkpt>
      <trkpt lat="46.29681" lon="2.43274">
        <ele>493</ele>
        <time>2012-06-20T16:46:31Z</time>
      </trkpt>
      <trkpt lat="46.29695" lon="2.43272">
        <ele>493</ele>
        <time>2012-06-20T16:46:34Z</time>
      </trkpt>
      <trkpt lat="46.29705" lon="2.43271">
        <ele>493</ele>
        <time>2012-06-20T16:46:36Z</time>
      </trkpt>
      <trkpt lat="46.29715" lon="2.4327">
        <ele>493</ele>
        <time>2012-06-20T16:46:38Z</time>
      </trkpt>
      <trkpt lat="46.29725" lon="2.43268">
        <ele>492</ele>
        <time>2012-06-20T16:46:40Z</time>
      </trkpt>
      <trkpt lat="46.29735" lon="2.43267">
        <ele>492</ele>
        <time>2012-06-20T16:46:42Z</time>
      </trkpt>
      <trkpt lat="46.29745" lon="2.43267">
        <ele>492</ele>
        <time>2012-06-20T16:46:44Z</time>
      </trkpt>
      <trkpt lat="46.29756" lon="2.43265">
        <ele>491</ele>
        <time>2012-06-20T16:46:46Z</time>
      </trkpt>
      <trkpt lat="46.29766" lon="2.43264">
        <ele>491</ele>
        <time>2012-06-20T16:46:48Z</time>
      </trkpt>
      <trkpt lat="46.29776" lon="2.43263">
        <ele>491</ele>
        <time>2012-06-20T16:46:50Z</time>
      </trkpt>
      <trkpt lat="46.29786" lon="2.43262">
        <ele>490</ele>
        <time>2012-06-20T16:46:52Z</time>
      </trkpt>
      <trkpt lat="46.29796" lon="2.43261">
        <ele>490</ele>
        <time>2012-06-20T16:46:54Z</time>
      </trkpt>
      <trkpt lat="46.29807" lon="2.43258">
        <ele>490</ele>
        <time>2012-06-20T16:46:56Z</time>
      </trkpt>
      <trkpt lat="46.29822" lon="2.43257">
        <ele>490</ele>
        <time>2012-06-20T16:46:58Z</time>
      </trkpt>
      <trkpt lat="46.29839" lon="2.43258">
        <ele>490</ele>
        <time>2012-06-20T16:47:00Z</time>
      </trkpt>
      <trkpt lat="46.29855" lon="2.43258">
        <ele>490</ele>
        <time>2012-06-20T16:47:02Z</time>
      </trkpt>
      <trkpt lat="46.29872" lon="2.43259">
        <ele>490</ele>
        <time>2012-06-20T16:47:04Z</time>
      </trkpt>
      <trkpt lat="46.29882" lon="2.43258">
        <ele>490</ele>
        <time>2012-06-20T16:47:05Z</time>
      </trkpt>
      <trkpt lat="46.29898" lon="2.43258">
        <ele>491</ele>
        <time>2012-06-20T16:47:07Z</time>
      </trkpt>
      <trkpt lat="46.29912" lon="2.43257">
        <ele>491</ele>
        <time>2012-06-20T16:47:09Z</time>
      </trkpt>
      <trkpt lat="46.29926" lon="2.43255">
        <ele>492</ele>
        <time>2012-06-20T16:47:11Z</time>
      </trkpt>
      <trkpt lat="46.29938" lon="2.43252">
        <ele>492</ele>
        <time>2012-06-20T16:47:13Z</time>
      </trkpt>
      <trkpt lat="46.29949" lon="2.43249">
        <ele>492</ele>
        <time>2012-06-20T16:47:15Z</time>
      </trkpt>
      <trkpt lat="46.2996" lon="2.43248">
        <ele>492</ele>
        <time>2012-06-20T16:47:17Z</time>
      </trkpt>
      <trkpt lat="46.29971" lon="2.43248">
        <ele>492</ele>
        <time>2012-06-20T16:47:19Z</time>
      </trkpt>
      <trkpt lat="46.29984" lon="2.43247">
        <ele>492</ele>
        <time>2012-06-20T16:47:22Z</time>
      </trkpt>
      <trkpt lat="46.29996" lon="2.43245">
        <ele>492</ele>
        <time>2012-06-20T16:47:25Z</time>
      </trkpt>
      <trkpt lat="46.30009" lon="2.43242">
        <ele>492</ele>
        <time>2012-06-20T16:47:28Z</time>
      </trkpt>
      <trkpt lat="46.3002" lon="2.4324">
        <ele>493</ele>
        <time>2012-06-20T16:47:31Z</time>
      </trkpt>
      <trkpt lat="46.30032" lon="2.43238">
        <ele>493</ele>
        <time>2012-06-20T16:47:34Z</time>
      </trkpt>
      <trkpt lat="46.30044" lon="2.43236">
        <ele>493</ele>
        <time>2012-06-20T16:47:37Z</time>
      </trkpt>
      <trkpt lat="46.30056" lon="2.43234">
        <ele>493</ele>
        <time>2012-06-20T16:47:40Z</time>
      </trkpt>
      <trkpt lat="46.30068" lon="2.43231">
        <ele>494</ele>
        <time>2012-06-20T16:47:43Z</time>
      </trkpt>
      <trkpt lat="46.3008" lon="2.43229">
        <ele>494</ele>
        <time>2012-06-20T16:47:46Z</time>
      </trkpt>
      <trkpt lat="46.30093" lon="2.43227">
        <ele>494</ele>
        <time>2012-06-20T16:47:49Z</time>
      </trkpt>
      <trkpt lat="46.30104" lon="2.43225">
        <ele>494</ele>
        <time>2012-06-20T16:47:52Z</time>
      </trkpt>
      <trkpt lat="46.30117" lon="2.43223">
        <ele>494</ele>
        <time>2012-06-20T16:47:55Z</time>
      </trkpt>
      <trkpt lat="46.30128" lon="2.43221">
        <ele>494</ele>
        <time>2012-06-20T16:47:58Z</time>
      </trkpt>
      <trkpt lat="46.30142" lon="2.43219">
        <ele>494</ele>
        <time>2012-06-20T16:48:01Z</time>
      </trkpt>
      <trkpt lat="46.30155" lon="2.43217">
        <ele>494</ele>
        <time>2012-06-20T16:48:04Z</time>
      </trkpt>
      <trkpt lat="46.30165" lon="2.43215">
        <ele>494</ele>
        <time>2012-06-20T16:48:06Z</time>
      </trkpt>
      <trkpt lat="46.30175" lon="2.43213">
        <ele>495</ele>
        <time>2012-06-20T16:48:08Z</time>
      </trkpt>
      <trkpt lat="46.30186" lon="2.43205">
        <ele>495</ele>
        <time>2012-06-20T16:48:11Z</time>
      </trkpt>
      <trkpt lat="46.30197" lon="2.43197">
        <ele>495</ele>
        <time>2012-06-20T16:48:14Z</time>
      </trkpt>
      <trkpt lat="46.30208" lon="2.43187">
        <ele>495</ele>
        <time>2012-06-20T16:48:17Z</time>
      </trkpt>
      <trkpt lat="46.30216" lon="2.4318">
        <ele>495</ele>
        <time>2012-06-20T16:48:19Z</time>
      </trkpt>
      <trkpt lat="46.30226" lon="2.4317">
        <ele>496</ele>
        <time>2012-06-20T16:48:22Z</time>
      </trkpt>
      <trkpt lat="46.30236" lon="2.43161">
        <ele>496</ele>
        <time>2012-06-20T16:48:25Z</time>
      </trkpt>
      <trkpt lat="46.30246" lon="2.43152">
        <ele>496</ele>
        <time>2012-06-20T16:48:28Z</time>
      </trkpt>
      <trkpt lat="46.30255" lon="2.43146">
        <ele>497</ele>
        <time>2012-06-20T16:48:31Z</time>
      </trkpt>
      <trkpt lat="46.30264" lon="2.43142">
        <ele>497</ele>
        <time>2012-06-20T16:48:35Z</time>
      </trkpt>
      <trkpt lat="46.30272" lon="2.43135">
        <ele>497</ele>
        <time>2012-06-20T16:48:39Z</time>
      </trkpt>
      <trkpt lat="46.30279" lon="2.43124">
        <ele>497</ele>
        <time>2012-06-20T16:48:43Z</time>
      </trkpt>
      <trkpt lat="46.30288" lon="2.43114">
        <ele>497</ele>
        <time>2012-06-20T16:48:47Z</time>
      </trkpt>
      <trkpt lat="46.30296" lon="2.43106">
        <ele>497</ele>
        <time>2012-06-20T16:48:51Z</time>
      </trkpt>
      <trkpt lat="46.30306" lon="2.431">
        <ele>498</ele>
        <time>2012-06-20T16:48:55Z</time>
      </trkpt>
      <trkpt lat="46.30315" lon="2.43093">
        <ele>498</ele>
        <time>2012-06-20T16:48:59Z</time>
      </trkpt>
      <trkpt lat="46.30325" lon="2.43088">
        <ele>498</ele>
        <time>2012-06-20T16:49:02Z</time>
      </trkpt>
      <trkpt lat="46.30335" lon="2.43082">
        <ele>499</ele>
        <time>2012-06-20T16:49:05Z</time>
      </trkpt>
      <trkpt lat="46.30347" lon="2.43075">
        <ele>500</ele>
        <time>2012-06-20T16:49:08Z</time>
      </trkpt>
      <trkpt lat="46.30355" lon="2.43066">
        <ele>500</ele>
        <time>2012-06-20T16:49:11Z</time>
      </trkpt>
      <trkpt lat="46.30364" lon="2.43056">
        <ele>500</ele>
        <time>2012-06-20T16:49:14Z</time>
      </trkpt>
      <trkpt lat="46.30372" lon="2.43046">
        <ele>500</ele>
        <time>2012-06-20T16:49:17Z</time>
      </trkpt>
      <trkpt lat="46.30377" lon="2.43034">
        <ele>500</ele>
        <time>2012-06-20T16:49:20Z</time>
      </trkpt>
      <trkpt lat="46.30377" lon="2.43019">
        <ele>500</ele>
        <time>2012-06-20T16:49:23Z</time>
      </trkpt>
      <trkpt lat="46.30374" lon="2.43003">
        <ele>501</ele>
        <time>2012-06-20T16:49:26Z</time>
      </trkpt>
      <trkpt lat="46.30375" lon="2.42989">
        <ele>501</ele>
        <time>2012-06-20T16:49:29Z</time>
      </trkpt>
      <trkpt lat="46.3038" lon="2.42975">
        <ele>501</ele>
        <time>2012-06-20T16:49:32Z</time>
      </trkpt>
      <trkpt lat="46.30386" lon="2.42963">
        <ele>501</ele>
        <time>2012-06-20T16:49:35Z</time>
      </trkpt>
      <trkpt lat="46.30392" lon="2.4295">
        <ele>501</ele>
        <time>2012-06-20T16:49:38Z</time>
      </trkpt>
      <trkpt lat="46.304" lon="2.42937">
        <ele>501</ele>
        <time>2012-06-20T16:49:41Z</time>
      </trkpt>
      <trkpt lat="46.30408" lon="2.42922">
        <ele>502</ele>
        <time>2012-06-20T16:49:44Z</time>
      </trkpt>
      <trkpt lat="46.30415" lon="2.42905">
        <ele>501</ele>
        <time>2012-06-20T16:49:47Z</time>
      </trkpt>
      <trkpt lat="46.30421" lon="2.42894">
        <ele>501</ele>
        <time>2012-06-20T16:49:49Z</time>
      </trkpt>
      <trkpt lat="46.30425" lon="2.42881">
        <ele>501</ele>
        <time>2012-06-20T16:49:51Z</time>
      </trkpt>
      <trkpt lat="46.30429" lon="2.42869">
        <ele>501</ele>
        <time>2012-06-20T16:49:53Z</time>
      </trkpt>
      <trkpt lat="46.30431" lon="2.42855">
        <ele>501</ele>
        <time>2012-06-20T16:49:55Z</time>
      </trkpt>
      <trkpt lat="46.30433" lon="2.4284">
        <ele>501</ele>
        <time>2012-06-20T16:49:57Z</time>
      </trkpt>
      <trkpt lat="46.30436" lon="2.42825">
        <ele>500</ele>
        <time>2012-06-20T16:49:59Z</time>
      </trkpt>
      <trkpt lat="46.3044" lon="2.4281">
        <ele>500</ele>
        <time>2012-06-20T16:50:01Z</time>
      </trkpt>
      <trkpt lat="46.30443" lon="2.42794">
        <ele>500</ele>
        <time>2012-06-20T16:50:03Z</time>
      </trkpt>
      <trkpt lat="46.30446" lon="2.42778">
        <ele>500</ele>
        <time>2012-06-20T16:50:05Z</time>
      </trkpt>
      <trkpt lat="46.30449" lon="2.42761">
        <ele>500</ele>
        <time>2012-06-20T16:50:07Z</time>
      </trkpt>
      <trkpt lat="46.30452" lon="2.42743">
        <ele>499</ele>
        <time>2012-06-20T16:50:09Z</time>
      </trkpt>
      <trkpt lat="46.30456" lon="2.42725">
        <ele>498</ele>
        <time>2012-06-20T16:50:11Z</time>
      </trkpt>
      <trkpt lat="46.30459" lon="2.42706">
        <ele>498</ele>
        <time>2012-06-20T16:50:13Z</time>
      </trkpt>
      <trkpt lat="46.30462" lon="2.42687">
        <ele>498</ele>
        <time>2012-06-20T16:50:15Z</time>
      </trkpt>
      <trkpt lat="46.30467" lon="2.42668">
        <ele>498</ele>
        <time>2012-06-20T16:50:17Z</time>
      </trkpt>
      <trkpt lat="46.30471" lon="2.42649">
        <ele>497</ele>
        <time>2012-06-20T16:50:19Z</time>
      </trkpt>
      <trkpt lat="46.30474" lon="2.4263">
        <ele>497</ele>
        <time>2012-06-20T16:50:21Z</time>
      </trkpt>
      <trkpt lat="46.30478" lon="2.4261">
        <ele>496</ele>
        <time>2012-06-20T16:50:23Z</time>
      </trkpt>
      <trkpt lat="46.30481" lon="2.42589">
        <ele>497</ele>
        <time>2012-06-20T16:50:25Z</time>
      </trkpt>
      <trkpt lat="46.30485" lon="2.42569">
        <ele>496</ele>
        <time>2012-06-20T16:50:27Z</time>
      </trkpt>
      <trkpt lat="46.30491" lon="2.4255">
        <ele>495</ele>
        <time>2012-06-20T16:50:29Z</time>
      </trkpt>
      <trkpt lat="46.30496" lon="2.4253">
        <ele>495</ele>
        <time>2012-06-20T16:50:31Z</time>
      </trkpt>
      <trkpt lat="46.305" lon="2.4251">
        <ele>495</ele>
        <time>2012-06-20T16:50:33Z</time>
      </trkpt>
      <trkpt lat="46.30501" lon="2.42489">
        <ele>495</ele>
        <time>2012-06-20T16:50:35Z</time>
      </trkpt>
      <trkpt lat="46.30502" lon="2.4247">
        <ele>494</ele>
        <time>2012-06-20T16:50:37Z</time>
      </trkpt>
      <trkpt lat="46.30503" lon="2.42448">
        <ele>494</ele>
        <time>2012-06-20T16:50:39Z</time>
      </trkpt>
      <trkpt lat="46.30502" lon="2.42427">
        <ele>493</ele>
        <time>2012-06-20T16:50:41Z</time>
      </trkpt>
      <trkpt lat="46.30502" lon="2.42407">
        <ele>493</ele>
        <time>2012-06-20T16:50:43Z</time>
      </trkpt>
      <trkpt lat="46.30502" lon="2.42387">
        <ele>493</ele>
        <time>2012-06-20T16:50:45Z</time>
      </trkpt>
      <trkpt lat="46.30502" lon="2.42367">
        <ele>493</ele>
        <time>2012-06-20T16:50:47Z</time>
      </trkpt>
      <trkpt lat="46.30501" lon="2.42351">
        <ele>492</ele>
        <time>2012-06-20T16:50:49Z</time>
      </trkpt>
      <trkpt lat="46.30501" lon="2.42336">
        <ele>492</ele>
        <time>2012-06-20T16:50:52Z</time>
      </trkpt>
      <trkpt lat="46.3051" lon="2.42326">
        <ele>492</ele>
        <time>2012-06-20T16:51:32Z</time>
      </trkpt>
      <trkpt lat="46.30519" lon="2.42316">
        <ele>492</ele>
        <time>2012-06-20T16:51:35Z</time>
      </trkpt>
      <trkpt lat="46.3053" lon="2.42305">
        <ele>492</ele>
        <time>2012-06-20T16:51:38Z</time>
      </trkpt>
      <trkpt lat="46.30541" lon="2.42294">
        <ele>492</ele>
        <time>2012-06-20T16:51:41Z</time>
      </trkpt>
      <trkpt lat="46.30551" lon="2.42282">
        <ele>492</ele>
        <time>2012-06-20T16:51:44Z</time>
      </trkpt>
      <trkpt lat="46.30559" lon="2.42273">
        <ele>492</ele>
        <time>2012-06-20T16:51:47Z</time>
      </trkpt>
      <trkpt lat="46.30566" lon="2.42262">
        <ele>491</ele>
        <time>2012-06-20T16:51:51Z</time>
      </trkpt>
      <trkpt lat="46.30575" lon="2.42252">
        <ele>491</ele>
        <time>2012-06-20T16:51:56Z</time>
      </trkpt>
      <trkpt lat="46.30584" lon="2.42243">
        <ele>490</ele>
        <time>2012-06-20T16:51:59Z</time>
      </trkpt>
      <trkpt lat="46.30594" lon="2.4223">
        <ele>488</ele>
        <time>2012-06-20T16:52:02Z</time>
      </trkpt>
      <trkpt lat="46.30603" lon="2.4222">
        <ele>488</ele>
        <time>2012-06-20T16:52:04Z</time>
      </trkpt>
      <trkpt lat="46.30611" lon="2.4221">
        <ele>487</ele>
        <time>2012-06-20T16:52:06Z</time>
      </trkpt>
      <trkpt lat="46.30622" lon="2.42207">
        <ele>487</ele>
        <time>2012-06-20T16:52:08Z</time>
      </trkpt>
      <trkpt lat="46.30636" lon="2.42212">
        <ele>486</ele>
        <time>2012-06-20T16:52:10Z</time>
      </trkpt>
      <trkpt lat="46.3065" lon="2.42224">
        <ele>486</ele>
        <time>2012-06-20T16:52:12Z</time>
      </trkpt>
      <trkpt lat="46.30664" lon="2.42236">
        <ele>486</ele>
        <time>2012-06-20T16:52:14Z</time>
      </trkpt>
      <trkpt lat="46.30678" lon="2.42251">
        <ele>485</ele>
        <time>2012-06-20T16:52:16Z</time>
      </trkpt>
      <trkpt lat="46.30692" lon="2.42263">
        <ele>485</ele>
        <time>2012-06-20T16:52:18Z</time>
      </trkpt>
      <trkpt lat="46.30705" lon="2.42277">
        <ele>485</ele>
        <time>2012-06-20T16:52:20Z</time>
      </trkpt>
      <trkpt lat="46.30716" lon="2.42288">
        <ele>485</ele>
        <time>2012-06-20T16:52:22Z</time>
      </trkpt>
      <trkpt lat="46.30728" lon="2.42299">
        <ele>485</ele>
        <time>2012-06-20T16:52:24Z</time>
      </trkpt>
      <trkpt lat="46.30737" lon="2.42309">
        <ele>485</ele>
        <time>2012-06-20T16:52:26Z</time>
      </trkpt>
      <trkpt lat="46.30747" lon="2.42318">
        <ele>486</ele>
        <time>2012-06-20T16:52:28Z</time>
      </trkpt>
      <trkpt lat="46.30756" lon="2.42327">
        <ele>485</ele>
        <time>2012-06-20T16:52:30Z</time>
      </trkpt>
      <trkpt lat="46.30765" lon="2.42335">
        <ele>485</ele>
        <time>2012-06-20T16:52:32Z</time>
      </trkpt>
      <trkpt lat="46.30774" lon="2.42343">
        <ele>484</ele>
        <time>2012-06-20T16:52:34Z</time>
      </trkpt>
      <trkpt lat="46.30782" lon="2.42352">
        <ele>484</ele>
        <time>2012-06-20T16:52:36Z</time>
      </trkpt>
      <trkpt lat="46.3079" lon="2.42362">
        <ele>484</ele>
        <time>2012-06-20T16:52:38Z</time>
      </trkpt>
      <trkpt lat="46.30797" lon="2.42372">
        <ele>483</ele>
        <time>2012-06-20T16:52:40Z</time>
      </trkpt>
      <trkpt lat="46.30804" lon="2.42383">
        <ele>483</ele>
        <time>2012-06-20T16:52:42Z</time>
      </trkpt>
      <trkpt lat="46.30812" lon="2.42392">
        <ele>483</ele>
        <time>2012-06-20T16:52:45Z</time>
      </trkpt>
      <trkpt lat="46.30821" lon="2.42399">
        <ele>482</ele>
        <time>2012-06-20T16:52:47Z</time>
      </trkpt>
      <trkpt lat="46.3083" lon="2.42406">
        <ele>481</ele>
        <time>2012-06-20T16:52:49Z</time>
      </trkpt>
      <trkpt lat="46.30841" lon="2.42416">
        <ele>479</ele>
        <time>2012-06-20T16:52:51Z</time>
      </trkpt>
      <trkpt lat="46.30847" lon="2.42429">
        <ele>478</ele>
        <time>2012-06-20T16:52:54Z</time>
      </trkpt>
      <trkpt lat="46.30847" lon="2.42445">
        <ele>478</ele>
        <time>2012-06-20T16:52:57Z</time>
      </trkpt>
      <trkpt lat="46.30845" lon="2.42463">
        <ele>478</ele>
        <time>2012-06-20T16:53:00Z</time>
      </trkpt>
      <trkpt lat="46.30843" lon="2.4248">
        <ele>478</ele>
        <time>2012-06-20T16:53:03Z</time>
      </trkpt>
      <trkpt lat="46.3084" lon="2.42498">
        <ele>479</ele>
        <time>2012-06-20T16:53:05Z</time>
      </trkpt>
      <trkpt lat="46.3084" lon="2.42516">
        <ele>479</ele>
        <time>2012-06-20T16:53:07Z</time>
      </trkpt>
      <trkpt lat="46.30838" lon="2.42535">
        <ele>479</ele>
        <time>2012-06-20T16:53:09Z</time>
      </trkpt>
      <trkpt lat="46.30835" lon="2.42552">
        <ele>480</ele>
        <time>2012-06-20T16:53:11Z</time>
      </trkpt>
      <trkpt lat="46.30833" lon="2.42567">
        <ele>480</ele>
        <time>2012-06-20T16:53:13Z</time>
      </trkpt>
      <trkpt lat="46.30832" lon="2.4258">
        <ele>482</ele>
        <time>2012-06-20T16:53:15Z</time>
      </trkpt>
      <trkpt lat="46.3083" lon="2.42597">
        <ele>486</ele>
        <time>2012-06-20T16:53:18Z</time>
      </trkpt>
      <trkpt lat="46.30827" lon="2.42613">
        <ele>489</ele>
        <time>2012-06-20T16:53:21Z</time>
      </trkpt>
      <trkpt lat="46.30824" lon="2.42628">
        <ele>491</ele>
        <time>2012-06-20T16:53:24Z</time>
      </trkpt>
      <trkpt lat="46.30824" lon="2.42645">
        <ele>491</ele>
        <time>2012-06-20T16:53:27Z</time>
      </trkpt>
      <trkpt lat="46.30825" lon="2.42661">
        <ele>491</ele>
        <time>2012-06-20T16:53:30Z</time>
      </trkpt>
      <trkpt lat="46.30825" lon="2.42676">
        <ele>494</ele>
        <time>2012-06-20T16:53:33Z</time>
      </trkpt>
      <trkpt lat="46.30826" lon="2.42691">
        <ele>495</ele>
        <time>2012-06-20T16:53:36Z</time>
      </trkpt>
      <trkpt lat="46.30827" lon="2.42705">
        <ele>496</ele>
        <time>2012-06-20T16:53:39Z</time>
      </trkpt>
      <trkpt lat="46.30828" lon="2.4272">
        <ele>496</ele>
        <time>2012-06-20T16:53:42Z</time>
      </trkpt>
      <trkpt lat="46.30829" lon="2.42736">
        <ele>496</ele>
        <time>2012-06-20T16:53:45Z</time>
      </trkpt>
      <trkpt lat="46.3083" lon="2.42749">
        <ele>494</ele>
        <time>2012-06-20T16:53:48Z</time>
      </trkpt>
      <trkpt lat="46.3083" lon="2.42766">
        <ele>495</ele>
        <time>2012-06-20T16:53:52Z</time>
      </trkpt>
      <trkpt lat="46.3083" lon="2.4278">
        <ele>495</ele>
        <time>2012-06-20T16:53:55Z</time>
      </trkpt>
      <trkpt lat="46.30826" lon="2.42794">
        <ele>495</ele>
        <time>2012-06-20T16:53:59Z</time>
      </trkpt>
      <trkpt lat="46.30825" lon="2.42807">
        <ele>494</ele>
        <time>2012-06-20T16:54:03Z</time>
      </trkpt>
      <trkpt lat="46.30823" lon="2.42821">
        <ele>493</ele>
        <time>2012-06-20T16:54:07Z</time>
      </trkpt>
      <trkpt lat="46.30816" lon="2.42833">
        <ele>494</ele>
        <time>2012-06-20T16:54:13Z</time>
      </trkpt>
      <trkpt lat="46.30809" lon="2.42843">
        <ele>493</ele>
        <time>2012-06-20T16:54:18Z</time>
      </trkpt>
      <trkpt lat="46.30799" lon="2.4285">
        <ele>494</ele>
        <time>2012-06-20T16:54:23Z</time>
      </trkpt>
      <trkpt lat="46.30789" lon="2.42855">
        <ele>494</ele>
        <time>2012-06-20T16:54:27Z</time>
      </trkpt>
      <trkpt lat="46.30779" lon="2.42859">
        <ele>495</ele>
        <time>2012-06-20T16:54:32Z</time>
      </trkpt>
      <trkpt lat="46.30769" lon="2.42864">
        <ele>495</ele>
        <time>2012-06-20T16:54:37Z</time>
      </trkpt>
      <trkpt lat="46.30761" lon="2.42869">
        <ele>495</ele>
        <time>2012-06-20T16:54:41Z</time>
      </trkpt>
      <trkpt lat="46.3075" lon="2.42875">
        <ele>499</ele>
        <time>2012-06-20T16:54:46Z</time>
      </trkpt>
      <trkpt lat="46.30741" lon="2.42879">
        <ele>499</ele>
        <time>2012-06-20T16:54:50Z</time>
      </trkpt>
      <trkpt lat="46.30729" lon="2.42886">
        <ele>499</ele>
        <time>2012-06-20T16:54:54Z</time>
      </trkpt>
      <trkpt lat="46.30721" lon="2.42895">
        <ele>499</ele>
        <time>2012-06-20T16:54:57Z</time>
      </trkpt>
      <trkpt lat="46.30715" lon="2.42905">
        <ele>499</ele>
        <time>2012-06-20T16:55:00Z</time>
      </trkpt>
      <trkpt lat="46.30707" lon="2.42918">
        <ele>498</ele>
        <time>2012-06-20T16:55:04Z</time>
      </trkpt>
      <trkpt lat="46.307" lon="2.42931">
        <ele>498</ele>
        <time>2012-06-20T16:55:08Z</time>
      </trkpt>
      <trkpt lat="46.30692" lon="2.42944">
        <ele>498</ele>
        <time>2012-06-20T16:55:12Z</time>
      </trkpt>
      <trkpt lat="46.30685" lon="2.42958">
        <ele>499</ele>
        <time>2012-06-20T16:55:16Z</time>
      </trkpt>
      <trkpt lat="46.3068" lon="2.42969">
        <ele>499</ele>
        <time>2012-06-20T16:55:21Z</time>
      </trkpt>
      <trkpt lat="46.30688" lon="2.42976">
        <ele>499</ele>
        <time>2012-06-20T16:56:50Z</time>
      </trkpt>
      <trkpt lat="46.30701" lon="2.42976">
        <ele>498</ele>
        <time>2012-06-20T16:56:54Z</time>
      </trkpt>
      <trkpt lat="46.30712" lon="2.42975">
        <ele>498</ele>
        <time>2012-06-20T16:56:57Z</time>
      </trkpt>
      <trkpt lat="46.30721" lon="2.42975">
        <ele>498</ele>
        <time>2012-06-20T16:56:59Z</time>
      </trkpt>
      <trkpt lat="46.30732" lon="2.42975">
        <ele>497</ele>
        <time>2012-06-20T16:57:01Z</time>
      </trkpt>
      <trkpt lat="46.30743" lon="2.42976">
        <ele>497</ele>
        <time>2012-06-20T16:57:03Z</time>
      </trkpt>
      <trkpt lat="46.30757" lon="2.42976">
        <ele>494</ele>
        <time>2012-06-20T16:57:05Z</time>
      </trkpt>
      <trkpt lat="46.30771" lon="2.42977">
        <ele>494</ele>
        <time>2012-06-20T16:57:07Z</time>
      </trkpt>
      <trkpt lat="46.30786" lon="2.42978">
        <ele>494</ele>
        <time>2012-06-20T16:57:09Z</time>
      </trkpt>
      <trkpt lat="46.30795" lon="2.42978">
        <ele>493</ele>
        <time>2012-06-20T16:57:10Z</time>
      </trkpt>
      <trkpt lat="46.30813" lon="2.4298">
        <ele>493</ele>
        <time>2012-06-20T16:57:12Z</time>
      </trkpt>
      <trkpt lat="46.30828" lon="2.42982">
        <ele>492</ele>
        <time>2012-06-20T16:57:14Z</time>
      </trkpt>
      <trkpt lat="46.30844" lon="2.42984">
        <ele>491</ele>
        <time>2012-06-20T16:57:16Z</time>
      </trkpt>
      <trkpt lat="46.30861" lon="2.42984">
        <ele>491</ele>
        <time>2012-06-20T16:57:18Z</time>
      </trkpt>
      <trkpt lat="46.30876" lon="2.42984">
        <ele>491</ele>
        <time>2012-06-20T16:57:20Z</time>
      </trkpt>
      <trkpt lat="46.30892" lon="2.42981">
        <ele>491</ele>
        <time>2012-06-20T16:57:22Z</time>
      </trkpt>
      <trkpt lat="46.30908" lon="2.42976">
        <ele>490</ele>
        <time>2012-06-20T16:57:24Z</time>
      </trkpt>
      <trkpt lat="46.30924" lon="2.42975">
        <ele>492</ele>
        <time>2012-06-20T16:57:26Z</time>
      </trkpt>
      <trkpt lat="46.30942" lon="2.42975">
        <ele>493</ele>
        <time>2012-06-20T16:57:28Z</time>
      </trkpt>
      <trkpt lat="46.30959" lon="2.42975">
        <ele>493</ele>
        <time>2012-06-20T16:57:30Z</time>
      </trkpt>
      <trkpt lat="46.30974" lon="2.42978">
        <ele>494</ele>
        <time>2012-06-20T16:57:32Z</time>
      </trkpt>
      <trkpt lat="46.3099" lon="2.42984">
        <ele>495</ele>
        <time>2012-06-20T16:57:34Z</time>
      </trkpt>
      <trkpt lat="46.31003" lon="2.42993">
        <ele>496</ele>
        <time>2012-06-20T16:57:36Z</time>
      </trkpt>
      <trkpt lat="46.31016" lon="2.43002">
        <ele>494</ele>
        <time>2012-06-20T16:57:38Z</time>
      </trkpt>
      <trkpt lat="46.31028" lon="2.43016">
        <ele>493</ele>
        <time>2012-06-20T16:57:40Z</time>
      </trkpt>
      <trkpt lat="46.31037" lon="2.43036">
        <ele>492</ele>
        <time>2012-06-20T16:57:42Z</time>
      </trkpt>
      <trkpt lat="46.31046" lon="2.43058">
        <ele>491</ele>
        <time>2012-06-20T16:57:44Z</time>
      </trkpt>
      <trkpt lat="46.31051" lon="2.4307">
        <ele>490</ele>
        <time>2012-06-20T16:57:45Z</time>
      </trkpt>
      <trkpt lat="46.31056" lon="2.43081">
        <ele>489</ele>
        <time>2012-06-20T16:57:46Z</time>
      </trkpt>
      <trkpt lat="46.31061" lon="2.43094">
        <ele>487</ele>
        <time>2012-06-20T16:57:47Z</time>
      </trkpt>
      <trkpt lat="46.31066" lon="2.43105">
        <ele>486</ele>
        <time>2012-06-20T16:57:48Z</time>
      </trkpt>
      <trkpt lat="46.31073" lon="2.43115">
        <ele>486</ele>
        <time>2012-06-20T16:57:49Z</time>
      </trkpt>
      <trkpt lat="46.31078" lon="2.43128">
        <ele>485</ele>
        <time>2012-06-20T16:57:50Z</time>
      </trkpt>
      <trkpt lat="46.31084" lon="2.43141">
        <ele>481</ele>
        <time>2012-06-20T16:57:51Z</time>
      </trkpt>
      <trkpt lat="46.31091" lon="2.43152">
        <ele>480</ele>
        <time>2012-06-20T16:57:52Z</time>
      </trkpt>
      <trkpt lat="46.31098" lon="2.43165">
        <ele>480</ele>
        <time>2012-06-20T16:57:53Z</time>
      </trkpt>
      <trkpt lat="46.31105" lon="2.43176">
        <ele>477</ele>
        <time>2012-06-20T16:57:54Z</time>
      </trkpt>
      <trkpt lat="46.31114" lon="2.43187">
        <ele>476</ele>
        <time>2012-06-20T16:57:55Z</time>
      </trkpt>
      <trkpt lat="46.31122" lon="2.43198">
        <ele>475</ele>
        <time>2012-06-20T16:57:56Z</time>
      </trkpt>
      <trkpt lat="46.3113" lon="2.43207">
        <ele>474</ele>
        <time>2012-06-20T16:57:57Z</time>
      </trkpt>
      <trkpt lat="46.31137" lon="2.43216">
        <ele>473</ele>
        <time>2012-06-20T16:57:58Z</time>
      </trkpt>
      <trkpt lat="46.31145" lon="2.43227">
        <ele>472</ele>
        <time>2012-06-20T16:57:59Z</time>
      </trkpt>
      <trkpt lat="46.31153" lon="2.43235">
        <ele>471</ele>
        <time>2012-06-20T16:58:00Z</time>
      </trkpt>
      <trkpt lat="46.31162" lon="2.43242">
        <ele>469</ele>
        <time>2012-06-20T16:58:01Z</time>
      </trkpt>
      <trkpt lat="46.31171" lon="2.43248">
        <ele>466</ele>
        <time>2012-06-20T16:58:02Z</time>
      </trkpt>
      <trkpt lat="46.31181" lon="2.43255">
        <ele>465</ele>
        <time>2012-06-20T16:58:03Z</time>
      </trkpt>
      <trkpt lat="46.31191" lon="2.43256">
        <ele>464</ele>
        <time>2012-06-20T16:58:04Z</time>
      </trkpt>
      <trkpt lat="46.31201" lon="2.43259">
        <ele>464</ele>
        <time>2012-06-20T16:58:05Z</time>
      </trkpt>
      <trkpt lat="46.31211" lon="2.43264">
        <ele>463</ele>
        <time>2012-06-20T16:58:06Z</time>
      </trkpt>
      <trkpt lat="46.31226" lon="2.4327">
        <ele>463</ele>
        <time>2012-06-20T16:58:08Z</time>
      </trkpt>
      <trkpt lat="46.31244" lon="2.43275">
        <ele>463</ele>
        <time>2012-06-20T16:58:10Z</time>
      </trkpt>
      <trkpt lat="46.31254" lon="2.43277">
        <ele>461</ele>
        <time>2012-06-20T16:58:11Z</time>
      </trkpt>
      <trkpt lat="46.31264" lon="2.43284">
        <ele>461</ele>
        <time>2012-06-20T16:58:12Z</time>
      </trkpt>
      <trkpt lat="46.31273" lon="2.43292">
        <ele>460</ele>
        <time>2012-06-20T16:58:13Z</time>
      </trkpt>
      <trkpt lat="46.31282" lon="2.43302">
        <ele>460</ele>
        <time>2012-06-20T16:58:14Z</time>
      </trkpt>
      <trkpt lat="46.31289" lon="2.43311">
        <ele>460</ele>
        <time>2012-06-20T16:58:15Z</time>
      </trkpt>
      <trkpt lat="46.31296" lon="2.4332">
        <ele>460</ele>
        <time>2012-06-20T16:58:16Z</time>
      </trkpt>
      <trkpt lat="46.31303" lon="2.43329">
        <ele>459</ele>
        <time>2012-06-20T16:58:17Z</time>
      </trkpt>
      <trkpt lat="46.3131" lon="2.43339">
        <ele>457</ele>
        <time>2012-06-20T16:58:18Z</time>
      </trkpt>
      <trkpt lat="46.31318" lon="2.4335">
        <ele>457</ele>
        <time>2012-06-20T16:58:19Z</time>
      </trkpt>
      <trkpt lat="46.31326" lon="2.43361">
        <ele>456</ele>
        <time>2012-06-20T16:58:20Z</time>
      </trkpt>
      <trkpt lat="46.31336" lon="2.43372">
        <ele>454</ele>
        <time>2012-06-20T16:58:21Z</time>
      </trkpt>
      <trkpt lat="46.31346" lon="2.43382">
        <ele>454</ele>
        <time>2012-06-20T16:58:22Z</time>
      </trkpt>
      <trkpt lat="46.31359" lon="2.43392">
        <ele>453</ele>
        <time>2012-06-20T16:58:23Z</time>
      </trkpt>
      <trkpt lat="46.31368" lon="2.43402">
        <ele>453</ele>
        <time>2012-06-20T16:58:24Z</time>
      </trkpt>
      <trkpt lat="46.31378" lon="2.4341">
        <ele>453</ele>
        <time>2012-06-20T16:58:25Z</time>
      </trkpt>
      <trkpt lat="46.31387" lon="2.43415">
        <ele>453</ele>
        <time>2012-06-20T16:58:26Z</time>
      </trkpt>
      <trkpt lat="46.31397" lon="2.43418">
        <ele>450</ele>
        <time>2012-06-20T16:58:27Z</time>
      </trkpt>
      <trkpt lat="46.31407" lon="2.4342">
        <ele>451</ele>
        <time>2012-06-20T16:58:28Z</time>
      </trkpt>
      <trkpt lat="46.31418" lon="2.43421">
        <ele>451</ele>
        <time>2012-06-20T16:58:29Z</time>
      </trkpt>
      <trkpt lat="46.31428" lon="2.43423">
        <ele>449</ele>
        <time>2012-06-20T16:58:30Z</time>
      </trkpt>
      <trkpt lat="46.3144" lon="2.43426">
        <ele>447</ele>
        <time>2012-06-20T16:58:31Z</time>
      </trkpt>
      <trkpt lat="46.3145" lon="2.43429">
        <ele>445</ele>
        <time>2012-06-20T16:58:32Z</time>
      </trkpt>
      <trkpt lat="46.31461" lon="2.43432">
        <ele>444</ele>
        <time>2012-06-20T16:58:33Z</time>
      </trkpt>
      <trkpt lat="46.31472" lon="2.43435">
        <ele>444</ele>
        <time>2012-06-20T16:58:34Z</time>
      </trkpt>
      <trkpt lat="46.31483" lon="2.43441">
        <ele>443</ele>
        <time>2012-06-20T16:58:35Z</time>
      </trkpt>
      <trkpt lat="46.31494" lon="2.43449">
        <ele>443</ele>
        <time>2012-06-20T16:58:36Z</time>
      </trkpt>
      <trkpt lat="46.31505" lon="2.43457">
        <ele>437</ele>
        <time>2012-06-20T16:58:37Z</time>
      </trkpt>
      <trkpt lat="46.31515" lon="2.43464">
        <ele>436</ele>
        <time>2012-06-20T16:58:38Z</time>
      </trkpt>
      <trkpt lat="46.31526" lon="2.4347">
        <ele>436</ele>
        <time>2012-06-20T16:58:39Z</time>
      </trkpt>
      <trkpt lat="46.31536" lon="2.43476">
        <ele>435</ele>
        <time>2012-06-20T16:58:40Z</time>
      </trkpt>
      <trkpt lat="46.31552" lon="2.43488">
        <ele>434</ele>
        <time>2012-06-20T16:58:42Z</time>
      </trkpt>
      <trkpt lat="46.31562" lon="2.43495">
        <ele>434</ele>
        <time>2012-06-20T16:58:43Z</time>
      </trkpt>
      <trkpt lat="46.31572" lon="2.43501">
        <ele>433</ele>
        <time>2012-06-20T16:58:44Z</time>
      </trkpt>
      <trkpt lat="46.31581" lon="2.43507">
        <ele>433</ele>
        <time>2012-06-20T16:58:45Z</time>
      </trkpt>
      <trkpt lat="46.3159" lon="2.43513">
        <ele>431</ele>
        <time>2012-06-20T16:58:46Z</time>
      </trkpt>
      <trkpt lat="46.316" lon="2.43517">
        <ele>431</ele>
        <time>2012-06-20T16:58:47Z</time>
      </trkpt>
      <trkpt lat="46.31615" lon="2.43526">
        <ele>431</ele>
        <time>2012-06-20T16:58:49Z</time>
      </trkpt>
      <trkpt lat="46.31631" lon="2.43534">
        <ele>430</ele>
        <time>2012-06-20T16:58:51Z</time>
      </trkpt>
      <trkpt lat="46.31648" lon="2.43541">
        <ele>430</ele>
        <time>2012-06-20T16:58:53Z</time>
      </trkpt>
      <trkpt lat="46.31659" lon="2.43545">
        <ele>430</ele>
        <time>2012-06-20T16:58:54Z</time>
      </trkpt>
      <trkpt lat="46.31669" lon="2.43548">
        <ele>427</ele>
        <time>2012-06-20T16:58:55Z</time>
      </trkpt>
      <trkpt lat="46.31686" lon="2.43551">
        <ele>427</ele>
        <time>2012-06-20T16:58:57Z</time>
      </trkpt>
      <trkpt lat="46.31703" lon="2.43555">
        <ele>426</ele>
        <time>2012-06-20T16:58:59Z</time>
      </trkpt>
      <trkpt lat="46.31719" lon="2.43556">
        <ele>426</ele>
        <time>2012-06-20T16:59:01Z</time>
      </trkpt>
      <trkpt lat="46.31729" lon="2.43556">
        <ele>425</ele>
        <time>2012-06-20T16:59:02Z</time>
      </trkpt>
      <trkpt lat="46.31745" lon="2.43554">
        <ele>425</ele>
        <time>2012-06-20T16:59:04Z</time>
      </trkpt>
      <trkpt lat="46.31755" lon="2.43553">
        <ele>420</ele>
        <time>2012-06-20T16:59:05Z</time>
      </trkpt>
      <trkpt lat="46.3177" lon="2.4355">
        <ele>419</ele>
        <time>2012-06-20T16:59:07Z</time>
      </trkpt>
      <trkpt lat="46.31784" lon="2.43541">
        <ele>418</ele>
        <time>2012-06-20T16:59:09Z</time>
      </trkpt>
      <trkpt lat="46.31795" lon="2.43523">
        <ele>416</ele>
        <time>2012-06-20T16:59:11Z</time>
      </trkpt>
      <trkpt lat="46.31803" lon="2.43498">
        <ele>414</ele>
        <time>2012-06-20T16:59:13Z</time>
      </trkpt>
      <trkpt lat="46.31806" lon="2.43485">
        <ele>414</ele>
        <time>2012-06-20T16:59:14Z</time>
      </trkpt>
      <trkpt lat="46.31808" lon="2.43471">
        <ele>414</ele>
        <time>2012-06-20T16:59:15Z</time>
      </trkpt>
      <trkpt lat="46.31813" lon="2.43458">
        <ele>414</ele>
        <time>2012-06-20T16:59:16Z</time>
      </trkpt>
      <trkpt lat="46.31816" lon="2.43443">
        <ele>414</ele>
        <time>2012-06-20T16:59:17Z</time>
      </trkpt>
      <trkpt lat="46.31815" lon="2.43419">
        <ele>413</ele>
        <time>2012-06-20T16:59:19Z</time>
      </trkpt>
      <trkpt lat="46.31814" lon="2.43405">
        <ele>414</ele>
        <time>2012-06-20T16:59:20Z</time>
      </trkpt>
      <trkpt lat="46.31813" lon="2.43382">
        <ele>416</ele>
        <time>2012-06-20T16:59:22Z</time>
      </trkpt>
      <trkpt lat="46.31817" lon="2.43364">
        <ele>416</ele>
        <time>2012-06-20T16:59:24Z</time>
      </trkpt>
      <trkpt lat="46.31826" lon="2.43343">
        <ele>416</ele>
        <time>2012-06-20T16:59:27Z</time>
      </trkpt>
      <trkpt lat="46.31846" lon="2.43338">
        <ele>414</ele>
        <time>2012-06-20T16:59:29Z</time>
      </trkpt>
      <trkpt lat="46.31857" lon="2.4334">
        <ele>412</ele>
        <time>2012-06-20T16:59:30Z</time>
      </trkpt>
      <trkpt lat="46.3187" lon="2.43341">
        <ele>412</ele>
        <time>2012-06-20T16:59:31Z</time>
      </trkpt>
      <trkpt lat="46.31882" lon="2.43341">
        <ele>411</ele>
        <time>2012-06-20T16:59:32Z</time>
      </trkpt>
      <trkpt lat="46.31897" lon="2.43346">
        <ele>410</ele>
        <time>2012-06-20T16:59:34Z</time>
      </trkpt>
      <trkpt lat="46.31909" lon="2.43346">
        <ele>410</ele>
        <time>2012-06-20T16:59:36Z</time>
      </trkpt>
      <trkpt lat="46.31921" lon="2.43343">
        <ele>409</ele>
        <time>2012-06-20T16:59:38Z</time>
      </trkpt>
      <trkpt lat="46.31932" lon="2.43343">
        <ele>409</ele>
        <time>2012-06-20T16:59:41Z</time>
      </trkpt>
      <trkpt lat="46.31943" lon="2.43341">
        <ele>409</ele>
        <time>2012-06-20T16:59:44Z</time>
      </trkpt>
      <trkpt lat="46.31953" lon="2.4334">
        <ele>409</ele>
        <time>2012-06-20T16:59:55Z</time>
      </trkpt>
      <trkpt lat="46.31962" lon="2.43339">
        <ele>410</ele>
        <time>2012-06-20T16:59:59Z</time>
      </trkpt>
      <trkpt lat="46.31972" lon="2.43338">
        <ele>410</ele>
        <time>2012-06-20T17:00:04Z</time>
      </trkpt>
      <trkpt lat="46.31983" lon="2.43337">
        <ele>411</ele>
        <time>2012-06-20T17:00:08Z</time>
      </trkpt>
      <trkpt lat="46.31994" lon="2.43336">
        <ele>411</ele>
        <time>2012-06-20T17:00:12Z</time>
      </trkpt>
      <trkpt lat="46.32004" lon="2.43336">
        <ele>412</ele>
        <time>2012-06-20T17:00:16Z</time>
      </trkpt>
      <trkpt lat="46.32014" lon="2.43337">
        <ele>413</ele>
        <time>2012-06-20T17:00:20Z</time>
      </trkpt>
      <trkpt lat="46.32024" lon="2.43339">
        <ele>413</ele>
        <time>2012-06-20T17:00:24Z</time>
      </trkpt>
      <trkpt lat="46.32034" lon="2.4334">
        <ele>414</ele>
        <time>2012-06-20T17:00:27Z</time>
      </trkpt>
      <trkpt lat="46.32044" lon="2.43343">
        <ele>414</ele>
        <time>2012-06-20T17:00:30Z</time>
      </trkpt>
      <trkpt lat="46.32053" lon="2.43347">
        <ele>415</ele>
        <time>2012-06-20T17:00:33Z</time>
      </trkpt>
      <trkpt lat="46.32062" lon="2.43349">
        <ele>415</ele>
        <time>2012-06-20T17:00:35Z</time>
      </trkpt>
      <trkpt lat="46.32072" lon="2.43352">
        <ele>416</ele>
        <time>2012-06-20T17:00:38Z</time>
      </trkpt>
      <trkpt lat="46.32081" lon="2.43358">
        <ele>416</ele>
        <time>2012-06-20T17:00:43Z</time>
      </trkpt>
      <trkpt lat="46.32093" lon="2.43365">
        <ele>419</ele>
        <time>2012-06-20T17:00:47Z</time>
      </trkpt>
      <trkpt lat="46.32102" lon="2.43371">
        <ele>419</ele>
        <time>2012-06-20T17:00:50Z</time>
      </trkpt>
      <trkpt lat="46.32112" lon="2.43374">
        <ele>419</ele>
        <time>2012-06-20T17:00:53Z</time>
      </trkpt>
      <trkpt lat="46.32121" lon="2.43375">
        <ele>419</ele>
        <time>2012-06-20T17:00:56Z</time>
      </trkpt>
      <trkpt lat="46.32132" lon="2.43377">
        <ele>419</ele>
        <time>2012-06-20T17:00:59Z</time>
      </trkpt>
      <trkpt lat="46.32142" lon="2.4338">
        <ele>420</ele>
        <time>2012-06-20T17:01:02Z</time>
      </trkpt>
      <trkpt lat="46.32152" lon="2.43384">
        <ele>420</ele>
        <time>2012-06-20T17:01:05Z</time>
      </trkpt>
      <trkpt lat="46.32162" lon="2.4339">
        <ele>420</ele>
        <time>2012-06-20T17:01:08Z</time>
      </trkpt>
      <trkpt lat="46.3217" lon="2.43396">
        <ele>422</ele>
        <time>2012-06-20T17:01:11Z</time>
      </trkpt>
      <trkpt lat="46.32178" lon="2.43404">
        <ele>422</ele>
        <time>2012-06-20T17:01:14Z</time>
      </trkpt>
      <trkpt lat="46.32187" lon="2.43415">
        <ele>422</ele>
        <time>2012-06-20T17:01:17Z</time>
      </trkpt>
      <trkpt lat="46.32191" lon="2.43426">
        <ele>421</ele>
        <time>2012-06-20T17:01:20Z</time>
      </trkpt>
      <trkpt lat="46.32197" lon="2.43437">
        <ele>422</ele>
        <time>2012-06-20T17:01:23Z</time>
      </trkpt>
      <trkpt lat="46.32202" lon="2.4345">
        <ele>422</ele>
        <time>2012-06-20T17:01:26Z</time>
      </trkpt>
      <trkpt lat="46.32208" lon="2.43461">
        <ele>422</ele>
        <time>2012-06-20T17:01:29Z</time>
      </trkpt>
      <trkpt lat="46.32218" lon="2.43474">
        <ele>422</ele>
        <time>2012-06-20T17:01:32Z</time>
      </trkpt>
      <trkpt lat="46.32228" lon="2.43486">
        <ele>422</ele>
        <time>2012-06-20T17:01:35Z</time>
      </trkpt>
      <trkpt lat="46.32238" lon="2.43497">
        <ele>423</ele>
        <time>2012-06-20T17:01:38Z</time>
      </trkpt>
      <trkpt lat="46.32246" lon="2.43505">
        <ele>422</ele>
        <time>2012-06-20T17:01:40Z</time>
      </trkpt>
      <trkpt lat="46.32256" lon="2.43512">
        <ele>423</ele>
        <time>2012-06-20T17:01:42Z</time>
      </trkpt>
      <trkpt lat="46.32268" lon="2.43522">
        <ele>422</ele>
        <time>2012-06-20T17:01:45Z</time>
      </trkpt>
      <trkpt lat="46.32276" lon="2.43528">
        <ele>422</ele>
        <time>2012-06-20T17:01:47Z</time>
      </trkpt>
      <trkpt lat="46.32284" lon="2.43535">
        <ele>422</ele>
        <time>2012-06-20T17:01:49Z</time>
      </trkpt>
      <trkpt lat="46.32293" lon="2.43545">
        <ele>422</ele>
        <time>2012-06-20T17:01:51Z</time>
      </trkpt>
      <trkpt lat="46.32302" lon="2.43555">
        <ele>422</ele>
        <time>2012-06-20T17:01:53Z</time>
      </trkpt>
      <trkpt lat="46.32309" lon="2.43565">
        <ele>422</ele>
        <time>2012-06-20T17:01:55Z</time>
      </trkpt>
      <trkpt lat="46.32319" lon="2.43576">
        <ele>421</ele>
        <time>2012-06-20T17:01:57Z</time>
      </trkpt>
      <trkpt lat="46.32325" lon="2.43585">
        <ele>421</ele>
        <time>2012-06-20T17:01:59Z</time>
      </trkpt>
      <trkpt lat="46.32335" lon="2.43597">
        <ele>421</ele>
        <time>2012-06-20T17:02:02Z</time>
      </trkpt>
      <trkpt lat="46.32344" lon="2.43609">
        <ele>421</ele>
        <time>2012-06-20T17:02:05Z</time>
      </trkpt>
      <trkpt lat="46.32352" lon="2.43618">
        <ele>421</ele>
        <time>2012-06-20T17:02:07Z</time>
      </trkpt>
      <trkpt lat="46.32359" lon="2.43627">
        <ele>421</ele>
        <time>2012-06-20T17:02:09Z</time>
      </trkpt>
      <trkpt lat="46.32365" lon="2.43637">
        <ele>421</ele>
        <time>2012-06-20T17:02:11Z</time>
      </trkpt>
      <trkpt lat="46.32372" lon="2.43646">
        <ele>421</ele>
        <time>2012-06-20T17:02:13Z</time>
      </trkpt>
      <trkpt lat="46.32381" lon="2.43655">
        <ele>421</ele>
        <time>2012-06-20T17:02:15Z</time>
      </trkpt>
      <trkpt lat="46.3239" lon="2.43666">
        <ele>421</ele>
        <time>2012-06-20T17:02:17Z</time>
      </trkpt>
      <trkpt lat="46.324" lon="2.43678">
        <ele>419</ele>
        <time>2012-06-20T17:02:19Z</time>
      </trkpt>
      <trkpt lat="46.3241" lon="2.43691">
        <ele>419</ele>
        <time>2012-06-20T17:02:21Z</time>
      </trkpt>
      <trkpt lat="46.32419" lon="2.43703">
        <ele>418</ele>
        <time>2012-06-20T17:02:23Z</time>
      </trkpt>
      <trkpt lat="46.32428" lon="2.43714">
        <ele>418</ele>
        <time>2012-06-20T17:02:25Z</time>
      </trkpt>
      <trkpt lat="46.32438" lon="2.43725">
        <ele>418</ele>
        <time>2012-06-20T17:02:27Z</time>
      </trkpt>
      <trkpt lat="46.32449" lon="2.4373">
        <ele>418</ele>
        <time>2012-06-20T17:02:29Z</time>
      </trkpt>
      <trkpt lat="46.32461" lon="2.43733">
        <ele>417</ele>
        <time>2012-06-20T17:02:32Z</time>
      </trkpt>
      <trkpt lat="46.32471" lon="2.43732">
        <ele>417</ele>
        <time>2012-06-20T17:02:35Z</time>
      </trkpt>
      <trkpt lat="46.3248" lon="2.43732">
        <ele>417</ele>
        <time>2012-06-20T17:02:38Z</time>
      </trkpt>
      <trkpt lat="46.3249" lon="2.43732">
        <ele>417</ele>
        <time>2012-06-20T17:02:41Z</time>
      </trkpt>
      <trkpt lat="46.32501" lon="2.43735">
        <ele>416</ele>
        <time>2012-06-20T17:02:44Z</time>
      </trkpt>
      <trkpt lat="46.3251" lon="2.43742">
        <ele>416</ele>
        <time>2012-06-20T17:02:46Z</time>
      </trkpt>
      <trkpt lat="46.32521" lon="2.43747">
        <ele>416</ele>
        <time>2012-06-20T17:02:48Z</time>
      </trkpt>
      <trkpt lat="46.32531" lon="2.43752">
        <ele>413</ele>
        <time>2012-06-20T17:02:50Z</time>
      </trkpt>
      <trkpt lat="46.32543" lon="2.43753">
        <ele>413</ele>
        <time>2012-06-20T17:02:52Z</time>
      </trkpt>
      <trkpt lat="46.32553" lon="2.43752">
        <ele>413</ele>
        <time>2012-06-20T17:02:54Z</time>
      </trkpt>
      <trkpt lat="46.32562" lon="2.43744">
        <ele>415</ele>
        <time>2012-06-20T17:02:56Z</time>
      </trkpt>
      <trkpt lat="46.32567" lon="2.43732">
        <ele>415</ele>
        <time>2012-06-20T17:02:58Z</time>
      </trkpt>
      <trkpt lat="46.32568" lon="2.43715">
        <ele>416</ele>
        <time>2012-06-20T17:03:01Z</time>
      </trkpt>
      <trkpt lat="46.32564" lon="2.43702">
        <ele>417</ele>
        <time>2012-06-20T17:03:04Z</time>
      </trkpt>
      <trkpt lat="46.32554" lon="2.43695">
        <ele>417</ele>
        <time>2012-06-20T17:03:08Z</time>
      </trkpt>
      <trkpt lat="46.32545" lon="2.43692">
        <ele>417</ele>
        <time>2012-06-20T17:03:11Z</time>
      </trkpt>
      <trkpt lat="46.32535" lon="2.43688">
        <ele>417</ele>
        <time>2012-06-20T17:03:14Z</time>
      </trkpt>
      <trkpt lat="46.32527" lon="2.43678">
        <ele>418</ele>
        <time>2012-06-20T17:03:17Z</time>
      </trkpt>
      <trkpt lat="46.3252" lon="2.43667">
        <ele>418</ele>
        <time>2012-06-20T17:03:20Z</time>
      </trkpt>
      <trkpt lat="46.32515" lon="2.43655">
        <ele>420</ele>
        <time>2012-06-20T17:03:23Z</time>
      </trkpt>
      <trkpt lat="46.3251" lon="2.43639">
        <ele>421</ele>
        <time>2012-06-20T17:03:27Z</time>
      </trkpt>
      <trkpt lat="46.32505" lon="2.43628">
        <ele>421</ele>
        <time>2012-06-20T17:03:30Z</time>
      </trkpt>
      <trkpt lat="46.32501" lon="2.43612">
        <ele>421</ele>
        <time>2012-06-20T17:03:34Z</time>
      </trkpt>
      <trkpt lat="46.32495" lon="2.43597">
        <ele>422</ele>
        <time>2012-06-20T17:03:38Z</time>
      </trkpt>
      <trkpt lat="46.32487" lon="2.43584">
        <ele>422</ele>
        <time>2012-06-20T17:03:42Z</time>
      </trkpt>
      <trkpt lat="46.32482" lon="2.43573">
        <ele>424</ele>
        <time>2012-06-20T17:03:45Z</time>
      </trkpt>
      <trkpt lat="46.32476" lon="2.43562">
        <ele>424</ele>
        <time>2012-06-20T17:03:48Z</time>
      </trkpt>
      <trkpt lat="46.3247" lon="2.43549">
        <ele>425</ele>
        <time>2012-06-20T17:03:52Z</time>
      </trkpt>
      <trkpt lat="46.32464" lon="2.43536">
        <ele>425</ele>
        <time>2012-06-20T17:03:56Z</time>
      </trkpt>
      <trkpt lat="46.32456" lon="2.43523">
        <ele>425</ele>
        <time>2012-06-20T17:04:00Z</time>
      </trkpt>
      <trkpt lat="46.3245" lon="2.43513">
        <ele>425</ele>
        <time>2012-06-20T17:04:04Z</time>
      </trkpt>
      <trkpt lat="46.32445" lon="2.43501">
        <ele>426</ele>
        <time>2012-06-20T17:04:08Z</time>
      </trkpt>
      <trkpt lat="46.32441" lon="2.43488">
        <ele>428</ele>
        <time>2012-06-20T17:04:12Z</time>
      </trkpt>
      <trkpt lat="46.32435" lon="2.43477">
        <ele>428</ele>
        <time>2012-06-20T17:04:16Z</time>
      </trkpt>
      <trkpt lat="46.32431" lon="2.43464">
        <ele>428</ele>
        <time>2012-06-20T17:04:20Z</time>
      </trkpt>
      <trkpt lat="46.32426" lon="2.43451">
        <ele>429</ele>
        <time>2012-06-20T17:04:24Z</time>
      </trkpt>
      <trkpt lat="46.32424" lon="2.43436">
        <ele>429</ele>
        <time>2012-06-20T17:04:28Z</time>
      </trkpt>
      <trkpt lat="46.32423" lon="2.4342">
        <ele>430</ele>
        <time>2012-06-20T17:04:32Z</time>
      </trkpt>
      <trkpt lat="46.32421" lon="2.43404">
        <ele>431</ele>
        <time>2012-06-20T17:04:36Z</time>
      </trkpt>
      <trkpt lat="46.32419" lon="2.4339">
        <ele>431</ele>
        <time>2012-06-20T17:04:39Z</time>
      </trkpt>
      <trkpt lat="46.32417" lon="2.43374">
        <ele>432</ele>
        <time>2012-06-20T17:04:43Z</time>
      </trkpt>
      <trkpt lat="46.32413" lon="2.43361">
        <ele>432</ele>
        <time>2012-06-20T17:04:46Z</time>
      </trkpt>
      <trkpt lat="46.3241" lon="2.43348">
        <ele>433</ele>
        <time>2012-06-20T17:04:49Z</time>
      </trkpt>
      <trkpt lat="46.32408" lon="2.43334">
        <ele>433</ele>
        <time>2012-06-20T17:04:52Z</time>
      </trkpt>
      <trkpt lat="46.32408" lon="2.4332">
        <ele>434</ele>
        <time>2012-06-20T17:04:55Z</time>
      </trkpt>
      <trkpt lat="46.32408" lon="2.43305">
        <ele>435</ele>
        <time>2012-06-20T17:04:58Z</time>
      </trkpt>
      <trkpt lat="46.32408" lon="2.43291">
        <ele>435</ele>
        <time>2012-06-20T17:05:01Z</time>
      </trkpt>
      <trkpt lat="46.32406" lon="2.43275">
        <ele>436</ele>
        <time>2012-06-20T17:05:05Z</time>
      </trkpt>
      <trkpt lat="46.32404" lon="2.43261">
        <ele>436</ele>
        <time>2012-06-20T17:05:08Z</time>
      </trkpt>
      <trkpt lat="46.32398" lon="2.43249">
        <ele>438</ele>
        <time>2012-06-20T17:05:11Z</time>
      </trkpt>
      <trkpt lat="46.32391" lon="2.43237">
        <ele>438</ele>
        <time>2012-06-20T17:05:14Z</time>
      </trkpt>
      <trkpt lat="46.32383" lon="2.4323">
        <ele>438</ele>
        <time>2012-06-20T17:05:17Z</time>
      </trkpt>
      <trkpt lat="46.32372" lon="2.43223">
        <ele>439</ele>
        <time>2012-06-20T17:05:20Z</time>
      </trkpt>
      <trkpt lat="46.32362" lon="2.43216">
        <ele>439</ele>
        <time>2012-06-20T17:05:23Z</time>
      </trkpt>
      <trkpt lat="46.32354" lon="2.43207">
        <ele>439</ele>
        <time>2012-06-20T17:05:26Z</time>
      </trkpt>
      <trkpt lat="46.32348" lon="2.43195">
        <ele>440</ele>
        <time>2012-06-20T17:05:30Z</time>
      </trkpt>
      <trkpt lat="46.32344" lon="2.43182">
        <ele>440</ele>
        <time>2012-06-20T17:05:33Z</time>
      </trkpt>
      <trkpt lat="46.32341" lon="2.43169">
        <ele>441</ele>
        <time>2012-06-20T17:05:36Z</time>
      </trkpt>
      <trkpt lat="46.32338" lon="2.43156">
        <ele>442</ele>
        <time>2012-06-20T17:05:39Z</time>
      </trkpt>
      <trkpt lat="46.32332" lon="2.43143">
        <ele>442</ele>
        <time>2012-06-20T17:05:42Z</time>
      </trkpt>
      <trkpt lat="46.32324" lon="2.43131">
        <ele>442</ele>
        <time>2012-06-20T17:05:45Z</time>
      </trkpt>
      <trkpt lat="46.32318" lon="2.43119">
        <ele>442</ele>
        <time>2012-06-20T17:05:48Z</time>
      </trkpt>
      <trkpt lat="46.32311" lon="2.43108">
        <ele>443</ele>
        <time>2012-06-20T17:05:51Z</time>
      </trkpt>
      <trkpt lat="46.32304" lon="2.43099">
        <ele>443</ele>
        <time>2012-06-20T17:05:54Z</time>
      </trkpt>
      <trkpt lat="46.32294" lon="2.43092">
        <ele>442</ele>
        <time>2012-06-20T17:05:57Z</time>
      </trkpt>
      <trkpt lat="46.32283" lon="2.43085">
        <ele>442</ele>
        <time>2012-06-20T17:06:00Z</time>
      </trkpt>
      <trkpt lat="46.32272" lon="2.43077">
        <ele>444</ele>
        <time>2012-06-20T17:06:03Z</time>
      </trkpt>
      <trkpt lat="46.32261" lon="2.43072">
        <ele>443</ele>
        <time>2012-06-20T17:06:06Z</time>
      </trkpt>
      <trkpt lat="46.3225" lon="2.43064">
        <ele>441</ele>
        <time>2012-06-20T17:06:10Z</time>
      </trkpt>
      <trkpt lat="46.32241" lon="2.4306">
        <ele>441</ele>
        <time>2012-06-20T17:06:13Z</time>
      </trkpt>
      <trkpt lat="46.32232" lon="2.43054">
        <ele>441</ele>
        <time>2012-06-20T17:06:16Z</time>
      </trkpt>
      <trkpt lat="46.32225" lon="2.43046">
        <ele>441</ele>
        <time>2012-06-20T17:06:19Z</time>
      </trkpt>
      <trkpt lat="46.32217" lon="2.43036">
        <ele>440</ele>
        <time>2012-06-20T17:06:22Z</time>
      </trkpt>
      <trkpt lat="46.3221" lon="2.43026">
        <ele>440</ele>
        <time>2012-06-20T17:06:25Z</time>
      </trkpt>
      <trkpt lat="46.32202" lon="2.43015">
        <ele>440</ele>
        <time>2012-06-20T17:06:28Z</time>
      </trkpt>
      <trkpt lat="46.32192" lon="2.43006">
        <ele>440</ele>
        <time>2012-06-20T17:06:31Z</time>
      </trkpt>
      <trkpt lat="46.32182" lon="2.42998">
        <ele>441</ele>
        <time>2012-06-20T17:06:34Z</time>
      </trkpt>
      <trkpt lat="46.32174" lon="2.42991">
        <ele>441</ele>
        <time>2012-06-20T17:06:36Z</time>
      </trkpt>
      <trkpt lat="46.32166" lon="2.42982">
        <ele>438</ele>
        <time>2012-06-20T17:06:38Z</time>
      </trkpt>
      <trkpt lat="46.32157" lon="2.42973">
        <ele>437</ele>
        <time>2012-06-20T17:06:40Z</time>
      </trkpt>
      <trkpt lat="46.32146" lon="2.42961">
        <ele>437</ele>
        <time>2012-06-20T17:06:42Z</time>
      </trkpt>
      <trkpt lat="46.32137" lon="2.4295">
        <ele>437</ele>
        <time>2012-06-20T17:06:44Z</time>
      </trkpt>
      <trkpt lat="46.32129" lon="2.4294">
        <ele>437</ele>
        <time>2012-06-20T17:06:46Z</time>
      </trkpt>
      <trkpt lat="46.32119" lon="2.4293">
        <ele>436</ele>
        <time>2012-06-20T17:06:48Z</time>
      </trkpt>
      <trkpt lat="46.32112" lon="2.42919">
        <ele>436</ele>
        <time>2012-06-20T17:06:50Z</time>
      </trkpt>
      <trkpt lat="46.32102" lon="2.42905">
        <ele>437</ele>
        <time>2012-06-20T17:06:52Z</time>
      </trkpt>
      <trkpt lat="46.32091" lon="2.4289">
        <ele>437</ele>
        <time>2012-06-20T17:06:54Z</time>
      </trkpt>
      <trkpt lat="46.32081" lon="2.42878">
        <ele>432</ele>
        <time>2012-06-20T17:06:56Z</time>
      </trkpt>
      <trkpt lat="46.32071" lon="2.42867">
        <ele>432</ele>
        <time>2012-06-20T17:06:58Z</time>
      </trkpt>
      <trkpt lat="46.32061" lon="2.42857">
        <ele>432</ele>
        <time>2012-06-20T17:07:00Z</time>
      </trkpt>
      <trkpt lat="46.32051" lon="2.42846">
        <ele>432</ele>
        <time>2012-06-20T17:07:02Z</time>
      </trkpt>
      <trkpt lat="46.32042" lon="2.42836">
        <ele>432</ele>
        <time>2012-06-20T17:07:04Z</time>
      </trkpt>
      <trkpt lat="46.32035" lon="2.42825">
        <ele>433</ele>
        <time>2012-06-20T17:07:06Z</time>
      </trkpt>
      <trkpt lat="46.32027" lon="2.42817">
        <ele>433</ele>
        <time>2012-06-20T17:07:08Z</time>
      </trkpt>
      <trkpt lat="46.32018" lon="2.42804">
        <ele>433</ele>
        <time>2012-06-20T17:07:11Z</time>
      </trkpt>
      <trkpt lat="46.32011" lon="2.4279">
        <ele>433</ele>
        <time>2012-06-20T17:07:14Z</time>
      </trkpt>
      <trkpt lat="46.32004" lon="2.42781">
        <ele>433</ele>
        <time>2012-06-20T17:07:16Z</time>
      </trkpt>
      <trkpt lat="46.31993" lon="2.42767">
        <ele>431</ele>
        <time>2012-06-20T17:07:19Z</time>
      </trkpt>
      <trkpt lat="46.31986" lon="2.42759">
        <ele>431</ele>
        <time>2012-06-20T17:07:21Z</time>
      </trkpt>
      <trkpt lat="46.31978" lon="2.42751">
        <ele>431</ele>
        <time>2012-06-20T17:07:23Z</time>
      </trkpt>
      <trkpt lat="46.31969" lon="2.42743">
        <ele>432</ele>
        <time>2012-06-20T17:07:25Z</time>
      </trkpt>
      <trkpt lat="46.3196" lon="2.42734">
        <ele>432</ele>
        <time>2012-06-20T17:07:27Z</time>
      </trkpt>
      <trkpt lat="46.31952" lon="2.42726">
        <ele>432</ele>
        <time>2012-06-20T17:07:29Z</time>
      </trkpt>
      <trkpt lat="46.31941" lon="2.42719">
        <ele>432</ele>
        <time>2012-06-20T17:07:31Z</time>
      </trkpt>
      <trkpt lat="46.3193" lon="2.42712">
        <ele>431</ele>
        <time>2012-06-20T17:07:33Z</time>
      </trkpt>
      <trkpt lat="46.3192" lon="2.42703">
        <ele>432</ele>
        <time>2012-06-20T17:07:35Z</time>
      </trkpt>
      <trkpt lat="46.31908" lon="2.42693">
        <ele>429</ele>
        <time>2012-06-20T17:07:37Z</time>
      </trkpt>
      <trkpt lat="46.31895" lon="2.42682">
        <ele>429</ele>
        <time>2012-06-20T17:07:39Z</time>
      </trkpt>
      <trkpt lat="46.31884" lon="2.42668">
        <ele>428</ele>
        <time>2012-06-20T17:07:41Z</time>
      </trkpt>
      <trkpt lat="46.31874" lon="2.42653">
        <ele>428</ele>
        <time>2012-06-20T17:07:43Z</time>
      </trkpt>
      <trkpt lat="46.31868" lon="2.42636">
        <ele>428</ele>
        <time>2012-06-20T17:07:45Z</time>
      </trkpt>
      <trkpt lat="46.31868" lon="2.42614">
        <ele>428</ele>
        <time>2012-06-20T17:07:47Z</time>
      </trkpt>
      <trkpt lat="46.31868" lon="2.42595">
        <ele>428</ele>
        <time>2012-06-20T17:07:49Z</time>
      </trkpt>
      <trkpt lat="46.31864" lon="2.42578">
        <ele>429</ele>
        <time>2012-06-20T17:07:51Z</time>
      </trkpt>
      <trkpt lat="46.31861" lon="2.42562">
        <ele>429</ele>
        <time>2012-06-20T17:07:53Z</time>
      </trkpt>
      <trkpt lat="46.31854" lon="2.42549">
        <ele>429</ele>
        <time>2012-06-20T17:07:55Z</time>
      </trkpt>
      <trkpt lat="46.31847" lon="2.42537">
        <ele>429</ele>
        <time>2012-06-20T17:07:57Z</time>
      </trkpt>
      <trkpt lat="46.31839" lon="2.42525">
        <ele>429</ele>
        <time>2012-06-20T17:07:59Z</time>
      </trkpt>
      <trkpt lat="46.31833" lon="2.42514">
        <ele>430</ele>
        <time>2012-06-20T17:08:01Z</time>
      </trkpt>
      <trkpt lat="46.31824" lon="2.42503">
        <ele>430</ele>
        <time>2012-06-20T17:08:03Z</time>
      </trkpt>
      <trkpt lat="46.31819" lon="2.42491">
        <ele>431</ele>
        <time>2012-06-20T17:08:05Z</time>
      </trkpt>
      <trkpt lat="46.31813" lon="2.4248">
        <ele>432</ele>
        <time>2012-06-20T17:08:07Z</time>
      </trkpt>
      <trkpt lat="46.31806" lon="2.42467">
        <ele>432</ele>
        <time>2012-06-20T17:08:10Z</time>
      </trkpt>
      <trkpt lat="46.31798" lon="2.42456">
        <ele>432</ele>
        <time>2012-06-20T17:08:12Z</time>
      </trkpt>
      <trkpt lat="46.31791" lon="2.42445">
        <ele>432</ele>
        <time>2012-06-20T17:08:15Z</time>
      </trkpt>
      <trkpt lat="46.31785" lon="2.42433">
        <ele>432</ele>
        <time>2012-06-20T17:08:18Z</time>
      </trkpt>
      <trkpt lat="46.31778" lon="2.42421">
        <ele>432</ele>
        <time>2012-06-20T17:08:21Z</time>
      </trkpt>
      <trkpt lat="46.3177" lon="2.42413">
        <ele>434</ele>
        <time>2012-06-20T17:08:24Z</time>
      </trkpt>
      <trkpt lat="46.31761" lon="2.42402">
        <ele>434</ele>
        <time>2012-06-20T17:08:27Z</time>
      </trkpt>
      <trkpt lat="46.31752" lon="2.42395">
        <ele>435</ele>
        <time>2012-06-20T17:08:30Z</time>
      </trkpt>
      <trkpt lat="46.31742" lon="2.42387">
        <ele>433</ele>
        <time>2012-06-20T17:08:33Z</time>
      </trkpt>
      <trkpt lat="46.31732" lon="2.42379">
        <ele>434</ele>
        <time>2012-06-20T17:08:36Z</time>
      </trkpt>
      <trkpt lat="46.31726" lon="2.42366">
        <ele>434</ele>
        <time>2012-06-20T17:08:39Z</time>
      </trkpt>
      <trkpt lat="46.31721" lon="2.4235">
        <ele>434</ele>
        <time>2012-06-20T17:08:43Z</time>
      </trkpt>
      <trkpt lat="46.31725" lon="2.42338">
        <ele>434</ele>
        <time>2012-06-20T17:08:48Z</time>
      </trkpt>
      <trkpt lat="46.31732" lon="2.42329">
        <ele>435</ele>
        <time>2012-06-20T17:08:54Z</time>
      </trkpt>
      <trkpt lat="46.3174" lon="2.4232">
        <ele>435</ele>
        <time>2012-06-20T17:08:58Z</time>
      </trkpt>
      <trkpt lat="46.31747" lon="2.4231">
        <ele>435</ele>
        <time>2012-06-20T17:09:04Z</time>
      </trkpt>
      <trkpt lat="46.31755" lon="2.42301">
        <ele>440</ele>
        <time>2012-06-20T17:09:11Z</time>
      </trkpt>
      <trkpt lat="46.31763" lon="2.42294">
        <ele>440</ele>
        <time>2012-06-20T17:09:17Z</time>
      </trkpt>
      <trkpt lat="46.31772" lon="2.42284">
        <ele>441</ele>
        <time>2012-06-20T17:09:23Z</time>
      </trkpt>
      <trkpt lat="46.3178" lon="2.42274">
        <ele>441</ele>
        <time>2012-06-20T17:09:31Z</time>
      </trkpt>
      <trkpt lat="46.31784" lon="2.42261">
        <ele>442</ele>
        <time>2012-06-20T17:09:38Z</time>
      </trkpt>
      <trkpt lat="46.31791" lon="2.42253">
        <ele>442</ele>
        <time>2012-06-20T17:09:44Z</time>
      </trkpt>
      <trkpt lat="46.31801" lon="2.42244">
        <ele>444</ele>
        <time>2012-06-20T17:09:50Z</time>
      </trkpt>
      <trkpt lat="46.31808" lon="2.42234">
        <ele>445</ele>
        <time>2012-06-20T17:09:55Z</time>
      </trkpt>
      <trkpt lat="46.31816" lon="2.42228">
        <ele>445</ele>
        <time>2012-06-20T17:10:01Z</time>
      </trkpt>
      <trkpt lat="46.31826" lon="2.42224">
        <ele>445</ele>
        <time>2012-06-20T17:10:08Z</time>
      </trkpt>
      <trkpt lat="46.31836" lon="2.42224">
        <ele>449</ele>
        <time>2012-06-20T17:10:13Z</time>
      </trkpt>
      <trkpt lat="46.31847" lon="2.42222">
        <ele>449</ele>
        <time>2012-06-20T17:10:18Z</time>
      </trkpt>
      <trkpt lat="46.31856" lon="2.42219">
        <ele>449</ele>
        <time>2012-06-20T17:10:23Z</time>
      </trkpt>
      <trkpt lat="46.31866" lon="2.42218">
        <ele>449</ele>
        <time>2012-06-20T17:10:28Z</time>
      </trkpt>
      <trkpt lat="46.31876" lon="2.4222">
        <ele>450</ele>
        <time>2012-06-20T17:10:32Z</time>
      </trkpt>
      <trkpt lat="46.31885" lon="2.42215">
        <ele>450</ele>
        <time>2012-06-20T17:10:36Z</time>
      </trkpt>
      <trkpt lat="46.31895" lon="2.42213">
        <ele>450</ele>
        <time>2012-06-20T17:10:41Z</time>
      </trkpt>
      <trkpt lat="46.31905" lon="2.42208">
        <ele>450</ele>
        <time>2012-06-20T17:10:46Z</time>
      </trkpt>
      <trkpt lat="46.31915" lon="2.42204">
        <ele>450</ele>
        <time>2012-06-20T17:10:50Z</time>
      </trkpt>
      <trkpt lat="46.31926" lon="2.42198">
        <ele>453</ele>
        <time>2012-06-20T17:10:54Z</time>
      </trkpt>
      <trkpt lat="46.31936" lon="2.42192">
        <ele>453</ele>
        <time>2012-06-20T17:10:59Z</time>
      </trkpt>
      <trkpt lat="46.31945" lon="2.42183">
        <ele>454</ele>
        <time>2012-06-20T17:11:04Z</time>
      </trkpt>
      <trkpt lat="46.31954" lon="2.42176">
        <ele>454</ele>
        <time>2012-06-20T17:11:08Z</time>
      </trkpt>
      <trkpt lat="46.31963" lon="2.42169">
        <ele>455</ele>
        <time>2012-06-20T17:11:12Z</time>
      </trkpt>
      <trkpt lat="46.31971" lon="2.42159">
        <ele>456</ele>
        <time>2012-06-20T17:11:19Z</time>
      </trkpt>
      <trkpt lat="46.31976" lon="2.42145">
        <ele>456</ele>
        <time>2012-06-20T17:11:25Z</time>
      </trkpt>
      <trkpt lat="46.31983" lon="2.42136">
        <ele>457</ele>
        <time>2012-06-20T17:11:30Z</time>
      </trkpt>
      <trkpt lat="46.31992" lon="2.42131">
        <ele>457</ele>
        <time>2012-06-20T17:11:34Z</time>
      </trkpt>
      <trkpt lat="46.32002" lon="2.42123">
        <ele>461</ele>
        <time>2012-06-20T17:11:38Z</time>
      </trkpt>
      <trkpt lat="46.32011" lon="2.42119">
        <ele>461</ele>
        <time>2012-06-20T17:11:41Z</time>
      </trkpt>
      <trkpt lat="46.32021" lon="2.42113">
        <ele>461</ele>
        <time>2012-06-20T17:11:45Z</time>
      </trkpt>
      <trkpt lat="46.3203" lon="2.42109">
        <ele>462</ele>
        <time>2012-06-20T17:11:48Z</time>
      </trkpt>
      <trkpt lat="46.3204" lon="2.42106">
        <ele>462</ele>
        <time>2012-06-20T17:11:52Z</time>
      </trkpt>
      <trkpt lat="46.3205" lon="2.42101">
        <ele>462</ele>
        <time>2012-06-20T17:11:57Z</time>
      </trkpt>
      <trkpt lat="46.3206" lon="2.42094">
        <ele>463</ele>
        <time>2012-06-20T17:12:03Z</time>
      </trkpt>
      <trkpt lat="46.3207" lon="2.42087">
        <ele>464</ele>
        <time>2012-06-20T17:12:08Z</time>
      </trkpt>
      <trkpt lat="46.32078" lon="2.4208">
        <ele>466</ele>
        <time>2012-06-20T17:12:13Z</time>
      </trkpt>
      <trkpt lat="46.32088" lon="2.42074">
        <ele>467</ele>
        <time>2012-06-20T17:12:18Z</time>
      </trkpt>
      <trkpt lat="46.32097" lon="2.4207">
        <ele>468</ele>
        <time>2012-06-20T17:12:23Z</time>
      </trkpt>
      <trkpt lat="46.32106" lon="2.42065">
        <ele>469</ele>
        <time>2012-06-20T17:12:28Z</time>
      </trkpt>
      <trkpt lat="46.32114" lon="2.42061">
        <ele>469</ele>
        <time>2012-06-20T17:12:31Z</time>
      </trkpt>
      <trkpt lat="46.32123" lon="2.42055">
        <ele>470</ele>
        <time>2012-06-20T17:12:35Z</time>
      </trkpt>
      <trkpt lat="46.32132" lon="2.42048">
        <ele>470</ele>
        <time>2012-06-20T17:12:40Z</time>
      </trkpt>
      <trkpt lat="46.3214" lon="2.4204">
        <ele>470</ele>
        <time>2012-06-20T17:12:45Z</time>
      </trkpt>
      <trkpt lat="46.3215" lon="2.42035">
        <ele>471</ele>
        <time>2012-06-20T17:12:50Z</time>
      </trkpt>
      <trkpt lat="46.32159" lon="2.4203">
        <ele>471</ele>
        <time>2012-06-20T17:12:55Z</time>
      </trkpt>
      <trkpt lat="46.32169" lon="2.42028">
        <ele>473</ele>
        <time>2012-06-20T17:13:00Z</time>
      </trkpt>
      <trkpt lat="46.3218" lon="2.42029">
        <ele>473</ele>
        <time>2012-06-20T17:13:04Z</time>
      </trkpt>
      <trkpt lat="46.3219" lon="2.42028">
        <ele>474</ele>
        <time>2012-06-20T17:13:09Z</time>
      </trkpt>
      <trkpt lat="46.322" lon="2.42028">
        <ele>474</ele>
        <time>2012-06-20T17:13:13Z</time>
      </trkpt>
      <trkpt lat="46.32212" lon="2.42028">
        <ele>474</ele>
        <time>2012-06-20T17:13:17Z</time>
      </trkpt>
      <trkpt lat="46.32222" lon="2.42029">
        <ele>474</ele>
        <time>2012-06-20T17:13:21Z</time>
      </trkpt>
      <trkpt lat="46.32233" lon="2.4203">
        <ele>474</ele>
        <time>2012-06-20T17:13:25Z</time>
      </trkpt>
      <trkpt lat="46.32243" lon="2.42033">
        <ele>474</ele>
        <time>2012-06-20T17:13:29Z</time>
      </trkpt>
      <trkpt lat="46.32253" lon="2.42035">
        <ele>476</ele>
        <time>2012-06-20T17:13:33Z</time>
      </trkpt>
      <trkpt lat="46.32263" lon="2.42035">
        <ele>476</ele>
        <time>2012-06-20T17:13:37Z</time>
      </trkpt>
      <trkpt lat="46.32274" lon="2.42035">
        <ele>476</ele>
        <time>2012-06-20T17:13:41Z</time>
      </trkpt>
      <trkpt lat="46.32284" lon="2.42034">
        <ele>476</ele>
        <time>2012-06-20T17:13:44Z</time>
      </trkpt>
      <trkpt lat="46.32294" lon="2.4203">
        <ele>476</ele>
        <time>2012-06-20T17:13:47Z</time>
      </trkpt>
      <trkpt lat="46.32306" lon="2.42029">
        <ele>476</ele>
        <time>2012-06-20T17:13:51Z</time>
      </trkpt>
      <trkpt lat="46.32315" lon="2.42024">
        <ele>477</ele>
        <time>2012-06-20T17:13:55Z</time>
      </trkpt>
      <trkpt lat="46.32322" lon="2.42016">
        <ele>477</ele>
        <time>2012-06-20T17:13:58Z</time>
      </trkpt>
      <trkpt lat="46.32333" lon="2.42008">
        <ele>478</ele>
        <time>2012-06-20T17:14:01Z</time>
      </trkpt>
      <trkpt lat="46.32342" lon="2.42006">
        <ele>479</ele>
        <time>2012-06-20T17:14:04Z</time>
      </trkpt>
      <trkpt lat="46.32353" lon="2.42007">
        <ele>479</ele>
        <time>2012-06-20T17:14:07Z</time>
      </trkpt>
      <trkpt lat="46.32367" lon="2.4201">
        <ele>479</ele>
        <time>2012-06-20T17:14:10Z</time>
      </trkpt>
      <trkpt lat="46.32377" lon="2.4201">
        <ele>479</ele>
        <time>2012-06-20T17:14:13Z</time>
      </trkpt>
      <trkpt lat="46.32388" lon="2.42012">
        <ele>480</ele>
        <time>2012-06-20T17:14:17Z</time>
      </trkpt>
      <trkpt lat="46.32399" lon="2.42017">
        <ele>480</ele>
        <time>2012-06-20T17:14:22Z</time>
      </trkpt>
      <trkpt lat="46.32408" lon="2.42022">
        <ele>480</ele>
        <time>2012-06-20T17:14:26Z</time>
      </trkpt>
      <trkpt lat="46.32416" lon="2.42026">
        <ele>480</ele>
        <time>2012-06-20T17:14:30Z</time>
      </trkpt>
      <trkpt lat="46.32426" lon="2.4203">
        <ele>484</ele>
        <time>2012-06-20T17:14:33Z</time>
      </trkpt>
      <trkpt lat="46.32436" lon="2.42033">
        <ele>484</ele>
        <time>2012-06-20T17:14:37Z</time>
      </trkpt>
      <trkpt lat="46.32445" lon="2.42037">
        <ele>484</ele>
        <time>2012-06-20T17:14:42Z</time>
      </trkpt>
      <trkpt lat="46.32455" lon="2.42036">
        <ele>485</ele>
        <time>2012-06-20T17:14:47Z</time>
      </trkpt>
      <trkpt lat="46.32464" lon="2.42037">
        <ele>485</ele>
        <time>2012-06-20T17:14:51Z</time>
      </trkpt>
      <trkpt lat="46.32476" lon="2.42036">
        <ele>486</ele>
        <time>2012-06-20T17:14:55Z</time>
      </trkpt>
      <trkpt lat="46.32486" lon="2.42035">
        <ele>486</ele>
        <time>2012-06-20T17:14:59Z</time>
      </trkpt>
      <trkpt lat="46.32495" lon="2.42029">
        <ele>486</ele>
        <time>2012-06-20T17:15:03Z</time>
      </trkpt>
      <trkpt lat="46.32503" lon="2.42022">
        <ele>489</ele>
        <time>2012-06-20T17:15:06Z</time>
      </trkpt>
      <trkpt lat="46.32511" lon="2.42013">
        <ele>489</ele>
        <time>2012-06-20T17:15:11Z</time>
      </trkpt>
      <trkpt lat="46.32517" lon="2.42002">
        <ele>489</ele>
        <time>2012-06-20T17:16:36Z</time>
      </trkpt>
      <trkpt lat="46.32522" lon="2.41986">
        <ele>489</ele>
        <time>2012-06-20T17:16:41Z</time>
      </trkpt>
      <trkpt lat="46.32526" lon="2.41971">
        <ele>489</ele>
        <time>2012-06-20T17:16:44Z</time>
      </trkpt>
      <trkpt lat="46.3253" lon="2.41954">
        <ele>488</ele>
        <time>2012-06-20T17:16:47Z</time>
      </trkpt>
      <trkpt lat="46.32533" lon="2.41942">
        <ele>488</ele>
        <time>2012-06-20T17:16:49Z</time>
      </trkpt>
      <trkpt lat="46.32536" lon="2.41928">
        <ele>488</ele>
        <time>2012-06-20T17:16:51Z</time>
      </trkpt>
      <trkpt lat="46.32541" lon="2.41916">
        <ele>487</ele>
        <time>2012-06-20T17:16:53Z</time>
      </trkpt>
      <trkpt lat="46.3255" lon="2.41901">
        <ele>487</ele>
        <time>2012-06-20T17:16:56Z</time>
      </trkpt>
      <trkpt lat="46.32554" lon="2.41889">
        <ele>487</ele>
        <time>2012-06-20T17:16:58Z</time>
      </trkpt>
      <trkpt lat="46.32561" lon="2.41877">
        <ele>487</ele>
        <time>2012-06-20T17:17:00Z</time>
      </trkpt>
      <trkpt lat="46.32566" lon="2.41863">
        <ele>487</ele>
        <time>2012-06-20T17:17:02Z</time>
      </trkpt>
      <trkpt lat="46.32573" lon="2.41854">
        <ele>487</ele>
        <time>2012-06-20T17:17:04Z</time>
      </trkpt>
      <trkpt lat="46.32581" lon="2.41846">
        <ele>488</ele>
        <time>2012-06-20T17:17:06Z</time>
      </trkpt>
      <trkpt lat="46.32589" lon="2.41838">
        <ele>488</ele>
        <time>2012-06-20T17:17:08Z</time>
      </trkpt>
      <trkpt lat="46.32596" lon="2.41827">
        <ele>487</ele>
        <time>2012-06-20T17:17:10Z</time>
      </trkpt>
      <trkpt lat="46.32604" lon="2.41819">
        <ele>487</ele>
        <time>2012-06-20T17:17:12Z</time>
      </trkpt>
      <trkpt lat="46.32614" lon="2.41809">
        <ele>487</ele>
        <time>2012-06-20T17:17:15Z</time>
      </trkpt>
      <trkpt lat="46.32622" lon="2.41802">
        <ele>487</ele>
        <time>2012-06-20T17:17:17Z</time>
      </trkpt>
      <trkpt lat="46.32632" lon="2.41792">
        <ele>487</ele>
        <time>2012-06-20T17:17:20Z</time>
      </trkpt>
      <trkpt lat="46.3264" lon="2.41783">
        <ele>486</ele>
        <time>2012-06-20T17:17:23Z</time>
      </trkpt>
      <trkpt lat="46.32648" lon="2.41777">
        <ele>486</ele>
        <time>2012-06-20T17:17:26Z</time>
      </trkpt>
      <trkpt lat="46.32658" lon="2.41774">
        <ele>486</ele>
        <time>2012-06-20T17:17:29Z</time>
      </trkpt>
      <trkpt lat="46.32668" lon="2.4177">
        <ele>485</ele>
        <time>2012-06-20T17:17:32Z</time>
      </trkpt>
      <trkpt lat="46.3268" lon="2.41766">
        <ele>485</ele>
        <time>2012-06-20T17:17:35Z</time>
      </trkpt>
      <trkpt lat="46.32693" lon="2.41765">
        <ele>485</ele>
        <time>2012-06-20T17:17:38Z</time>
      </trkpt>
      <trkpt lat="46.32702" lon="2.41767">
        <ele>485</ele>
        <time>2012-06-20T17:17:40Z</time>
      </trkpt>
      <trkpt lat="46.32713" lon="2.41767">
        <ele>485</ele>
        <time>2012-06-20T17:17:42Z</time>
      </trkpt>
      <trkpt lat="46.32724" lon="2.4177">
        <ele>484</ele>
        <time>2012-06-20T17:17:44Z</time>
      </trkpt>
      <trkpt lat="46.32739" lon="2.41774">
        <ele>484</ele>
        <time>2012-06-20T17:17:46Z</time>
      </trkpt>
      <trkpt lat="46.32753" lon="2.41777">
        <ele>482</ele>
        <time>2012-06-20T17:17:48Z</time>
      </trkpt>
      <trkpt lat="46.32768" lon="2.41782">
        <ele>482</ele>
        <time>2012-06-20T17:17:50Z</time>
      </trkpt>
      <trkpt lat="46.3278" lon="2.41786">
        <ele>481</ele>
        <time>2012-06-20T17:17:52Z</time>
      </trkpt>
      <trkpt lat="46.3279" lon="2.41788">
        <ele>481</ele>
        <time>2012-06-20T17:17:55Z</time>
      </trkpt>
      <trkpt lat="46.32802" lon="2.41783">
        <ele>481</ele>
        <time>2012-06-20T17:17:59Z</time>
      </trkpt>
      <trkpt lat="46.32812" lon="2.41779">
        <ele>480</ele>
        <time>2012-06-20T17:18:01Z</time>
      </trkpt>
      <trkpt lat="46.32823" lon="2.41776">
        <ele>480</ele>
        <time>2012-06-20T17:18:03Z</time>
      </trkpt>
      <trkpt lat="46.32836" lon="2.41775">
        <ele>480</ele>
        <time>2012-06-20T17:18:05Z</time>
      </trkpt>
      <trkpt lat="46.32847" lon="2.41774">
        <ele>480</ele>
        <time>2012-06-20T17:18:07Z</time>
      </trkpt>
      <trkpt lat="46.32856" lon="2.41771">
        <ele>480</ele>
        <time>2012-06-20T17:18:09Z</time>
      </trkpt>
      <trkpt lat="46.32869" lon="2.41765">
        <ele>480</ele>
        <time>2012-06-20T17:18:12Z</time>
      </trkpt>
      <trkpt lat="46.3288" lon="2.4176">
        <ele>480</ele>
        <time>2012-06-20T17:18:15Z</time>
      </trkpt>
      <trkpt lat="46.32889" lon="2.41756">
        <ele>481</ele>
        <time>2012-06-20T17:18:18Z</time>
      </trkpt>
      <trkpt lat="46.32899" lon="2.41756">
        <ele>481</ele>
        <time>2012-06-20T17:18:21Z</time>
      </trkpt>
      <trkpt lat="46.32908" lon="2.41754">
        <ele>481</ele>
        <time>2012-06-20T17:18:24Z</time>
      </trkpt>
      <trkpt lat="46.32919" lon="2.4175">
        <ele>482</ele>
        <time>2012-06-20T17:18:28Z</time>
      </trkpt>
      <trkpt lat="46.3293" lon="2.41747">
        <ele>483</ele>
        <time>2012-06-20T17:18:32Z</time>
      </trkpt>
      <trkpt lat="46.32939" lon="2.41743">
        <ele>484</ele>
        <time>2012-06-20T17:18:36Z</time>
      </trkpt>
      <trkpt lat="46.32951" lon="2.41737">
        <ele>484</ele>
        <time>2012-06-20T17:18:40Z</time>
      </trkpt>
      <trkpt lat="46.3296" lon="2.41734">
        <ele>485</ele>
        <time>2012-06-20T17:18:44Z</time>
      </trkpt>
      <trkpt lat="46.32971" lon="2.41732">
        <ele>485</ele>
        <time>2012-06-20T17:18:49Z</time>
      </trkpt>
      <trkpt lat="46.3298" lon="2.41729">
        <ele>486</ele>
        <time>2012-06-20T17:18:53Z</time>
      </trkpt>
      <trkpt lat="46.3299" lon="2.41721">
        <ele>486</ele>
        <time>2012-06-20T17:18:59Z</time>
      </trkpt>
      <trkpt lat="46.33001" lon="2.41716">
        <ele>489</ele>
        <time>2012-06-20T17:19:04Z</time>
      </trkpt>
      <trkpt lat="46.3301" lon="2.41715">
        <ele>489</ele>
        <time>2012-06-20T17:19:08Z</time>
      </trkpt>
      <trkpt lat="46.33019" lon="2.41712">
        <ele>489</ele>
        <time>2012-06-20T17:19:12Z</time>
      </trkpt>
      <trkpt lat="46.33028" lon="2.41709">
        <ele>489</ele>
        <time>2012-06-20T17:19:16Z</time>
      </trkpt>
      <trkpt lat="46.33038" lon="2.41703">
        <ele>489</ele>
        <time>2012-06-20T17:19:20Z</time>
      </trkpt>
      <trkpt lat="46.33047" lon="2.41698">
        <ele>490</ele>
        <time>2012-06-20T17:19:24Z</time>
      </trkpt>
      <trkpt lat="46.33057" lon="2.41696">
        <ele>490</ele>
        <time>2012-06-20T17:19:27Z</time>
      </trkpt>
      <trkpt lat="46.33067" lon="2.41692">
        <ele>490</ele>
        <time>2012-06-20T17:19:32Z</time>
      </trkpt>
      <trkpt lat="46.33079" lon="2.41686">
        <ele>491</ele>
        <time>2012-06-20T17:19:38Z</time>
      </trkpt>
      <trkpt lat="46.33088" lon="2.41684">
        <ele>493</ele>
        <time>2012-06-20T17:19:41Z</time>
      </trkpt>
      <trkpt lat="46.33098" lon="2.41679">
        <ele>493</ele>
        <time>2012-06-20T17:19:44Z</time>
      </trkpt>
      <trkpt lat="46.33109" lon="2.41674">
        <ele>494</ele>
        <time>2012-06-20T17:19:48Z</time>
      </trkpt>
      <trkpt lat="46.33118" lon="2.41668">
        <ele>494</ele>
        <time>2012-06-20T17:19:52Z</time>
      </trkpt>
      <trkpt lat="46.33128" lon="2.41658">
        <ele>494</ele>
        <time>2012-06-20T17:19:56Z</time>
      </trkpt>
      <trkpt lat="46.33136" lon="2.4165">
        <ele>494</ele>
        <time>2012-06-20T17:19:59Z</time>
      </trkpt>
      <trkpt lat="46.33144" lon="2.41641">
        <ele>495</ele>
        <time>2012-06-20T17:20:02Z</time>
      </trkpt>
      <trkpt lat="46.33154" lon="2.41632">
        <ele>495</ele>
        <time>2012-06-20T17:20:05Z</time>
      </trkpt>
      <trkpt lat="46.33162" lon="2.41624">
        <ele>495</ele>
        <time>2012-06-20T17:20:08Z</time>
      </trkpt>
      <trkpt lat="46.33171" lon="2.41616">
        <ele>497</ele>
        <time>2012-06-20T17:20:12Z</time>
      </trkpt>
      <trkpt lat="46.33182" lon="2.4161">
        <ele>497</ele>
        <time>2012-06-20T17:20:16Z</time>
      </trkpt>
      <trkpt lat="46.33194" lon="2.4161">
        <ele>497</ele>
        <time>2012-06-20T17:20:20Z</time>
      </trkpt>
      <trkpt lat="46.33206" lon="2.41611">
        <ele>498</ele>
        <time>2012-06-20T17:20:24Z</time>
      </trkpt>
      <trkpt lat="46.33217" lon="2.41613">
        <ele>498</ele>
        <time>2012-06-20T17:20:28Z</time>
      </trkpt>
      <trkpt lat="46.33227" lon="2.41613">
        <ele>498</ele>
        <time>2012-06-20T17:20:32Z</time>
      </trkpt>
      <trkpt lat="46.33237" lon="2.41613">
        <ele>498</ele>
        <time>2012-06-20T17:20:37Z</time>
      </trkpt>
      <trkpt lat="46.33247" lon="2.41614">
        <ele>499</ele>
        <time>2012-06-20T17:20:41Z</time>
      </trkpt>
      <trkpt lat="46.3326" lon="2.41615">
        <ele>501</ele>
        <time>2012-06-20T17:20:45Z</time>
      </trkpt>
      <trkpt lat="46.33271" lon="2.41615">
        <ele>501</ele>
        <time>2012-06-20T17:20:49Z</time>
      </trkpt>
      <trkpt lat="46.33283" lon="2.41613">
        <ele>501</ele>
        <time>2012-06-20T17:20:53Z</time>
      </trkpt>
      <trkpt lat="46.33293" lon="2.4161">
        <ele>501</ele>
        <time>2012-06-20T17:20:56Z</time>
      </trkpt>
      <trkpt lat="46.33301" lon="2.41603">
        <ele>501</ele>
        <time>2012-06-20T17:21:00Z</time>
      </trkpt>
      <trkpt lat="46.33309" lon="2.41596">
        <ele>502</ele>
        <time>2012-06-20T17:21:04Z</time>
      </trkpt>
      <trkpt lat="46.33319" lon="2.41589">
        <ele>502</ele>
        <time>2012-06-20T17:21:08Z</time>
      </trkpt>
      <trkpt lat="46.33329" lon="2.41582">
        <ele>503</ele>
        <time>2012-06-20T17:21:12Z</time>
      </trkpt>
      <trkpt lat="46.33339" lon="2.41575">
        <ele>503</ele>
        <time>2012-06-20T17:21:16Z</time>
      </trkpt>
      <trkpt lat="46.33348" lon="2.4157">
        <ele>503</ele>
        <time>2012-06-20T17:21:19Z</time>
      </trkpt>
      <trkpt lat="46.33358" lon="2.41562">
        <ele>503</ele>
        <time>2012-06-20T17:21:22Z</time>
      </trkpt>
      <trkpt lat="46.33367" lon="2.41556">
        <ele>503</ele>
        <time>2012-06-20T17:21:26Z</time>
      </trkpt>
      <trkpt lat="46.33377" lon="2.41552">
        <ele>504</ele>
        <time>2012-06-20T17:21:30Z</time>
      </trkpt>
      <trkpt lat="46.33386" lon="2.41555">
        <ele>504</ele>
        <time>2012-06-20T17:21:47Z</time>
      </trkpt>
      <trkpt lat="46.3339" lon="2.4157">
        <ele>504</ele>
        <time>2012-06-20T17:21:52Z</time>
      </trkpt>
      <trkpt lat="46.33395" lon="2.41582">
        <ele>504</ele>
        <time>2012-06-20T17:21:56Z</time>
      </trkpt>
      <trkpt lat="46.33401" lon="2.41597">
        <ele>504</ele>
        <time>2012-06-20T17:22:00Z</time>
      </trkpt>
      <trkpt lat="46.33405" lon="2.41609">
        <ele>504</ele>
        <time>2012-06-20T17:22:03Z</time>
      </trkpt>
      <trkpt lat="46.3341" lon="2.41621">
        <ele>504</ele>
        <time>2012-06-20T17:22:06Z</time>
      </trkpt>
      <trkpt lat="46.33413" lon="2.41634">
        <ele>504</ele>
        <time>2012-06-20T17:22:09Z</time>
      </trkpt>
      <trkpt lat="46.3342" lon="2.41648">
        <ele>504</ele>
        <time>2012-06-20T17:22:12Z</time>
      </trkpt>
      <trkpt lat="46.33426" lon="2.4166">
        <ele>505</ele>
        <time>2012-06-20T17:22:15Z</time>
      </trkpt>
      <trkpt lat="46.33424" lon="2.41676">
        <ele>505</ele>
        <time>2012-06-20T17:22:19Z</time>
      </trkpt>
      <trkpt lat="46.33418" lon="2.41687">
        <ele>505</ele>
        <time>2012-06-20T17:22:22Z</time>
      </trkpt>
      <trkpt lat="46.3341" lon="2.41701">
        <ele>504</ele>
        <time>2012-06-20T17:22:25Z</time>
      </trkpt>
      <trkpt lat="46.33403" lon="2.41712">
        <ele>504</ele>
        <time>2012-06-20T17:22:28Z</time>
      </trkpt>
      <trkpt lat="46.33396" lon="2.41727">
        <ele>503</ele>
        <time>2012-06-20T17:22:31Z</time>
      </trkpt>
      <trkpt lat="46.33388" lon="2.41739">
        <ele>503</ele>
        <time>2012-06-20T17:22:34Z</time>
      </trkpt>
      <trkpt lat="46.3338" lon="2.41752">
        <ele>502</ele>
        <time>2012-06-20T17:22:37Z</time>
      </trkpt>
      <trkpt lat="46.33372" lon="2.41765">
        <ele>502</ele>
        <time>2012-06-20T17:22:40Z</time>
      </trkpt>
      <trkpt lat="46.33364" lon="2.41779">
        <ele>502</ele>
        <time>2012-06-20T17:22:43Z</time>
      </trkpt>
      <trkpt lat="46.33358" lon="2.41789">
        <ele>502</ele>
        <time>2012-06-20T17:22:45Z</time>
      </trkpt>
      <trkpt lat="46.33349" lon="2.418">
        <ele>502</ele>
        <time>2012-06-20T17:22:47Z</time>
      </trkpt>
      <trkpt lat="46.33341" lon="2.41809">
        <ele>501</ele>
        <time>2012-06-20T17:22:49Z</time>
      </trkpt>
      <trkpt lat="46.33332" lon="2.41821">
        <ele>500</ele>
        <time>2012-06-20T17:22:51Z</time>
      </trkpt>
      <trkpt lat="46.33322" lon="2.41835">
        <ele>499</ele>
        <time>2012-06-20T17:22:53Z</time>
      </trkpt>
      <trkpt lat="46.33313" lon="2.4185">
        <ele>497</ele>
        <time>2012-06-20T17:22:55Z</time>
      </trkpt>
      <trkpt lat="46.33306" lon="2.41866">
        <ele>497</ele>
        <time>2012-06-20T17:22:57Z</time>
      </trkpt>
      <trkpt lat="46.33299" lon="2.41885">
        <ele>496</ele>
        <time>2012-06-20T17:22:59Z</time>
      </trkpt>
      <trkpt lat="46.33291" lon="2.41903">
        <ele>495</ele>
        <time>2012-06-20T17:23:01Z</time>
      </trkpt>
      <trkpt lat="46.33283" lon="2.41924">
        <ele>493</ele>
        <time>2012-06-20T17:23:03Z</time>
      </trkpt>
      <trkpt lat="46.33274" lon="2.41946">
        <ele>492</ele>
        <time>2012-06-20T17:23:05Z</time>
      </trkpt>
      <trkpt lat="46.33263" lon="2.41967">
        <ele>491</ele>
        <time>2012-06-20T17:23:07Z</time>
      </trkpt>
      <trkpt lat="46.33257" lon="2.41977">
        <ele>491</ele>
        <time>2012-06-20T17:23:08Z</time>
      </trkpt>
      <trkpt lat="46.33251" lon="2.41988">
        <ele>490</ele>
        <time>2012-06-20T17:23:09Z</time>
      </trkpt>
      <trkpt lat="46.33245" lon="2.42">
        <ele>488</ele>
        <time>2012-06-20T17:23:10Z</time>
      </trkpt>
      <trkpt lat="46.3324" lon="2.42011">
        <ele>487</ele>
        <time>2012-06-20T17:23:11Z</time>
      </trkpt>
      <trkpt lat="46.33233" lon="2.42022">
        <ele>486</ele>
        <time>2012-06-20T17:23:12Z</time>
      </trkpt>
      <trkpt lat="46.33227" lon="2.42033">
        <ele>486</ele>
        <time>2012-06-20T17:23:13Z</time>
      </trkpt>
      <trkpt lat="46.3322" lon="2.42045">
        <ele>485</ele>
        <time>2012-06-20T17:23:14Z</time>
      </trkpt>
      <trkpt lat="46.33214" lon="2.42056">
        <ele>485</ele>
        <time>2012-06-20T17:23:15Z</time>
      </trkpt>
      <trkpt lat="46.33207" lon="2.42069">
        <ele>485</ele>
        <time>2012-06-20T17:23:16Z</time>
      </trkpt>
      <trkpt lat="46.332" lon="2.42081">
        <ele>484</ele>
        <time>2012-06-20T17:23:17Z</time>
      </trkpt>
      <trkpt lat="46.33194" lon="2.42093">
        <ele>483</ele>
        <time>2012-06-20T17:23:18Z</time>
      </trkpt>
      <trkpt lat="46.33187" lon="2.42105">
        <ele>483</ele>
        <time>2012-06-20T17:23:19Z</time>
      </trkpt>
      <trkpt lat="46.3318" lon="2.42115">
        <ele>483</ele>
        <time>2012-06-20T17:23:20Z</time>
      </trkpt>
      <trkpt lat="46.33168" lon="2.4213">
        <ele>482</ele>
        <time>2012-06-20T17:23:22Z</time>
      </trkpt>
      <trkpt lat="46.33157" lon="2.42144">
        <ele>479</ele>
        <time>2012-06-20T17:23:24Z</time>
      </trkpt>
      <trkpt lat="46.33144" lon="2.42155">
        <ele>479</ele>
        <time>2012-06-20T17:23:26Z</time>
      </trkpt>
      <trkpt lat="46.33129" lon="2.42171">
        <ele>477</ele>
        <time>2012-06-20T17:23:28Z</time>
      </trkpt>
      <trkpt lat="46.33114" lon="2.42187">
        <ele>476</ele>
        <time>2012-06-20T17:23:30Z</time>
      </trkpt>
      <trkpt lat="46.331" lon="2.42203">
        <ele>475</ele>
        <time>2012-06-20T17:23:32Z</time>
      </trkpt>
      <trkpt lat="46.33092" lon="2.42213">
        <ele>475</ele>
        <time>2012-06-20T17:23:33Z</time>
      </trkpt>
      <trkpt lat="46.33084" lon="2.42223">
        <ele>474</ele>
        <time>2012-06-20T17:23:34Z</time>
      </trkpt>
      <trkpt lat="46.33078" lon="2.42235">
        <ele>472</ele>
        <time>2012-06-20T17:23:35Z</time>
      </trkpt>
      <trkpt lat="46.33072" lon="2.42249">
        <ele>472</ele>
        <time>2012-06-20T17:23:36Z</time>
      </trkpt>
      <trkpt lat="46.3307" lon="2.42274">
        <ele>471</ele>
        <time>2012-06-20T17:23:38Z</time>
      </trkpt>
      <trkpt lat="46.33073" lon="2.42297">
        <ele>471</ele>
        <time>2012-06-20T17:23:40Z</time>
      </trkpt>
      <trkpt lat="46.3308" lon="2.42318">
        <ele>471</ele>
        <time>2012-06-20T17:23:42Z</time>
      </trkpt>
      <trkpt lat="46.33088" lon="2.42334">
        <ele>471</ele>
        <time>2012-06-20T17:23:44Z</time>
      </trkpt>
      <trkpt lat="46.33095" lon="2.42349">
        <ele>471</ele>
        <time>2012-06-20T17:23:46Z</time>
      </trkpt>
      <trkpt lat="46.33104" lon="2.42365">
        <ele>470</ele>
        <time>2012-06-20T17:23:48Z</time>
      </trkpt>
      <trkpt lat="46.33114" lon="2.42379">
        <ele>470</ele>
        <time>2012-06-20T17:23:50Z</time>
      </trkpt>
      <trkpt lat="46.33125" lon="2.42392">
        <ele>470</ele>
        <time>2012-06-20T17:23:52Z</time>
      </trkpt>
      <trkpt lat="46.33134" lon="2.42407">
        <ele>469</ele>
        <time>2012-06-20T17:23:54Z</time>
      </trkpt>
      <trkpt lat="46.33144" lon="2.42422">
        <ele>467</ele>
        <time>2012-06-20T17:23:56Z</time>
      </trkpt>
      <trkpt lat="46.33153" lon="2.42436">
        <ele>467</ele>
        <time>2012-06-20T17:23:58Z</time>
      </trkpt>
      <trkpt lat="46.33162" lon="2.42446">
        <ele>466</ele>
        <time>2012-06-20T17:24:00Z</time>
      </trkpt>
      <trkpt lat="46.33171" lon="2.42456">
        <ele>468</ele>
        <time>2012-06-20T17:24:02Z</time>
      </trkpt>
      <trkpt lat="46.3318" lon="2.42465">
        <ele>467</ele>
        <time>2012-06-20T17:24:04Z</time>
      </trkpt>
      <trkpt lat="46.33189" lon="2.42472">
        <ele>467</ele>
        <time>2012-06-20T17:24:06Z</time>
      </trkpt>
      <trkpt lat="46.33197" lon="2.42479">
        <ele>467</ele>
        <time>2012-06-20T17:24:08Z</time>
      </trkpt>
      <trkpt lat="46.33207" lon="2.42488">
        <ele>468</ele>
        <time>2012-06-20T17:24:11Z</time>
      </trkpt>
      <trkpt lat="46.33215" lon="2.42494">
        <ele>468</ele>
        <time>2012-06-20T17:24:14Z</time>
      </trkpt>
      <trkpt lat="46.33225" lon="2.425">
        <ele>466</ele>
        <time>2012-06-20T17:24:18Z</time>
      </trkpt>
      <trkpt lat="46.33227" lon="2.42514">
        <ele>466</ele>
        <time>2012-06-20T17:24:57Z</time>
      </trkpt>
      <trkpt lat="46.33233" lon="2.42524">
        <ele>466</ele>
        <time>2012-06-20T17:28:58Z</time>
      </trkpt>
      <trkpt lat="46.3323" lon="2.42511">
        <ele>466</ele>
        <time>2012-06-20T17:44:34Z</time>
      </trkpt>
      <trkpt lat="46.33241" lon="2.4251">
        <ele>467</ele>
        <time>2012-06-20T17:45:05Z</time>
      </trkpt>
      <trkpt lat="46.3325" lon="2.42516">
        <ele>467</ele>
        <time>2012-06-20T17:45:09Z</time>
      </trkpt>
      <trkpt lat="46.33258" lon="2.42524">
        <ele>469</ele>
        <time>2012-06-20T17:45:12Z</time>
      </trkpt>
      <trkpt lat="46.33269" lon="2.42532">
        <ele>468</ele>
        <time>2012-06-20T17:45:15Z</time>
      </trkpt>
      <trkpt lat="46.33279" lon="2.42537">
        <ele>468</ele>
        <time>2012-06-20T17:45:18Z</time>
      </trkpt>
      <trkpt lat="46.33291" lon="2.4254">
        <ele>468</ele>
        <time>2012-06-20T17:45:21Z</time>
      </trkpt>
      <trkpt lat="46.33304" lon="2.42542">
        <ele>468</ele>
        <time>2012-06-20T17:45:24Z</time>
      </trkpt>
      <trkpt lat="46.33316" lon="2.42541">
        <ele>468</ele>
        <time>2012-06-20T17:45:27Z</time>
      </trkpt>
      <trkpt lat="46.33327" lon="2.42542">
        <ele>468</ele>
        <time>2012-06-20T17:45:30Z</time>
      </trkpt>
      <trkpt lat="46.33338" lon="2.4255">
        <ele>468</ele>
        <time>2012-06-20T17:45:33Z</time>
      </trkpt>
      <trkpt lat="46.3335" lon="2.42562">
        <ele>467</ele>
        <time>2012-06-20T17:45:36Z</time>
      </trkpt>
      <trkpt lat="46.3336" lon="2.42576">
        <ele>467</ele>
        <time>2012-06-20T17:45:38Z</time>
      </trkpt>
      <trkpt lat="46.3337" lon="2.42588">
        <ele>464</ele>
        <time>2012-06-20T17:45:40Z</time>
      </trkpt>
      <trkpt lat="46.3338" lon="2.42598">
        <ele>464</ele>
        <time>2012-06-20T17:45:42Z</time>
      </trkpt>
      <trkpt lat="46.33391" lon="2.42604">
        <ele>464</ele>
        <time>2012-06-20T17:45:44Z</time>
      </trkpt>
      <trkpt lat="46.33403" lon="2.42609">
        <ele>464</ele>
        <time>2012-06-20T17:45:46Z</time>
      </trkpt>
      <trkpt lat="46.33413" lon="2.42614">
        <ele>464</ele>
        <time>2012-06-20T17:45:48Z</time>
      </trkpt>
      <trkpt lat="46.33423" lon="2.42622">
        <ele>461</ele>
        <time>2012-06-20T17:45:50Z</time>
      </trkpt>
      <trkpt lat="46.33429" lon="2.42633">
        <ele>461</ele>
        <time>2012-06-20T17:45:52Z</time>
      </trkpt>
      <trkpt lat="46.33432" lon="2.42647">
        <ele>460</ele>
        <time>2012-06-20T17:45:54Z</time>
      </trkpt>
      <trkpt lat="46.33431" lon="2.42664">
        <ele>460</ele>
        <time>2012-06-20T17:45:56Z</time>
      </trkpt>
      <trkpt lat="46.33429" lon="2.42681">
        <ele>456</ele>
        <time>2012-06-20T17:45:58Z</time>
      </trkpt>
      <trkpt lat="46.33431" lon="2.42697">
        <ele>454</ele>
        <time>2012-06-20T17:46:00Z</time>
      </trkpt>
      <trkpt lat="46.33439" lon="2.42709">
        <ele>452</ele>
        <time>2012-06-20T17:46:02Z</time>
      </trkpt>
      <trkpt lat="46.3345" lon="2.42719">
        <ele>451</ele>
        <time>2012-06-20T17:46:04Z</time>
      </trkpt>
      <trkpt lat="46.33461" lon="2.42725">
        <ele>451</ele>
        <time>2012-06-20T17:46:06Z</time>
      </trkpt>
      <trkpt lat="46.3347" lon="2.42733">
        <ele>450</ele>
        <time>2012-06-20T17:46:08Z</time>
      </trkpt>
      <trkpt lat="46.33477" lon="2.42745">
        <ele>449</ele>
        <time>2012-06-20T17:46:10Z</time>
      </trkpt>
      <trkpt lat="46.33484" lon="2.42756">
        <ele>445</ele>
        <time>2012-06-20T17:46:12Z</time>
      </trkpt>
      <trkpt lat="46.33488" lon="2.42774">
        <ele>445</ele>
        <time>2012-06-20T17:46:14Z</time>
      </trkpt>
      <trkpt lat="46.33494" lon="2.4279">
        <ele>444</ele>
        <time>2012-06-20T17:46:16Z</time>
      </trkpt>
      <trkpt lat="46.33502" lon="2.42806">
        <ele>442</ele>
        <time>2012-06-20T17:46:18Z</time>
      </trkpt>
      <trkpt lat="46.3351" lon="2.42821">
        <ele>441</ele>
        <time>2012-06-20T17:46:20Z</time>
      </trkpt>
      <trkpt lat="46.33517" lon="2.42835">
        <ele>439</ele>
        <time>2012-06-20T17:46:22Z</time>
      </trkpt>
      <trkpt lat="46.33523" lon="2.42849">
        <ele>438</ele>
        <time>2012-06-20T17:46:24Z</time>
      </trkpt>
      <trkpt lat="46.33531" lon="2.42863">
        <ele>437</ele>
        <time>2012-06-20T17:46:26Z</time>
      </trkpt>
      <trkpt lat="46.3354" lon="2.42874">
        <ele>437</ele>
        <time>2012-06-20T17:46:28Z</time>
      </trkpt>
      <trkpt lat="46.3355" lon="2.42875">
        <ele>437</ele>
        <time>2012-06-20T17:46:30Z</time>
      </trkpt>
      <trkpt lat="46.3356" lon="2.42869">
        <ele>437</ele>
        <time>2012-06-20T17:46:33Z</time>
      </trkpt>
      <trkpt lat="46.33569" lon="2.42865">
        <ele>437</ele>
        <time>2012-06-20T17:46:37Z</time>
      </trkpt>
      <trkpt lat="46.3358" lon="2.42865">
        <ele>437</ele>
        <time>2012-06-20T17:46:42Z</time>
      </trkpt>
      <trkpt lat="46.33588" lon="2.42877">
        <ele>434</ele>
        <time>2012-06-20T17:46:47Z</time>
      </trkpt>
      <trkpt lat="46.33593" lon="2.42893">
        <ele>434</ele>
        <time>2012-06-20T17:46:50Z</time>
      </trkpt>
      <trkpt lat="46.336" lon="2.42908">
        <ele>433</ele>
        <time>2012-06-20T17:46:52Z</time>
      </trkpt>
      <trkpt lat="46.33609" lon="2.42924">
        <ele>430</ele>
        <time>2012-06-20T17:46:54Z</time>
      </trkpt>
      <trkpt lat="46.33618" lon="2.4294">
        <ele>429</ele>
        <time>2012-06-20T17:46:56Z</time>
      </trkpt>
      <trkpt lat="46.33625" lon="2.42953">
        <ele>428</ele>
        <time>2012-06-20T17:46:58Z</time>
      </trkpt>
      <trkpt lat="46.33629" lon="2.42966">
        <ele>428</ele>
        <time>2012-06-20T17:47:00Z</time>
      </trkpt>
      <trkpt lat="46.33636" lon="2.42981">
        <ele>427</ele>
        <time>2012-06-20T17:47:03Z</time>
      </trkpt>
      <trkpt lat="46.33649" lon="2.42989">
        <ele>426</ele>
        <time>2012-06-20T17:47:06Z</time>
      </trkpt>
      <trkpt lat="46.33658" lon="2.42993">
        <ele>425</ele>
        <time>2012-06-20T17:47:08Z</time>
      </trkpt>
      <trkpt lat="46.33668" lon="2.42996">
        <ele>424</ele>
        <time>2012-06-20T17:47:10Z</time>
      </trkpt>
      <trkpt lat="46.33678" lon="2.43">
        <ele>425</ele>
        <time>2012-06-20T17:47:12Z</time>
      </trkpt>
      <trkpt lat="46.33688" lon="2.43005">
        <ele>422</ele>
        <time>2012-06-20T17:47:14Z</time>
      </trkpt>
      <trkpt lat="46.33698" lon="2.4301">
        <ele>422</ele>
        <time>2012-06-20T17:47:16Z</time>
      </trkpt>
      <trkpt lat="46.33709" lon="2.43014">
        <ele>422</ele>
        <time>2012-06-20T17:47:19Z</time>
      </trkpt>
      <trkpt lat="46.3372" lon="2.43016">
        <ele>422</ele>
        <time>2012-06-20T17:47:22Z</time>
      </trkpt>
      <trkpt lat="46.33731" lon="2.43019">
        <ele>423</ele>
        <time>2012-06-20T17:47:25Z</time>
      </trkpt>
      <trkpt lat="46.33744" lon="2.43022">
        <ele>423</ele>
        <time>2012-06-20T17:47:28Z</time>
      </trkpt>
      <trkpt lat="46.33753" lon="2.43026">
        <ele>422</ele>
        <time>2012-06-20T17:47:30Z</time>
      </trkpt>
      <trkpt lat="46.33762" lon="2.43029">
        <ele>422</ele>
        <time>2012-06-20T17:47:32Z</time>
      </trkpt>
      <trkpt lat="46.33772" lon="2.43036">
        <ele>421</ele>
        <time>2012-06-20T17:47:34Z</time>
      </trkpt>
      <trkpt lat="46.33785" lon="2.43041">
        <ele>421</ele>
        <time>2012-06-20T17:47:36Z</time>
      </trkpt>
      <trkpt lat="46.33797" lon="2.43049">
        <ele>420</ele>
        <time>2012-06-20T17:47:38Z</time>
      </trkpt>
      <trkpt lat="46.33809" lon="2.43059">
        <ele>420</ele>
        <time>2012-06-20T17:47:40Z</time>
      </trkpt>
      <trkpt lat="46.33821" lon="2.43072">
        <ele>419</ele>
        <time>2012-06-20T17:47:42Z</time>
      </trkpt>
      <trkpt lat="46.33831" lon="2.43086">
        <ele>418</ele>
        <time>2012-06-20T17:47:44Z</time>
      </trkpt>
      <trkpt lat="46.33839" lon="2.43101">
        <ele>417</ele>
        <time>2012-06-20T17:47:46Z</time>
      </trkpt>
      <trkpt lat="46.33848" lon="2.43116">
        <ele>417</ele>
        <time>2012-06-20T17:47:48Z</time>
      </trkpt>
      <trkpt lat="46.33858" lon="2.43127">
        <ele>417</ele>
        <time>2012-06-20T17:47:50Z</time>
      </trkpt>
      <trkpt lat="46.33869" lon="2.43132">
        <ele>417</ele>
        <time>2012-06-20T17:47:52Z</time>
      </trkpt>
      <trkpt lat="46.3388" lon="2.43131">
        <ele>417</ele>
        <time>2012-06-20T17:47:54Z</time>
      </trkpt>
      <trkpt lat="46.33889" lon="2.43132">
        <ele>417</ele>
        <time>2012-06-20T17:47:56Z</time>
      </trkpt>
      <trkpt lat="46.33901" lon="2.43135">
        <ele>417</ele>
        <time>2012-06-20T17:47:59Z</time>
      </trkpt>
      <trkpt lat="46.3391" lon="2.43142">
        <ele>416</ele>
        <time>2012-06-20T17:48:01Z</time>
      </trkpt>
      <trkpt lat="46.3392" lon="2.43145">
        <ele>416</ele>
        <time>2012-06-20T17:48:03Z</time>
      </trkpt>
      <trkpt lat="46.3393" lon="2.43146">
        <ele>417</ele>
        <time>2012-06-20T17:48:05Z</time>
      </trkpt>
      <trkpt lat="46.33943" lon="2.43145">
        <ele>417</ele>
        <time>2012-06-20T17:48:07Z</time>
      </trkpt>
      <trkpt lat="46.33957" lon="2.43146">
        <ele>417</ele>
        <time>2012-06-20T17:48:09Z</time>
      </trkpt>
      <trkpt lat="46.33972" lon="2.43148">
        <ele>416</ele>
        <time>2012-06-20T17:48:11Z</time>
      </trkpt>
      <trkpt lat="46.33986" lon="2.43152">
        <ele>416</ele>
        <time>2012-06-20T17:48:13Z</time>
      </trkpt>
      <trkpt lat="46.33999" lon="2.43159">
        <ele>414</ele>
        <time>2012-06-20T17:48:15Z</time>
      </trkpt>
      <trkpt lat="46.34012" lon="2.4317">
        <ele>412</ele>
        <time>2012-06-20T17:48:17Z</time>
      </trkpt>
      <trkpt lat="46.34024" lon="2.43184">
        <ele>411</ele>
        <time>2012-06-20T17:48:19Z</time>
      </trkpt>
      <trkpt lat="46.34035" lon="2.43198">
        <ele>411</ele>
        <time>2012-06-20T17:48:21Z</time>
      </trkpt>
      <trkpt lat="46.34047" lon="2.43212">
        <ele>411</ele>
        <time>2012-06-20T17:48:23Z</time>
      </trkpt>
      <trkpt lat="46.34058" lon="2.43223">
        <ele>410</ele>
        <time>2012-06-20T17:48:25Z</time>
      </trkpt>
      <trkpt lat="46.3407" lon="2.43231">
        <ele>410</ele>
        <time>2012-06-20T17:48:27Z</time>
      </trkpt>
      <trkpt lat="46.34083" lon="2.43239">
        <ele>410</ele>
        <time>2012-06-20T17:48:29Z</time>
      </trkpt>
      <trkpt lat="46.34095" lon="2.43243">
        <ele>411</ele>
        <time>2012-06-20T17:48:31Z</time>
      </trkpt>
      <trkpt lat="46.34106" lon="2.43247">
        <ele>412</ele>
        <time>2012-06-20T17:48:33Z</time>
      </trkpt>
      <trkpt lat="46.34116" lon="2.43249">
        <ele>413</ele>
        <time>2012-06-20T17:48:35Z</time>
      </trkpt>
      <trkpt lat="46.34126" lon="2.4325">
        <ele>410</ele>
        <time>2012-06-20T17:48:37Z</time>
      </trkpt>
      <trkpt lat="46.34134" lon="2.43256">
        <ele>411</ele>
        <time>2012-06-20T17:48:39Z</time>
      </trkpt>
      <trkpt lat="46.34141" lon="2.43267">
        <ele>411</ele>
        <time>2012-06-20T17:48:41Z</time>
      </trkpt>
      <trkpt lat="46.34142" lon="2.43283">
        <ele>410</ele>
        <time>2012-06-20T17:48:43Z</time>
      </trkpt>
      <trkpt lat="46.34144" lon="2.43301">
        <ele>410</ele>
        <time>2012-06-20T17:48:45Z</time>
      </trkpt>
      <trkpt lat="46.34145" lon="2.4332">
        <ele>409</ele>
        <time>2012-06-20T17:48:47Z</time>
      </trkpt>
      <trkpt lat="46.34148" lon="2.4334">
        <ele>407</ele>
        <time>2012-06-20T17:48:49Z</time>
      </trkpt>
      <trkpt lat="46.34155" lon="2.43359">
        <ele>406</ele>
        <time>2012-06-20T17:48:51Z</time>
      </trkpt>
      <trkpt lat="46.34164" lon="2.43375">
        <ele>405</ele>
        <time>2012-06-20T17:48:53Z</time>
      </trkpt>
      <trkpt lat="46.34174" lon="2.43388">
        <ele>405</ele>
        <time>2012-06-20T17:48:55Z</time>
      </trkpt>
      <trkpt lat="46.34184" lon="2.43399">
        <ele>404</ele>
        <time>2012-06-20T17:48:57Z</time>
      </trkpt>
      <trkpt lat="46.34196" lon="2.43408">
        <ele>404</ele>
        <time>2012-06-20T17:48:59Z</time>
      </trkpt>
      <trkpt lat="46.34209" lon="2.43407">
        <ele>404</ele>
        <time>2012-06-20T17:49:01Z</time>
      </trkpt>
      <trkpt lat="46.3422" lon="2.43405">
        <ele>404</ele>
        <time>2012-06-20T17:49:03Z</time>
      </trkpt>
      <trkpt lat="46.34231" lon="2.43405">
        <ele>403</ele>
        <time>2012-06-20T17:49:05Z</time>
      </trkpt>
      <trkpt lat="46.34244" lon="2.43402">
        <ele>403</ele>
        <time>2012-06-20T17:49:07Z</time>
      </trkpt>
      <trkpt lat="46.34258" lon="2.43404">
        <ele>403</ele>
        <time>2012-06-20T17:49:09Z</time>
      </trkpt>
      <trkpt lat="46.34275" lon="2.43412">
        <ele>403</ele>
        <time>2012-06-20T17:49:11Z</time>
      </trkpt>
      <trkpt lat="46.34289" lon="2.43422">
        <ele>399</ele>
        <time>2012-06-20T17:49:13Z</time>
      </trkpt>
      <trkpt lat="46.34298" lon="2.43426">
        <ele>398</ele>
        <time>2012-06-20T17:49:14Z</time>
      </trkpt>
      <trkpt lat="46.34313" lon="2.43436">
        <ele>398</ele>
        <time>2012-06-20T17:49:16Z</time>
      </trkpt>
      <trkpt lat="46.34328" lon="2.43445">
        <ele>398</ele>
        <time>2012-06-20T17:49:18Z</time>
      </trkpt>
      <trkpt lat="46.34342" lon="2.43452">
        <ele>395</ele>
        <time>2012-06-20T17:49:20Z</time>
      </trkpt>
      <trkpt lat="46.34358" lon="2.43458">
        <ele>394</ele>
        <time>2012-06-20T17:49:22Z</time>
      </trkpt>
      <trkpt lat="46.34372" lon="2.43457">
        <ele>394</ele>
        <time>2012-06-20T17:49:24Z</time>
      </trkpt>
      <trkpt lat="46.34386" lon="2.43452">
        <ele>394</ele>
        <time>2012-06-20T17:49:26Z</time>
      </trkpt>
      <trkpt lat="46.34398" lon="2.43446">
        <ele>394</ele>
        <time>2012-06-20T17:49:28Z</time>
      </trkpt>
      <trkpt lat="46.3441" lon="2.4344">
        <ele>394</ele>
        <time>2012-06-20T17:49:30Z</time>
      </trkpt>
      <trkpt lat="46.34422" lon="2.43436">
        <ele>392</ele>
        <time>2012-06-20T17:49:32Z</time>
      </trkpt>
      <trkpt lat="46.34434" lon="2.43432">
        <ele>391</ele>
        <time>2012-06-20T17:49:34Z</time>
      </trkpt>
      <trkpt lat="46.34446" lon="2.43428">
        <ele>391</ele>
        <time>2012-06-20T17:49:36Z</time>
      </trkpt>
      <trkpt lat="46.34458" lon="2.43427">
        <ele>390</ele>
        <time>2012-06-20T17:49:38Z</time>
      </trkpt>
      <trkpt lat="46.3447" lon="2.4343">
        <ele>390</ele>
        <time>2012-06-20T17:49:40Z</time>
      </trkpt>
      <trkpt lat="46.34482" lon="2.43435">
        <ele>390</ele>
        <time>2012-06-20T17:49:42Z</time>
      </trkpt>
      <trkpt lat="46.34492" lon="2.4344">
        <ele>390</ele>
        <time>2012-06-20T17:49:45Z</time>
      </trkpt>
      <trkpt lat="46.34504" lon="2.43442">
        <ele>389</ele>
        <time>2012-06-20T17:49:48Z</time>
      </trkpt>
      <trkpt lat="46.34513" lon="2.43443">
        <ele>389</ele>
        <time>2012-06-20T17:49:51Z</time>
      </trkpt>
      <trkpt lat="46.34524" lon="2.43445">
        <ele>389</ele>
        <time>2012-06-20T17:49:54Z</time>
      </trkpt>
      <trkpt lat="46.34538" lon="2.43441">
        <ele>389</ele>
        <time>2012-06-20T17:49:58Z</time>
      </trkpt>
      <trkpt lat="46.34548" lon="2.43445">
        <ele>389</ele>
        <time>2012-06-20T17:50:00Z</time>
      </trkpt>
      <trkpt lat="46.34558" lon="2.43447">
        <ele>389</ele>
        <time>2012-06-20T17:50:02Z</time>
      </trkpt>
      <trkpt lat="46.34569" lon="2.43448">
        <ele>389</ele>
        <time>2012-06-20T17:50:04Z</time>
      </trkpt>
      <trkpt lat="46.34578" lon="2.43449">
        <ele>389</ele>
        <time>2012-06-20T17:50:06Z</time>
      </trkpt>
      <trkpt lat="46.3459" lon="2.43446">
        <ele>388</ele>
        <time>2012-06-20T17:50:09Z</time>
      </trkpt>
      <trkpt lat="46.346" lon="2.43441">
        <ele>388</ele>
        <time>2012-06-20T17:50:12Z</time>
      </trkpt>
      <trkpt lat="46.3461" lon="2.43434">
        <ele>388</ele>
        <time>2012-06-20T17:50:15Z</time>
      </trkpt>
      <trkpt lat="46.34618" lon="2.43425">
        <ele>388</ele>
        <time>2012-06-20T17:50:18Z</time>
      </trkpt>
      <trkpt lat="46.34626" lon="2.43416">
        <ele>389</ele>
        <time>2012-06-20T17:50:22Z</time>
      </trkpt>
      <trkpt lat="46.34635" lon="2.43408">
        <ele>389</ele>
        <time>2012-06-20T17:50:26Z</time>
      </trkpt>
      <trkpt lat="46.34643" lon="2.43399">
        <ele>389</ele>
        <time>2012-06-20T17:50:30Z</time>
      </trkpt>
      <trkpt lat="46.34652" lon="2.4339">
        <ele>389</ele>
        <time>2012-06-20T17:50:34Z</time>
      </trkpt>
      <trkpt lat="46.34662" lon="2.4338">
        <ele>388</ele>
        <time>2012-06-20T17:50:38Z</time>
      </trkpt>
      <trkpt lat="46.34671" lon="2.43373">
        <ele>387</ele>
        <time>2012-06-20T17:50:41Z</time>
      </trkpt>
      <trkpt lat="46.3468" lon="2.43368">
        <ele>387</ele>
        <time>2012-06-20T17:50:44Z</time>
      </trkpt>
      <trkpt lat="46.34689" lon="2.43364">
        <ele>387</ele>
        <time>2012-06-20T17:50:47Z</time>
      </trkpt>
      <trkpt lat="46.34699" lon="2.43357">
        <ele>387</ele>
        <time>2012-06-20T17:50:50Z</time>
      </trkpt>
      <trkpt lat="46.34709" lon="2.43352">
        <ele>386</ele>
        <time>2012-06-20T17:50:53Z</time>
      </trkpt>
      <trkpt lat="46.34719" lon="2.43346">
        <ele>386</ele>
        <time>2012-06-20T17:50:56Z</time>
      </trkpt>
      <trkpt lat="46.34728" lon="2.43341">
        <ele>386</ele>
        <time>2012-06-20T17:50:59Z</time>
      </trkpt>
      <trkpt lat="46.34738" lon="2.43337">
        <ele>386</ele>
        <time>2012-06-20T17:51:03Z</time>
      </trkpt>
      <trkpt lat="46.3475" lon="2.43331">
        <ele>386</ele>
        <time>2012-06-20T17:51:06Z</time>
      </trkpt>
      <trkpt lat="46.34759" lon="2.43326">
        <ele>386</ele>
        <time>2012-06-20T17:51:09Z</time>
      </trkpt>
      <trkpt lat="46.3477" lon="2.4332">
        <ele>386</ele>
        <time>2012-06-20T17:51:12Z</time>
      </trkpt>
      <trkpt lat="46.3478" lon="2.43315">
        <ele>386</ele>
        <time>2012-06-20T17:51:15Z</time>
      </trkpt>
      <trkpt lat="46.34791" lon="2.43311">
        <ele>385</ele>
        <time>2012-06-20T17:51:18Z</time>
      </trkpt>
      <trkpt lat="46.34802" lon="2.43305">
        <ele>385</ele>
        <time>2012-06-20T17:51:21Z</time>
      </trkpt>
      <trkpt lat="46.34812" lon="2.433">
        <ele>385</ele>
        <time>2012-06-20T17:51:25Z</time>
      </trkpt>
      <trkpt lat="46.34822" lon="2.43295">
        <ele>385</ele>
        <time>2012-06-20T17:51:28Z</time>
      </trkpt>
      <trkpt lat="46.34832" lon="2.43289">
        <ele>385</ele>
        <time>2012-06-20T17:51:31Z</time>
      </trkpt>
      <trkpt lat="46.34842" lon="2.43284">
        <ele>384</ele>
        <time>2012-06-20T17:51:35Z</time>
      </trkpt>
      <trkpt lat="46.34852" lon="2.43277">
        <ele>385</ele>
        <time>2012-06-20T17:51:39Z</time>
      </trkpt>
      <trkpt lat="46.34863" lon="2.43272">
        <ele>384</ele>
        <time>2012-06-20T17:51:43Z</time>
      </trkpt>
      <trkpt lat="46.34873" lon="2.43268">
        <ele>384</ele>
        <time>2012-06-20T17:51:47Z</time>
      </trkpt>
      <trkpt lat="46.34882" lon="2.43265">
        <ele>384</ele>
        <time>2012-06-20T17:52:04Z</time>
      </trkpt>
      <trkpt lat="46.34884" lon="2.43277">
        <ele>384</ele>
        <time>2012-06-20T17:54:22Z</time>
      </trkpt>
      <trkpt lat="46.34884" lon="2.43291">
        <ele>384</ele>
        <time>2012-06-20T17:54:26Z</time>
      </trkpt>
      <trkpt lat="46.34885" lon="2.43304">
        <ele>384</ele>
        <time>2012-06-20T17:54:29Z</time>
      </trkpt>
      <trkpt lat="46.34886" lon="2.43318">
        <ele>384</ele>
        <time>2012-06-20T17:54:32Z</time>
      </trkpt>
      <trkpt lat="46.34886" lon="2.43332">
        <ele>383</ele>
        <time>2012-06-20T17:54:35Z</time>
      </trkpt>
      <trkpt lat="46.34885" lon="2.43347">
        <ele>382</ele>
        <time>2012-06-20T17:54:38Z</time>
      </trkpt>
      <trkpt lat="46.34883" lon="2.43364">
        <ele>382</ele>
        <time>2012-06-20T17:54:41Z</time>
      </trkpt>
      <trkpt lat="46.34882" lon="2.43378">
        <ele>382</ele>
        <time>2012-06-20T17:54:43Z</time>
      </trkpt>
      <trkpt lat="46.34882" lon="2.43391">
        <ele>382</ele>
        <time>2012-06-20T17:54:45Z</time>
      </trkpt>
      <trkpt lat="46.3488" lon="2.43406">
        <ele>382</ele>
        <time>2012-06-20T17:54:47Z</time>
      </trkpt>
      <trkpt lat="46.34879" lon="2.43419">
        <ele>382</ele>
        <time>2012-06-20T17:54:49Z</time>
      </trkpt>
      <trkpt lat="46.34878" lon="2.43435">
        <ele>382</ele>
        <time>2012-06-20T17:54:51Z</time>
      </trkpt>
      <trkpt lat="46.34877" lon="2.43449">
        <ele>382</ele>
        <time>2012-06-20T17:54:53Z</time>
      </trkpt>
      <trkpt lat="46.34875" lon="2.43463">
        <ele>382</ele>
        <time>2012-06-20T17:54:55Z</time>
      </trkpt>
      <trkpt lat="46.34873" lon="2.43478">
        <ele>382</ele>
        <time>2012-06-20T17:54:57Z</time>
      </trkpt>
      <trkpt lat="46.34871" lon="2.43494">
        <ele>382</ele>
        <time>2012-06-20T17:54:59Z</time>
      </trkpt>
      <trkpt lat="46.34869" lon="2.4351">
        <ele>381</ele>
        <time>2012-06-20T17:55:01Z</time>
      </trkpt>
      <trkpt lat="46.34868" lon="2.43525">
        <ele>381</ele>
        <time>2012-06-20T17:55:03Z</time>
      </trkpt>
      <trkpt lat="46.34867" lon="2.4354">
        <ele>381</ele>
        <time>2012-06-20T17:55:05Z</time>
      </trkpt>
      <trkpt lat="46.34867" lon="2.43554">
        <ele>381</ele>
        <time>2012-06-20T17:55:07Z</time>
      </trkpt>
      <trkpt lat="46.3487" lon="2.43567">
        <ele>381</ele>
        <time>2012-06-20T17:55:09Z</time>
      </trkpt>
      <trkpt lat="46.34872" lon="2.43582">
        <ele>381</ele>
        <time>2012-06-20T17:55:11Z</time>
      </trkpt>
      <trkpt lat="46.3487" lon="2.43596">
        <ele>380</ele>
        <time>2012-06-20T17:55:13Z</time>
      </trkpt>
      <trkpt lat="46.34867" lon="2.43612">
        <ele>379</ele>
        <time>2012-06-20T17:55:15Z</time>
      </trkpt>
      <trkpt lat="46.34864" lon="2.43629">
        <ele>379</ele>
        <time>2012-06-20T17:55:17Z</time>
      </trkpt>
      <trkpt lat="46.34863" lon="2.43644">
        <ele>379</ele>
        <time>2012-06-20T17:55:19Z</time>
      </trkpt>
      <trkpt lat="46.3486" lon="2.43658">
        <ele>379</ele>
        <time>2012-06-20T17:55:22Z</time>
      </trkpt>
      <trkpt lat="46.34852" lon="2.43665">
        <ele>379</ele>
        <time>2012-06-20T17:55:25Z</time>
      </trkpt>
      <trkpt lat="46.34842" lon="2.43672">
        <ele>378</ele>
        <time>2012-06-20T17:55:28Z</time>
      </trkpt>
      <trkpt lat="46.34832" lon="2.43678">
        <ele>379</ele>
        <time>2012-06-20T17:55:31Z</time>
      </trkpt>
      <trkpt lat="46.34822" lon="2.43685">
        <ele>379</ele>
        <time>2012-06-20T17:55:34Z</time>
      </trkpt>
      <trkpt lat="46.34812" lon="2.43692">
        <ele>379</ele>
        <time>2012-06-20T17:55:37Z</time>
      </trkpt>
      <trkpt lat="46.34802" lon="2.43701">
        <ele>379</ele>
        <time>2012-06-20T17:55:40Z</time>
      </trkpt>
      <trkpt lat="46.34791" lon="2.4371">
        <ele>379</ele>
        <time>2012-06-20T17:55:43Z</time>
      </trkpt>
      <trkpt lat="46.34783" lon="2.43717">
        <ele>379</ele>
        <time>2012-06-20T17:55:45Z</time>
      </trkpt>
      <trkpt lat="46.34771" lon="2.43726">
        <ele>379</ele>
        <time>2012-06-20T17:55:48Z</time>
      </trkpt>
      <trkpt lat="46.3476" lon="2.43737">
        <ele>378</ele>
        <time>2012-06-20T17:55:51Z</time>
      </trkpt>
      <trkpt lat="46.34752" lon="2.43744">
        <ele>378</ele>
        <time>2012-06-20T17:55:53Z</time>
      </trkpt>
      <trkpt lat="46.34743" lon="2.43751">
        <ele>378</ele>
        <time>2012-06-20T17:55:55Z</time>
      </trkpt>
      <trkpt lat="46.34735" lon="2.43758">
        <ele>377</ele>
        <time>2012-06-20T17:55:57Z</time>
      </trkpt>
      <trkpt lat="46.34726" lon="2.43766">
        <ele>377</ele>
        <time>2012-06-20T17:55:59Z</time>
      </trkpt>
      <trkpt lat="46.34716" lon="2.43773">
        <ele>377</ele>
        <time>2012-06-20T17:56:01Z</time>
      </trkpt>
      <trkpt lat="46.34707" lon="2.43782">
        <ele>377</ele>
        <time>2012-06-20T17:56:03Z</time>
      </trkpt>
      <trkpt lat="46.34697" lon="2.43791">
        <ele>377</ele>
        <time>2012-06-20T17:56:05Z</time>
      </trkpt>
      <trkpt lat="46.34687" lon="2.43799">
        <ele>377</ele>
        <time>2012-06-20T17:56:07Z</time>
      </trkpt>
      <trkpt lat="46.34678" lon="2.43807">
        <ele>377</ele>
        <time>2012-06-20T17:56:09Z</time>
      </trkpt>
      <trkpt lat="46.3467" lon="2.43817">
        <ele>377</ele>
        <time>2012-06-20T17:56:11Z</time>
      </trkpt>
      <trkpt lat="46.34663" lon="2.43827">
        <ele>378</ele>
        <time>2012-06-20T17:56:13Z</time>
      </trkpt>
      <trkpt lat="46.34656" lon="2.43836">
        <ele>378</ele>
        <time>2012-06-20T17:56:15Z</time>
      </trkpt>
      <trkpt lat="46.34647" lon="2.43848">
        <ele>380</ele>
        <time>2012-06-20T17:56:18Z</time>
      </trkpt>
      <trkpt lat="46.34638" lon="2.43859">
        <ele>380</ele>
        <time>2012-06-20T17:56:21Z</time>
      </trkpt>
      <trkpt lat="46.34629" lon="2.43872">
        <ele>381</ele>
        <time>2012-06-20T17:56:24Z</time>
      </trkpt>
      <trkpt lat="46.34623" lon="2.43882">
        <ele>381</ele>
        <time>2012-06-20T17:56:27Z</time>
      </trkpt>
      <trkpt lat="46.34615" lon="2.43893">
        <ele>382</ele>
        <time>2012-06-20T17:56:30Z</time>
      </trkpt>
      <trkpt lat="46.34607" lon="2.43904">
        <ele>383</ele>
        <time>2012-06-20T17:56:33Z</time>
      </trkpt>
      <trkpt lat="46.34601" lon="2.43917">
        <ele>384</ele>
        <time>2012-06-20T17:56:36Z</time>
      </trkpt>
      <trkpt lat="46.34598" lon="2.43933">
        <ele>384</ele>
        <time>2012-06-20T17:56:39Z</time>
      </trkpt>
      <trkpt lat="46.346" lon="2.43951">
        <ele>384</ele>
        <time>2012-06-20T17:56:42Z</time>
      </trkpt>
      <trkpt lat="46.34605" lon="2.43967">
        <ele>384</ele>
        <time>2012-06-20T17:56:45Z</time>
      </trkpt>
      <trkpt lat="46.34609" lon="2.43984">
        <ele>384</ele>
        <time>2012-06-20T17:56:48Z</time>
      </trkpt>
      <trkpt lat="46.3461" lon="2.44003">
        <ele>386</ele>
        <time>2012-06-20T17:56:51Z</time>
      </trkpt>
      <trkpt lat="46.34607" lon="2.44021">
        <ele>386</ele>
        <time>2012-06-20T17:56:54Z</time>
      </trkpt>
      <trkpt lat="46.34602" lon="2.44036">
        <ele>386</ele>
        <time>2012-06-20T17:56:57Z</time>
      </trkpt>
      <trkpt lat="46.346" lon="2.44053">
        <ele>387</ele>
        <time>2012-06-20T17:57:00Z</time>
      </trkpt>
      <trkpt lat="46.34603" lon="2.4407">
        <ele>388</ele>
        <time>2012-06-20T17:57:03Z</time>
      </trkpt>
      <trkpt lat="46.34605" lon="2.44085">
        <ele>388</ele>
        <time>2012-06-20T17:57:06Z</time>
      </trkpt>
      <trkpt lat="46.34608" lon="2.44099">
        <ele>388</ele>
        <time>2012-06-20T17:57:09Z</time>
      </trkpt>
      <trkpt lat="46.34611" lon="2.44116">
        <ele>387</ele>
        <time>2012-06-20T17:57:12Z</time>
      </trkpt>
      <trkpt lat="46.34612" lon="2.44135">
        <ele>387</ele>
        <time>2012-06-20T17:57:15Z</time>
      </trkpt>
      <trkpt lat="46.34613" lon="2.44154">
        <ele>387</ele>
        <time>2012-06-20T17:57:18Z</time>
      </trkpt>
      <trkpt lat="46.34617" lon="2.44175">
        <ele>388</ele>
        <time>2012-06-20T17:57:21Z</time>
      </trkpt>
      <trkpt lat="46.3462" lon="2.44189">
        <ele>387</ele>
        <time>2012-06-20T17:57:23Z</time>
      </trkpt>
      <trkpt lat="46.34623" lon="2.44204">
        <ele>387</ele>
        <time>2012-06-20T17:57:25Z</time>
      </trkpt>
      <trkpt lat="46.34627" lon="2.44219">
        <ele>387</ele>
        <time>2012-06-20T17:57:27Z</time>
      </trkpt>
      <trkpt lat="46.34631" lon="2.44234">
        <ele>386</ele>
        <time>2012-06-20T17:57:29Z</time>
      </trkpt>
      <trkpt lat="46.34637" lon="2.44249">
        <ele>385</ele>
        <time>2012-06-20T17:57:31Z</time>
      </trkpt>
      <trkpt lat="46.34643" lon="2.44264">
        <ele>385</ele>
        <time>2012-06-20T17:57:33Z</time>
      </trkpt>
      <trkpt lat="46.34651" lon="2.44278">
        <ele>385</ele>
        <time>2012-06-20T17:57:35Z</time>
      </trkpt>
      <trkpt lat="46.34661" lon="2.4429">
        <ele>385</ele>
        <time>2012-06-20T17:57:37Z</time>
      </trkpt>
      <trkpt lat="46.34669" lon="2.44301">
        <ele>378</ele>
        <time>2012-06-20T17:57:39Z</time>
      </trkpt>
      <trkpt lat="46.34679" lon="2.44313">
        <ele>378</ele>
        <time>2012-06-20T17:57:41Z</time>
      </trkpt>
      <trkpt lat="46.34691" lon="2.44326">
        <ele>378</ele>
        <time>2012-06-20T17:57:43Z</time>
      </trkpt>
      <trkpt lat="46.347" lon="2.4434">
        <ele>378</ele>
        <time>2012-06-20T17:57:45Z</time>
      </trkpt>
      <trkpt lat="46.3471" lon="2.44354">
        <ele>378</ele>
        <time>2012-06-20T17:57:47Z</time>
      </trkpt>
      <trkpt lat="46.34721" lon="2.44365">
        <ele>378</ele>
        <time>2012-06-20T17:57:49Z</time>
      </trkpt>
      <trkpt lat="46.34735" lon="2.44371">
        <ele>377</ele>
        <time>2012-06-20T17:57:51Z</time>
      </trkpt>
      <trkpt lat="46.34749" lon="2.44378">
        <ele>377</ele>
        <time>2012-06-20T17:57:53Z</time>
      </trkpt>
      <trkpt lat="46.3476" lon="2.44389">
        <ele>376</ele>
        <time>2012-06-20T17:57:55Z</time>
      </trkpt>
      <trkpt lat="46.3477" lon="2.44403">
        <ele>376</ele>
        <time>2012-06-20T17:57:57Z</time>
      </trkpt>
      <trkpt lat="46.34779" lon="2.44416">
        <ele>376</ele>
        <time>2012-06-20T17:57:59Z</time>
      </trkpt>
      <trkpt lat="46.34789" lon="2.44429">
        <ele>377</ele>
        <time>2012-06-20T17:58:01Z</time>
      </trkpt>
      <trkpt lat="46.34798" lon="2.44442">
        <ele>377</ele>
        <time>2012-06-20T17:58:03Z</time>
      </trkpt>
      <trkpt lat="46.34807" lon="2.44453">
        <ele>377</ele>
        <time>2012-06-20T17:58:05Z</time>
      </trkpt>
      <trkpt lat="46.34816" lon="2.44464">
        <ele>377</ele>
        <time>2012-06-20T17:58:07Z</time>
      </trkpt>
      <trkpt lat="46.34825" lon="2.44476">
        <ele>377</ele>
        <time>2012-06-20T17:58:09Z</time>
      </trkpt>
      <trkpt lat="46.34835" lon="2.44486">
        <ele>377</ele>
        <time>2012-06-20T17:58:11Z</time>
      </trkpt>
      <trkpt lat="46.34845" lon="2.44494">
        <ele>377</ele>
        <time>2012-06-20T17:58:13Z</time>
      </trkpt>
      <trkpt lat="46.34854" lon="2.44505">
        <ele>376</ele>
        <time>2012-06-20T17:58:15Z</time>
      </trkpt>
      <trkpt lat="46.34862" lon="2.44518">
        <ele>376</ele>
        <time>2012-06-20T17:58:17Z</time>
      </trkpt>
      <trkpt lat="46.3487" lon="2.44529">
        <ele>376</ele>
        <time>2012-06-20T17:58:19Z</time>
      </trkpt>
      <trkpt lat="46.34878" lon="2.44538">
        <ele>376</ele>
        <time>2012-06-20T17:58:21Z</time>
      </trkpt>
      <trkpt lat="46.34887" lon="2.44546">
        <ele>376</ele>
        <time>2012-06-20T17:58:23Z</time>
      </trkpt>
      <trkpt lat="46.34896" lon="2.44553">
        <ele>376</ele>
        <time>2012-06-20T17:58:25Z</time>
      </trkpt>
      <trkpt lat="46.34903" lon="2.44561">
        <ele>376</ele>
        <time>2012-06-20T17:58:27Z</time>
      </trkpt>
      <trkpt lat="46.34912" lon="2.44567">
        <ele>376</ele>
        <time>2012-06-20T17:58:29Z</time>
      </trkpt>
      <trkpt lat="46.34921" lon="2.44574">
        <ele>376</ele>
        <time>2012-06-20T17:58:31Z</time>
      </trkpt>
      <trkpt lat="46.34932" lon="2.4458">
        <ele>376</ele>
        <time>2012-06-20T17:58:33Z</time>
      </trkpt>
      <trkpt lat="46.34942" lon="2.44586">
        <ele>376</ele>
        <time>2012-06-20T17:58:35Z</time>
      </trkpt>
      <trkpt lat="46.3495" lon="2.44593">
        <ele>376</ele>
        <time>2012-06-20T17:58:37Z</time>
      </trkpt>
      <trkpt lat="46.34956" lon="2.44603">
        <ele>376</ele>
        <time>2012-06-20T17:58:39Z</time>
      </trkpt>
      <trkpt lat="46.34958" lon="2.44617">
        <ele>376</ele>
        <time>2012-06-20T17:58:41Z</time>
      </trkpt>
      <trkpt lat="46.34959" lon="2.4463">
        <ele>376</ele>
        <time>2012-06-20T17:58:43Z</time>
      </trkpt>
      <trkpt lat="46.34957" lon="2.44649">
        <ele>376</ele>
        <time>2012-06-20T17:58:46Z</time>
      </trkpt>
      <trkpt lat="46.34957" lon="2.44663">
        <ele>376</ele>
        <time>2012-06-20T17:58:48Z</time>
      </trkpt>
      <trkpt lat="46.34956" lon="2.44676">
        <ele>377</ele>
        <time>2012-06-20T17:58:50Z</time>
      </trkpt>
      <trkpt lat="46.34954" lon="2.44695">
        <ele>377</ele>
        <time>2012-06-20T17:58:53Z</time>
      </trkpt>
      <trkpt lat="46.34953" lon="2.44709">
        <ele>377</ele>
        <time>2012-06-20T17:58:55Z</time>
      </trkpt>
      <trkpt lat="46.34951" lon="2.44729">
        <ele>377</ele>
        <time>2012-06-20T17:58:58Z</time>
      </trkpt>
      <trkpt lat="46.34949" lon="2.44743">
        <ele>377</ele>
        <time>2012-06-20T17:59:00Z</time>
      </trkpt>
      <trkpt lat="46.34949" lon="2.44757">
        <ele>378</ele>
        <time>2012-06-20T17:59:02Z</time>
      </trkpt>
      <trkpt lat="46.34948" lon="2.4477">
        <ele>378</ele>
        <time>2012-06-20T17:59:04Z</time>
      </trkpt>
      <trkpt lat="46.34946" lon="2.44789">
        <ele>378</ele>
        <time>2012-06-20T17:59:07Z</time>
      </trkpt>
      <trkpt lat="46.34944" lon="2.44803">
        <ele>378</ele>
        <time>2012-06-20T17:59:09Z</time>
      </trkpt>
      <trkpt lat="46.34944" lon="2.44816">
        <ele>378</ele>
        <time>2012-06-20T17:59:11Z</time>
      </trkpt>
      <trkpt lat="46.34944" lon="2.4483">
        <ele>378</ele>
        <time>2012-06-20T17:59:13Z</time>
      </trkpt>
      <trkpt lat="46.34941" lon="2.44849">
        <ele>378</ele>
        <time>2012-06-20T17:59:16Z</time>
      </trkpt>
      <trkpt lat="46.34937" lon="2.44865">
        <ele>378</ele>
        <time>2012-06-20T17:59:19Z</time>
      </trkpt>
      <trkpt lat="46.34934" lon="2.44878">
        <ele>378</ele>
        <time>2012-06-20T17:59:22Z</time>
      </trkpt>
      <trkpt lat="46.34929" lon="2.44892">
        <ele>378</ele>
        <time>2012-06-20T17:59:25Z</time>
      </trkpt>
      <trkpt lat="46.34925" lon="2.44908">
        <ele>378</ele>
        <time>2012-06-20T17:59:28Z</time>
      </trkpt>
      <trkpt lat="46.3492" lon="2.44922">
        <ele>378</ele>
        <time>2012-06-20T17:59:31Z</time>
      </trkpt>
      <trkpt lat="46.34914" lon="2.44937">
        <ele>379</ele>
        <time>2012-06-20T17:59:34Z</time>
      </trkpt>
      <trkpt lat="46.34908" lon="2.44953">
        <ele>379</ele>
        <time>2012-06-20T17:59:37Z</time>
      </trkpt>
      <trkpt lat="46.34903" lon="2.44969">
        <ele>379</ele>
        <time>2012-06-20T17:59:40Z</time>
      </trkpt>
      <trkpt lat="46.34898" lon="2.44985">
        <ele>379</ele>
        <time>2012-06-20T17:59:43Z</time>
      </trkpt>
      <trkpt lat="46.34892" lon="2.45001">
        <ele>379</ele>
        <time>2012-06-20T17:59:46Z</time>
      </trkpt>
      <trkpt lat="46.34887" lon="2.45017">
        <ele>379</ele>
        <time>2012-06-20T17:59:49Z</time>
      </trkpt>
      <trkpt lat="46.34882" lon="2.45034">
        <ele>379</ele>
        <time>2012-06-20T17:59:52Z</time>
      </trkpt>
      <trkpt lat="46.34876" lon="2.45051">
        <ele>379</ele>
        <time>2012-06-20T17:59:55Z</time>
      </trkpt>
      <trkpt lat="46.3487" lon="2.45066">
        <ele>379</ele>
        <time>2012-06-20T17:59:58Z</time>
      </trkpt>
      <trkpt lat="46.34865" lon="2.4508">
        <ele>379</ele>
        <time>2012-06-20T18:00:01Z</time>
      </trkpt>
      <trkpt lat="46.3486" lon="2.45095">
        <ele>379</ele>
        <time>2012-06-20T18:00:04Z</time>
      </trkpt>
      <trkpt lat="46.34855" lon="2.45108">
        <ele>379</ele>
        <time>2012-06-20T18:00:08Z</time>
      </trkpt>
      <trkpt lat="46.34853" lon="2.45121">
        <ele>379</ele>
        <time>2012-06-20T18:00:48Z</time>
      </trkpt>
      <trkpt lat="46.34858" lon="2.45131">
        <ele>379</ele>
        <time>2012-06-20T18:00:53Z</time>
      </trkpt>
      <trkpt lat="46.34868" lon="2.45141">
        <ele>379</ele>
        <time>2012-06-20T18:00:57Z</time>
      </trkpt>
      <trkpt lat="46.34877" lon="2.4515">
        <ele>379</ele>
        <time>2012-06-20T18:01:00Z</time>
      </trkpt>
      <trkpt lat="46.34886" lon="2.45162">
        <ele>379</ele>
        <time>2012-06-20T18:01:03Z</time>
      </trkpt>
      <trkpt lat="46.34896" lon="2.45174">
        <ele>379</ele>
        <time>2012-06-20T18:01:06Z</time>
      </trkpt>
      <trkpt lat="46.34905" lon="2.45182">
        <ele>379</ele>
        <time>2012-06-20T18:01:08Z</time>
      </trkpt>
      <trkpt lat="46.34913" lon="2.45191">
        <ele>379</ele>
        <time>2012-06-20T18:01:10Z</time>
      </trkpt>
      <trkpt lat="46.34921" lon="2.452">
        <ele>378</ele>
        <time>2012-06-20T18:01:12Z</time>
      </trkpt>
      <trkpt lat="46.3493" lon="2.45209">
        <ele>378</ele>
        <time>2012-06-20T18:01:14Z</time>
      </trkpt>
      <trkpt lat="46.34939" lon="2.45218">
        <ele>378</ele>
        <time>2012-06-20T18:01:16Z</time>
      </trkpt>
      <trkpt lat="46.34949" lon="2.45228">
        <ele>378</ele>
        <time>2012-06-20T18:01:18Z</time>
      </trkpt>
      <trkpt lat="46.34959" lon="2.45237">
        <ele>378</ele>
        <time>2012-06-20T18:01:20Z</time>
      </trkpt>
      <trkpt lat="46.34967" lon="2.45246">
        <ele>378</ele>
        <time>2012-06-20T18:01:22Z</time>
      </trkpt>
      <trkpt lat="46.34976" lon="2.45256">
        <ele>377</ele>
        <time>2012-06-20T18:01:24Z</time>
      </trkpt>
      <trkpt lat="46.34984" lon="2.45268">
        <ele>377</ele>
        <time>2012-06-20T18:01:26Z</time>
      </trkpt>
      <trkpt lat="46.34992" lon="2.4528">
        <ele>377</ele>
        <time>2012-06-20T18:01:28Z</time>
      </trkpt>
      <trkpt lat="46.35" lon="2.45293">
        <ele>377</ele>
        <time>2012-06-20T18:01:30Z</time>
      </trkpt>
      <trkpt lat="46.35006" lon="2.45308">
        <ele>377</ele>
        <time>2012-06-20T18:01:32Z</time>
      </trkpt>
      <trkpt lat="46.35012" lon="2.45324">
        <ele>377</ele>
        <time>2012-06-20T18:01:34Z</time>
      </trkpt>
      <trkpt lat="46.35017" lon="2.45339">
        <ele>377</ele>
        <time>2012-06-20T18:01:36Z</time>
      </trkpt>
      <trkpt lat="46.35024" lon="2.45354">
        <ele>376</ele>
        <time>2012-06-20T18:01:38Z</time>
      </trkpt>
      <trkpt lat="46.35031" lon="2.45369">
        <ele>376</ele>
        <time>2012-06-20T18:01:40Z</time>
      </trkpt>
      <trkpt lat="46.35039" lon="2.45383">
        <ele>376</ele>
        <time>2012-06-20T18:01:42Z</time>
      </trkpt>
      <trkpt lat="46.35048" lon="2.45396">
        <ele>376</ele>
        <time>2012-06-20T18:01:44Z</time>
      </trkpt>
      <trkpt lat="46.35056" lon="2.4541">
        <ele>376</ele>
        <time>2012-06-20T18:01:46Z</time>
      </trkpt>
      <trkpt lat="46.35066" lon="2.45423">
        <ele>375</ele>
        <time>2012-06-20T18:01:48Z</time>
      </trkpt>
      <trkpt lat="46.35076" lon="2.45439">
        <ele>375</ele>
        <time>2012-06-20T18:01:50Z</time>
      </trkpt>
      <trkpt lat="46.35086" lon="2.45453">
        <ele>375</ele>
        <time>2012-06-20T18:01:52Z</time>
      </trkpt>
      <trkpt lat="46.35096" lon="2.45467">
        <ele>374</ele>
        <time>2012-06-20T18:01:54Z</time>
      </trkpt>
      <trkpt lat="46.35107" lon="2.45482">
        <ele>374</ele>
        <time>2012-06-20T18:01:56Z</time>
      </trkpt>
      <trkpt lat="46.35118" lon="2.45496">
        <ele>374</ele>
        <time>2012-06-20T18:01:58Z</time>
      </trkpt>
      <trkpt lat="46.35128" lon="2.45509">
        <ele>373</ele>
        <time>2012-06-20T18:02:00Z</time>
      </trkpt>
      <trkpt lat="46.35138" lon="2.4552">
        <ele>373</ele>
        <time>2012-06-20T18:02:02Z</time>
      </trkpt>
      <trkpt lat="46.35146" lon="2.45536">
        <ele>373</ele>
        <time>2012-06-20T18:02:04Z</time>
      </trkpt>
      <trkpt lat="46.35146" lon="2.45555">
        <ele>373</ele>
        <time>2012-06-20T18:02:06Z</time>
      </trkpt>
      <trkpt lat="46.35147" lon="2.45573">
        <ele>373</ele>
        <time>2012-06-20T18:02:08Z</time>
      </trkpt>
      <trkpt lat="46.35146" lon="2.45592">
        <ele>372</ele>
        <time>2012-06-20T18:02:10Z</time>
      </trkpt>
      <trkpt lat="46.35145" lon="2.45612">
        <ele>372</ele>
        <time>2012-06-20T18:02:12Z</time>
      </trkpt>
      <trkpt lat="46.35145" lon="2.4563">
        <ele>372</ele>
        <time>2012-06-20T18:02:14Z</time>
      </trkpt>
      <trkpt lat="46.35144" lon="2.45648">
        <ele>372</ele>
        <time>2012-06-20T18:02:16Z</time>
      </trkpt>
      <trkpt lat="46.35143" lon="2.45667">
        <ele>371</ele>
        <time>2012-06-20T18:02:18Z</time>
      </trkpt>
      <trkpt lat="46.35142" lon="2.45685">
        <ele>371</ele>
        <time>2012-06-20T18:02:20Z</time>
      </trkpt>
      <trkpt lat="46.35143" lon="2.45705">
        <ele>371</ele>
        <time>2012-06-20T18:02:22Z</time>
      </trkpt>
      <trkpt lat="46.35142" lon="2.45725">
        <ele>370</ele>
        <time>2012-06-20T18:02:24Z</time>
      </trkpt>
      <trkpt lat="46.35141" lon="2.45745">
        <ele>370</ele>
        <time>2012-06-20T18:02:26Z</time>
      </trkpt>
      <trkpt lat="46.35141" lon="2.45764">
        <ele>369</ele>
        <time>2012-06-20T18:02:28Z</time>
      </trkpt>
      <trkpt lat="46.3514" lon="2.45782">
        <ele>369</ele>
        <time>2012-06-20T18:02:30Z</time>
      </trkpt>
      <trkpt lat="46.3514" lon="2.45802">
        <ele>369</ele>
        <time>2012-06-20T18:02:32Z</time>
      </trkpt>
      <trkpt lat="46.3514" lon="2.4582">
        <ele>369</ele>
        <time>2012-06-20T18:02:34Z</time>
      </trkpt>
      <trkpt lat="46.3514" lon="2.45838">
        <ele>368</ele>
        <time>2012-06-20T18:02:36Z</time>
      </trkpt>
      <trkpt lat="46.35138" lon="2.45855">
        <ele>367</ele>
        <time>2012-06-20T18:02:38Z</time>
      </trkpt>
      <trkpt lat="46.35139" lon="2.45874">
        <ele>367</ele>
        <time>2012-06-20T18:02:40Z</time>
      </trkpt>
      <trkpt lat="46.35135" lon="2.45888">
        <ele>367</ele>
        <time>2012-06-20T18:02:42Z</time>
      </trkpt>
      <trkpt lat="46.35127" lon="2.45894">
        <ele>367</ele>
        <time>2012-06-20T18:02:44Z</time>
      </trkpt>
      <trkpt lat="46.35116" lon="2.45904">
        <ele>367</ele>
        <time>2012-06-20T18:02:47Z</time>
      </trkpt>
      <trkpt lat="46.35115" lon="2.45917">
        <ele>366</ele>
        <time>2012-06-20T18:02:49Z</time>
      </trkpt>
      <trkpt lat="46.35121" lon="2.45935">
        <ele>366</ele>
        <time>2012-06-20T18:02:51Z</time>
      </trkpt>
      <trkpt lat="46.35126" lon="2.45955">
        <ele>365</ele>
        <time>2012-06-20T18:02:53Z</time>
      </trkpt>
      <trkpt lat="46.3513" lon="2.45975">
        <ele>365</ele>
        <time>2012-06-20T18:02:55Z</time>
      </trkpt>
      <trkpt lat="46.35133" lon="2.45992">
        <ele>365</ele>
        <time>2012-06-20T18:02:57Z</time>
      </trkpt>
      <trkpt lat="46.35137" lon="2.46007">
        <ele>364</ele>
        <time>2012-06-20T18:02:59Z</time>
      </trkpt>
      <trkpt lat="46.3514" lon="2.46023">
        <ele>363</ele>
        <time>2012-06-20T18:03:01Z</time>
      </trkpt>
      <trkpt lat="46.35143" lon="2.46041">
        <ele>363</ele>
        <time>2012-06-20T18:03:03Z</time>
      </trkpt>
      <trkpt lat="46.35145" lon="2.46058">
        <ele>363</ele>
        <time>2012-06-20T18:03:05Z</time>
      </trkpt>
      <trkpt lat="46.35146" lon="2.46072">
        <ele>363</ele>
        <time>2012-06-20T18:03:07Z</time>
      </trkpt>
      <trkpt lat="46.35147" lon="2.4609">
        <ele>362</ele>
        <time>2012-06-20T18:03:09Z</time>
      </trkpt>
      <trkpt lat="46.35147" lon="2.46106">
        <ele>362</ele>
        <time>2012-06-20T18:03:11Z</time>
      </trkpt>
      <trkpt lat="46.3515" lon="2.46121">
        <ele>362</ele>
        <time>2012-06-20T18:03:13Z</time>
      </trkpt>
      <trkpt lat="46.3515" lon="2.46137">
        <ele>362</ele>
        <time>2012-06-20T18:03:15Z</time>
      </trkpt>
      <trkpt lat="46.3514" lon="2.46145">
        <ele>362</ele>
        <time>2012-06-20T18:03:18Z</time>
      </trkpt>
      <trkpt lat="46.35127" lon="2.46142">
        <ele>362</ele>
        <time>2012-06-20T18:03:21Z</time>
      </trkpt>
      <trkpt lat="46.35117" lon="2.46139">
        <ele>362</ele>
        <time>2012-06-20T18:03:23Z</time>
      </trkpt>
      <trkpt lat="46.35108" lon="2.46137">
        <ele>362</ele>
        <time>2012-06-20T18:03:25Z</time>
      </trkpt>
      <trkpt lat="46.35096" lon="2.46133">
        <ele>362</ele>
        <time>2012-06-20T18:03:28Z</time>
      </trkpt>
      <trkpt lat="46.35082" lon="2.46129">
        <ele>363</ele>
        <time>2012-06-20T18:03:31Z</time>
      </trkpt>
      <trkpt lat="46.3507" lon="2.46129">
        <ele>363</ele>
        <time>2012-06-20T18:03:34Z</time>
      </trkpt>
      <trkpt lat="46.35057" lon="2.46128">
        <ele>363</ele>
        <time>2012-06-20T18:03:37Z</time>
      </trkpt>
      <trkpt lat="46.35043" lon="2.46126">
        <ele>363</ele>
        <time>2012-06-20T18:03:40Z</time>
      </trkpt>
      <trkpt lat="46.35031" lon="2.46126">
        <ele>363</ele>
        <time>2012-06-20T18:03:43Z</time>
      </trkpt>
      <trkpt lat="46.35019" lon="2.46123">
        <ele>363</ele>
        <time>2012-06-20T18:03:46Z</time>
      </trkpt>
      <trkpt lat="46.35008" lon="2.46121">
        <ele>363</ele>
        <time>2012-06-20T18:03:49Z</time>
      </trkpt>
      <trkpt lat="46.34995" lon="2.46118">
        <ele>363</ele>
        <time>2012-06-20T18:03:52Z</time>
      </trkpt>
      <trkpt lat="46.34983" lon="2.46117">
        <ele>363</ele>
        <time>2012-06-20T18:03:55Z</time>
      </trkpt>
      <trkpt lat="46.34972" lon="2.46121">
        <ele>363</ele>
        <time>2012-06-20T18:03:58Z</time>
      </trkpt>
      <trkpt lat="46.34972" lon="2.4614">
        <ele>363</ele>
        <time>2012-06-20T18:04:01Z</time>
      </trkpt>
      <trkpt lat="46.34974" lon="2.46155">
        <ele>363</ele>
        <time>2012-06-20T18:04:03Z</time>
      </trkpt>
      <trkpt lat="46.34972" lon="2.46169">
        <ele>361</ele>
        <time>2012-06-20T18:04:05Z</time>
      </trkpt>
      <trkpt lat="46.34971" lon="2.46183">
        <ele>361</ele>
        <time>2012-06-20T18:04:07Z</time>
      </trkpt>
      <trkpt lat="46.34968" lon="2.46198">
        <ele>360</ele>
        <time>2012-06-20T18:04:09Z</time>
      </trkpt>
      <trkpt lat="46.34964" lon="2.46211">
        <ele>360</ele>
        <time>2012-06-20T18:04:11Z</time>
      </trkpt>
      <trkpt lat="46.34957" lon="2.46227">
        <ele>360</ele>
        <time>2012-06-20T18:04:14Z</time>
      </trkpt>
      <trkpt lat="46.34947" lon="2.46239">
        <ele>360</ele>
        <time>2012-06-20T18:04:17Z</time>
      </trkpt>
      <trkpt lat="46.34938" lon="2.46246">
        <ele>360</ele>
        <time>2012-06-20T18:04:19Z</time>
      </trkpt>
      <trkpt lat="46.34927" lon="2.46256">
        <ele>359</ele>
        <time>2012-06-20T18:04:22Z</time>
      </trkpt>
      <trkpt lat="46.34917" lon="2.46265">
        <ele>359</ele>
        <time>2012-06-20T18:04:25Z</time>
      </trkpt>
      <trkpt lat="46.34908" lon="2.46273">
        <ele>359</ele>
        <time>2012-06-20T18:04:28Z</time>
      </trkpt>
      <trkpt lat="46.349" lon="2.46281">
        <ele>359</ele>
        <time>2012-06-20T18:04:32Z</time>
      </trkpt>
      <trkpt lat="46.3489" lon="2.4629">
        <ele>359</ele>
        <time>2012-06-20T18:04:36Z</time>
      </trkpt>
      <trkpt lat="46.34878" lon="2.46297">
        <ele>359</ele>
        <time>2012-06-20T18:04:40Z</time>
      </trkpt>
      <trkpt lat="46.34867" lon="2.46297">
        <ele>359</ele>
        <time>2012-06-20T18:04:44Z</time>
      </trkpt>
      <trkpt lat="46.34855" lon="2.46295">
        <ele>359</ele>
        <time>2012-06-20T18:04:48Z</time>
      </trkpt>
      <trkpt lat="46.34845" lon="2.46291">
        <ele>359</ele>
        <time>2012-06-20T18:04:51Z</time>
      </trkpt>
      <trkpt lat="46.34833" lon="2.4629">
        <ele>358</ele>
        <time>2012-06-20T18:04:54Z</time>
      </trkpt>
      <trkpt lat="46.34824" lon="2.4629">
        <ele>358</ele>
        <time>2012-06-20T18:04:56Z</time>
      </trkpt>
      <trkpt lat="46.34814" lon="2.46291">
        <ele>358</ele>
        <time>2012-06-20T18:04:58Z</time>
      </trkpt>
      <trkpt lat="46.34802" lon="2.46291">
        <ele>358</ele>
        <time>2012-06-20T18:05:01Z</time>
      </trkpt>
      <trkpt lat="46.3479" lon="2.4629">
        <ele>357</ele>
        <time>2012-06-20T18:05:04Z</time>
      </trkpt>
      <trkpt lat="46.34779" lon="2.46287">
        <ele>357</ele>
        <time>2012-06-20T18:05:07Z</time>
      </trkpt>
      <trkpt lat="46.34766" lon="2.46282">
        <ele>357</ele>
        <time>2012-06-20T18:05:10Z</time>
      </trkpt>
      <trkpt lat="46.34753" lon="2.4628">
        <ele>357</ele>
        <time>2012-06-20T18:05:13Z</time>
      </trkpt>
      <trkpt lat="46.34743" lon="2.46278">
        <ele>356</ele>
        <time>2012-06-20T18:05:15Z</time>
      </trkpt>
      <trkpt lat="46.34733" lon="2.46278">
        <ele>356</ele>
        <time>2012-06-20T18:05:17Z</time>
      </trkpt>
      <trkpt lat="46.34724" lon="2.4628">
        <ele>356</ele>
        <time>2012-06-20T18:05:19Z</time>
      </trkpt>
      <trkpt lat="46.34715" lon="2.46284">
        <ele>356</ele>
        <time>2012-06-20T18:05:21Z</time>
      </trkpt>
      <trkpt lat="46.34705" lon="2.46287">
        <ele>356</ele>
        <time>2012-06-20T18:05:24Z</time>
      </trkpt>
      <trkpt lat="46.34692" lon="2.46294">
        <ele>355</ele>
        <time>2012-06-20T18:05:27Z</time>
      </trkpt>
      <trkpt lat="46.34682" lon="2.46302">
        <ele>355</ele>
        <time>2012-06-20T18:05:29Z</time>
      </trkpt>
      <trkpt lat="46.34671" lon="2.46309">
        <ele>355</ele>
        <time>2012-06-20T18:05:31Z</time>
      </trkpt>
      <trkpt lat="46.34662" lon="2.46313">
        <ele>354</ele>
        <time>2012-06-20T18:05:33Z</time>
      </trkpt>
      <trkpt lat="46.34654" lon="2.46319">
        <ele>354</ele>
        <time>2012-06-20T18:05:35Z</time>
      </trkpt>
      <trkpt lat="46.34643" lon="2.46333">
        <ele>354</ele>
        <time>2012-06-20T18:05:39Z</time>
      </trkpt>
      <trkpt lat="46.34648" lon="2.46349">
        <ele>353</ele>
        <time>2012-06-20T18:05:44Z</time>
      </trkpt>
      <trkpt lat="46.34656" lon="2.4636">
        <ele>353</ele>
        <time>2012-06-20T18:05:48Z</time>
      </trkpt>
      <trkpt lat="46.34664" lon="2.46369">
        <ele>353</ele>
        <time>2012-06-20T18:05:51Z</time>
      </trkpt>
      <trkpt lat="46.3467" lon="2.46383">
        <ele>353</ele>
        <time>2012-06-20T18:05:54Z</time>
      </trkpt>
      <trkpt lat="46.34676" lon="2.46394">
        <ele>353</ele>
        <time>2012-06-20T18:05:57Z</time>
      </trkpt>
      <trkpt lat="46.34682" lon="2.46406">
        <ele>353</ele>
        <time>2012-06-20T18:06:00Z</time>
      </trkpt>
      <trkpt lat="46.34685" lon="2.46421">
        <ele>353</ele>
        <time>2012-06-20T18:06:03Z</time>
      </trkpt>
      <trkpt lat="46.34687" lon="2.46438">
        <ele>353</ele>
        <time>2012-06-20T18:06:06Z</time>
      </trkpt>
      <trkpt lat="46.34689" lon="2.46457">
        <ele>353</ele>
        <time>2012-06-20T18:06:09Z</time>
      </trkpt>
      <trkpt lat="46.34691" lon="2.46471">
        <ele>353</ele>
        <time>2012-06-20T18:06:11Z</time>
      </trkpt>
      <trkpt lat="46.34694" lon="2.46484">
        <ele>353</ele>
        <time>2012-06-20T18:06:14Z</time>
      </trkpt>
      <trkpt lat="46.34696" lon="2.46498">
        <ele>353</ele>
        <time>2012-06-20T18:06:16Z</time>
      </trkpt>
      <trkpt lat="46.347" lon="2.46511">
        <ele>352</ele>
        <time>2012-06-20T18:06:19Z</time>
      </trkpt>
      <trkpt lat="46.34706" lon="2.46524">
        <ele>352</ele>
        <time>2012-06-20T18:06:21Z</time>
      </trkpt>
      <trkpt lat="46.34712" lon="2.46535">
        <ele>352</ele>
        <time>2012-06-20T18:06:23Z</time>
      </trkpt>
      <trkpt lat="46.34717" lon="2.46553">
        <ele>351</ele>
        <time>2012-06-20T18:06:26Z</time>
      </trkpt>
      <trkpt lat="46.34723" lon="2.46564">
        <ele>351</ele>
        <time>2012-06-20T18:06:28Z</time>
      </trkpt>
      <trkpt lat="46.34728" lon="2.46579">
        <ele>351</ele>
        <time>2012-06-20T18:06:31Z</time>
      </trkpt>
      <trkpt lat="46.34732" lon="2.46591">
        <ele>350</ele>
        <time>2012-06-20T18:06:34Z</time>
      </trkpt>
      <trkpt lat="46.34735" lon="2.46606">
        <ele>350</ele>
        <time>2012-06-20T18:06:37Z</time>
      </trkpt>
      <trkpt lat="46.34738" lon="2.4662">
        <ele>350</ele>
        <time>2012-06-20T18:06:40Z</time>
      </trkpt>
      <trkpt lat="46.34743" lon="2.46636">
        <ele>350</ele>
        <time>2012-06-20T18:06:43Z</time>
      </trkpt>
      <trkpt lat="46.34749" lon="2.46653">
        <ele>349</ele>
        <time>2012-06-20T18:06:46Z</time>
      </trkpt>
      <trkpt lat="46.34756" lon="2.46669">
        <ele>349</ele>
        <time>2012-06-20T18:06:49Z</time>
      </trkpt>
      <trkpt lat="46.34763" lon="2.46686">
        <ele>349</ele>
        <time>2012-06-20T18:06:52Z</time>
      </trkpt>
      <trkpt lat="46.34768" lon="2.467">
        <ele>349</ele>
        <time>2012-06-20T18:06:55Z</time>
      </trkpt>
      <trkpt lat="46.34773" lon="2.46712">
        <ele>349</ele>
        <time>2012-06-20T18:06:58Z</time>
      </trkpt>
      <trkpt lat="46.34779" lon="2.46725">
        <ele>349</ele>
        <time>2012-06-20T18:07:01Z</time>
      </trkpt>
      <trkpt lat="46.34788" lon="2.46737">
        <ele>349</ele>
        <time>2012-06-20T18:07:04Z</time>
      </trkpt>
      <trkpt lat="46.34796" lon="2.46751">
        <ele>348</ele>
        <time>2012-06-20T18:07:07Z</time>
      </trkpt>
      <trkpt lat="46.34803" lon="2.46766">
        <ele>348</ele>
        <time>2012-06-20T18:07:10Z</time>
      </trkpt>
      <trkpt lat="46.34807" lon="2.46783">
        <ele>348</ele>
        <time>2012-06-20T18:07:13Z</time>
      </trkpt>
      <trkpt lat="46.34809" lon="2.468">
        <ele>348</ele>
        <time>2012-06-20T18:07:16Z</time>
      </trkpt>
      <trkpt lat="46.3481" lon="2.46814">
        <ele>348</ele>
        <time>2012-06-20T18:07:18Z</time>
      </trkpt>
      <trkpt lat="46.34813" lon="2.46829">
        <ele>348</ele>
        <time>2012-06-20T18:07:21Z</time>
      </trkpt>
      <trkpt lat="46.34811" lon="2.46846">
        <ele>348</ele>
        <time>2012-06-20T18:07:25Z</time>
      </trkpt>
      <trkpt lat="46.34806" lon="2.4686">
        <ele>348</ele>
        <time>2012-06-20T18:07:30Z</time>
      </trkpt>
      <trkpt lat="46.34799" lon="2.46869">
        <ele>348</ele>
        <time>2012-06-20T18:07:34Z</time>
      </trkpt>
      <trkpt lat="46.34792" lon="2.46877">
        <ele>348</ele>
        <time>2012-06-20T18:07:38Z</time>
      </trkpt>
      <trkpt lat="46.34786" lon="2.46888">
        <ele>348</ele>
        <time>2012-06-20T18:07:51Z</time>
      </trkpt>
      <trkpt lat="46.34789" lon="2.46903">
        <ele>349</ele>
        <time>2012-06-20T18:08:14Z</time>
      </trkpt>
      <trkpt lat="46.34794" lon="2.46916">
        <ele>348</ele>
        <time>2012-06-20T18:08:18Z</time>
      </trkpt>
      <trkpt lat="46.34801" lon="2.46931">
        <ele>348</ele>
        <time>2012-06-20T18:08:22Z</time>
      </trkpt>
      <trkpt lat="46.34806" lon="2.46944">
        <ele>348</ele>
        <time>2012-06-20T18:08:26Z</time>
      </trkpt>
      <trkpt lat="46.34806" lon="2.46959">
        <ele>348</ele>
        <time>2012-06-20T18:08:30Z</time>
      </trkpt>
      <trkpt lat="46.34803" lon="2.46972">
        <ele>348</ele>
        <time>2012-06-20T18:08:33Z</time>
      </trkpt>
      <trkpt lat="46.34797" lon="2.46985">
        <ele>348</ele>
        <time>2012-06-20T18:08:37Z</time>
      </trkpt>
      <trkpt lat="46.34788" lon="2.46992">
        <ele>349</ele>
        <time>2012-06-20T18:08:41Z</time>
      </trkpt>
      <trkpt lat="46.34776" lon="2.46994">
        <ele>349</ele>
        <time>2012-06-20T18:08:45Z</time>
      </trkpt>
      <trkpt lat="46.34766" lon="2.46995">
        <ele>350</ele>
        <time>2012-06-20T18:08:49Z</time>
      </trkpt>
      <trkpt lat="46.34757" lon="2.46996">
        <ele>351</ele>
        <time>2012-06-20T18:08:54Z</time>
      </trkpt>
      <trkpt lat="46.34747" lon="2.46994">
        <ele>352</ele>
        <time>2012-06-20T18:09:00Z</time>
      </trkpt>
      <trkpt lat="46.34737" lon="2.46987">
        <ele>353</ele>
        <time>2012-06-20T18:09:06Z</time>
      </trkpt>
      <trkpt lat="46.3473" lon="2.46978">
        <ele>353</ele>
        <time>2012-06-20T18:09:11Z</time>
      </trkpt>
      <trkpt lat="46.34722" lon="2.4697">
        <ele>353</ele>
        <time>2012-06-20T18:09:16Z</time>
      </trkpt>
      <trkpt lat="46.34713" lon="2.46965">
        <ele>353</ele>
        <time>2012-06-20T18:09:20Z</time>
      </trkpt>
      <trkpt lat="46.34704" lon="2.46965">
        <ele>353</ele>
        <time>2012-06-20T18:09:24Z</time>
      </trkpt>
      <trkpt lat="46.34694" lon="2.46968">
        <ele>354</ele>
        <time>2012-06-20T18:09:28Z</time>
      </trkpt>
      <trkpt lat="46.34684" lon="2.46968">
        <ele>354</ele>
        <time>2012-06-20T18:09:33Z</time>
      </trkpt>
      <trkpt lat="46.34675" lon="2.46969">
        <ele>354</ele>
        <time>2012-06-20T18:09:38Z</time>
      </trkpt>
      <trkpt lat="46.34669" lon="2.46979">
        <ele>354</ele>
        <time>2012-06-20T18:11:12Z</time>
      </trkpt>
      <trkpt lat="46.34663" lon="2.46989">
        <ele>356</ele>
        <time>2012-06-20T18:12:07Z</time>
      </trkpt>
      <trkpt lat="46.34657" lon="2.47002">
        <ele>356</ele>
        <time>2012-06-20T18:12:11Z</time>
      </trkpt>
      <trkpt lat="46.34651" lon="2.47012">
        <ele>357</ele>
        <time>2012-06-20T18:12:14Z</time>
      </trkpt>
      <trkpt lat="46.34646" lon="2.47024">
        <ele>357</ele>
        <time>2012-06-20T18:12:17Z</time>
      </trkpt>
      <trkpt lat="46.34642" lon="2.47037">
        <ele>357</ele>
        <time>2012-06-20T18:12:20Z</time>
      </trkpt>
      <trkpt lat="46.34638" lon="2.4705">
        <ele>357</ele>
        <time>2012-06-20T18:12:23Z</time>
      </trkpt>
      <trkpt lat="46.34636" lon="2.47067">
        <ele>357</ele>
        <time>2012-06-20T18:12:26Z</time>
      </trkpt>
      <trkpt lat="46.34638" lon="2.47081">
        <ele>357</ele>
        <time>2012-06-20T18:12:28Z</time>
      </trkpt>
      <trkpt lat="46.34641" lon="2.47093">
        <ele>358</ele>
        <time>2012-06-20T18:12:30Z</time>
      </trkpt>
      <trkpt lat="46.34648" lon="2.47111">
        <ele>358</ele>
        <time>2012-06-20T18:12:33Z</time>
      </trkpt>
      <trkpt lat="46.34652" lon="2.47123">
        <ele>358</ele>
        <time>2012-06-20T18:12:35Z</time>
      </trkpt>
      <trkpt lat="46.34653" lon="2.47136">
        <ele>358</ele>
        <time>2012-06-20T18:12:37Z</time>
      </trkpt>
      <trkpt lat="46.34646" lon="2.47152">
        <ele>359</ele>
        <time>2012-06-20T18:12:40Z</time>
      </trkpt>
      <trkpt lat="46.34634" lon="2.47154">
        <ele>359</ele>
        <time>2012-06-20T18:12:43Z</time>
      </trkpt>
      <trkpt lat="46.34621" lon="2.47157">
        <ele>359</ele>
        <time>2012-06-20T18:12:46Z</time>
      </trkpt>
      <trkpt lat="46.34612" lon="2.47164">
        <ele>359</ele>
        <time>2012-06-20T18:12:49Z</time>
      </trkpt>
      <trkpt lat="46.34608" lon="2.47179">
        <ele>359</ele>
        <time>2012-06-20T18:12:52Z</time>
      </trkpt>
      <trkpt lat="46.34607" lon="2.47195">
        <ele>359</ele>
        <time>2012-06-20T18:12:55Z</time>
      </trkpt>
      <trkpt lat="46.34607" lon="2.4721">
        <ele>359</ele>
        <time>2012-06-20T18:12:58Z</time>
      </trkpt>
      <trkpt lat="46.34606" lon="2.47227">
        <ele>359</ele>
        <time>2012-06-20T18:13:01Z</time>
      </trkpt>
      <trkpt lat="46.34604" lon="2.47244">
        <ele>359</ele>
        <time>2012-06-20T18:13:04Z</time>
      </trkpt>
      <trkpt lat="46.34602" lon="2.47261">
        <ele>359</ele>
        <time>2012-06-20T18:13:07Z</time>
      </trkpt>
      <trkpt lat="46.34602" lon="2.47278">
        <ele>359</ele>
        <time>2012-06-20T18:13:10Z</time>
      </trkpt>
      <trkpt lat="46.34601" lon="2.47295">
        <ele>359</ele>
        <time>2012-06-20T18:13:13Z</time>
      </trkpt>
      <trkpt lat="46.346" lon="2.47313">
        <ele>359</ele>
        <time>2012-06-20T18:13:16Z</time>
      </trkpt>
      <trkpt lat="46.346" lon="2.47327">
        <ele>360</ele>
        <time>2012-06-20T18:14:27Z</time>
      </trkpt>
      <trkpt lat="46.34598" lon="2.47341">
        <ele>360</ele>
        <time>2012-06-20T18:14:33Z</time>
      </trkpt>
      <trkpt lat="46.346" lon="2.47356">
        <ele>359</ele>
        <time>2012-06-20T18:14:38Z</time>
      </trkpt>
      <trkpt lat="46.34599" lon="2.47373">
        <ele>359</ele>
        <time>2012-06-20T18:14:42Z</time>
      </trkpt>
      <trkpt lat="46.34598" lon="2.47386">
        <ele>359</ele>
        <time>2012-06-20T18:14:45Z</time>
      </trkpt>
      <trkpt lat="46.34598" lon="2.47401">
        <ele>360</ele>
        <time>2012-06-20T18:14:48Z</time>
      </trkpt>
      <trkpt lat="46.34598" lon="2.47419">
        <ele>360</ele>
        <time>2012-06-20T18:14:52Z</time>
      </trkpt>
      <trkpt lat="46.34598" lon="2.47433">
        <ele>360</ele>
        <time>2012-06-20T18:14:55Z</time>
      </trkpt>
      <trkpt lat="46.34598" lon="2.47449">
        <ele>359</ele>
        <time>2012-06-20T18:14:58Z</time>
      </trkpt>
      <trkpt lat="46.34599" lon="2.47467">
        <ele>359</ele>
        <time>2012-06-20T18:15:01Z</time>
      </trkpt>
      <trkpt lat="46.34598" lon="2.47482">
        <ele>360</ele>
        <time>2012-06-20T18:15:04Z</time>
      </trkpt>
      <trkpt lat="46.34598" lon="2.47498">
        <ele>360</ele>
        <time>2012-06-20T18:15:07Z</time>
      </trkpt>
      <trkpt lat="46.34596" lon="2.47515">
        <ele>360</ele>
        <time>2012-06-20T18:15:10Z</time>
      </trkpt>
      <trkpt lat="46.34594" lon="2.47531">
        <ele>359</ele>
        <time>2012-06-20T18:15:13Z</time>
      </trkpt>
      <trkpt lat="46.34594" lon="2.47548">
        <ele>359</ele>
        <time>2012-06-20T18:15:16Z</time>
      </trkpt>
      <trkpt lat="46.34593" lon="2.47563">
        <ele>360</ele>
        <time>2012-06-20T18:15:19Z</time>
      </trkpt>
      <trkpt lat="46.34591" lon="2.47577">
        <ele>360</ele>
        <time>2012-06-20T18:15:23Z</time>
      </trkpt>
      <trkpt lat="46.34594" lon="2.47591">
        <ele>360</ele>
        <time>2012-06-20T18:15:26Z</time>
      </trkpt>
      <trkpt lat="46.34597" lon="2.47605">
        <ele>359</ele>
        <time>2012-06-20T18:15:29Z</time>
      </trkpt>
      <trkpt lat="46.34598" lon="2.47622">
        <ele>359</ele>
        <time>2012-06-20T18:15:33Z</time>
      </trkpt>
      <trkpt lat="46.34599" lon="2.47635">
        <ele>359</ele>
        <time>2012-06-20T18:15:36Z</time>
      </trkpt>
      <trkpt lat="46.34601" lon="2.4765">
        <ele>359</ele>
        <time>2012-06-20T18:15:39Z</time>
      </trkpt>
      <trkpt lat="46.34603" lon="2.47666">
        <ele>359</ele>
        <time>2012-06-20T18:15:43Z</time>
      </trkpt>
      <trkpt lat="46.34607" lon="2.4768">
        <ele>358</ele>
        <time>2012-06-20T18:15:47Z</time>
      </trkpt>
      <trkpt lat="46.34607" lon="2.47693">
        <ele>358</ele>
        <time>2012-06-20T18:15:57Z</time>
      </trkpt>
      <trkpt lat="46.34607" lon="2.47708">
        <ele>358</ele>
        <time>2012-06-20T18:16:04Z</time>
      </trkpt>
      <trkpt lat="46.34605" lon="2.47721">
        <ele>358</ele>
        <time>2012-06-20T18:16:24Z</time>
      </trkpt>
      <trkpt lat="46.34601" lon="2.47733">
        <ele>358</ele>
        <time>2012-06-20T18:16:46Z</time>
      </trkpt>
      <trkpt lat="46.34598" lon="2.47746">
        <ele>358</ele>
        <time>2012-06-20T18:16:51Z</time>
      </trkpt>
      <trkpt lat="46.34596" lon="2.4776">
        <ele>358</ele>
        <time>2012-06-20T18:16:55Z</time>
      </trkpt>
      <trkpt lat="46.34593" lon="2.47774">
        <ele>358</ele>
        <time>2012-06-20T18:16:59Z</time>
      </trkpt>
      <trkpt lat="46.34591" lon="2.47789">
        <ele>358</ele>
        <time>2012-06-20T18:17:02Z</time>
      </trkpt>
      <trkpt lat="46.3459" lon="2.47803">
        <ele>358</ele>
        <time>2012-06-20T18:17:05Z</time>
      </trkpt>
      <trkpt lat="46.34589" lon="2.47819">
        <ele>358</ele>
        <time>2012-06-20T18:17:08Z</time>
      </trkpt>
      <trkpt lat="46.34588" lon="2.47834">
        <ele>359</ele>
        <time>2012-06-20T18:17:11Z</time>
      </trkpt>
      <trkpt lat="46.34586" lon="2.47849">
        <ele>359</ele>
        <time>2012-06-20T18:17:14Z</time>
      </trkpt>
      <trkpt lat="46.34587" lon="2.47863">
        <ele>358</ele>
        <time>2012-06-20T18:17:17Z</time>
      </trkpt>
      <trkpt lat="46.34585" lon="2.47878">
        <ele>358</ele>
        <time>2012-06-20T18:17:20Z</time>
      </trkpt>
      <trkpt lat="46.34585" lon="2.47894">
        <ele>358</ele>
        <time>2012-06-20T18:17:24Z</time>
      </trkpt>
      <trkpt lat="46.34585" lon="2.47908">
        <ele>358</ele>
        <time>2012-06-20T18:17:28Z</time>
      </trkpt>
      <trkpt lat="46.34584" lon="2.47923">
        <ele>358</ele>
        <time>2012-06-20T18:17:33Z</time>
      </trkpt>
      <trkpt lat="46.34583" lon="2.47937">
        <ele>359</ele>
        <time>2012-06-20T18:17:37Z</time>
      </trkpt>
      <trkpt lat="46.34582" lon="2.47951">
        <ele>360</ele>
        <time>2012-06-20T18:17:41Z</time>
      </trkpt>
      <trkpt lat="46.34582" lon="2.47966">
        <ele>360</ele>
        <time>2012-06-20T18:17:45Z</time>
      </trkpt>
      <trkpt lat="46.34582" lon="2.4798">
        <ele>360</ele>
        <time>2012-06-20T18:17:49Z</time>
      </trkpt>
      <trkpt lat="46.34585" lon="2.47993">
        <ele>359</ele>
        <time>2012-06-20T18:17:59Z</time>
      </trkpt>
      <trkpt lat="46.34586" lon="2.48008">
        <ele>359</ele>
        <time>2012-06-20T18:18:06Z</time>
      </trkpt>
      <trkpt lat="46.34587" lon="2.48022">
        <ele>358</ele>
        <time>2012-06-20T18:18:11Z</time>
      </trkpt>
      <trkpt lat="46.34587" lon="2.48037">
        <ele>358</ele>
        <time>2012-06-20T18:18:15Z</time>
      </trkpt>
      <trkpt lat="46.34589" lon="2.48052">
        <ele>358</ele>
        <time>2012-06-20T18:18:19Z</time>
      </trkpt>
      <trkpt lat="46.34589" lon="2.48065">
        <ele>358</ele>
        <time>2012-06-20T18:18:23Z</time>
      </trkpt>
      <trkpt lat="46.34587" lon="2.48079">
        <ele>359</ele>
        <time>2012-06-20T18:19:56Z</time>
      </trkpt>
      <trkpt lat="46.34582" lon="2.48091">
        <ele>359</ele>
        <time>2012-06-20T18:20:03Z</time>
      </trkpt>
      <trkpt lat="46.34579" lon="2.48105">
        <ele>360</ele>
        <time>2012-06-20T18:20:07Z</time>
      </trkpt>
      <trkpt lat="46.34578" lon="2.48119">
        <ele>360</ele>
        <time>2012-06-20T18:20:11Z</time>
      </trkpt>
      <trkpt lat="46.34573" lon="2.48133">
        <ele>360</ele>
        <time>2012-06-20T18:20:15Z</time>
      </trkpt>
      <trkpt lat="46.34567" lon="2.48144">
        <ele>360</ele>
        <time>2012-06-20T18:20:19Z</time>
      </trkpt>
      <trkpt lat="46.34561" lon="2.48153">
        <ele>360</ele>
        <time>2012-06-20T18:20:24Z</time>
      </trkpt>
      <trkpt lat="46.34553" lon="2.48161">
        <ele>360</ele>
        <time>2012-06-20T18:20:29Z</time>
      </trkpt>
      <trkpt lat="46.34545" lon="2.48171">
        <ele>359</ele>
        <time>2012-06-20T18:20:34Z</time>
      </trkpt>
      <trkpt lat="46.34536" lon="2.4818">
        <ele>360</ele>
        <time>2012-06-20T18:20:39Z</time>
      </trkpt>
      <trkpt lat="46.34528" lon="2.48188">
        <ele>360</ele>
        <time>2012-06-20T18:20:43Z</time>
      </trkpt>
      <trkpt lat="46.34519" lon="2.482">
        <ele>360</ele>
        <time>2012-06-20T18:20:47Z</time>
      </trkpt>
      <trkpt lat="46.34511" lon="2.48208">
        <ele>360</ele>
        <time>2012-06-20T18:20:51Z</time>
      </trkpt>
      <trkpt lat="46.34503" lon="2.48216">
        <ele>360</ele>
        <time>2012-06-20T18:20:55Z</time>
      </trkpt>
      <trkpt lat="46.34496" lon="2.48225">
        <ele>365</ele>
        <time>2012-06-20T18:21:02Z</time>
      </trkpt>
      <trkpt lat="46.34494" lon="2.48242">
        <ele>363</ele>
        <time>2012-06-20T18:23:38Z</time>
      </trkpt>
      <trkpt lat="46.34495" lon="2.48256">
        <ele>361</ele>
        <time>2012-06-20T18:23:42Z</time>
      </trkpt>
      <trkpt lat="46.34497" lon="2.4827">
        <ele>363</ele>
        <time>2012-06-20T18:23:46Z</time>
      </trkpt>
      <trkpt lat="46.34498" lon="2.48286">
        <ele>363</ele>
        <time>2012-06-20T18:23:51Z</time>
      </trkpt>
      <trkpt lat="46.34498" lon="2.48301">
        <ele>363</ele>
        <time>2012-06-20T18:23:57Z</time>
      </trkpt>
      <trkpt lat="46.345" lon="2.48318">
        <ele>361</ele>
        <time>2012-06-20T18:24:01Z</time>
      </trkpt>
      <trkpt lat="46.345" lon="2.48332">
        <ele>357</ele>
        <time>2012-06-20T18:24:04Z</time>
      </trkpt>
      <trkpt lat="46.34499" lon="2.4835">
        <ele>360</ele>
        <time>2012-06-20T18:24:07Z</time>
      </trkpt>
      <trkpt lat="46.345" lon="2.48364">
        <ele>361</ele>
        <time>2012-06-20T18:24:09Z</time>
      </trkpt>
      <trkpt lat="46.34497" lon="2.48382">
        <ele>361</ele>
        <time>2012-06-20T18:24:12Z</time>
      </trkpt>
      <trkpt lat="46.34496" lon="2.48397">
        <ele>361</ele>
        <time>2012-06-20T18:24:15Z</time>
      </trkpt>
      <trkpt lat="46.34495" lon="2.48411">
        <ele>359</ele>
        <time>2012-06-20T18:24:19Z</time>
      </trkpt>
      <trkpt lat="46.34494" lon="2.48426">
        <ele>359</ele>
        <time>2012-06-20T18:24:22Z</time>
      </trkpt>
      <trkpt lat="46.34494" lon="2.4844">
        <ele>360</ele>
        <time>2012-06-20T18:24:25Z</time>
      </trkpt>
      <trkpt lat="46.34494" lon="2.48455">
        <ele>361</ele>
        <time>2012-06-20T18:24:28Z</time>
      </trkpt>
      <trkpt lat="46.34496" lon="2.48471">
        <ele>360</ele>
        <time>2012-06-20T18:24:31Z</time>
      </trkpt>
      <trkpt lat="46.34498" lon="2.48488">
        <ele>359</ele>
        <time>2012-06-20T18:24:34Z</time>
      </trkpt>
      <trkpt lat="46.34501" lon="2.48505">
        <ele>355</ele>
        <time>2012-06-20T18:24:37Z</time>
      </trkpt>
      <trkpt lat="46.34505" lon="2.48518">
        <ele>355</ele>
        <time>2012-06-20T18:24:39Z</time>
      </trkpt>
      <trkpt lat="46.34508" lon="2.48557">
        <ele>354</ele>
        <time>2012-06-20T18:24:45Z</time>
      </trkpt>
      <trkpt lat="46.3451" lon="2.48574">
        <ele>354</ele>
        <time>2012-06-20T18:24:48Z</time>
      </trkpt>
      <trkpt lat="46.34511" lon="2.48587">
        <ele>353</ele>
        <time>2012-06-20T18:24:50Z</time>
      </trkpt>
      <trkpt lat="46.34511" lon="2.48601">
        <ele>353</ele>
        <time>2012-06-20T18:24:52Z</time>
      </trkpt>
      <trkpt lat="46.34508" lon="2.48618">
        <ele>352</ele>
        <time>2012-06-20T18:24:55Z</time>
      </trkpt>
      <trkpt lat="46.34504" lon="2.48631">
        <ele>351</ele>
        <time>2012-06-20T18:24:58Z</time>
      </trkpt>
      <trkpt lat="46.345" lon="2.48646">
        <ele>354</ele>
        <time>2012-06-20T18:25:01Z</time>
      </trkpt>
      <trkpt lat="46.34493" lon="2.4866">
        <ele>352</ele>
        <time>2012-06-20T18:25:04Z</time>
      </trkpt>
      <trkpt lat="46.34486" lon="2.48673">
        <ele>352</ele>
        <time>2012-06-20T18:25:07Z</time>
      </trkpt>
      <trkpt lat="46.34482" lon="2.48685">
        <ele>353</ele>
        <time>2012-06-20T18:25:10Z</time>
      </trkpt>
      <trkpt lat="46.34476" lon="2.48698">
        <ele>354</ele>
        <time>2012-06-20T18:25:13Z</time>
      </trkpt>
      <trkpt lat="46.3447" lon="2.48712">
        <ele>354</ele>
        <time>2012-06-20T18:25:16Z</time>
      </trkpt>
      <trkpt lat="46.34464" lon="2.48724">
        <ele>354</ele>
        <time>2012-06-20T18:25:18Z</time>
      </trkpt>
      <trkpt lat="46.34461" lon="2.48738">
        <ele>354</ele>
        <time>2012-06-20T18:25:21Z</time>
      </trkpt>
      <trkpt lat="46.34456" lon="2.48753">
        <ele>355</ele>
        <time>2012-06-20T18:25:24Z</time>
      </trkpt>
      <trkpt lat="46.34451" lon="2.48765">
        <ele>355</ele>
        <time>2012-06-20T18:25:27Z</time>
      </trkpt>
      <trkpt lat="46.34445" lon="2.48775">
        <ele>356</ele>
        <time>2012-06-20T18:25:31Z</time>
      </trkpt>
      <trkpt lat="46.3444" lon="2.48763">
        <ele>356</ele>
        <time>2012-06-20T18:25:38Z</time>
      </trkpt>
      <trkpt lat="46.34434" lon="2.48753">
        <ele>357</ele>
        <time>2012-06-20T18:25:43Z</time>
      </trkpt>
      <trkpt lat="46.34428" lon="2.48742">
        <ele>357</ele>
        <time>2012-06-20T18:26:18Z</time>
      </trkpt>
      <trkpt lat="46.34419" lon="2.48735">
        <ele>357</ele>
        <time>2012-06-20T18:26:25Z</time>
      </trkpt>
      <trkpt lat="46.34416" lon="2.48721">
        <ele>363</ele>
        <time>2012-06-20T18:26:31Z</time>
      </trkpt>
      <trkpt lat="46.34417" lon="2.48708">
        <ele>356</ele>
        <time>2012-06-20T18:26:39Z</time>
      </trkpt>
      <trkpt lat="46.34418" lon="2.48693">
        <ele>356</ele>
        <time>2012-06-20T18:26:46Z</time>
      </trkpt>
      <trkpt lat="46.34418" lon="2.48679">
        <ele>357</ele>
        <time>2012-06-20T18:26:53Z</time>
      </trkpt>
      <trkpt lat="46.34419" lon="2.48664">
        <ele>359</ele>
        <time>2012-06-20T18:27:02Z</time>
      </trkpt>
      <trkpt lat="46.34417" lon="2.4865">
        <ele>358</ele>
        <time>2012-06-20T18:27:07Z</time>
      </trkpt>
      <trkpt lat="46.34417" lon="2.48636">
        <ele>358</ele>
        <time>2012-06-20T18:27:13Z</time>
      </trkpt>
      <trkpt lat="46.34416" lon="2.48622">
        <ele>365</ele>
        <time>2012-06-20T18:27:19Z</time>
      </trkpt>
      <trkpt lat="46.34416" lon="2.48607">
        <ele>365</ele>
        <time>2012-06-20T18:27:26Z</time>
      </trkpt>
      <trkpt lat="46.34412" lon="2.48593">
        <ele>365</ele>
        <time>2012-06-20T18:27:33Z</time>
      </trkpt>
      <trkpt lat="46.34409" lon="2.48578">
        <ele>366</ele>
        <time>2012-06-20T18:27:42Z</time>
      </trkpt>
      <trkpt lat="46.34407" lon="2.48566">
        <ele>368</ele>
        <time>2012-06-20T18:27:49Z</time>
      </trkpt>
      <trkpt lat="46.34403" lon="2.48554">
        <ele>369</ele>
        <time>2012-06-20T18:27:58Z</time>
      </trkpt>
      <trkpt lat="46.34398" lon="2.48542">
        <ele>370</ele>
        <time>2012-06-20T18:28:05Z</time>
      </trkpt>
      <trkpt lat="46.34392" lon="2.48532">
        <ele>370</ele>
        <time>2012-06-20T18:28:11Z</time>
      </trkpt>
      <trkpt lat="46.34386" lon="2.4852">
        <ele>370</ele>
        <time>2012-06-20T18:28:19Z</time>
      </trkpt>
      <trkpt lat="46.34381" lon="2.48509">
        <ele>371</ele>
        <time>2012-06-20T18:28:26Z</time>
      </trkpt>
      <trkpt lat="46.3438" lon="2.48495">
        <ele>373</ele>
        <time>2012-06-20T18:28:33Z</time>
      </trkpt>
      <trkpt lat="46.34381" lon="2.48479">
        <ele>373</ele>
        <time>2012-06-20T18:28:41Z</time>
      </trkpt>
      <trkpt lat="46.34383" lon="2.48465">
        <ele>374</ele>
        <time>2012-06-20T18:28:47Z</time>
      </trkpt>
      <trkpt lat="46.34384" lon="2.48451">
        <ele>374</ele>
        <time>2012-06-20T18:28:52Z</time>
      </trkpt>
      <trkpt lat="46.34384" lon="2.48436">
        <ele>374</ele>
        <time>2012-06-20T18:28:58Z</time>
      </trkpt>
      <trkpt lat="46.34386" lon="2.48421">
        <ele>374</ele>
        <time>2012-06-20T18:29:05Z</time>
      </trkpt>
      <trkpt lat="46.34386" lon="2.48408">
        <ele>375</ele>
        <time>2012-06-20T18:29:09Z</time>
      </trkpt>
      <trkpt lat="46.3438" lon="2.48395">
        <ele>376</ele>
        <time>2012-06-20T18:29:16Z</time>
      </trkpt>
      <trkpt lat="46.34374" lon="2.48385">
        <ele>377</ele>
        <time>2012-06-20T18:29:22Z</time>
      </trkpt>
      <trkpt lat="46.34367" lon="2.48373">
        <ele>377</ele>
        <time>2012-06-20T18:29:28Z</time>
      </trkpt>
      <trkpt lat="46.3436" lon="2.48363">
        <ele>378</ele>
        <time>2012-06-20T18:29:34Z</time>
      </trkpt>
      <trkpt lat="46.34353" lon="2.4835">
        <ele>378</ele>
        <time>2012-06-20T18:29:40Z</time>
      </trkpt>
      <trkpt lat="46.34348" lon="2.48339">
        <ele>379</ele>
        <time>2012-06-20T18:29:45Z</time>
      </trkpt>
      <trkpt lat="46.34343" lon="2.48326">
        <ele>380</ele>
        <time>2012-06-20T18:29:50Z</time>
      </trkpt>
      <trkpt lat="46.3434" lon="2.48313">
        <ele>380</ele>
        <time>2012-06-20T18:29:54Z</time>
      </trkpt>
      <trkpt lat="46.34335" lon="2.483">
        <ele>380</ele>
        <time>2012-06-20T18:29:59Z</time>
      </trkpt>
      <trkpt lat="46.34333" lon="2.48287">
        <ele>385</ele>
        <time>2012-06-20T18:30:03Z</time>
      </trkpt>
      <trkpt lat="46.34329" lon="2.48274">
        <ele>385</ele>
        <time>2012-06-20T18:30:08Z</time>
      </trkpt>
      <trkpt lat="46.34327" lon="2.4826">
        <ele>385</ele>
        <time>2012-06-20T18:30:13Z</time>
      </trkpt>
      <trkpt lat="46.34324" lon="2.48246">
        <ele>386</ele>
        <time>2012-06-20T18:30:18Z</time>
      </trkpt>
      <trkpt lat="46.34322" lon="2.48233">
        <ele>387</ele>
        <time>2012-06-20T18:30:22Z</time>
      </trkpt>
      <trkpt lat="46.34317" lon="2.48221">
        <ele>388</ele>
        <time>2012-06-20T18:30:27Z</time>
      </trkpt>
      <trkpt lat="46.34315" lon="2.48205">
        <ele>388</ele>
        <time>2012-06-20T18:30:33Z</time>
      </trkpt>
      <trkpt lat="46.34312" lon="2.4819">
        <ele>388</ele>
        <time>2012-06-20T18:30:38Z</time>
      </trkpt>
      <trkpt lat="46.34309" lon="2.48176">
        <ele>389</ele>
        <time>2012-06-20T18:30:43Z</time>
      </trkpt>
      <trkpt lat="46.34306" lon="2.48163">
        <ele>391</ele>
        <time>2012-06-20T18:30:48Z</time>
      </trkpt>
      <trkpt lat="46.34302" lon="2.48149">
        <ele>391</ele>
        <time>2012-06-20T18:30:53Z</time>
      </trkpt>
      <trkpt lat="46.34299" lon="2.48136">
        <ele>392</ele>
        <time>2012-06-20T18:30:58Z</time>
      </trkpt>
      <trkpt lat="46.34295" lon="2.48123">
        <ele>392</ele>
        <time>2012-06-20T18:31:03Z</time>
      </trkpt>
      <trkpt lat="46.34291" lon="2.48109">
        <ele>393</ele>
        <time>2012-06-20T18:31:08Z</time>
      </trkpt>
      <trkpt lat="46.34287" lon="2.48095">
        <ele>393</ele>
        <time>2012-06-20T18:31:13Z</time>
      </trkpt>
      <trkpt lat="46.34282" lon="2.4808">
        <ele>396</ele>
        <time>2012-06-20T18:31:18Z</time>
      </trkpt>
      <trkpt lat="46.34278" lon="2.48065">
        <ele>396</ele>
        <time>2012-06-20T18:31:23Z</time>
      </trkpt>
      <trkpt lat="46.34275" lon="2.48053">
        <ele>397</ele>
        <time>2012-06-20T18:31:27Z</time>
      </trkpt>
      <trkpt lat="46.34268" lon="2.48041">
        <ele>397</ele>
        <time>2012-06-20T18:31:32Z</time>
      </trkpt>
      <trkpt lat="46.34261" lon="2.48032">
        <ele>397</ele>
        <time>2012-06-20T18:31:36Z</time>
      </trkpt>
      <trkpt lat="46.34252" lon="2.48025">
        <ele>398</ele>
        <time>2012-06-20T18:31:40Z</time>
      </trkpt>
      <trkpt lat="46.34244" lon="2.48019">
        <ele>401</ele>
        <time>2012-06-20T18:31:44Z</time>
      </trkpt>
      <trkpt lat="46.34236" lon="2.48011">
        <ele>401</ele>
        <time>2012-06-20T18:31:48Z</time>
      </trkpt>
      <trkpt lat="46.34226" lon="2.47999">
        <ele>401</ele>
        <time>2012-06-20T18:31:52Z</time>
      </trkpt>
      <trkpt lat="46.34217" lon="2.47989">
        <ele>401</ele>
        <time>2012-06-20T18:31:56Z</time>
      </trkpt>
      <trkpt lat="46.34209" lon="2.4798">
        <ele>401</ele>
        <time>2012-06-20T18:32:00Z</time>
      </trkpt>
      <trkpt lat="46.34199" lon="2.47969">
        <ele>401</ele>
        <time>2012-06-20T18:32:04Z</time>
      </trkpt>
      <trkpt lat="46.34191" lon="2.47961">
        <ele>401</ele>
        <time>2012-06-20T18:32:08Z</time>
      </trkpt>
      <trkpt lat="46.34183" lon="2.47954">
        <ele>401</ele>
        <time>2012-06-20T18:32:11Z</time>
      </trkpt>
      <trkpt lat="46.34173" lon="2.47944">
        <ele>402</ele>
        <time>2012-06-20T18:32:15Z</time>
      </trkpt>
      <trkpt lat="46.34164" lon="2.4794">
        <ele>402</ele>
        <time>2012-06-20T18:35:17Z</time>
      </trkpt>
      <trkpt lat="46.34154" lon="2.47932">
        <ele>402</ele>
        <time>2012-06-20T18:36:07Z</time>
      </trkpt>
      <trkpt lat="46.34145" lon="2.47923">
        <ele>402</ele>
        <time>2012-06-20T18:36:11Z</time>
      </trkpt>
      <trkpt lat="46.34137" lon="2.47914">
        <ele>403</ele>
        <time>2012-06-20T18:36:14Z</time>
      </trkpt>
      <trkpt lat="46.34131" lon="2.47902">
        <ele>403</ele>
        <time>2012-06-20T18:36:17Z</time>
      </trkpt>
      <trkpt lat="46.34126" lon="2.47889">
        <ele>403</ele>
        <time>2012-06-20T18:36:20Z</time>
      </trkpt>
      <trkpt lat="46.34123" lon="2.47875">
        <ele>403</ele>
        <time>2012-06-20T18:36:23Z</time>
      </trkpt>
      <trkpt lat="46.34121" lon="2.47861">
        <ele>403</ele>
        <time>2012-06-20T18:36:26Z</time>
      </trkpt>
      <trkpt lat="46.34112" lon="2.47852">
        <ele>404</ele>
        <time>2012-06-20T18:36:32Z</time>
      </trkpt>
      <trkpt lat="46.341" lon="2.47854">
        <ele>403</ele>
        <time>2012-06-20T18:36:35Z</time>
      </trkpt>
      <trkpt lat="46.34091" lon="2.47853">
        <ele>404</ele>
        <time>2012-06-20T18:36:37Z</time>
      </trkpt>
      <trkpt lat="46.3408" lon="2.47852">
        <ele>402</ele>
        <time>2012-06-20T18:36:39Z</time>
      </trkpt>
      <trkpt lat="46.34069" lon="2.47851">
        <ele>402</ele>
        <time>2012-06-20T18:36:41Z</time>
      </trkpt>
      <trkpt lat="46.34057" lon="2.47851">
        <ele>402</ele>
        <time>2012-06-20T18:36:43Z</time>
      </trkpt>
      <trkpt lat="46.34043" lon="2.47853">
        <ele>401</ele>
        <time>2012-06-20T18:36:45Z</time>
      </trkpt>
      <trkpt lat="46.34029" lon="2.47856">
        <ele>401</ele>
        <time>2012-06-20T18:36:47Z</time>
      </trkpt>
      <trkpt lat="46.34014" lon="2.47859">
        <ele>400</ele>
        <time>2012-06-20T18:36:49Z</time>
      </trkpt>
      <trkpt lat="46.34" lon="2.4786">
        <ele>398</ele>
        <time>2012-06-20T18:36:51Z</time>
      </trkpt>
      <trkpt lat="46.33987" lon="2.47861">
        <ele>398</ele>
        <time>2012-06-20T18:36:53Z</time>
      </trkpt>
      <trkpt lat="46.33974" lon="2.47862">
        <ele>398</ele>
        <time>2012-06-20T18:36:55Z</time>
      </trkpt>
      <trkpt lat="46.3396" lon="2.47862">
        <ele>398</ele>
        <time>2012-06-20T18:36:57Z</time>
      </trkpt>
      <trkpt lat="46.33946" lon="2.47864">
        <ele>397</ele>
        <time>2012-06-20T18:36:59Z</time>
      </trkpt>
      <trkpt lat="46.33933" lon="2.47864">
        <ele>397</ele>
        <time>2012-06-20T18:37:01Z</time>
      </trkpt>
      <trkpt lat="46.33914" lon="2.47862">
        <ele>395</ele>
        <time>2012-06-20T18:37:04Z</time>
      </trkpt>
      <trkpt lat="46.33901" lon="2.47863">
        <ele>395</ele>
        <time>2012-06-20T18:37:06Z</time>
      </trkpt>
      <trkpt lat="46.33889" lon="2.47861">
        <ele>395</ele>
        <time>2012-06-20T18:37:08Z</time>
      </trkpt>
      <trkpt lat="46.33878" lon="2.47861">
        <ele>395</ele>
        <time>2012-06-20T18:37:10Z</time>
      </trkpt>
      <trkpt lat="46.33866" lon="2.4786">
        <ele>394</ele>
        <time>2012-06-20T18:37:12Z</time>
      </trkpt>
      <trkpt lat="46.33856" lon="2.4786">
        <ele>394</ele>
        <time>2012-06-20T18:37:14Z</time>
      </trkpt>
      <trkpt lat="46.33846" lon="2.4786">
        <ele>394</ele>
        <time>2012-06-20T18:37:16Z</time>
      </trkpt>
      <trkpt lat="46.33833" lon="2.47862">
        <ele>392</ele>
        <time>2012-06-20T18:37:18Z</time>
      </trkpt>
      <trkpt lat="46.3382" lon="2.47861">
        <ele>392</ele>
        <time>2012-06-20T18:37:20Z</time>
      </trkpt>
      <trkpt lat="46.33806" lon="2.47861">
        <ele>392</ele>
        <time>2012-06-20T18:37:22Z</time>
      </trkpt>
      <trkpt lat="46.33795" lon="2.47863">
        <ele>392</ele>
        <time>2012-06-20T18:37:24Z</time>
      </trkpt>
      <trkpt lat="46.33783" lon="2.47864">
        <ele>392</ele>
        <time>2012-06-20T18:37:26Z</time>
      </trkpt>
      <trkpt lat="46.33772" lon="2.47866">
        <ele>392</ele>
        <time>2012-06-20T18:37:28Z</time>
      </trkpt>
      <trkpt lat="46.33763" lon="2.47868">
        <ele>392</ele>
        <time>2012-06-20T18:37:30Z</time>
      </trkpt>
      <trkpt lat="46.33753" lon="2.47869">
        <ele>392</ele>
        <time>2012-06-20T18:37:32Z</time>
      </trkpt>
      <trkpt lat="46.33744" lon="2.47872">
        <ele>391</ele>
        <time>2012-06-20T18:37:34Z</time>
      </trkpt>
      <trkpt lat="46.33731" lon="2.47876">
        <ele>392</ele>
        <time>2012-06-20T18:37:37Z</time>
      </trkpt>
      <trkpt lat="46.33721" lon="2.47879">
        <ele>392</ele>
        <time>2012-06-20T18:37:40Z</time>
      </trkpt>
      <trkpt lat="46.33708" lon="2.4788">
        <ele>392</ele>
        <time>2012-06-20T18:37:43Z</time>
      </trkpt>
      <trkpt lat="46.33698" lon="2.47879">
        <ele>392</ele>
        <time>2012-06-20T18:37:45Z</time>
      </trkpt>
      <trkpt lat="46.33688" lon="2.47878">
        <ele>392</ele>
        <time>2012-06-20T18:37:47Z</time>
      </trkpt>
      <trkpt lat="46.33676" lon="2.47876">
        <ele>392</ele>
        <time>2012-06-20T18:37:49Z</time>
      </trkpt>
      <trkpt lat="46.33666" lon="2.47875">
        <ele>392</ele>
        <time>2012-06-20T18:37:51Z</time>
      </trkpt>
      <trkpt lat="46.33653" lon="2.47874">
        <ele>392</ele>
        <time>2012-06-20T18:37:54Z</time>
      </trkpt>
      <trkpt lat="46.3364" lon="2.47878">
        <ele>393</ele>
        <time>2012-06-20T18:37:57Z</time>
      </trkpt>
      <trkpt lat="46.33631" lon="2.47878">
        <ele>393</ele>
        <time>2012-06-20T18:37:59Z</time>
      </trkpt>
      <trkpt lat="46.33618" lon="2.47879">
        <ele>393</ele>
        <time>2012-06-20T18:38:02Z</time>
      </trkpt>
      <trkpt lat="46.33609" lon="2.47881">
        <ele>393</ele>
        <time>2012-06-20T18:38:04Z</time>
      </trkpt>
      <trkpt lat="46.33599" lon="2.47883">
        <ele>393</ele>
        <time>2012-06-20T18:38:06Z</time>
      </trkpt>
      <trkpt lat="46.3359" lon="2.47885">
        <ele>393</ele>
        <time>2012-06-20T18:38:08Z</time>
      </trkpt>
      <trkpt lat="46.33581" lon="2.47886">
        <ele>393</ele>
        <time>2012-06-20T18:38:10Z</time>
      </trkpt>
      <trkpt lat="46.33571" lon="2.47888">
        <ele>393</ele>
        <time>2012-06-20T18:38:12Z</time>
      </trkpt>
      <trkpt lat="46.33562" lon="2.4789">
        <ele>393</ele>
        <time>2012-06-20T18:38:14Z</time>
      </trkpt>
      <trkpt lat="46.33549" lon="2.47893">
        <ele>393</ele>
        <time>2012-06-20T18:38:17Z</time>
      </trkpt>
      <trkpt lat="46.33537" lon="2.47896">
        <ele>393</ele>
        <time>2012-06-20T18:38:20Z</time>
      </trkpt>
      <trkpt lat="46.33524" lon="2.47896">
        <ele>393</ele>
        <time>2012-06-20T18:38:23Z</time>
      </trkpt>
      <trkpt lat="46.33515" lon="2.47896">
        <ele>393</ele>
        <time>2012-06-20T18:38:25Z</time>
      </trkpt>
      <trkpt lat="46.33502" lon="2.47898">
        <ele>393</ele>
        <time>2012-06-20T18:38:28Z</time>
      </trkpt>
      <trkpt lat="46.33489" lon="2.47899">
        <ele>394</ele>
        <time>2012-06-20T18:38:31Z</time>
      </trkpt>
      <trkpt lat="46.33477" lon="2.47898">
        <ele>395</ele>
        <time>2012-06-20T18:38:34Z</time>
      </trkpt>
      <trkpt lat="46.33467" lon="2.47897">
        <ele>395</ele>
        <time>2012-06-20T18:38:37Z</time>
      </trkpt>
      <trkpt lat="46.33457" lon="2.47898">
        <ele>395</ele>
        <time>2012-06-20T18:38:42Z</time>
      </trkpt>
      <trkpt lat="46.33447" lon="2.47899">
        <ele>395</ele>
        <time>2012-06-20T18:38:48Z</time>
      </trkpt>
      <trkpt lat="46.33437" lon="2.47896">
        <ele>395</ele>
        <time>2012-06-20T18:38:54Z</time>
      </trkpt>
      <trkpt lat="46.33426" lon="2.47892">
        <ele>395</ele>
        <time>2012-06-20T18:38:59Z</time>
      </trkpt>
      <trkpt lat="46.33417" lon="2.47887">
        <ele>396</ele>
        <time>2012-06-20T18:39:04Z</time>
      </trkpt>
      <trkpt lat="46.33408" lon="2.47884">
        <ele>398</ele>
        <time>2012-06-20T18:39:09Z</time>
      </trkpt>
      <trkpt lat="46.33399" lon="2.47879">
        <ele>398</ele>
        <time>2012-06-20T18:39:14Z</time>
      </trkpt>
      <trkpt lat="46.3339" lon="2.47875">
        <ele>398</ele>
        <time>2012-06-20T18:39:21Z</time>
      </trkpt>
      <trkpt lat="46.33378" lon="2.4787">
        <ele>398</ele>
        <time>2012-06-20T18:39:29Z</time>
      </trkpt>
      <trkpt lat="46.33368" lon="2.47867">
        <ele>398</ele>
        <time>2012-06-20T18:39:32Z</time>
      </trkpt>
      <trkpt lat="46.33358" lon="2.47861">
        <ele>399</ele>
        <time>2012-06-20T18:39:36Z</time>
      </trkpt>
      <trkpt lat="46.33349" lon="2.47857">
        <ele>399</ele>
        <time>2012-06-20T18:39:39Z</time>
      </trkpt>
      <trkpt lat="46.3334" lon="2.47852">
        <ele>400</ele>
        <time>2012-06-20T18:39:42Z</time>
      </trkpt>
      <trkpt lat="46.33329" lon="2.47848">
        <ele>400</ele>
        <time>2012-06-20T18:39:46Z</time>
      </trkpt>
      <trkpt lat="46.33319" lon="2.47844">
        <ele>400</ele>
        <time>2012-06-20T18:39:49Z</time>
      </trkpt>
      <trkpt lat="46.33308" lon="2.47841">
        <ele>400</ele>
        <time>2012-06-20T18:39:52Z</time>
      </trkpt>
      <trkpt lat="46.33296" lon="2.47837">
        <ele>400</ele>
        <time>2012-06-20T18:39:55Z</time>
      </trkpt>
      <trkpt lat="46.33284" lon="2.47834">
        <ele>400</ele>
        <time>2012-06-20T18:39:58Z</time>
      </trkpt>
      <trkpt lat="46.33273" lon="2.47834">
        <ele>400</ele>
        <time>2012-06-20T18:40:01Z</time>
      </trkpt>
      <trkpt lat="46.33261" lon="2.47834">
        <ele>400</ele>
        <time>2012-06-20T18:40:04Z</time>
      </trkpt>
      <trkpt lat="46.33249" lon="2.47834">
        <ele>400</ele>
        <time>2012-06-20T18:40:07Z</time>
      </trkpt>
      <trkpt lat="46.33238" lon="2.47835">
        <ele>401</ele>
        <time>2012-06-20T18:40:10Z</time>
      </trkpt>
      <trkpt lat="46.33228" lon="2.47837">
        <ele>401</ele>
        <time>2012-06-20T18:40:13Z</time>
      </trkpt>
      <trkpt lat="46.33217" lon="2.47837">
        <ele>402</ele>
        <time>2012-06-20T18:40:16Z</time>
      </trkpt>
      <trkpt lat="46.33206" lon="2.47837">
        <ele>402</ele>
        <time>2012-06-20T18:40:19Z</time>
      </trkpt>
      <trkpt lat="46.33195" lon="2.47838">
        <ele>403</ele>
        <time>2012-06-20T18:40:22Z</time>
      </trkpt>
      <trkpt lat="46.33184" lon="2.4784">
        <ele>403</ele>
        <time>2012-06-20T18:40:25Z</time>
      </trkpt>
      <trkpt lat="46.33174" lon="2.47842">
        <ele>404</ele>
        <time>2012-06-20T18:40:28Z</time>
      </trkpt>
      <trkpt lat="46.33163" lon="2.47843">
        <ele>406</ele>
        <time>2012-06-20T18:40:31Z</time>
      </trkpt>
      <trkpt lat="46.33153" lon="2.47845">
        <ele>406</ele>
        <time>2012-06-20T18:40:34Z</time>
      </trkpt>
      <trkpt lat="46.33143" lon="2.4785">
        <ele>407</ele>
        <time>2012-06-20T18:40:37Z</time>
      </trkpt>
      <trkpt lat="46.33134" lon="2.47852">
        <ele>407</ele>
        <time>2012-06-20T18:40:40Z</time>
      </trkpt>
      <trkpt lat="46.33122" lon="2.47852">
        <ele>407</ele>
        <time>2012-06-20T18:40:44Z</time>
      </trkpt>
      <trkpt lat="46.33113" lon="2.47854">
        <ele>408</ele>
        <time>2012-06-20T18:40:47Z</time>
      </trkpt>
      <trkpt lat="46.33103" lon="2.47858">
        <ele>408</ele>
        <time>2012-06-20T18:40:50Z</time>
      </trkpt>
      <trkpt lat="46.33093" lon="2.47861">
        <ele>408</ele>
        <time>2012-06-20T18:40:53Z</time>
      </trkpt>
      <trkpt lat="46.33085" lon="2.47865">
        <ele>408</ele>
        <time>2012-06-20T18:40:56Z</time>
      </trkpt>
      <trkpt lat="46.33074" lon="2.4787">
        <ele>412</ele>
        <time>2012-06-20T18:41:00Z</time>
      </trkpt>
      <trkpt lat="46.33065" lon="2.47872">
        <ele>412</ele>
        <time>2012-06-20T18:41:04Z</time>
      </trkpt>
      <trkpt lat="46.33054" lon="2.47877">
        <ele>413</ele>
        <time>2012-06-20T18:41:08Z</time>
      </trkpt>
      <trkpt lat="46.33043" lon="2.47879">
        <ele>413</ele>
        <time>2012-06-20T18:41:12Z</time>
      </trkpt>
      <trkpt lat="46.33034" lon="2.47885">
        <ele>414</ele>
        <time>2012-06-20T18:41:17Z</time>
      </trkpt>
      <trkpt lat="46.33024" lon="2.47892">
        <ele>414</ele>
        <time>2012-06-20T18:41:22Z</time>
      </trkpt>
      <trkpt lat="46.33016" lon="2.47896">
        <ele>414</ele>
        <time>2012-06-20T18:41:26Z</time>
      </trkpt>
      <trkpt lat="46.33006" lon="2.47901">
        <ele>415</ele>
        <time>2012-06-20T18:41:30Z</time>
      </trkpt>
      <trkpt lat="46.32996" lon="2.47904">
        <ele>417</ele>
        <time>2012-06-20T18:41:34Z</time>
      </trkpt>
      <trkpt lat="46.32986" lon="2.47907">
        <ele>417</ele>
        <time>2012-06-20T18:41:38Z</time>
      </trkpt>
      <trkpt lat="46.32976" lon="2.47908">
        <ele>417</ele>
        <time>2012-06-20T18:41:42Z</time>
      </trkpt>
      <trkpt lat="46.32967" lon="2.4791">
        <ele>418</ele>
        <time>2012-06-20T18:41:45Z</time>
      </trkpt>
      <trkpt lat="46.32958" lon="2.47911">
        <ele>418</ele>
        <time>2012-06-20T18:41:48Z</time>
      </trkpt>
      <trkpt lat="46.32948" lon="2.47914">
        <ele>418</ele>
        <time>2012-06-20T18:41:51Z</time>
      </trkpt>
      <trkpt lat="46.32937" lon="2.47918">
        <ele>419</ele>
        <time>2012-06-20T18:41:54Z</time>
      </trkpt>
      <trkpt lat="46.32924" lon="2.47922">
        <ele>419</ele>
        <time>2012-06-20T18:41:57Z</time>
      </trkpt>
      <trkpt lat="46.32915" lon="2.47926">
        <ele>420</ele>
        <time>2012-06-20T18:41:59Z</time>
      </trkpt>
      <trkpt lat="46.32906" lon="2.4793">
        <ele>420</ele>
        <time>2012-06-20T18:42:01Z</time>
      </trkpt>
      <trkpt lat="46.32897" lon="2.47933">
        <ele>420</ele>
        <time>2012-06-20T18:42:03Z</time>
      </trkpt>
      <trkpt lat="46.32889" lon="2.47937">
        <ele>420</ele>
        <time>2012-06-20T18:42:05Z</time>
      </trkpt>
      <trkpt lat="46.32876" lon="2.4794">
        <ele>420</ele>
        <time>2012-06-20T18:42:08Z</time>
      </trkpt>
      <trkpt lat="46.32866" lon="2.47944">
        <ele>420</ele>
        <time>2012-06-20T18:42:10Z</time>
      </trkpt>
      <trkpt lat="46.32857" lon="2.47946">
        <ele>420</ele>
        <time>2012-06-20T18:42:12Z</time>
      </trkpt>
      <trkpt lat="46.32847" lon="2.47948">
        <ele>420</ele>
        <time>2012-06-20T18:42:14Z</time>
      </trkpt>
      <trkpt lat="46.32837" lon="2.47947">
        <ele>420</ele>
        <time>2012-06-20T18:42:16Z</time>
      </trkpt>
      <trkpt lat="46.32828" lon="2.47947">
        <ele>421</ele>
        <time>2012-06-20T18:42:18Z</time>
      </trkpt>
      <trkpt lat="46.32818" lon="2.47947">
        <ele>421</ele>
        <time>2012-06-20T18:42:20Z</time>
      </trkpt>
      <trkpt lat="46.32805" lon="2.47945">
        <ele>422</ele>
        <time>2012-06-20T18:42:23Z</time>
      </trkpt>
      <trkpt lat="46.32795" lon="2.47944">
        <ele>422</ele>
        <time>2012-06-20T18:42:25Z</time>
      </trkpt>
      <trkpt lat="46.32783" lon="2.47943">
        <ele>422</ele>
        <time>2012-06-20T18:42:28Z</time>
      </trkpt>
      <trkpt lat="46.32773" lon="2.4794">
        <ele>422</ele>
        <time>2012-06-20T18:42:30Z</time>
      </trkpt>
      <trkpt lat="46.32763" lon="2.47935">
        <ele>423</ele>
        <time>2012-06-20T18:42:32Z</time>
      </trkpt>
      <trkpt lat="46.32751" lon="2.47928">
        <ele>423</ele>
        <time>2012-06-20T18:42:35Z</time>
      </trkpt>
      <trkpt lat="46.32741" lon="2.47923">
        <ele>424</ele>
        <time>2012-06-20T18:42:37Z</time>
      </trkpt>
      <trkpt lat="46.32731" lon="2.4792">
        <ele>424</ele>
        <time>2012-06-20T18:42:39Z</time>
      </trkpt>
      <trkpt lat="46.32721" lon="2.47916">
        <ele>423</ele>
        <time>2012-06-20T18:42:41Z</time>
      </trkpt>
      <trkpt lat="46.32712" lon="2.47914">
        <ele>423</ele>
        <time>2012-06-20T18:42:43Z</time>
      </trkpt>
      <trkpt lat="46.327" lon="2.47911">
        <ele>423</ele>
        <time>2012-06-20T18:42:46Z</time>
      </trkpt>
      <trkpt lat="46.32691" lon="2.47908">
        <ele>423</ele>
        <time>2012-06-20T18:42:48Z</time>
      </trkpt>
      <trkpt lat="46.32679" lon="2.47905">
        <ele>424</ele>
        <time>2012-06-20T18:42:51Z</time>
      </trkpt>
      <trkpt lat="46.32668" lon="2.47903">
        <ele>424</ele>
        <time>2012-06-20T18:42:53Z</time>
      </trkpt>
      <trkpt lat="46.32657" lon="2.47898">
        <ele>426</ele>
        <time>2012-06-20T18:42:55Z</time>
      </trkpt>
      <trkpt lat="46.32647" lon="2.47896">
        <ele>426</ele>
        <time>2012-06-20T18:42:57Z</time>
      </trkpt>
      <trkpt lat="46.32637" lon="2.47892">
        <ele>426</ele>
        <time>2012-06-20T18:42:59Z</time>
      </trkpt>
      <trkpt lat="46.32626" lon="2.47888">
        <ele>426</ele>
        <time>2012-06-20T18:43:01Z</time>
      </trkpt>
      <trkpt lat="46.32615" lon="2.47886">
        <ele>426</ele>
        <time>2012-06-20T18:43:03Z</time>
      </trkpt>
      <trkpt lat="46.32606" lon="2.47883">
        <ele>426</ele>
        <time>2012-06-20T18:43:05Z</time>
      </trkpt>
      <trkpt lat="46.32596" lon="2.4788">
        <ele>426</ele>
        <time>2012-06-20T18:43:07Z</time>
      </trkpt>
      <trkpt lat="46.32586" lon="2.47878">
        <ele>426</ele>
        <time>2012-06-20T18:43:09Z</time>
      </trkpt>
      <trkpt lat="46.32576" lon="2.47875">
        <ele>428</ele>
        <time>2012-06-20T18:43:11Z</time>
      </trkpt>
      <trkpt lat="46.32566" lon="2.47872">
        <ele>428</ele>
        <time>2012-06-20T18:43:13Z</time>
      </trkpt>
      <trkpt lat="46.32557" lon="2.47869">
        <ele>428</ele>
        <time>2012-06-20T18:43:15Z</time>
      </trkpt>
      <trkpt lat="46.32544" lon="2.47867">
        <ele>428</ele>
        <time>2012-06-20T18:43:18Z</time>
      </trkpt>
      <trkpt lat="46.32535" lon="2.47864">
        <ele>428</ele>
        <time>2012-06-20T18:43:20Z</time>
      </trkpt>
      <trkpt lat="46.32525" lon="2.47862">
        <ele>429</ele>
        <time>2012-06-20T18:43:22Z</time>
      </trkpt>
      <trkpt lat="46.32513" lon="2.47859">
        <ele>429</ele>
        <time>2012-06-20T18:43:25Z</time>
      </trkpt>
      <trkpt lat="46.32499" lon="2.47855">
        <ele>431</ele>
        <time>2012-06-20T18:43:28Z</time>
      </trkpt>
      <trkpt lat="46.32489" lon="2.47851">
        <ele>431</ele>
        <time>2012-06-20T18:43:30Z</time>
      </trkpt>
      <trkpt lat="46.32479" lon="2.47847">
        <ele>431</ele>
        <time>2012-06-20T18:43:32Z</time>
      </trkpt>
      <trkpt lat="46.32468" lon="2.47843">
        <ele>431</ele>
        <time>2012-06-20T18:43:34Z</time>
      </trkpt>
      <trkpt lat="46.32458" lon="2.4784">
        <ele>432</ele>
        <time>2012-06-20T18:43:36Z</time>
      </trkpt>
      <trkpt lat="46.32448" lon="2.47836">
        <ele>432</ele>
        <time>2012-06-20T18:43:38Z</time>
      </trkpt>
      <trkpt lat="46.32438" lon="2.47831">
        <ele>433</ele>
        <time>2012-06-20T18:43:40Z</time>
      </trkpt>
      <trkpt lat="46.32429" lon="2.47826">
        <ele>433</ele>
        <time>2012-06-20T18:43:42Z</time>
      </trkpt>
      <trkpt lat="46.32419" lon="2.47821">
        <ele>433</ele>
        <time>2012-06-20T18:43:44Z</time>
      </trkpt>
      <trkpt lat="46.3241" lon="2.47814">
        <ele>434</ele>
        <time>2012-06-20T18:43:46Z</time>
      </trkpt>
      <trkpt lat="46.32401" lon="2.47807">
        <ele>434</ele>
        <time>2012-06-20T18:43:48Z</time>
      </trkpt>
      <trkpt lat="46.32391" lon="2.47799">
        <ele>434</ele>
        <time>2012-06-20T18:43:50Z</time>
      </trkpt>
      <trkpt lat="46.32383" lon="2.47793">
        <ele>434</ele>
        <time>2012-06-20T18:43:52Z</time>
      </trkpt>
      <trkpt lat="46.32375" lon="2.47787">
        <ele>434</ele>
        <time>2012-06-20T18:43:54Z</time>
      </trkpt>
      <trkpt lat="46.32364" lon="2.47777">
        <ele>434</ele>
        <time>2012-06-20T18:43:57Z</time>
      </trkpt>
      <trkpt lat="46.32353" lon="2.47768">
        <ele>434</ele>
        <time>2012-06-20T18:44:00Z</time>
      </trkpt>
      <trkpt lat="46.32342" lon="2.47759">
        <ele>434</ele>
        <time>2012-06-20T18:44:03Z</time>
      </trkpt>
      <trkpt lat="46.32331" lon="2.47752">
        <ele>434</ele>
        <time>2012-06-20T18:44:06Z</time>
      </trkpt>
      <trkpt lat="46.32322" lon="2.47745">
        <ele>434</ele>
        <time>2012-06-20T18:44:09Z</time>
      </trkpt>
      <trkpt lat="46.32313" lon="2.47738">
        <ele>433</ele>
        <time>2012-06-20T18:44:12Z</time>
      </trkpt>
      <trkpt lat="46.32302" lon="2.47737">
        <ele>433</ele>
        <time>2012-06-20T18:44:15Z</time>
      </trkpt>
      <trkpt lat="46.32301" lon="2.47751">
        <ele>433</ele>
        <time>2012-06-20T18:44:19Z</time>
      </trkpt>
      <trkpt lat="46.32307" lon="2.47765">
        <ele>433</ele>
        <time>2012-06-20T18:44:22Z</time>
      </trkpt>
      <trkpt lat="46.32312" lon="2.47781">
        <ele>433</ele>
        <time>2012-06-20T18:44:25Z</time>
      </trkpt>
      <trkpt lat="46.32316" lon="2.47798">
        <ele>433</ele>
        <time>2012-06-20T18:44:28Z</time>
      </trkpt>
      <trkpt lat="46.3232" lon="2.47815">
        <ele>434</ele>
        <time>2012-06-20T18:44:31Z</time>
      </trkpt>
      <trkpt lat="46.32325" lon="2.47831">
        <ele>434</ele>
        <time>2012-06-20T18:44:34Z</time>
      </trkpt>
      <trkpt lat="46.3233" lon="2.47848">
        <ele>434</ele>
        <time>2012-06-20T18:44:37Z</time>
      </trkpt>
      <trkpt lat="46.32335" lon="2.47866">
        <ele>433</ele>
        <time>2012-06-20T18:44:40Z</time>
      </trkpt>
      <trkpt lat="46.32338" lon="2.47878">
        <ele>433</ele>
        <time>2012-06-20T18:44:42Z</time>
      </trkpt>
      <trkpt lat="46.32343" lon="2.47897">
        <ele>433</ele>
        <time>2012-06-20T18:44:45Z</time>
      </trkpt>
      <trkpt lat="46.32347" lon="2.4791">
        <ele>433</ele>
        <time>2012-06-20T18:44:47Z</time>
      </trkpt>
      <trkpt lat="46.32352" lon="2.47923">
        <ele>433</ele>
        <time>2012-06-20T18:44:49Z</time>
      </trkpt>
      <trkpt lat="46.32357" lon="2.47935">
        <ele>433</ele>
        <time>2012-06-20T18:44:51Z</time>
      </trkpt>
      <trkpt lat="46.3236" lon="2.47948">
        <ele>433</ele>
        <time>2012-06-20T18:44:53Z</time>
      </trkpt>
      <trkpt lat="46.32365" lon="2.47961">
        <ele>433</ele>
        <time>2012-06-20T18:44:55Z</time>
      </trkpt>
      <trkpt lat="46.3237" lon="2.47975">
        <ele>433</ele>
        <time>2012-06-20T18:44:57Z</time>
      </trkpt>
      <trkpt lat="46.32375" lon="2.47989">
        <ele>433</ele>
        <time>2012-06-20T18:44:59Z</time>
      </trkpt>
      <trkpt lat="46.3238" lon="2.48004">
        <ele>433</ele>
        <time>2012-06-20T18:45:01Z</time>
      </trkpt>
      <trkpt lat="46.32385" lon="2.4802">
        <ele>433</ele>
        <time>2012-06-20T18:45:03Z</time>
      </trkpt>
      <trkpt lat="46.32392" lon="2.48036">
        <ele>433</ele>
        <time>2012-06-20T18:45:05Z</time>
      </trkpt>
      <trkpt lat="46.32398" lon="2.48054">
        <ele>433</ele>
        <time>2012-06-20T18:45:07Z</time>
      </trkpt>
      <trkpt lat="46.32403" lon="2.48072">
        <ele>433</ele>
        <time>2012-06-20T18:45:09Z</time>
      </trkpt>
      <trkpt lat="46.32407" lon="2.4809">
        <ele>433</ele>
        <time>2012-06-20T18:45:11Z</time>
      </trkpt>
      <trkpt lat="46.32411" lon="2.48108">
        <ele>433</ele>
        <time>2012-06-20T18:45:13Z</time>
      </trkpt>
      <trkpt lat="46.32416" lon="2.48127">
        <ele>433</ele>
        <time>2012-06-20T18:45:15Z</time>
      </trkpt>
      <trkpt lat="46.3242" lon="2.48146">
        <ele>433</ele>
        <time>2012-06-20T18:45:17Z</time>
      </trkpt>
      <trkpt lat="46.32424" lon="2.48164">
        <ele>433</ele>
        <time>2012-06-20T18:45:19Z</time>
      </trkpt>
      <trkpt lat="46.32433" lon="2.48212">
        <ele>433</ele>
        <time>2012-06-20T18:45:24Z</time>
      </trkpt>
      <trkpt lat="46.32439" lon="2.48231">
        <ele>433</ele>
        <time>2012-06-20T18:45:26Z</time>
      </trkpt>
      <trkpt lat="46.32444" lon="2.48248">
        <ele>433</ele>
        <time>2012-06-20T18:45:28Z</time>
      </trkpt>
      <trkpt lat="46.32449" lon="2.48266">
        <ele>433</ele>
        <time>2012-06-20T18:45:30Z</time>
      </trkpt>
      <trkpt lat="46.32454" lon="2.48284">
        <ele>433</ele>
        <time>2012-06-20T18:45:32Z</time>
      </trkpt>
      <trkpt lat="46.32459" lon="2.48302">
        <ele>433</ele>
        <time>2012-06-20T18:45:34Z</time>
      </trkpt>
      <trkpt lat="46.32464" lon="2.48321">
        <ele>433</ele>
        <time>2012-06-20T18:45:36Z</time>
      </trkpt>
      <trkpt lat="46.3247" lon="2.48339">
        <ele>433</ele>
        <time>2012-06-20T18:45:38Z</time>
      </trkpt>
      <trkpt lat="46.32475" lon="2.48357">
        <ele>433</ele>
        <time>2012-06-20T18:45:40Z</time>
      </trkpt>
      <trkpt lat="46.3248" lon="2.48374">
        <ele>433</ele>
        <time>2012-06-20T18:45:42Z</time>
      </trkpt>
      <trkpt lat="46.32484" lon="2.48391">
        <ele>433</ele>
        <time>2012-06-20T18:45:44Z</time>
      </trkpt>
      <trkpt lat="46.32487" lon="2.48408">
        <ele>433</ele>
        <time>2012-06-20T18:45:46Z</time>
      </trkpt>
      <trkpt lat="46.3249" lon="2.48425">
        <ele>433</ele>
        <time>2012-06-20T18:45:48Z</time>
      </trkpt>
      <trkpt lat="46.32493" lon="2.48441">
        <ele>433</ele>
        <time>2012-06-20T18:45:50Z</time>
      </trkpt>
      <trkpt lat="46.32497" lon="2.48458">
        <ele>433</ele>
        <time>2012-06-20T18:45:52Z</time>
      </trkpt>
      <trkpt lat="46.325" lon="2.48475">
        <ele>433</ele>
        <time>2012-06-20T18:45:54Z</time>
      </trkpt>
      <trkpt lat="46.32503" lon="2.48493">
        <ele>433</ele>
        <time>2012-06-20T18:45:56Z</time>
      </trkpt>
      <trkpt lat="46.32507" lon="2.48512">
        <ele>433</ele>
        <time>2012-06-20T18:45:58Z</time>
      </trkpt>
      <trkpt lat="46.3251" lon="2.48531">
        <ele>433</ele>
        <time>2012-06-20T18:46:00Z</time>
      </trkpt>
      <trkpt lat="46.32513" lon="2.48549">
        <ele>433</ele>
        <time>2012-06-20T18:46:02Z</time>
      </trkpt>
      <trkpt lat="46.32517" lon="2.48567">
        <ele>433</ele>
        <time>2012-06-20T18:46:04Z</time>
      </trkpt>
      <trkpt lat="46.3252" lon="2.48585">
        <ele>433</ele>
        <time>2012-06-20T18:46:06Z</time>
      </trkpt>
      <trkpt lat="46.32523" lon="2.48604">
        <ele>433</ele>
        <time>2012-06-20T18:46:08Z</time>
      </trkpt>
      <trkpt lat="46.32527" lon="2.48621">
        <ele>433</ele>
        <time>2012-06-20T18:46:10Z</time>
      </trkpt>
      <trkpt lat="46.32532" lon="2.48639">
        <ele>433</ele>
        <time>2012-06-20T18:46:12Z</time>
      </trkpt>
      <trkpt lat="46.32538" lon="2.48656">
        <ele>433</ele>
        <time>2012-06-20T18:46:14Z</time>
      </trkpt>
      <trkpt lat="46.32544" lon="2.48674">
        <ele>432</ele>
        <time>2012-06-20T18:46:16Z</time>
      </trkpt>
      <trkpt lat="46.3255" lon="2.48692">
        <ele>432</ele>
        <time>2012-06-20T18:46:18Z</time>
      </trkpt>
      <trkpt lat="46.32556" lon="2.48709">
        <ele>432</ele>
        <time>2012-06-20T18:46:20Z</time>
      </trkpt>
      <trkpt lat="46.32562" lon="2.48727">
        <ele>432</ele>
        <time>2012-06-20T18:46:22Z</time>
      </trkpt>
      <trkpt lat="46.32568" lon="2.48745">
        <ele>431</ele>
        <time>2012-06-20T18:46:24Z</time>
      </trkpt>
      <trkpt lat="46.32575" lon="2.48763">
        <ele>430</ele>
        <time>2012-06-20T18:46:26Z</time>
      </trkpt>
      <trkpt lat="46.32581" lon="2.48782">
        <ele>430</ele>
        <time>2012-06-20T18:46:28Z</time>
      </trkpt>
      <trkpt lat="46.32588" lon="2.48801">
        <ele>430</ele>
        <time>2012-06-20T18:46:30Z</time>
      </trkpt>
      <trkpt lat="46.32595" lon="2.4882">
        <ele>430</ele>
        <time>2012-06-20T18:46:32Z</time>
      </trkpt>
      <trkpt lat="46.32603" lon="2.48838">
        <ele>430</ele>
        <time>2012-06-20T18:46:34Z</time>
      </trkpt>
      <trkpt lat="46.3261" lon="2.48858">
        <ele>430</ele>
        <time>2012-06-20T18:46:36Z</time>
      </trkpt>
      <trkpt lat="46.32617" lon="2.48877">
        <ele>430</ele>
        <time>2012-06-20T18:46:38Z</time>
      </trkpt>
      <trkpt lat="46.32624" lon="2.48897">
        <ele>430</ele>
        <time>2012-06-20T18:46:40Z</time>
      </trkpt>
      <trkpt lat="46.32631" lon="2.48918">
        <ele>430</ele>
        <time>2012-06-20T18:46:42Z</time>
      </trkpt>
      <trkpt lat="46.32638" lon="2.48938">
        <ele>430</ele>
        <time>2012-06-20T18:46:44Z</time>
      </trkpt>
      <trkpt lat="46.32645" lon="2.48958">
        <ele>430</ele>
        <time>2012-06-20T18:46:46Z</time>
      </trkpt>
      <trkpt lat="46.32652" lon="2.48979">
        <ele>430</ele>
        <time>2012-06-20T18:46:48Z</time>
      </trkpt>
      <trkpt lat="46.32658" lon="2.48999">
        <ele>429</ele>
        <time>2012-06-20T18:46:50Z</time>
      </trkpt>
      <trkpt lat="46.32663" lon="2.49018">
        <ele>429</ele>
        <time>2012-06-20T18:46:52Z</time>
      </trkpt>
      <trkpt lat="46.32669" lon="2.49038">
        <ele>428</ele>
        <time>2012-06-20T18:46:54Z</time>
      </trkpt>
      <trkpt lat="46.32675" lon="2.49058">
        <ele>428</ele>
        <time>2012-06-20T18:46:56Z</time>
      </trkpt>
      <trkpt lat="46.3268" lon="2.49079">
        <ele>428</ele>
        <time>2012-06-20T18:46:58Z</time>
      </trkpt>
      <trkpt lat="46.32684" lon="2.49099">
        <ele>428</ele>
        <time>2012-06-20T18:47:00Z</time>
      </trkpt>
      <trkpt lat="46.32688" lon="2.49118">
        <ele>428</ele>
        <time>2012-06-20T18:47:02Z</time>
      </trkpt>
      <trkpt lat="46.32693" lon="2.49138">
        <ele>428</ele>
        <time>2012-06-20T18:47:04Z</time>
      </trkpt>
      <trkpt lat="46.32697" lon="2.49159">
        <ele>428</ele>
        <time>2012-06-20T18:47:06Z</time>
      </trkpt>
      <trkpt lat="46.32701" lon="2.49177">
        <ele>428</ele>
        <time>2012-06-20T18:47:08Z</time>
      </trkpt>
      <trkpt lat="46.32705" lon="2.49197">
        <ele>428</ele>
        <time>2012-06-20T18:47:10Z</time>
      </trkpt>
      <trkpt lat="46.3271" lon="2.49217">
        <ele>428</ele>
        <time>2012-06-20T18:47:12Z</time>
      </trkpt>
      <trkpt lat="46.32714" lon="2.49237">
        <ele>428</ele>
        <time>2012-06-20T18:47:14Z</time>
      </trkpt>
      <trkpt lat="46.32718" lon="2.49256">
        <ele>428</ele>
        <time>2012-06-20T18:47:16Z</time>
      </trkpt>
      <trkpt lat="46.32723" lon="2.49275">
        <ele>428</ele>
        <time>2012-06-20T18:47:18Z</time>
      </trkpt>
      <trkpt lat="46.32726" lon="2.49294">
        <ele>428</ele>
        <time>2012-06-20T18:47:20Z</time>
      </trkpt>
      <trkpt lat="46.32731" lon="2.49313">
        <ele>428</ele>
        <time>2012-06-20T18:47:22Z</time>
      </trkpt>
      <trkpt lat="46.32735" lon="2.49331">
        <ele>429</ele>
        <time>2012-06-20T18:47:24Z</time>
      </trkpt>
      <trkpt lat="46.32737" lon="2.49347">
        <ele>429</ele>
        <time>2012-06-20T18:47:26Z</time>
      </trkpt>
      <trkpt lat="46.32741" lon="2.49363">
        <ele>429</ele>
        <time>2012-06-20T18:47:28Z</time>
      </trkpt>
      <trkpt lat="46.32744" lon="2.4938">
        <ele>429</ele>
        <time>2012-06-20T18:47:30Z</time>
      </trkpt>
      <trkpt lat="46.32749" lon="2.49394">
        <ele>429</ele>
        <time>2012-06-20T18:47:32Z</time>
      </trkpt>
      <trkpt lat="46.32754" lon="2.49409">
        <ele>429</ele>
        <time>2012-06-20T18:47:34Z</time>
      </trkpt>
      <trkpt lat="46.32757" lon="2.49424">
        <ele>429</ele>
        <time>2012-06-20T18:47:36Z</time>
      </trkpt>
      <trkpt lat="46.3276" lon="2.49439">
        <ele>429</ele>
        <time>2012-06-20T18:47:38Z</time>
      </trkpt>
      <trkpt lat="46.32762" lon="2.49455">
        <ele>429</ele>
        <time>2012-06-20T18:47:40Z</time>
      </trkpt>
      <trkpt lat="46.32763" lon="2.49471">
        <ele>429</ele>
        <time>2012-06-20T18:47:42Z</time>
      </trkpt>
      <trkpt lat="46.32764" lon="2.49487">
        <ele>430</ele>
        <time>2012-06-20T18:47:44Z</time>
      </trkpt>
      <trkpt lat="46.32764" lon="2.49503">
        <ele>431</ele>
        <time>2012-06-20T18:47:46Z</time>
      </trkpt>
      <trkpt lat="46.32765" lon="2.49519">
        <ele>431</ele>
        <time>2012-06-20T18:47:48Z</time>
      </trkpt>
      <trkpt lat="46.32767" lon="2.49534">
        <ele>431</ele>
        <time>2012-06-20T18:47:50Z</time>
      </trkpt>
      <trkpt lat="46.32768" lon="2.49548">
        <ele>431</ele>
        <time>2012-06-20T18:47:52Z</time>
      </trkpt>
      <trkpt lat="46.32769" lon="2.49562">
        <ele>431</ele>
        <time>2012-06-20T18:47:54Z</time>
      </trkpt>
      <trkpt lat="46.3277" lon="2.49575">
        <ele>431</ele>
        <time>2012-06-20T18:47:56Z</time>
      </trkpt>
      <trkpt lat="46.32772" lon="2.49593">
        <ele>431</ele>
        <time>2012-06-20T18:47:59Z</time>
      </trkpt>
      <trkpt lat="46.32775" lon="2.49606">
        <ele>431</ele>
        <time>2012-06-20T18:48:01Z</time>
      </trkpt>
      <trkpt lat="46.32777" lon="2.49622">
        <ele>431</ele>
        <time>2012-06-20T18:48:04Z</time>
      </trkpt>
      <trkpt lat="46.32779" lon="2.49638">
        <ele>431</ele>
        <time>2012-06-20T18:48:07Z</time>
      </trkpt>
      <trkpt lat="46.32781" lon="2.49653">
        <ele>431</ele>
        <time>2012-06-20T18:48:10Z</time>
      </trkpt>
      <trkpt lat="46.32782" lon="2.4967">
        <ele>430</ele>
        <time>2012-06-20T18:48:14Z</time>
      </trkpt>
      <trkpt lat="46.32784" lon="2.49686">
        <ele>430</ele>
        <time>2012-06-20T18:48:18Z</time>
      </trkpt>
      <trkpt lat="46.32787" lon="2.49701">
        <ele>430</ele>
        <time>2012-06-20T18:48:22Z</time>
      </trkpt>
      <trkpt lat="46.32788" lon="2.49715">
        <ele>430</ele>
        <time>2012-06-20T18:48:25Z</time>
      </trkpt>
      <trkpt lat="46.32788" lon="2.49729">
        <ele>430</ele>
        <time>2012-06-20T18:48:29Z</time>
      </trkpt>
      <trkpt lat="46.32788" lon="2.49742">
        <ele>430</ele>
        <time>2012-06-20T18:50:07Z</time>
      </trkpt>
      <trkpt lat="46.32789" lon="2.49759">
        <ele>429</ele>
        <time>2012-06-20T18:50:11Z</time>
      </trkpt>
      <trkpt lat="46.32789" lon="2.49776">
        <ele>429</ele>
        <time>2012-06-20T18:50:15Z</time>
      </trkpt>
      <trkpt lat="46.32788" lon="2.4979">
        <ele>429</ele>
        <time>2012-06-20T18:50:18Z</time>
      </trkpt>
      <trkpt lat="46.32786" lon="2.49805">
        <ele>429</ele>
        <time>2012-06-20T18:50:21Z</time>
      </trkpt>
      <trkpt lat="46.32787" lon="2.49822">
        <ele>429</ele>
        <time>2012-06-20T18:50:24Z</time>
      </trkpt>
      <trkpt lat="46.32788" lon="2.49841">
        <ele>427</ele>
        <time>2012-06-20T18:50:27Z</time>
      </trkpt>
      <trkpt lat="46.32789" lon="2.49855">
        <ele>426</ele>
        <time>2012-06-20T18:50:29Z</time>
      </trkpt>
      <trkpt lat="46.3279" lon="2.49868">
        <ele>426</ele>
        <time>2012-06-20T18:50:31Z</time>
      </trkpt>
      <trkpt lat="46.3279" lon="2.49887">
        <ele>426</ele>
        <time>2012-06-20T18:50:34Z</time>
      </trkpt>
      <trkpt lat="46.3279" lon="2.49901">
        <ele>426</ele>
        <time>2012-06-20T18:50:36Z</time>
      </trkpt>
      <trkpt lat="46.32791" lon="2.49914">
        <ele>425</ele>
        <time>2012-06-20T18:50:38Z</time>
      </trkpt>
      <trkpt lat="46.32792" lon="2.49928">
        <ele>424</ele>
        <time>2012-06-20T18:50:40Z</time>
      </trkpt>
      <trkpt lat="46.32793" lon="2.49943">
        <ele>423</ele>
        <time>2012-06-20T18:50:42Z</time>
      </trkpt>
      <trkpt lat="46.32795" lon="2.49956">
        <ele>423</ele>
        <time>2012-06-20T18:50:44Z</time>
      </trkpt>
      <trkpt lat="46.32796" lon="2.4997">
        <ele>423</ele>
        <time>2012-06-20T18:50:46Z</time>
      </trkpt>
      <trkpt lat="46.32797" lon="2.49984">
        <ele>423</ele>
        <time>2012-06-20T18:50:48Z</time>
      </trkpt>
      <trkpt lat="46.32798" lon="2.49998">
        <ele>423</ele>
        <time>2012-06-20T18:50:50Z</time>
      </trkpt>
      <trkpt lat="46.328" lon="2.50011">
        <ele>422</ele>
        <time>2012-06-20T18:50:52Z</time>
      </trkpt>
      <trkpt lat="46.32803" lon="2.50031">
        <ele>422</ele>
        <time>2012-06-20T18:50:55Z</time>
      </trkpt>
      <trkpt lat="46.32805" lon="2.50044">
        <ele>422</ele>
        <time>2012-06-20T18:50:57Z</time>
      </trkpt>
      <trkpt lat="46.32807" lon="2.50058">
        <ele>422</ele>
        <time>2012-06-20T18:50:59Z</time>
      </trkpt>
      <trkpt lat="46.3281" lon="2.50078">
        <ele>422</ele>
        <time>2012-06-20T18:51:02Z</time>
      </trkpt>
      <trkpt lat="46.32812" lon="2.50091">
        <ele>421</ele>
        <time>2012-06-20T18:51:04Z</time>
      </trkpt>
      <trkpt lat="46.32813" lon="2.50106">
        <ele>421</ele>
        <time>2012-06-20T18:51:06Z</time>
      </trkpt>
      <trkpt lat="46.32815" lon="2.50122">
        <ele>421</ele>
        <time>2012-06-20T18:51:08Z</time>
      </trkpt>
      <trkpt lat="46.32817" lon="2.50136">
        <ele>421</ele>
        <time>2012-06-20T18:51:10Z</time>
      </trkpt>
      <trkpt lat="46.32819" lon="2.50152">
        <ele>421</ele>
        <time>2012-06-20T18:51:12Z</time>
      </trkpt>
      <trkpt lat="46.32821" lon="2.50168">
        <ele>420</ele>
        <time>2012-06-20T18:51:14Z</time>
      </trkpt>
      <trkpt lat="46.32823" lon="2.50184">
        <ele>420</ele>
        <time>2012-06-20T18:51:16Z</time>
      </trkpt>
      <trkpt lat="46.32825" lon="2.50201">
        <ele>419</ele>
        <time>2012-06-20T18:51:18Z</time>
      </trkpt>
      <trkpt lat="46.32827" lon="2.50217">
        <ele>419</ele>
        <time>2012-06-20T18:51:20Z</time>
      </trkpt>
      <trkpt lat="46.32829" lon="2.50235">
        <ele>419</ele>
        <time>2012-06-20T18:51:22Z</time>
      </trkpt>
      <trkpt lat="46.32831" lon="2.50253">
        <ele>419</ele>
        <time>2012-06-20T18:51:24Z</time>
      </trkpt>
      <trkpt lat="46.32835" lon="2.50272">
        <ele>417</ele>
        <time>2012-06-20T18:51:26Z</time>
      </trkpt>
      <trkpt lat="46.32836" lon="2.5029">
        <ele>417</ele>
        <time>2012-06-20T18:51:28Z</time>
      </trkpt>
      <trkpt lat="46.32837" lon="2.50308">
        <ele>416</ele>
        <time>2012-06-20T18:51:30Z</time>
      </trkpt>
      <trkpt lat="46.32841" lon="2.50326">
        <ele>416</ele>
        <time>2012-06-20T18:51:32Z</time>
      </trkpt>
      <trkpt lat="46.32843" lon="2.50343">
        <ele>415</ele>
        <time>2012-06-20T18:51:34Z</time>
      </trkpt>
      <trkpt lat="46.32848" lon="2.50362">
        <ele>414</ele>
        <time>2012-06-20T18:51:36Z</time>
      </trkpt>
      <trkpt lat="46.32853" lon="2.50379">
        <ele>414</ele>
        <time>2012-06-20T18:51:38Z</time>
      </trkpt>
      <trkpt lat="46.32859" lon="2.50396">
        <ele>414</ele>
        <time>2012-06-20T18:51:40Z</time>
      </trkpt>
      <trkpt lat="46.32864" lon="2.50414">
        <ele>413</ele>
        <time>2012-06-20T18:51:42Z</time>
      </trkpt>
      <trkpt lat="46.3287" lon="2.50431">
        <ele>412</ele>
        <time>2012-06-20T18:51:44Z</time>
      </trkpt>
      <trkpt lat="46.32875" lon="2.50448">
        <ele>412</ele>
        <time>2012-06-20T18:51:46Z</time>
      </trkpt>
      <trkpt lat="46.3288" lon="2.50465">
        <ele>411</ele>
        <time>2012-06-20T18:51:48Z</time>
      </trkpt>
      <trkpt lat="46.32886" lon="2.50481">
        <ele>411</ele>
        <time>2012-06-20T18:51:50Z</time>
      </trkpt>
      <trkpt lat="46.32894" lon="2.50496">
        <ele>411</ele>
        <time>2012-06-20T18:51:52Z</time>
      </trkpt>
      <trkpt lat="46.32901" lon="2.50511">
        <ele>410</ele>
        <time>2012-06-20T18:51:54Z</time>
      </trkpt>
      <trkpt lat="46.32908" lon="2.50528">
        <ele>410</ele>
        <time>2012-06-20T18:51:56Z</time>
      </trkpt>
      <trkpt lat="46.32915" lon="2.50544">
        <ele>410</ele>
        <time>2012-06-20T18:51:58Z</time>
      </trkpt>
      <trkpt lat="46.32923" lon="2.50559">
        <ele>408</ele>
        <time>2012-06-20T18:52:00Z</time>
      </trkpt>
      <trkpt lat="46.32932" lon="2.50575">
        <ele>408</ele>
        <time>2012-06-20T18:52:02Z</time>
      </trkpt>
      <trkpt lat="46.3294" lon="2.5059">
        <ele>407</ele>
        <time>2012-06-20T18:52:04Z</time>
      </trkpt>
      <trkpt lat="46.32947" lon="2.50608">
        <ele>407</ele>
        <time>2012-06-20T18:52:06Z</time>
      </trkpt>
      <trkpt lat="46.32952" lon="2.50626">
        <ele>406</ele>
        <time>2012-06-20T18:52:08Z</time>
      </trkpt>
      <trkpt lat="46.32954" lon="2.50644">
        <ele>406</ele>
        <time>2012-06-20T18:52:10Z</time>
      </trkpt>
      <trkpt lat="46.32953" lon="2.50662">
        <ele>406</ele>
        <time>2012-06-20T18:52:12Z</time>
      </trkpt>
      <trkpt lat="46.32948" lon="2.50676">
        <ele>405</ele>
        <time>2012-06-20T18:52:14Z</time>
      </trkpt>
      <trkpt lat="46.32938" lon="2.50686">
        <ele>405</ele>
        <time>2012-06-20T18:52:16Z</time>
      </trkpt>
      <trkpt lat="46.32929" lon="2.50696">
        <ele>405</ele>
        <time>2012-06-20T18:52:18Z</time>
      </trkpt>
      <trkpt lat="46.32922" lon="2.50707">
        <ele>405</ele>
        <time>2012-06-20T18:52:20Z</time>
      </trkpt>
      <trkpt lat="46.32932" lon="2.50716">
        <ele>405</ele>
        <time>2012-06-20T18:52:24Z</time>
      </trkpt>
      <trkpt lat="46.32943" lon="2.50714">
        <ele>405</ele>
        <time>2012-06-20T18:52:26Z</time>
      </trkpt>
      <trkpt lat="46.32956" lon="2.50705">
        <ele>405</ele>
        <time>2012-06-20T18:52:28Z</time>
      </trkpt>
      <trkpt lat="46.3296" lon="2.50693">
        <ele>405</ele>
        <time>2012-06-20T18:52:30Z</time>
      </trkpt>
      <trkpt lat="46.3296" lon="2.50679">
        <ele>405</ele>
        <time>2012-06-20T18:52:32Z</time>
      </trkpt>
      <trkpt lat="46.32947" lon="2.50678">
        <ele>405</ele>
        <time>2012-06-20T18:52:35Z</time>
      </trkpt>
      <trkpt lat="46.32935" lon="2.50682">
        <ele>405</ele>
        <time>2012-06-20T18:52:38Z</time>
      </trkpt>
      <trkpt lat="46.32924" lon="2.50691">
        <ele>405</ele>
        <time>2012-06-20T18:52:41Z</time>
      </trkpt>
      <trkpt lat="46.32914" lon="2.507">
        <ele>407</ele>
        <time>2012-06-20T18:52:44Z</time>
      </trkpt>
      <trkpt lat="46.32903" lon="2.50711">
        <ele>407</ele>
        <time>2012-06-20T18:52:47Z</time>
      </trkpt>
      <trkpt lat="46.32894" lon="2.50716">
        <ele>408</ele>
        <time>2012-06-20T18:52:50Z</time>
      </trkpt>
      <trkpt lat="46.32891" lon="2.50732">
        <ele>407</ele>
        <time>2012-06-20T18:53:05Z</time>
      </trkpt>
      <trkpt lat="46.32891" lon="2.50745">
        <ele>407</ele>
        <time>2012-06-20T18:53:08Z</time>
      </trkpt>
      <trkpt lat="46.32889" lon="2.5076">
        <ele>407</ele>
        <time>2012-06-20T18:53:11Z</time>
      </trkpt>
      <trkpt lat="46.32888" lon="2.50776">
        <ele>406</ele>
        <time>2012-06-20T18:53:14Z</time>
      </trkpt>
      <trkpt lat="46.32889" lon="2.50794">
        <ele>406</ele>
        <time>2012-06-20T18:53:17Z</time>
      </trkpt>
      <trkpt lat="46.32891" lon="2.50809">
        <ele>406</ele>
        <time>2012-06-20T18:53:20Z</time>
      </trkpt>
      <trkpt lat="46.32891" lon="2.50825">
        <ele>406</ele>
        <time>2012-06-20T18:53:23Z</time>
      </trkpt>
      <trkpt lat="46.32899" lon="2.50837">
        <ele>404</ele>
        <time>2012-06-20T18:53:26Z</time>
      </trkpt>
      <trkpt lat="46.32907" lon="2.50843">
        <ele>404</ele>
        <time>2012-06-20T18:53:28Z</time>
      </trkpt>
      <trkpt lat="46.32915" lon="2.50855">
        <ele>404</ele>
        <time>2012-06-20T18:53:30Z</time>
      </trkpt>
      <trkpt lat="46.32921" lon="2.50872">
        <ele>401</ele>
        <time>2012-06-20T18:53:32Z</time>
      </trkpt>
      <trkpt lat="46.32926" lon="2.50889">
        <ele>401</ele>
        <time>2012-06-20T18:53:34Z</time>
      </trkpt>
      <trkpt lat="46.32932" lon="2.50903">
        <ele>400</ele>
        <time>2012-06-20T18:53:36Z</time>
      </trkpt>
      <trkpt lat="46.3293" lon="2.50921">
        <ele>399</ele>
        <time>2012-06-20T18:53:39Z</time>
      </trkpt>
      <trkpt lat="46.32922" lon="2.50934">
        <ele>399</ele>
        <time>2012-06-20T18:53:42Z</time>
      </trkpt>
      <trkpt lat="46.32913" lon="2.50949">
        <ele>400</ele>
        <time>2012-06-20T18:53:45Z</time>
      </trkpt>
      <trkpt lat="46.32905" lon="2.50958">
        <ele>400</ele>
        <time>2012-06-20T18:53:47Z</time>
      </trkpt>
      <trkpt lat="46.32897" lon="2.50964">
        <ele>400</ele>
        <time>2012-06-20T18:53:49Z</time>
      </trkpt>
      <trkpt lat="46.32887" lon="2.5097">
        <ele>400</ele>
        <time>2012-06-20T18:53:51Z</time>
      </trkpt>
      <trkpt lat="46.32879" lon="2.50978">
        <ele>400</ele>
        <time>2012-06-20T18:53:53Z</time>
      </trkpt>
      <trkpt lat="46.3287" lon="2.50984">
        <ele>401</ele>
        <time>2012-06-20T18:53:55Z</time>
      </trkpt>
      <trkpt lat="46.32861" lon="2.50991">
        <ele>401</ele>
        <time>2012-06-20T18:53:57Z</time>
      </trkpt>
      <trkpt lat="46.3285" lon="2.51001">
        <ele>401</ele>
        <time>2012-06-20T18:54:00Z</time>
      </trkpt>
      <trkpt lat="46.3284" lon="2.5101">
        <ele>401</ele>
        <time>2012-06-20T18:54:03Z</time>
      </trkpt>
      <trkpt lat="46.3283" lon="2.51019">
        <ele>404</ele>
        <time>2012-06-20T18:54:07Z</time>
      </trkpt>
      <trkpt lat="46.32828" lon="2.51035">
        <ele>405</ele>
        <time>2012-06-20T18:54:11Z</time>
      </trkpt>
      <trkpt lat="46.3283" lon="2.51049">
        <ele>405</ele>
        <time>2012-06-20T18:54:14Z</time>
      </trkpt>
      <trkpt lat="46.3282" lon="2.51048">
        <ele>405</ele>
        <time>2012-06-20T18:54:21Z</time>
      </trkpt>
      <trkpt lat="46.32813" lon="2.51038">
        <ele>405</ele>
        <time>2012-06-20T18:54:24Z</time>
      </trkpt>
      <trkpt lat="46.32805" lon="2.51031">
        <ele>405</ele>
        <time>2012-06-20T18:54:28Z</time>
      </trkpt>
      <trkpt lat="46.32797" lon="2.51022">
        <ele>405</ele>
        <time>2012-06-20T18:54:33Z</time>
      </trkpt>
      <trkpt lat="46.32788" lon="2.51016">
        <ele>406</ele>
        <time>2012-06-20T18:54:41Z</time>
      </trkpt>
      <trkpt lat="46.32779" lon="2.51014">
        <ele>406</ele>
        <time>2012-06-20T18:54:48Z</time>
      </trkpt>
    </trkseg>
  </trk>
</gpx>